<?xml version="1.0" encoding="UTF-8" standalone="no" ?>
<gpx xmlns="http://www.topografix.com/GPX/1/1" xmlns:xsi="http://www.w3.org/2001/XMLSchema-instance" xsi:schemaLocation="http://www.topografix.com/GPX/1/1 http://www.topografix.com/GPX/1/1/gpx.xsd" version="1.1" creator="VisuGPX - https://www.visugpx.com">
  <metadata>
    <name>83-cd-2011-20-11-Cotignac : Un p\'tit tour avec le Petit Poucet</name>
    <desc><![CDATA[Cotignac : Un p\'tit tour avec le Petit Poucet]]></desc>
  </metadata>
  <trk>
    <name><![CDATA[NOV-20-11 15:28:24]]></name>
    <trkseg>
      <trkpt lat="43.52373" lon="6.15723">
        <ele>165.96</ele>
        <time>2011-11-20T08:33:53Z</time>
      </trkpt>
      <trkpt lat="43.52373" lon="6.15723">
        <ele>168.37</ele>
        <time>2011-11-20T08:34:26Z</time>
      </trkpt>
      <trkpt lat="43.52374" lon="6.15721">
        <ele>166.45</ele>
        <time>2011-11-20T08:34:40Z</time>
      </trkpt>
      <trkpt lat="43.52377" lon="6.15725">
        <ele>166.93</ele>
        <time>2011-11-20T08:35:28Z</time>
      </trkpt>
      <trkpt lat="43.52377" lon="6.15725">
        <ele>166.45</ele>
        <time>2011-11-20T08:35:47Z</time>
      </trkpt>
      <trkpt lat="43.52376" lon="6.15726">
        <ele>167.89</ele>
        <time>2011-11-20T08:35:52Z</time>
      </trkpt>
      <trkpt lat="43.52374" lon="6.15731">
        <ele>168.37</ele>
        <time>2011-11-20T08:35:55Z</time>
      </trkpt>
      <trkpt lat="43.52371" lon="6.15745">
        <ele>166.45</ele>
        <time>2011-11-20T08:36:10Z</time>
      </trkpt>
      <trkpt lat="43.5237" lon="6.15748">
        <ele>167.41</ele>
        <time>2011-11-20T08:36:13Z</time>
      </trkpt>
      <trkpt lat="43.52364" lon="6.15765">
        <ele>169.33</ele>
        <time>2011-11-20T08:36:26Z</time>
      </trkpt>
      <trkpt lat="43.52363" lon="6.15768">
        <ele>169.33</ele>
        <time>2011-11-20T08:36:29Z</time>
      </trkpt>
      <trkpt lat="43.52356" lon="6.15784">
        <ele>168.85</ele>
        <time>2011-11-20T08:36:43Z</time>
      </trkpt>
      <trkpt lat="43.52354" lon="6.15787">
        <ele>167.89</ele>
        <time>2011-11-20T08:36:48Z</time>
      </trkpt>
      <trkpt lat="43.52349" lon="6.15786">
        <ele>168.37</ele>
        <time>2011-11-20T08:36:54Z</time>
      </trkpt>
      <trkpt lat="43.52342" lon="6.15796">
        <ele>169.81</ele>
        <time>2011-11-20T08:37:06Z</time>
      </trkpt>
      <trkpt lat="43.52341" lon="6.158">
        <ele>170.77</ele>
        <time>2011-11-20T08:37:09Z</time>
      </trkpt>
      <trkpt lat="43.52337" lon="6.1582">
        <ele>170.77</ele>
        <time>2011-11-20T08:37:24Z</time>
      </trkpt>
      <trkpt lat="43.52334" lon="6.15824">
        <ele>169.33</ele>
        <time>2011-11-20T08:37:29Z</time>
      </trkpt>
      <trkpt lat="43.52329" lon="6.15836">
        <ele>169.33</ele>
        <time>2011-11-20T08:37:41Z</time>
      </trkpt>
      <trkpt lat="43.52323" lon="6.15847">
        <ele>168.85</ele>
        <time>2011-11-20T08:37:56Z</time>
      </trkpt>
      <trkpt lat="43.52317" lon="6.15859">
        <ele>167.89</ele>
        <time>2011-11-20T08:38:07Z</time>
      </trkpt>
      <trkpt lat="43.5231" lon="6.1587">
        <ele>167.41</ele>
        <time>2011-11-20T08:38:17Z</time>
      </trkpt>
      <trkpt lat="43.52306" lon="6.15885">
        <ele>166.93</ele>
        <time>2011-11-20T08:38:28Z</time>
      </trkpt>
      <trkpt lat="43.52301" lon="6.15904">
        <ele>166.45</ele>
        <time>2011-11-20T08:38:41Z</time>
      </trkpt>
      <trkpt lat="43.52299" lon="6.15916">
        <ele>169.33</ele>
        <time>2011-11-20T08:38:49Z</time>
      </trkpt>
      <trkpt lat="43.52298" lon="6.15917">
        <ele>169.81</ele>
        <time>2011-11-20T08:38:50Z</time>
      </trkpt>
      <trkpt lat="43.52297" lon="6.1592">
        <ele>167.89</ele>
        <time>2011-11-20T08:38:53Z</time>
      </trkpt>
      <trkpt lat="43.52294" lon="6.15928">
        <ele>165</ele>
        <time>2011-11-20T08:38:58Z</time>
      </trkpt>
      <trkpt lat="43.52294" lon="6.15931">
        <ele>167.41</ele>
        <time>2011-11-20T08:39:00Z</time>
      </trkpt>
      <trkpt lat="43.52289" lon="6.15948">
        <ele>170.77</ele>
        <time>2011-11-20T08:39:11Z</time>
      </trkpt>
      <trkpt lat="43.52289" lon="6.15949">
        <ele>170.29</ele>
        <time>2011-11-20T08:39:12Z</time>
      </trkpt>
      <trkpt lat="43.52288" lon="6.15952">
        <ele>167.89</ele>
        <time>2011-11-20T08:39:14Z</time>
      </trkpt>
      <trkpt lat="43.52282" lon="6.15971">
        <ele>167.41</ele>
        <time>2011-11-20T08:39:27Z</time>
      </trkpt>
      <trkpt lat="43.52279" lon="6.15991">
        <ele>167.41</ele>
        <time>2011-11-20T08:39:40Z</time>
      </trkpt>
      <trkpt lat="43.52278" lon="6.15993">
        <ele>171.25</ele>
        <time>2011-11-20T08:39:42Z</time>
      </trkpt>
      <trkpt lat="43.52277" lon="6.15996">
        <ele>167.89</ele>
        <time>2011-11-20T08:39:44Z</time>
      </trkpt>
      <trkpt lat="43.52276" lon="6.16002">
        <ele>172.69</ele>
        <time>2011-11-20T08:39:48Z</time>
      </trkpt>
      <trkpt lat="43.52276" lon="6.16004">
        <ele>172.69</ele>
        <time>2011-11-20T08:39:49Z</time>
      </trkpt>
      <trkpt lat="43.52275" lon="6.16006">
        <ele>168.85</ele>
        <time>2011-11-20T08:39:51Z</time>
      </trkpt>
      <trkpt lat="43.52274" lon="6.16009">
        <ele>167.89</ele>
        <time>2011-11-20T08:39:53Z</time>
      </trkpt>
      <trkpt lat="43.52273" lon="6.16013">
        <ele>171.25</ele>
        <time>2011-11-20T08:39:55Z</time>
      </trkpt>
      <trkpt lat="43.52273" lon="6.16015">
        <ele>169.33</ele>
        <time>2011-11-20T08:39:56Z</time>
      </trkpt>
      <trkpt lat="43.52272" lon="6.16024">
        <ele>167.41</ele>
        <time>2011-11-20T08:40:01Z</time>
      </trkpt>
      <trkpt lat="43.52272" lon="6.16027">
        <ele>170.29</ele>
        <time>2011-11-20T08:40:03Z</time>
      </trkpt>
      <trkpt lat="43.52271" lon="6.16028">
        <ele>170.29</ele>
        <time>2011-11-20T08:40:04Z</time>
      </trkpt>
      <trkpt lat="43.5227" lon="6.16036">
        <ele>166.93</ele>
        <time>2011-11-20T08:40:09Z</time>
      </trkpt>
      <trkpt lat="43.52271" lon="6.1604">
        <ele>171.25</ele>
        <time>2011-11-20T08:40:12Z</time>
      </trkpt>
      <trkpt lat="43.52273" lon="6.16046">
        <ele>171.73</ele>
        <time>2011-11-20T08:40:17Z</time>
      </trkpt>
      <trkpt lat="43.52277" lon="6.16052">
        <ele>173.66</ele>
        <time>2011-11-20T08:40:23Z</time>
      </trkpt>
      <trkpt lat="43.52279" lon="6.16054">
        <ele>170.77</ele>
        <time>2011-11-20T08:40:25Z</time>
      </trkpt>
      <trkpt lat="43.52281" lon="6.16059">
        <ele>174.62</ele>
        <time>2011-11-20T08:40:29Z</time>
      </trkpt>
      <trkpt lat="43.52284" lon="6.16063">
        <ele>170.77</ele>
        <time>2011-11-20T08:40:32Z</time>
      </trkpt>
      <trkpt lat="43.52287" lon="6.16068">
        <ele>174.62</ele>
        <time>2011-11-20T08:40:37Z</time>
      </trkpt>
      <trkpt lat="43.52287" lon="6.1607">
        <ele>173.66</ele>
        <time>2011-11-20T08:40:38Z</time>
      </trkpt>
      <trkpt lat="43.52288" lon="6.16071">
        <ele>170.29</ele>
        <time>2011-11-20T08:40:39Z</time>
      </trkpt>
      <trkpt lat="43.52289" lon="6.16073">
        <ele>171.73</ele>
        <time>2011-11-20T08:40:40Z</time>
      </trkpt>
      <trkpt lat="43.52291" lon="6.16082">
        <ele>169.33</ele>
        <time>2011-11-20T08:40:47Z</time>
      </trkpt>
      <trkpt lat="43.52294" lon="6.16088">
        <ele>173.17</ele>
        <time>2011-11-20T08:40:51Z</time>
      </trkpt>
      <trkpt lat="43.52297" lon="6.16096">
        <ele>172.21</ele>
        <time>2011-11-20T08:40:56Z</time>
      </trkpt>
      <trkpt lat="43.52299" lon="6.16106">
        <ele>173.17</ele>
        <time>2011-11-20T08:41:02Z</time>
      </trkpt>
      <trkpt lat="43.523" lon="6.16117">
        <ele>168.85</ele>
        <time>2011-11-20T08:41:08Z</time>
      </trkpt>
      <trkpt lat="43.52301" lon="6.16124">
        <ele>170.77</ele>
        <time>2011-11-20T08:41:11Z</time>
      </trkpt>
      <trkpt lat="43.52301" lon="6.16127">
        <ele>168.85</ele>
        <time>2011-11-20T08:41:13Z</time>
      </trkpt>
      <trkpt lat="43.52302" lon="6.16149">
        <ele>169.81</ele>
        <time>2011-11-20T08:41:27Z</time>
      </trkpt>
      <trkpt lat="43.52302" lon="6.16171">
        <ele>169.81</ele>
        <time>2011-11-20T08:41:40Z</time>
      </trkpt>
      <trkpt lat="43.52302" lon="6.16178">
        <ele>168.37</ele>
        <time>2011-11-20T08:41:44Z</time>
      </trkpt>
      <trkpt lat="43.52303" lon="6.16181">
        <ele>168.85</ele>
        <time>2011-11-20T08:41:46Z</time>
      </trkpt>
      <trkpt lat="43.52304" lon="6.16188">
        <ele>166.93</ele>
        <time>2011-11-20T08:41:51Z</time>
      </trkpt>
      <trkpt lat="43.52308" lon="6.16204">
        <ele>167.89</ele>
        <time>2011-11-20T08:42:01Z</time>
      </trkpt>
      <trkpt lat="43.52313" lon="6.16223">
        <ele>168.85</ele>
        <time>2011-11-20T08:42:13Z</time>
      </trkpt>
      <trkpt lat="43.52316" lon="6.16229">
        <ele>168.85</ele>
        <time>2011-11-20T08:42:19Z</time>
      </trkpt>
      <trkpt lat="43.52319" lon="6.16246">
        <ele>168.85</ele>
        <time>2011-11-20T08:42:29Z</time>
      </trkpt>
      <trkpt lat="43.5232" lon="6.16249">
        <ele>171.25</ele>
        <time>2011-11-20T08:42:31Z</time>
      </trkpt>
      <trkpt lat="43.52321" lon="6.16252">
        <ele>169.81</ele>
        <time>2011-11-20T08:42:33Z</time>
      </trkpt>
      <trkpt lat="43.52326" lon="6.16271">
        <ele>167.89</ele>
        <time>2011-11-20T08:42:45Z</time>
      </trkpt>
      <trkpt lat="43.52329" lon="6.16277">
        <ele>168.37</ele>
        <time>2011-11-20T08:42:50Z</time>
      </trkpt>
      <trkpt lat="43.52333" lon="6.16281">
        <ele>170.29</ele>
        <time>2011-11-20T08:42:53Z</time>
      </trkpt>
      <trkpt lat="43.52337" lon="6.16283">
        <ele>173.17</ele>
        <time>2011-11-20T08:42:59Z</time>
      </trkpt>
      <trkpt lat="43.52338" lon="6.16283">
        <ele>170.77</ele>
        <time>2011-11-20T08:43:00Z</time>
      </trkpt>
      <trkpt lat="43.52344" lon="6.16286">
        <ele>172.21</ele>
        <time>2011-11-20T08:43:05Z</time>
      </trkpt>
      <trkpt lat="43.52348" lon="6.16289">
        <ele>168.37</ele>
        <time>2011-11-20T08:43:08Z</time>
      </trkpt>
      <trkpt lat="43.52349" lon="6.16292">
        <ele>173.17</ele>
        <time>2011-11-20T08:43:10Z</time>
      </trkpt>
      <trkpt lat="43.52353" lon="6.16296">
        <ele>170.77</ele>
        <time>2011-11-20T08:43:14Z</time>
      </trkpt>
      <trkpt lat="43.52354" lon="6.16298">
        <ele>171.73</ele>
        <time>2011-11-20T08:43:16Z</time>
      </trkpt>
      <trkpt lat="43.52357" lon="6.16305">
        <ele>171.73</ele>
        <time>2011-11-20T08:43:25Z</time>
      </trkpt>
      <trkpt lat="43.52363" lon="6.16321">
        <ele>177.02</ele>
        <time>2011-11-20T08:43:36Z</time>
      </trkpt>
      <trkpt lat="43.52363" lon="6.16322">
        <ele>174.14</ele>
        <time>2011-11-20T08:43:37Z</time>
      </trkpt>
      <trkpt lat="43.52364" lon="6.16324">
        <ele>171.73</ele>
        <time>2011-11-20T08:43:39Z</time>
      </trkpt>
      <trkpt lat="43.52365" lon="6.16332">
        <ele>169.33</ele>
        <time>2011-11-20T08:43:49Z</time>
      </trkpt>
      <trkpt lat="43.52367" lon="6.1635">
        <ele>174.62</ele>
        <time>2011-11-20T08:43:57Z</time>
      </trkpt>
      <trkpt lat="43.52367" lon="6.16352">
        <ele>173.66</ele>
        <time>2011-11-20T08:43:58Z</time>
      </trkpt>
      <trkpt lat="43.52366" lon="6.1636">
        <ele>170.29</ele>
        <time>2011-11-20T08:44:02Z</time>
      </trkpt>
      <trkpt lat="43.52363" lon="6.16381">
        <ele>172.21</ele>
        <time>2011-11-20T08:44:13Z</time>
      </trkpt>
      <trkpt lat="43.52362" lon="6.16386">
        <ele>174.14</ele>
        <time>2011-11-20T08:44:16Z</time>
      </trkpt>
      <trkpt lat="43.52361" lon="6.16389">
        <ele>173.66</ele>
        <time>2011-11-20T08:44:18Z</time>
      </trkpt>
      <trkpt lat="43.52358" lon="6.16412">
        <ele>171.73</ele>
        <time>2011-11-20T08:44:31Z</time>
      </trkpt>
      <trkpt lat="43.52355" lon="6.16422">
        <ele>169.81</ele>
        <time>2011-11-20T08:44:37Z</time>
      </trkpt>
      <trkpt lat="43.52353" lon="6.16432">
        <ele>175.1</ele>
        <time>2011-11-20T08:44:44Z</time>
      </trkpt>
      <trkpt lat="43.52353" lon="6.16439">
        <ele>171.73</ele>
        <time>2011-11-20T08:44:49Z</time>
      </trkpt>
      <trkpt lat="43.52353" lon="6.1644">
        <ele>171.25</ele>
        <time>2011-11-20T08:44:50Z</time>
      </trkpt>
      <trkpt lat="43.52358" lon="6.16444">
        <ele>172.21</ele>
        <time>2011-11-20T08:44:56Z</time>
      </trkpt>
      <trkpt lat="43.52362" lon="6.16444">
        <ele>175.1</ele>
        <time>2011-11-20T08:44:59Z</time>
      </trkpt>
      <trkpt lat="43.52367" lon="6.16445">
        <ele>172.21</ele>
        <time>2011-11-20T08:45:03Z</time>
      </trkpt>
      <trkpt lat="43.52371" lon="6.16446">
        <ele>172.69</ele>
        <time>2011-11-20T08:45:06Z</time>
      </trkpt>
      <trkpt lat="43.52374" lon="6.16447">
        <ele>177.5</ele>
        <time>2011-11-20T08:45:09Z</time>
      </trkpt>
      <trkpt lat="43.52376" lon="6.16447">
        <ele>173.17</ele>
        <time>2011-11-20T08:45:11Z</time>
      </trkpt>
      <trkpt lat="43.52386" lon="6.16452">
        <ele>179.42</ele>
        <time>2011-11-20T08:45:23Z</time>
      </trkpt>
      <trkpt lat="43.52387" lon="6.16452">
        <ele>177.5</ele>
        <time>2011-11-20T08:45:24Z</time>
      </trkpt>
      <trkpt lat="43.52394" lon="6.16455">
        <ele>172.21</ele>
        <time>2011-11-20T08:45:30Z</time>
      </trkpt>
      <trkpt lat="43.52395" lon="6.16455">
        <ele>173.66</ele>
        <time>2011-11-20T08:45:31Z</time>
      </trkpt>
      <trkpt lat="43.52396" lon="6.16456">
        <ele>176.06</ele>
        <time>2011-11-20T08:45:33Z</time>
      </trkpt>
      <trkpt lat="43.52398" lon="6.16457">
        <ele>177.98</ele>
        <time>2011-11-20T08:45:35Z</time>
      </trkpt>
      <trkpt lat="43.52401" lon="6.16458">
        <ele>174.14</ele>
        <time>2011-11-20T08:45:38Z</time>
      </trkpt>
      <trkpt lat="43.52407" lon="6.1646">
        <ele>180.38</ele>
        <time>2011-11-20T08:45:43Z</time>
      </trkpt>
      <trkpt lat="43.52408" lon="6.16461">
        <ele>179.42</ele>
        <time>2011-11-20T08:45:44Z</time>
      </trkpt>
      <trkpt lat="43.5241" lon="6.16463">
        <ele>176.06</ele>
        <time>2011-11-20T08:45:47Z</time>
      </trkpt>
      <trkpt lat="43.52412" lon="6.16465">
        <ele>177.98</ele>
        <time>2011-11-20T08:45:50Z</time>
      </trkpt>
      <trkpt lat="43.52417" lon="6.1647">
        <ele>178.46</ele>
        <time>2011-11-20T08:45:56Z</time>
      </trkpt>
      <trkpt lat="43.52425" lon="6.16474">
        <ele>179.9</ele>
        <time>2011-11-20T08:46:01Z</time>
      </trkpt>
      <trkpt lat="43.52429" lon="6.16476">
        <ele>177.5</ele>
        <time>2011-11-20T08:46:04Z</time>
      </trkpt>
      <trkpt lat="43.52429" lon="6.16477">
        <ele>181.35</ele>
        <time>2011-11-20T08:46:05Z</time>
      </trkpt>
      <trkpt lat="43.5243" lon="6.16478">
        <ele>179.9</ele>
        <time>2011-11-20T08:46:06Z</time>
      </trkpt>
      <trkpt lat="43.52435" lon="6.16481">
        <ele>181.35</ele>
        <time>2011-11-20T08:46:11Z</time>
      </trkpt>
      <trkpt lat="43.52437" lon="6.16483">
        <ele>178.94</ele>
        <time>2011-11-20T08:46:14Z</time>
      </trkpt>
      <trkpt lat="43.52439" lon="6.16484">
        <ele>181.35</ele>
        <time>2011-11-20T08:46:15Z</time>
      </trkpt>
      <trkpt lat="43.52443" lon="6.16487">
        <ele>182.31</ele>
        <time>2011-11-20T08:46:18Z</time>
      </trkpt>
      <trkpt lat="43.52444" lon="6.16487">
        <ele>181.35</ele>
        <time>2011-11-20T08:46:19Z</time>
      </trkpt>
      <trkpt lat="43.52454" lon="6.16492">
        <ele>179.9</ele>
        <time>2011-11-20T08:46:28Z</time>
      </trkpt>
      <trkpt lat="43.52455" lon="6.16494">
        <ele>183.27</ele>
        <time>2011-11-20T08:46:30Z</time>
      </trkpt>
      <trkpt lat="43.52456" lon="6.16495">
        <ele>182.79</ele>
        <time>2011-11-20T08:46:31Z</time>
      </trkpt>
      <trkpt lat="43.52457" lon="6.16495">
        <ele>181.35</ele>
        <time>2011-11-20T08:46:33Z</time>
      </trkpt>
      <trkpt lat="43.5246" lon="6.16498">
        <ele>183.75</ele>
        <time>2011-11-20T08:46:37Z</time>
      </trkpt>
      <trkpt lat="43.52462" lon="6.165">
        <ele>181.83</ele>
        <time>2011-11-20T08:46:40Z</time>
      </trkpt>
      <trkpt lat="43.52468" lon="6.16504">
        <ele>181.83</ele>
        <time>2011-11-20T08:46:46Z</time>
      </trkpt>
      <trkpt lat="43.5247" lon="6.16506">
        <ele>184.23</ele>
        <time>2011-11-20T08:46:48Z</time>
      </trkpt>
      <trkpt lat="43.52475" lon="6.16512">
        <ele>183.27</ele>
        <time>2011-11-20T08:46:54Z</time>
      </trkpt>
      <trkpt lat="43.5248" lon="6.16514">
        <ele>184.23</ele>
        <time>2011-11-20T08:46:59Z</time>
      </trkpt>
      <trkpt lat="43.52484" lon="6.16517">
        <ele>183.27</ele>
        <time>2011-11-20T08:47:05Z</time>
      </trkpt>
      <trkpt lat="43.52485" lon="6.16518">
        <ele>187.11</ele>
        <time>2011-11-20T08:47:07Z</time>
      </trkpt>
      <trkpt lat="43.52486" lon="6.16519">
        <ele>184.71</ele>
        <time>2011-11-20T08:47:08Z</time>
      </trkpt>
      <trkpt lat="43.52488" lon="6.1652">
        <ele>183.27</ele>
        <time>2011-11-20T08:47:10Z</time>
      </trkpt>
      <trkpt lat="43.52494" lon="6.16525">
        <ele>183.75</ele>
        <time>2011-11-20T08:47:14Z</time>
      </trkpt>
      <trkpt lat="43.52497" lon="6.16526">
        <ele>188.08</ele>
        <time>2011-11-20T08:47:16Z</time>
      </trkpt>
      <trkpt lat="43.52499" lon="6.16525">
        <ele>185.19</ele>
        <time>2011-11-20T08:47:17Z</time>
      </trkpt>
      <trkpt lat="43.52503" lon="6.16527">
        <ele>186.15</ele>
        <time>2011-11-20T08:47:21Z</time>
      </trkpt>
      <trkpt lat="43.52506" lon="6.16529">
        <ele>185.67</ele>
        <time>2011-11-20T08:47:24Z</time>
      </trkpt>
      <trkpt lat="43.52508" lon="6.16529">
        <ele>186.63</ele>
        <time>2011-11-20T08:47:26Z</time>
      </trkpt>
      <trkpt lat="43.52511" lon="6.16529">
        <ele>186.15</ele>
        <time>2011-11-20T08:47:28Z</time>
      </trkpt>
      <trkpt lat="43.52519" lon="6.16534">
        <ele>187.59</ele>
        <time>2011-11-20T08:47:35Z</time>
      </trkpt>
      <trkpt lat="43.52522" lon="6.16537">
        <ele>188.08</ele>
        <time>2011-11-20T08:47:40Z</time>
      </trkpt>
      <trkpt lat="43.52526" lon="6.16542">
        <ele>189.04</ele>
        <time>2011-11-20T08:47:45Z</time>
      </trkpt>
      <trkpt lat="43.52538" lon="6.16549">
        <ele>192.4</ele>
        <time>2011-11-20T08:47:57Z</time>
      </trkpt>
      <trkpt lat="43.52541" lon="6.16549">
        <ele>188.08</ele>
        <time>2011-11-20T08:48:00Z</time>
      </trkpt>
      <trkpt lat="43.52542" lon="6.1655">
        <ele>192.88</ele>
        <time>2011-11-20T08:48:02Z</time>
      </trkpt>
      <trkpt lat="43.52544" lon="6.16551">
        <ele>191.44</ele>
        <time>2011-11-20T08:48:03Z</time>
      </trkpt>
      <trkpt lat="43.52546" lon="6.16553">
        <ele>190</ele>
        <time>2011-11-20T08:48:05Z</time>
      </trkpt>
      <trkpt lat="43.5255" lon="6.16556">
        <ele>191.92</ele>
        <time>2011-11-20T08:48:09Z</time>
      </trkpt>
      <trkpt lat="43.52558" lon="6.16559">
        <ele>190.48</ele>
        <time>2011-11-20T08:48:15Z</time>
      </trkpt>
      <trkpt lat="43.52561" lon="6.16562">
        <ele>190</ele>
        <time>2011-11-20T08:48:20Z</time>
      </trkpt>
      <trkpt lat="43.52564" lon="6.16564">
        <ele>192.88</ele>
        <time>2011-11-20T08:48:23Z</time>
      </trkpt>
      <trkpt lat="43.52568" lon="6.16567">
        <ele>190.48</ele>
        <time>2011-11-20T08:48:26Z</time>
      </trkpt>
      <trkpt lat="43.5257" lon="6.16569">
        <ele>193.36</ele>
        <time>2011-11-20T08:48:28Z</time>
      </trkpt>
      <trkpt lat="43.52582" lon="6.16577">
        <ele>196.73</ele>
        <time>2011-11-20T08:48:40Z</time>
      </trkpt>
      <trkpt lat="43.52584" lon="6.16579">
        <ele>193.84</ele>
        <time>2011-11-20T08:48:42Z</time>
      </trkpt>
      <trkpt lat="43.52588" lon="6.16581">
        <ele>193.84</ele>
        <time>2011-11-20T08:48:46Z</time>
      </trkpt>
      <trkpt lat="43.52593" lon="6.16584">
        <ele>195.28</ele>
        <time>2011-11-20T08:48:50Z</time>
      </trkpt>
      <trkpt lat="43.52595" lon="6.16585">
        <ele>193.36</ele>
        <time>2011-11-20T08:48:52Z</time>
      </trkpt>
      <trkpt lat="43.52597" lon="6.16586">
        <ele>196.73</ele>
        <time>2011-11-20T08:48:54Z</time>
      </trkpt>
      <trkpt lat="43.52599" lon="6.16587">
        <ele>192.4</ele>
        <time>2011-11-20T08:48:56Z</time>
      </trkpt>
      <trkpt lat="43.526" lon="6.16588">
        <ele>195.28</ele>
        <time>2011-11-20T08:48:57Z</time>
      </trkpt>
      <trkpt lat="43.52611" lon="6.16597">
        <ele>197.69</ele>
        <time>2011-11-20T08:49:11Z</time>
      </trkpt>
      <trkpt lat="43.52613" lon="6.16599">
        <ele>196.25</ele>
        <time>2011-11-20T08:49:13Z</time>
      </trkpt>
      <trkpt lat="43.52617" lon="6.16601">
        <ele>199.61</ele>
        <time>2011-11-20T08:49:18Z</time>
      </trkpt>
      <trkpt lat="43.52631" lon="6.16611">
        <ele>200.09</ele>
        <time>2011-11-20T08:49:33Z</time>
      </trkpt>
      <trkpt lat="43.52637" lon="6.16615">
        <ele>201.53</ele>
        <time>2011-11-20T08:49:41Z</time>
      </trkpt>
      <trkpt lat="43.52639" lon="6.16616">
        <ele>200.57</ele>
        <time>2011-11-20T08:49:43Z</time>
      </trkpt>
      <trkpt lat="43.52643" lon="6.16619">
        <ele>202.49</ele>
        <time>2011-11-20T08:49:48Z</time>
      </trkpt>
      <trkpt lat="43.52645" lon="6.1662">
        <ele>202.49</ele>
        <time>2011-11-20T08:49:50Z</time>
      </trkpt>
      <trkpt lat="43.52647" lon="6.16622">
        <ele>203.94</ele>
        <time>2011-11-20T08:49:52Z</time>
      </trkpt>
      <trkpt lat="43.5265" lon="6.16624">
        <ele>203.94</ele>
        <time>2011-11-20T08:49:56Z</time>
      </trkpt>
      <trkpt lat="43.52661" lon="6.16633">
        <ele>206.34</ele>
        <time>2011-11-20T08:50:10Z</time>
      </trkpt>
      <trkpt lat="43.52669" lon="6.16638">
        <ele>206.34</ele>
        <time>2011-11-20T08:50:18Z</time>
      </trkpt>
      <trkpt lat="43.5267" lon="6.16639">
        <ele>204.9</ele>
        <time>2011-11-20T08:50:20Z</time>
      </trkpt>
      <trkpt lat="43.52676" lon="6.16644">
        <ele>208.26</ele>
        <time>2011-11-20T08:50:26Z</time>
      </trkpt>
      <trkpt lat="43.5268" lon="6.16647">
        <ele>208.26</ele>
        <time>2011-11-20T08:50:30Z</time>
      </trkpt>
      <trkpt lat="43.52686" lon="6.16651">
        <ele>208.74</ele>
        <time>2011-11-20T08:50:48Z</time>
      </trkpt>
      <trkpt lat="43.52685" lon="6.16652">
        <ele>208.74</ele>
        <time>2011-11-20T08:51:22Z</time>
      </trkpt>
      <trkpt lat="43.52691" lon="6.16656">
        <ele>210.19</ele>
        <time>2011-11-20T08:51:43Z</time>
      </trkpt>
      <trkpt lat="43.52693" lon="6.16656">
        <ele>207.3</ele>
        <time>2011-11-20T08:51:45Z</time>
      </trkpt>
      <trkpt lat="43.52695" lon="6.16656">
        <ele>208.26</ele>
        <time>2011-11-20T08:51:46Z</time>
      </trkpt>
      <trkpt lat="43.52697" lon="6.16655">
        <ele>208.74</ele>
        <time>2011-11-20T08:51:48Z</time>
      </trkpt>
      <trkpt lat="43.52701" lon="6.16658">
        <ele>209.22</ele>
        <time>2011-11-20T08:51:53Z</time>
      </trkpt>
      <trkpt lat="43.52704" lon="6.16658">
        <ele>208.26</ele>
        <time>2011-11-20T08:51:56Z</time>
      </trkpt>
      <trkpt lat="43.52715" lon="6.16657">
        <ele>211.63</ele>
        <time>2011-11-20T08:52:04Z</time>
      </trkpt>
      <trkpt lat="43.52716" lon="6.16657">
        <ele>211.63</ele>
        <time>2011-11-20T08:52:05Z</time>
      </trkpt>
      <trkpt lat="43.52721" lon="6.16657">
        <ele>208.26</ele>
        <time>2011-11-20T08:52:09Z</time>
      </trkpt>
      <trkpt lat="43.52722" lon="6.16657">
        <ele>213.07</ele>
        <time>2011-11-20T08:52:10Z</time>
      </trkpt>
      <trkpt lat="43.52724" lon="6.16657">
        <ele>212.11</ele>
        <time>2011-11-20T08:52:11Z</time>
      </trkpt>
      <trkpt lat="43.52727" lon="6.16658">
        <ele>208.74</ele>
        <time>2011-11-20T08:52:14Z</time>
      </trkpt>
      <trkpt lat="43.52728" lon="6.16658">
        <ele>208.74</ele>
        <time>2011-11-20T08:52:15Z</time>
      </trkpt>
      <trkpt lat="43.52728" lon="6.16658">
        <ele>213.55</ele>
        <time>2011-11-20T08:52:16Z</time>
      </trkpt>
      <trkpt lat="43.52729" lon="6.16658">
        <ele>211.63</ele>
        <time>2011-11-20T08:52:17Z</time>
      </trkpt>
      <trkpt lat="43.52731" lon="6.16659">
        <ele>208.74</ele>
        <time>2011-11-20T08:52:19Z</time>
      </trkpt>
      <trkpt lat="43.52733" lon="6.16659">
        <ele>213.07</ele>
        <time>2011-11-20T08:52:20Z</time>
      </trkpt>
      <trkpt lat="43.52734" lon="6.16659">
        <ele>211.63</ele>
        <time>2011-11-20T08:52:21Z</time>
      </trkpt>
      <trkpt lat="43.52736" lon="6.16659">
        <ele>210.67</ele>
        <time>2011-11-20T08:52:23Z</time>
      </trkpt>
      <trkpt lat="43.5274" lon="6.16659">
        <ele>210.19</ele>
        <time>2011-11-20T08:52:28Z</time>
      </trkpt>
      <trkpt lat="43.52748" lon="6.16657">
        <ele>213.07</ele>
        <time>2011-11-20T08:52:37Z</time>
      </trkpt>
      <trkpt lat="43.5275" lon="6.16657">
        <ele>208.74</ele>
        <time>2011-11-20T08:52:39Z</time>
      </trkpt>
      <trkpt lat="43.52751" lon="6.16656">
        <ele>210.19</ele>
        <time>2011-11-20T08:52:40Z</time>
      </trkpt>
      <trkpt lat="43.52755" lon="6.16657">
        <ele>212.59</ele>
        <time>2011-11-20T08:52:43Z</time>
      </trkpt>
      <trkpt lat="43.52758" lon="6.16657">
        <ele>209.22</ele>
        <time>2011-11-20T08:52:45Z</time>
      </trkpt>
      <trkpt lat="43.5276" lon="6.16657">
        <ele>212.59</ele>
        <time>2011-11-20T08:52:47Z</time>
      </trkpt>
      <trkpt lat="43.52763" lon="6.16658">
        <ele>208.74</ele>
        <time>2011-11-20T08:52:50Z</time>
      </trkpt>
      <trkpt lat="43.52764" lon="6.16658">
        <ele>212.11</ele>
        <time>2011-11-20T08:52:51Z</time>
      </trkpt>
      <trkpt lat="43.52769" lon="6.1666">
        <ele>210.67</ele>
        <time>2011-11-20T08:52:56Z</time>
      </trkpt>
      <trkpt lat="43.52771" lon="6.1666">
        <ele>213.55</ele>
        <time>2011-11-20T08:52:58Z</time>
      </trkpt>
      <trkpt lat="43.52772" lon="6.1666">
        <ele>213.07</ele>
        <time>2011-11-20T08:52:59Z</time>
      </trkpt>
      <trkpt lat="43.52775" lon="6.16659">
        <ele>210.67</ele>
        <time>2011-11-20T08:53:02Z</time>
      </trkpt>
      <trkpt lat="43.52777" lon="6.16659">
        <ele>212.11</ele>
        <time>2011-11-20T08:53:03Z</time>
      </trkpt>
      <trkpt lat="43.52788" lon="6.16646">
        <ele>213.55</ele>
        <time>2011-11-20T08:53:18Z</time>
      </trkpt>
      <trkpt lat="43.52789" lon="6.1664">
        <ele>211.15</ele>
        <time>2011-11-20T08:53:21Z</time>
      </trkpt>
      <trkpt lat="43.52791" lon="6.16626">
        <ele>216.91</ele>
        <time>2011-11-20T08:53:34Z</time>
      </trkpt>
      <trkpt lat="43.52792" lon="6.16624">
        <ele>214.51</ele>
        <time>2011-11-20T08:53:35Z</time>
      </trkpt>
      <trkpt lat="43.52793" lon="6.1661">
        <ele>217.88</ele>
        <time>2011-11-20T08:53:49Z</time>
      </trkpt>
      <trkpt lat="43.52787" lon="6.16601">
        <ele>219.32</ele>
        <time>2011-11-20T08:53:59Z</time>
      </trkpt>
      <trkpt lat="43.52784" lon="6.16595">
        <ele>217.88</ele>
        <time>2011-11-20T08:54:04Z</time>
      </trkpt>
      <trkpt lat="43.52782" lon="6.16593">
        <ele>218.36</ele>
        <time>2011-11-20T08:54:06Z</time>
      </trkpt>
      <trkpt lat="43.52781" lon="6.16591">
        <ele>219.8</ele>
        <time>2011-11-20T08:54:08Z</time>
      </trkpt>
      <trkpt lat="43.52778" lon="6.16584">
        <ele>219.8</ele>
        <time>2011-11-20T08:54:17Z</time>
      </trkpt>
      <trkpt lat="43.52777" lon="6.16582">
        <ele>217.88</ele>
        <time>2011-11-20T08:54:19Z</time>
      </trkpt>
      <trkpt lat="43.52776" lon="6.1658">
        <ele>219.32</ele>
        <time>2011-11-20T08:54:21Z</time>
      </trkpt>
      <trkpt lat="43.52774" lon="6.16571">
        <ele>221.72</ele>
        <time>2011-11-20T08:54:31Z</time>
      </trkpt>
      <trkpt lat="43.52771" lon="6.16559">
        <ele>223.16</ele>
        <time>2011-11-20T08:54:43Z</time>
      </trkpt>
      <trkpt lat="43.52767" lon="6.16547">
        <ele>224.12</ele>
        <time>2011-11-20T08:54:55Z</time>
      </trkpt>
      <trkpt lat="43.52765" lon="6.16538">
        <ele>225.09</ele>
        <time>2011-11-20T08:55:05Z</time>
      </trkpt>
      <trkpt lat="43.52761" lon="6.16528">
        <ele>227.01</ele>
        <time>2011-11-20T08:55:15Z</time>
      </trkpt>
      <trkpt lat="43.52758" lon="6.16517">
        <ele>227.49</ele>
        <time>2011-11-20T08:55:26Z</time>
      </trkpt>
      <trkpt lat="43.52758" lon="6.16516">
        <ele>224.12</ele>
        <time>2011-11-20T08:55:27Z</time>
      </trkpt>
      <trkpt lat="43.52756" lon="6.16514">
        <ele>227.01</ele>
        <time>2011-11-20T08:55:29Z</time>
      </trkpt>
      <trkpt lat="43.52753" lon="6.16505">
        <ele>228.45</ele>
        <time>2011-11-20T08:55:38Z</time>
      </trkpt>
      <trkpt lat="43.52751" lon="6.16494">
        <ele>228.93</ele>
        <time>2011-11-20T08:55:48Z</time>
      </trkpt>
      <trkpt lat="43.52748" lon="6.16482">
        <ele>231.33</ele>
        <time>2011-11-20T08:56:01Z</time>
      </trkpt>
      <trkpt lat="43.52748" lon="6.16481">
        <ele>231.33</ele>
        <time>2011-11-20T08:56:02Z</time>
      </trkpt>
      <trkpt lat="43.52743" lon="6.16466">
        <ele>231.33</ele>
        <time>2011-11-20T08:56:16Z</time>
      </trkpt>
      <trkpt lat="43.52739" lon="6.16452">
        <ele>233.74</ele>
        <time>2011-11-20T08:56:28Z</time>
      </trkpt>
      <trkpt lat="43.52736" lon="6.16444">
        <ele>233.74</ele>
        <time>2011-11-20T08:56:38Z</time>
      </trkpt>
      <trkpt lat="43.52734" lon="6.16433">
        <ele>235.18</ele>
        <time>2011-11-20T08:56:49Z</time>
      </trkpt>
      <trkpt lat="43.5273" lon="6.16421">
        <ele>234.7</ele>
        <time>2011-11-20T08:56:59Z</time>
      </trkpt>
      <trkpt lat="43.52728" lon="6.16415">
        <ele>238.06</ele>
        <time>2011-11-20T08:57:07Z</time>
      </trkpt>
      <trkpt lat="43.52725" lon="6.16406">
        <ele>239.02</ele>
        <time>2011-11-20T08:57:19Z</time>
      </trkpt>
      <trkpt lat="43.52722" lon="6.164">
        <ele>239.99</ele>
        <time>2011-11-20T08:57:26Z</time>
      </trkpt>
      <trkpt lat="43.52721" lon="6.16396">
        <ele>240.95</ele>
        <time>2011-11-20T08:57:33Z</time>
      </trkpt>
      <trkpt lat="43.52717" lon="6.16388">
        <ele>241.91</ele>
        <time>2011-11-20T08:57:45Z</time>
      </trkpt>
      <trkpt lat="43.52713" lon="6.16378">
        <ele>242.87</ele>
        <time>2011-11-20T08:57:56Z</time>
      </trkpt>
      <trkpt lat="43.52705" lon="6.16365">
        <ele>244.79</ele>
        <time>2011-11-20T08:58:09Z</time>
      </trkpt>
      <trkpt lat="43.52702" lon="6.16361">
        <ele>241.43</ele>
        <time>2011-11-20T08:58:12Z</time>
      </trkpt>
      <trkpt lat="43.527" lon="6.16359">
        <ele>246.23</ele>
        <time>2011-11-20T08:58:14Z</time>
      </trkpt>
      <trkpt lat="43.52699" lon="6.16358">
        <ele>245.27</ele>
        <time>2011-11-20T08:58:15Z</time>
      </trkpt>
      <trkpt lat="43.52691" lon="6.16348">
        <ele>246.23</ele>
        <time>2011-11-20T08:58:27Z</time>
      </trkpt>
      <trkpt lat="43.52686" lon="6.16336">
        <ele>246.72</ele>
        <time>2011-11-20T08:58:40Z</time>
      </trkpt>
      <trkpt lat="43.52684" lon="6.16326">
        <ele>247.2</ele>
        <time>2011-11-20T08:58:49Z</time>
      </trkpt>
      <trkpt lat="43.52678" lon="6.16312">
        <ele>249.12</ele>
        <time>2011-11-20T08:59:02Z</time>
      </trkpt>
      <trkpt lat="43.52669" lon="6.16303">
        <ele>250.08</ele>
        <time>2011-11-20T08:59:12Z</time>
      </trkpt>
      <trkpt lat="43.52655" lon="6.16297">
        <ele>252.96</ele>
        <time>2011-11-20T08:59:24Z</time>
      </trkpt>
      <trkpt lat="43.52653" lon="6.16296">
        <ele>249.6</ele>
        <time>2011-11-20T08:59:26Z</time>
      </trkpt>
      <trkpt lat="43.52644" lon="6.16289">
        <ele>251.04</ele>
        <time>2011-11-20T08:59:37Z</time>
      </trkpt>
      <trkpt lat="43.52638" lon="6.16281">
        <ele>250.08</ele>
        <time>2011-11-20T08:59:47Z</time>
      </trkpt>
      <trkpt lat="43.52638" lon="6.16279">
        <ele>251.04</ele>
        <time>2011-11-20T08:59:49Z</time>
      </trkpt>
      <trkpt lat="43.52637" lon="6.16273">
        <ele>252.96</ele>
        <time>2011-11-20T08:59:59Z</time>
      </trkpt>
      <trkpt lat="43.52637" lon="6.16269">
        <ele>254.41</ele>
        <time>2011-11-20T09:00:08Z</time>
      </trkpt>
      <trkpt lat="43.52634" lon="6.16258">
        <ele>254.41</ele>
        <time>2011-11-20T09:00:18Z</time>
      </trkpt>
      <trkpt lat="43.52633" lon="6.16253">
        <ele>257.77</ele>
        <time>2011-11-20T09:00:23Z</time>
      </trkpt>
      <trkpt lat="43.52632" lon="6.16248">
        <ele>258.25</ele>
        <time>2011-11-20T09:00:28Z</time>
      </trkpt>
      <trkpt lat="43.52628" lon="6.16238">
        <ele>258.73</ele>
        <time>2011-11-20T09:00:35Z</time>
      </trkpt>
      <trkpt lat="43.52627" lon="6.16233">
        <ele>255.37</ele>
        <time>2011-11-20T09:00:40Z</time>
      </trkpt>
      <trkpt lat="43.52626" lon="6.16231">
        <ele>258.73</ele>
        <time>2011-11-20T09:00:44Z</time>
      </trkpt>
      <trkpt lat="43.52626" lon="6.16231">
        <ele>258.25</ele>
        <time>2011-11-20T09:01:43Z</time>
      </trkpt>
      <trkpt lat="43.52625" lon="6.16231">
        <ele>258.25</ele>
        <time>2011-11-20T09:01:55Z</time>
      </trkpt>
      <trkpt lat="43.52624" lon="6.16232">
        <ele>257.29</ele>
        <time>2011-11-20T09:02:14Z</time>
      </trkpt>
      <trkpt lat="43.52624" lon="6.16236">
        <ele>258.25</ele>
        <time>2011-11-20T09:02:26Z</time>
      </trkpt>
      <trkpt lat="43.52624" lon="6.16231">
        <ele>258.25</ele>
        <time>2011-11-20T09:03:12Z</time>
      </trkpt>
      <trkpt lat="43.52625" lon="6.16232">
        <ele>258.25</ele>
        <time>2011-11-20T09:03:45Z</time>
      </trkpt>
      <trkpt lat="43.52627" lon="6.1623">
        <ele>258.73</ele>
        <time>2011-11-20T09:04:44Z</time>
      </trkpt>
      <trkpt lat="43.52634" lon="6.16233">
        <ele>259.69</ele>
        <time>2011-11-20T09:04:53Z</time>
      </trkpt>
      <trkpt lat="43.5264" lon="6.16238">
        <ele>259.21</ele>
        <time>2011-11-20T09:04:59Z</time>
      </trkpt>
      <trkpt lat="43.52644" lon="6.16239">
        <ele>258.73</ele>
        <time>2011-11-20T09:05:03Z</time>
      </trkpt>
      <trkpt lat="43.52654" lon="6.16246">
        <ele>261.14</ele>
        <time>2011-11-20T09:05:15Z</time>
      </trkpt>
      <trkpt lat="43.52663" lon="6.16251">
        <ele>260.65</ele>
        <time>2011-11-20T09:05:26Z</time>
      </trkpt>
      <trkpt lat="43.52669" lon="6.16255">
        <ele>261.14</ele>
        <time>2011-11-20T09:05:33Z</time>
      </trkpt>
      <trkpt lat="43.5267" lon="6.16255">
        <ele>261.62</ele>
        <time>2011-11-20T09:05:34Z</time>
      </trkpt>
      <trkpt lat="43.5268" lon="6.1626">
        <ele>262.58</ele>
        <time>2011-11-20T09:05:48Z</time>
      </trkpt>
      <trkpt lat="43.5269" lon="6.16267">
        <ele>261.62</ele>
        <time>2011-11-20T09:06:00Z</time>
      </trkpt>
      <trkpt lat="43.52694" lon="6.1627">
        <ele>262.1</ele>
        <time>2011-11-20T09:06:05Z</time>
      </trkpt>
      <trkpt lat="43.52703" lon="6.16278">
        <ele>262.58</ele>
        <time>2011-11-20T09:06:15Z</time>
      </trkpt>
      <trkpt lat="43.52712" lon="6.16287">
        <ele>265.94</ele>
        <time>2011-11-20T09:06:26Z</time>
      </trkpt>
      <trkpt lat="43.52719" lon="6.16295">
        <ele>263.06</ele>
        <time>2011-11-20T09:06:36Z</time>
      </trkpt>
      <trkpt lat="43.52721" lon="6.16298">
        <ele>264.5</ele>
        <time>2011-11-20T09:06:39Z</time>
      </trkpt>
      <trkpt lat="43.52725" lon="6.16302">
        <ele>265.46</ele>
        <time>2011-11-20T09:06:44Z</time>
      </trkpt>
      <trkpt lat="43.52727" lon="6.16305">
        <ele>264.02</ele>
        <time>2011-11-20T09:06:46Z</time>
      </trkpt>
      <trkpt lat="43.52734" lon="6.16316">
        <ele>264.98</ele>
        <time>2011-11-20T09:06:57Z</time>
      </trkpt>
      <trkpt lat="43.52736" lon="6.1632">
        <ele>261.62</ele>
        <time>2011-11-20T09:07:01Z</time>
      </trkpt>
      <trkpt lat="43.52737" lon="6.16321">
        <ele>263.06</ele>
        <time>2011-11-20T09:07:02Z</time>
      </trkpt>
      <trkpt lat="43.5274" lon="6.16324">
        <ele>266.42</ele>
        <time>2011-11-20T09:07:05Z</time>
      </trkpt>
      <trkpt lat="43.52741" lon="6.16325">
        <ele>262.58</ele>
        <time>2011-11-20T09:07:06Z</time>
      </trkpt>
      <trkpt lat="43.52742" lon="6.16326">
        <ele>264.02</ele>
        <time>2011-11-20T09:07:07Z</time>
      </trkpt>
      <trkpt lat="43.52753" lon="6.16335">
        <ele>265.46</ele>
        <time>2011-11-20T09:07:19Z</time>
      </trkpt>
      <trkpt lat="43.52755" lon="6.16337">
        <ele>262.1</ele>
        <time>2011-11-20T09:07:22Z</time>
      </trkpt>
      <trkpt lat="43.52756" lon="6.16338">
        <ele>262.58</ele>
        <time>2011-11-20T09:07:23Z</time>
      </trkpt>
      <trkpt lat="43.52765" lon="6.16345">
        <ele>262.1</ele>
        <time>2011-11-20T09:07:32Z</time>
      </trkpt>
      <trkpt lat="43.52767" lon="6.16346">
        <ele>262.1</ele>
        <time>2011-11-20T09:07:34Z</time>
      </trkpt>
      <trkpt lat="43.5278" lon="6.16351">
        <ele>263.06</ele>
        <time>2011-11-20T09:07:48Z</time>
      </trkpt>
      <trkpt lat="43.52786" lon="6.1635">
        <ele>266.42</ele>
        <time>2011-11-20T09:07:58Z</time>
      </trkpt>
      <trkpt lat="43.52794" lon="6.16346">
        <ele>268.35</ele>
        <time>2011-11-20T09:08:13Z</time>
      </trkpt>
      <trkpt lat="43.52797" lon="6.16344">
        <ele>266.9</ele>
        <time>2011-11-20T09:08:18Z</time>
      </trkpt>
      <trkpt lat="43.52799" lon="6.16341">
        <ele>270.27</ele>
        <time>2011-11-20T09:08:23Z</time>
      </trkpt>
      <trkpt lat="43.528" lon="6.1634">
        <ele>270.27</ele>
        <time>2011-11-20T09:08:24Z</time>
      </trkpt>
      <trkpt lat="43.52806" lon="6.16338">
        <ele>272.19</ele>
        <time>2011-11-20T09:08:32Z</time>
      </trkpt>
      <trkpt lat="43.52808" lon="6.16339">
        <ele>270.27</ele>
        <time>2011-11-20T09:08:35Z</time>
      </trkpt>
      <trkpt lat="43.5281" lon="6.16339">
        <ele>269.79</ele>
        <time>2011-11-20T09:08:39Z</time>
      </trkpt>
      <trkpt lat="43.52812" lon="6.1634">
        <ele>271.23</ele>
        <time>2011-11-20T09:08:41Z</time>
      </trkpt>
      <trkpt lat="43.52822" lon="6.16337">
        <ele>272.19</ele>
        <time>2011-11-20T09:08:53Z</time>
      </trkpt>
      <trkpt lat="43.5283" lon="6.1633">
        <ele>273.63</ele>
        <time>2011-11-20T09:09:05Z</time>
      </trkpt>
      <trkpt lat="43.52839" lon="6.16323">
        <ele>276.52</ele>
        <time>2011-11-20T09:09:20Z</time>
      </trkpt>
      <trkpt lat="43.52844" lon="6.16309">
        <ele>277.96</ele>
        <time>2011-11-20T09:09:38Z</time>
      </trkpt>
      <trkpt lat="43.52845" lon="6.16301">
        <ele>278.92</ele>
        <time>2011-11-20T09:09:45Z</time>
      </trkpt>
      <trkpt lat="43.52847" lon="6.1628">
        <ele>281.8</ele>
        <time>2011-11-20T09:10:00Z</time>
      </trkpt>
      <trkpt lat="43.52857" lon="6.16278">
        <ele>281.32</ele>
        <time>2011-11-20T09:10:10Z</time>
      </trkpt>
      <trkpt lat="43.52867" lon="6.1628">
        <ele>282.28</ele>
        <time>2011-11-20T09:10:21Z</time>
      </trkpt>
      <trkpt lat="43.52882" lon="6.16271">
        <ele>282.28</ele>
        <time>2011-11-20T09:10:38Z</time>
      </trkpt>
      <trkpt lat="43.52888" lon="6.16267">
        <ele>282.77</ele>
        <time>2011-11-20T09:10:52Z</time>
      </trkpt>
      <trkpt lat="43.52898" lon="6.16268">
        <ele>282.28</ele>
        <time>2011-11-20T09:11:03Z</time>
      </trkpt>
      <trkpt lat="43.52906" lon="6.1627">
        <ele>285.65</ele>
        <time>2011-11-20T09:11:10Z</time>
      </trkpt>
      <trkpt lat="43.52917" lon="6.16271">
        <ele>284.21</ele>
        <time>2011-11-20T09:11:21Z</time>
      </trkpt>
      <trkpt lat="43.52925" lon="6.16274">
        <ele>285.65</ele>
        <time>2011-11-20T09:11:30Z</time>
      </trkpt>
      <trkpt lat="43.52932" lon="6.16275">
        <ele>286.13</ele>
        <time>2011-11-20T09:11:37Z</time>
      </trkpt>
      <trkpt lat="43.52938" lon="6.16273">
        <ele>286.61</ele>
        <time>2011-11-20T09:11:43Z</time>
      </trkpt>
      <trkpt lat="43.5294" lon="6.1627">
        <ele>286.61</ele>
        <time>2011-11-20T09:11:46Z</time>
      </trkpt>
      <trkpt lat="43.5294" lon="6.16262">
        <ele>286.13</ele>
        <time>2011-11-20T09:11:51Z</time>
      </trkpt>
      <trkpt lat="43.52939" lon="6.16259">
        <ele>288.05</ele>
        <time>2011-11-20T09:11:53Z</time>
      </trkpt>
      <trkpt lat="43.52938" lon="6.16251">
        <ele>289.01</ele>
        <time>2011-11-20T09:11:58Z</time>
      </trkpt>
      <trkpt lat="43.52938" lon="6.16247">
        <ele>287.09</ele>
        <time>2011-11-20T09:12:01Z</time>
      </trkpt>
      <trkpt lat="43.52944" lon="6.16239">
        <ele>287.57</ele>
        <time>2011-11-20T09:12:09Z</time>
      </trkpt>
      <trkpt lat="43.52953" lon="6.16233">
        <ele>286.13</ele>
        <time>2011-11-20T09:12:18Z</time>
      </trkpt>
      <trkpt lat="43.52954" lon="6.16231">
        <ele>288.53</ele>
        <time>2011-11-20T09:12:20Z</time>
      </trkpt>
      <trkpt lat="43.52955" lon="6.16229">
        <ele>285.17</ele>
        <time>2011-11-20T09:12:22Z</time>
      </trkpt>
      <trkpt lat="43.52955" lon="6.16228">
        <ele>290.46</ele>
        <time>2011-11-20T09:12:23Z</time>
      </trkpt>
      <trkpt lat="43.52955" lon="6.16227">
        <ele>287.09</ele>
        <time>2011-11-20T09:12:24Z</time>
      </trkpt>
      <trkpt lat="43.52954" lon="6.16223">
        <ele>286.13</ele>
        <time>2011-11-20T09:12:27Z</time>
      </trkpt>
      <trkpt lat="43.52951" lon="6.16217">
        <ele>286.13</ele>
        <time>2011-11-20T09:12:32Z</time>
      </trkpt>
      <trkpt lat="43.52951" lon="6.16216">
        <ele>286.13</ele>
        <time>2011-11-20T09:12:33Z</time>
      </trkpt>
      <trkpt lat="43.52951" lon="6.16213">
        <ele>291.9</ele>
        <time>2011-11-20T09:12:35Z</time>
      </trkpt>
      <trkpt lat="43.52951" lon="6.16208">
        <ele>288.05</ele>
        <time>2011-11-20T09:12:38Z</time>
      </trkpt>
      <trkpt lat="43.52957" lon="6.16194">
        <ele>290.94</ele>
        <time>2011-11-20T09:12:51Z</time>
      </trkpt>
      <trkpt lat="43.52961" lon="6.1619">
        <ele>289.01</ele>
        <time>2011-11-20T09:12:56Z</time>
      </trkpt>
      <trkpt lat="43.52965" lon="6.16185">
        <ele>289.49</ele>
        <time>2011-11-20T09:13:01Z</time>
      </trkpt>
      <trkpt lat="43.52967" lon="6.16182">
        <ele>292.38</ele>
        <time>2011-11-20T09:13:04Z</time>
      </trkpt>
      <trkpt lat="43.52974" lon="6.1617">
        <ele>289.01</ele>
        <time>2011-11-20T09:13:14Z</time>
      </trkpt>
      <trkpt lat="43.52978" lon="6.16163">
        <ele>288.53</ele>
        <time>2011-11-20T09:13:21Z</time>
      </trkpt>
      <trkpt lat="43.52979" lon="6.16161">
        <ele>289.49</ele>
        <time>2011-11-20T09:13:23Z</time>
      </trkpt>
      <trkpt lat="43.52984" lon="6.1615">
        <ele>289.97</ele>
        <time>2011-11-20T09:13:33Z</time>
      </trkpt>
      <trkpt lat="43.5299" lon="6.16142">
        <ele>289.49</ele>
        <time>2011-11-20T09:13:41Z</time>
      </trkpt>
      <trkpt lat="43.52991" lon="6.1614">
        <ele>292.86</ele>
        <time>2011-11-20T09:13:43Z</time>
      </trkpt>
      <trkpt lat="43.52992" lon="6.16139">
        <ele>292.38</ele>
        <time>2011-11-20T09:13:44Z</time>
      </trkpt>
      <trkpt lat="43.52995" lon="6.16137">
        <ele>290.94</ele>
        <time>2011-11-20T09:13:47Z</time>
      </trkpt>
      <trkpt lat="43.53001" lon="6.16131">
        <ele>295.74</ele>
        <time>2011-11-20T09:13:54Z</time>
      </trkpt>
      <trkpt lat="43.53002" lon="6.1613">
        <ele>292.38</ele>
        <time>2011-11-20T09:13:55Z</time>
      </trkpt>
      <trkpt lat="43.53004" lon="6.1613">
        <ele>288.53</ele>
        <time>2011-11-20T09:13:57Z</time>
      </trkpt>
      <trkpt lat="43.53005" lon="6.16129">
        <ele>293.82</ele>
        <time>2011-11-20T09:13:58Z</time>
      </trkpt>
      <trkpt lat="43.53006" lon="6.16128">
        <ele>293.34</ele>
        <time>2011-11-20T09:13:59Z</time>
      </trkpt>
      <trkpt lat="43.53008" lon="6.16127">
        <ele>292.38</ele>
        <time>2011-11-20T09:14:01Z</time>
      </trkpt>
      <trkpt lat="43.5301" lon="6.16126">
        <ele>289.97</ele>
        <time>2011-11-20T09:14:03Z</time>
      </trkpt>
      <trkpt lat="43.53011" lon="6.16125">
        <ele>290.94</ele>
        <time>2011-11-20T09:14:04Z</time>
      </trkpt>
      <trkpt lat="43.53014" lon="6.16123">
        <ele>293.82</ele>
        <time>2011-11-20T09:14:07Z</time>
      </trkpt>
      <trkpt lat="43.53016" lon="6.16121">
        <ele>288.53</ele>
        <time>2011-11-20T09:14:10Z</time>
      </trkpt>
      <trkpt lat="43.53018" lon="6.16119">
        <ele>294.3</ele>
        <time>2011-11-20T09:14:13Z</time>
      </trkpt>
      <trkpt lat="43.53019" lon="6.16118">
        <ele>294.78</ele>
        <time>2011-11-20T09:14:14Z</time>
      </trkpt>
      <trkpt lat="43.53022" lon="6.16117">
        <ele>289.97</ele>
        <time>2011-11-20T09:14:17Z</time>
      </trkpt>
      <trkpt lat="43.53024" lon="6.16117">
        <ele>293.82</ele>
        <time>2011-11-20T09:14:19Z</time>
      </trkpt>
      <trkpt lat="43.53025" lon="6.16118">
        <ele>292.86</ele>
        <time>2011-11-20T09:14:20Z</time>
      </trkpt>
      <trkpt lat="43.53027" lon="6.16118">
        <ele>291.9</ele>
        <time>2011-11-20T09:14:22Z</time>
      </trkpt>
      <trkpt lat="43.53032" lon="6.16119">
        <ele>292.86</ele>
        <time>2011-11-20T09:14:27Z</time>
      </trkpt>
      <trkpt lat="43.53039" lon="6.16121">
        <ele>292.38</ele>
        <time>2011-11-20T09:14:34Z</time>
      </trkpt>
      <trkpt lat="43.53043" lon="6.16122">
        <ele>292.86</ele>
        <time>2011-11-20T09:14:38Z</time>
      </trkpt>
      <trkpt lat="43.53049" lon="6.16121">
        <ele>291.42</ele>
        <time>2011-11-20T09:14:43Z</time>
      </trkpt>
      <trkpt lat="43.53051" lon="6.16121">
        <ele>291.9</ele>
        <time>2011-11-20T09:14:45Z</time>
      </trkpt>
      <trkpt lat="43.53062" lon="6.16121">
        <ele>291.42</ele>
        <time>2011-11-20T09:14:56Z</time>
      </trkpt>
      <trkpt lat="43.53065" lon="6.16122">
        <ele>295.74</ele>
        <time>2011-11-20T09:15:00Z</time>
      </trkpt>
      <trkpt lat="43.53066" lon="6.16123">
        <ele>290.94</ele>
        <time>2011-11-20T09:15:02Z</time>
      </trkpt>
      <trkpt lat="43.53067" lon="6.16124">
        <ele>294.3</ele>
        <time>2011-11-20T09:15:03Z</time>
      </trkpt>
      <trkpt lat="43.53071" lon="6.16125">
        <ele>290.94</ele>
        <time>2011-11-20T09:15:09Z</time>
      </trkpt>
      <trkpt lat="43.53072" lon="6.16126">
        <ele>294.3</ele>
        <time>2011-11-20T09:15:10Z</time>
      </trkpt>
      <trkpt lat="43.53072" lon="6.16126">
        <ele>291.42</ele>
        <time>2011-11-20T09:15:11Z</time>
      </trkpt>
      <trkpt lat="43.53075" lon="6.16127">
        <ele>295.74</ele>
        <time>2011-11-20T09:15:13Z</time>
      </trkpt>
      <trkpt lat="43.53079" lon="6.16128">
        <ele>291.42</ele>
        <time>2011-11-20T09:15:17Z</time>
      </trkpt>
      <trkpt lat="43.53081" lon="6.16128">
        <ele>295.26</ele>
        <time>2011-11-20T09:15:19Z</time>
      </trkpt>
      <trkpt lat="43.53092" lon="6.16132">
        <ele>294.3</ele>
        <time>2011-11-20T09:15:30Z</time>
      </trkpt>
      <trkpt lat="43.53095" lon="6.16134">
        <ele>298.15</ele>
        <time>2011-11-20T09:15:34Z</time>
      </trkpt>
      <trkpt lat="43.53096" lon="6.16135">
        <ele>292.38</ele>
        <time>2011-11-20T09:15:35Z</time>
      </trkpt>
      <trkpt lat="43.53097" lon="6.16136">
        <ele>296.7</ele>
        <time>2011-11-20T09:15:37Z</time>
      </trkpt>
      <trkpt lat="43.53098" lon="6.16136">
        <ele>293.82</ele>
        <time>2011-11-20T09:15:38Z</time>
      </trkpt>
      <trkpt lat="43.531" lon="6.16137">
        <ele>297.18</ele>
        <time>2011-11-20T09:15:39Z</time>
      </trkpt>
      <trkpt lat="43.53106" lon="6.16137">
        <ele>293.82</ele>
        <time>2011-11-20T09:15:48Z</time>
      </trkpt>
      <trkpt lat="43.53111" lon="6.16135">
        <ele>296.22</ele>
        <time>2011-11-20T09:15:53Z</time>
      </trkpt>
      <trkpt lat="43.53114" lon="6.16133">
        <ele>294.3</ele>
        <time>2011-11-20T09:15:56Z</time>
      </trkpt>
      <trkpt lat="43.53117" lon="6.16131">
        <ele>296.7</ele>
        <time>2011-11-20T09:16:00Z</time>
      </trkpt>
      <trkpt lat="43.53128" lon="6.16124">
        <ele>293.82</ele>
        <time>2011-11-20T09:16:12Z</time>
      </trkpt>
      <trkpt lat="43.5313" lon="6.16124">
        <ele>296.7</ele>
        <time>2011-11-20T09:16:14Z</time>
      </trkpt>
      <trkpt lat="43.53133" lon="6.16123">
        <ele>293.82</ele>
        <time>2011-11-20T09:16:17Z</time>
      </trkpt>
      <trkpt lat="43.53134" lon="6.16122">
        <ele>298.15</ele>
        <time>2011-11-20T09:16:18Z</time>
      </trkpt>
      <trkpt lat="43.53135" lon="6.16121">
        <ele>294.78</ele>
        <time>2011-11-20T09:16:20Z</time>
      </trkpt>
      <trkpt lat="43.53137" lon="6.16121">
        <ele>299.59</ele>
        <time>2011-11-20T09:16:22Z</time>
      </trkpt>
      <trkpt lat="43.53138" lon="6.16121">
        <ele>296.22</ele>
        <time>2011-11-20T09:16:23Z</time>
      </trkpt>
      <trkpt lat="43.53143" lon="6.16121">
        <ele>297.67</ele>
        <time>2011-11-20T09:16:29Z</time>
      </trkpt>
      <trkpt lat="43.53144" lon="6.1612">
        <ele>296.22</ele>
        <time>2011-11-20T09:16:30Z</time>
      </trkpt>
      <trkpt lat="43.53147" lon="6.16119">
        <ele>299.11</ele>
        <time>2011-11-20T09:16:32Z</time>
      </trkpt>
      <trkpt lat="43.53148" lon="6.16119">
        <ele>298.63</ele>
        <time>2011-11-20T09:16:33Z</time>
      </trkpt>
      <trkpt lat="43.53155" lon="6.16116">
        <ele>298.63</ele>
        <time>2011-11-20T09:16:40Z</time>
      </trkpt>
      <trkpt lat="43.53158" lon="6.16116">
        <ele>301.99</ele>
        <time>2011-11-20T09:16:43Z</time>
      </trkpt>
      <trkpt lat="43.5316" lon="6.16116">
        <ele>296.7</ele>
        <time>2011-11-20T09:16:45Z</time>
      </trkpt>
      <trkpt lat="43.53161" lon="6.16116">
        <ele>299.11</ele>
        <time>2011-11-20T09:16:46Z</time>
      </trkpt>
      <trkpt lat="43.53173" lon="6.16112">
        <ele>301.99</ele>
        <time>2011-11-20T09:17:00Z</time>
      </trkpt>
      <trkpt lat="43.53174" lon="6.16112">
        <ele>297.67</ele>
        <time>2011-11-20T09:17:01Z</time>
      </trkpt>
      <trkpt lat="43.53175" lon="6.16113">
        <ele>298.15</ele>
        <time>2011-11-20T09:17:02Z</time>
      </trkpt>
      <trkpt lat="43.53179" lon="6.16112">
        <ele>301.03</ele>
        <time>2011-11-20T09:17:07Z</time>
      </trkpt>
      <trkpt lat="43.5318" lon="6.16112">
        <ele>297.18</ele>
        <time>2011-11-20T09:17:08Z</time>
      </trkpt>
      <trkpt lat="43.53182" lon="6.16112">
        <ele>300.55</ele>
        <time>2011-11-20T09:17:10Z</time>
      </trkpt>
      <trkpt lat="43.53193" lon="6.16111">
        <ele>301.99</ele>
        <time>2011-11-20T09:17:23Z</time>
      </trkpt>
      <trkpt lat="43.53203" lon="6.16108">
        <ele>299.59</ele>
        <time>2011-11-20T09:17:33Z</time>
      </trkpt>
      <trkpt lat="43.53204" lon="6.16108">
        <ele>302.95</ele>
        <time>2011-11-20T09:17:34Z</time>
      </trkpt>
      <trkpt lat="43.53207" lon="6.16107">
        <ele>301.03</ele>
        <time>2011-11-20T09:17:37Z</time>
      </trkpt>
      <trkpt lat="43.53209" lon="6.16107">
        <ele>304.39</ele>
        <time>2011-11-20T09:17:38Z</time>
      </trkpt>
      <trkpt lat="43.5321" lon="6.16107">
        <ele>298.63</ele>
        <time>2011-11-20T09:17:39Z</time>
      </trkpt>
      <trkpt lat="43.53211" lon="6.16107">
        <ele>301.51</ele>
        <time>2011-11-20T09:17:40Z</time>
      </trkpt>
      <trkpt lat="43.53214" lon="6.16106">
        <ele>303.91</ele>
        <time>2011-11-20T09:17:43Z</time>
      </trkpt>
      <trkpt lat="43.53216" lon="6.16107">
        <ele>301.99</ele>
        <time>2011-11-20T09:17:45Z</time>
      </trkpt>
      <trkpt lat="43.53217" lon="6.16107">
        <ele>305.36</ele>
        <time>2011-11-20T09:17:46Z</time>
      </trkpt>
      <trkpt lat="43.53218" lon="6.16107">
        <ele>300.55</ele>
        <time>2011-11-20T09:17:47Z</time>
      </trkpt>
      <trkpt lat="43.5322" lon="6.16107">
        <ele>303.91</ele>
        <time>2011-11-20T09:17:49Z</time>
      </trkpt>
      <trkpt lat="43.53221" lon="6.16107">
        <ele>301.99</ele>
        <time>2011-11-20T09:17:50Z</time>
      </trkpt>
      <trkpt lat="43.53225" lon="6.16106">
        <ele>305.36</ele>
        <time>2011-11-20T09:17:54Z</time>
      </trkpt>
      <trkpt lat="43.53226" lon="6.16106">
        <ele>300.07</ele>
        <time>2011-11-20T09:17:55Z</time>
      </trkpt>
      <trkpt lat="43.53227" lon="6.16106">
        <ele>303.43</ele>
        <time>2011-11-20T09:17:57Z</time>
      </trkpt>
      <trkpt lat="43.53234" lon="6.16104">
        <ele>307.76</ele>
        <time>2011-11-20T09:18:06Z</time>
      </trkpt>
      <trkpt lat="43.53235" lon="6.16104">
        <ele>300.07</ele>
        <time>2011-11-20T09:18:07Z</time>
      </trkpt>
      <trkpt lat="43.53236" lon="6.16104">
        <ele>304.39</ele>
        <time>2011-11-20T09:18:08Z</time>
      </trkpt>
      <trkpt lat="43.53238" lon="6.16104">
        <ele>299.59</ele>
        <time>2011-11-20T09:18:10Z</time>
      </trkpt>
      <trkpt lat="43.53239" lon="6.16104">
        <ele>304.39</ele>
        <time>2011-11-20T09:18:11Z</time>
      </trkpt>
      <trkpt lat="43.5324" lon="6.16104">
        <ele>304.39</ele>
        <time>2011-11-20T09:18:12Z</time>
      </trkpt>
      <trkpt lat="43.53241" lon="6.16104">
        <ele>307.76</ele>
        <time>2011-11-20T09:18:14Z</time>
      </trkpt>
      <trkpt lat="43.53242" lon="6.16104">
        <ele>304.39</ele>
        <time>2011-11-20T09:18:15Z</time>
      </trkpt>
      <trkpt lat="43.53244" lon="6.16104">
        <ele>309.68</ele>
        <time>2011-11-20T09:18:17Z</time>
      </trkpt>
      <trkpt lat="43.53245" lon="6.16104">
        <ele>302.95</ele>
        <time>2011-11-20T09:18:18Z</time>
      </trkpt>
      <trkpt lat="43.53245" lon="6.16104">
        <ele>307.76</ele>
        <time>2011-11-20T09:18:19Z</time>
      </trkpt>
      <trkpt lat="43.5325" lon="6.16103">
        <ele>304.88</ele>
        <time>2011-11-20T09:18:25Z</time>
      </trkpt>
      <trkpt lat="43.53252" lon="6.16103">
        <ele>308.24</ele>
        <time>2011-11-20T09:18:26Z</time>
      </trkpt>
      <trkpt lat="43.53253" lon="6.16102">
        <ele>304.39</ele>
        <time>2011-11-20T09:18:27Z</time>
      </trkpt>
      <trkpt lat="43.53254" lon="6.16102">
        <ele>307.76</ele>
        <time>2011-11-20T09:18:28Z</time>
      </trkpt>
      <trkpt lat="43.53255" lon="6.16102">
        <ele>303.91</ele>
        <time>2011-11-20T09:18:29Z</time>
      </trkpt>
      <trkpt lat="43.53255" lon="6.16101">
        <ele>307.28</ele>
        <time>2011-11-20T09:18:30Z</time>
      </trkpt>
      <trkpt lat="43.53261" lon="6.161">
        <ele>306.8</ele>
        <time>2011-11-20T09:18:38Z</time>
      </trkpt>
      <trkpt lat="43.53265" lon="6.16099">
        <ele>305.36</ele>
        <time>2011-11-20T09:18:42Z</time>
      </trkpt>
      <trkpt lat="43.53265" lon="6.16099">
        <ele>309.2</ele>
        <time>2011-11-20T09:18:43Z</time>
      </trkpt>
      <trkpt lat="43.53276" lon="6.16097">
        <ele>309.2</ele>
        <time>2011-11-20T09:18:54Z</time>
      </trkpt>
      <trkpt lat="43.53277" lon="6.16097">
        <ele>313.53</ele>
        <time>2011-11-20T09:18:56Z</time>
      </trkpt>
      <trkpt lat="43.53278" lon="6.16097">
        <ele>310.64</ele>
        <time>2011-11-20T09:18:57Z</time>
      </trkpt>
      <trkpt lat="43.53283" lon="6.16096">
        <ele>307.28</ele>
        <time>2011-11-20T09:19:03Z</time>
      </trkpt>
      <trkpt lat="43.53283" lon="6.16096">
        <ele>311.6</ele>
        <time>2011-11-20T09:19:04Z</time>
      </trkpt>
      <trkpt lat="43.53286" lon="6.16095">
        <ele>315.45</ele>
        <time>2011-11-20T09:19:09Z</time>
      </trkpt>
      <trkpt lat="43.53287" lon="6.16095">
        <ele>310.16</ele>
        <time>2011-11-20T09:19:10Z</time>
      </trkpt>
      <trkpt lat="43.53288" lon="6.16095">
        <ele>313.53</ele>
        <time>2011-11-20T09:19:11Z</time>
      </trkpt>
      <trkpt lat="43.53289" lon="6.16095">
        <ele>310.16</ele>
        <time>2011-11-20T09:19:13Z</time>
      </trkpt>
      <trkpt lat="43.53291" lon="6.16094">
        <ele>314.49</ele>
        <time>2011-11-20T09:19:16Z</time>
      </trkpt>
      <trkpt lat="43.53295" lon="6.16092">
        <ele>310.64</ele>
        <time>2011-11-20T09:19:22Z</time>
      </trkpt>
      <trkpt lat="43.53295" lon="6.16092">
        <ele>314.97</ele>
        <time>2011-11-20T09:19:23Z</time>
      </trkpt>
      <trkpt lat="43.53299" lon="6.16091">
        <ele>312.09</ele>
        <time>2011-11-20T09:19:28Z</time>
      </trkpt>
      <trkpt lat="43.533" lon="6.16091">
        <ele>319.3</ele>
        <time>2011-11-20T09:19:29Z</time>
      </trkpt>
      <trkpt lat="43.53301" lon="6.1609">
        <ele>314.01</ele>
        <time>2011-11-20T09:19:30Z</time>
      </trkpt>
      <trkpt lat="43.53306" lon="6.16089">
        <ele>310.64</ele>
        <time>2011-11-20T09:19:36Z</time>
      </trkpt>
      <trkpt lat="43.53307" lon="6.16089">
        <ele>314.97</ele>
        <time>2011-11-20T09:19:37Z</time>
      </trkpt>
      <trkpt lat="43.53309" lon="6.16088">
        <ele>318.81</ele>
        <time>2011-11-20T09:19:39Z</time>
      </trkpt>
      <trkpt lat="43.53311" lon="6.16088">
        <ele>314.01</ele>
        <time>2011-11-20T09:19:41Z</time>
      </trkpt>
      <trkpt lat="43.53311" lon="6.16087">
        <ele>318.33</ele>
        <time>2011-11-20T09:19:42Z</time>
      </trkpt>
      <trkpt lat="43.53314" lon="6.16087">
        <ele>317.37</ele>
        <time>2011-11-20T09:19:46Z</time>
      </trkpt>
      <trkpt lat="43.53315" lon="6.16087">
        <ele>315.45</ele>
        <time>2011-11-20T09:19:48Z</time>
      </trkpt>
      <trkpt lat="43.53318" lon="6.16085">
        <ele>319.78</ele>
        <time>2011-11-20T09:19:54Z</time>
      </trkpt>
      <trkpt lat="43.53319" lon="6.16085">
        <ele>315.93</ele>
        <time>2011-11-20T09:19:55Z</time>
      </trkpt>
      <trkpt lat="43.5332" lon="6.16084">
        <ele>312.09</ele>
        <time>2011-11-20T09:19:57Z</time>
      </trkpt>
      <trkpt lat="43.5332" lon="6.16084">
        <ele>319.3</ele>
        <time>2011-11-20T09:19:58Z</time>
      </trkpt>
      <trkpt lat="43.53321" lon="6.16084">
        <ele>315.93</ele>
        <time>2011-11-20T09:20:00Z</time>
      </trkpt>
      <trkpt lat="43.53322" lon="6.16083">
        <ele>318.81</ele>
        <time>2011-11-20T09:20:01Z</time>
      </trkpt>
      <trkpt lat="43.53325" lon="6.16082">
        <ele>322.18</ele>
        <time>2011-11-20T09:20:05Z</time>
      </trkpt>
      <trkpt lat="43.53326" lon="6.16082">
        <ele>316.89</ele>
        <time>2011-11-20T09:20:06Z</time>
      </trkpt>
      <trkpt lat="43.53327" lon="6.16082">
        <ele>320.26</ele>
        <time>2011-11-20T09:20:09Z</time>
      </trkpt>
      <trkpt lat="43.53328" lon="6.16082">
        <ele>323.62</ele>
        <time>2011-11-20T09:20:11Z</time>
      </trkpt>
      <trkpt lat="43.53329" lon="6.16082">
        <ele>319.3</ele>
        <time>2011-11-20T09:20:12Z</time>
      </trkpt>
      <trkpt lat="43.53333" lon="6.16081">
        <ele>316.41</ele>
        <time>2011-11-20T09:20:16Z</time>
      </trkpt>
      <trkpt lat="43.53334" lon="6.1608">
        <ele>319.78</ele>
        <time>2011-11-20T09:20:17Z</time>
      </trkpt>
      <trkpt lat="43.53342" lon="6.16079">
        <ele>322.66</ele>
        <time>2011-11-20T09:20:27Z</time>
      </trkpt>
      <trkpt lat="43.53344" lon="6.16079">
        <ele>319.3</ele>
        <time>2011-11-20T09:20:29Z</time>
      </trkpt>
      <trkpt lat="43.53346" lon="6.16078">
        <ele>324.1</ele>
        <time>2011-11-20T09:20:32Z</time>
      </trkpt>
      <trkpt lat="43.53347" lon="6.16078">
        <ele>319.3</ele>
        <time>2011-11-20T09:20:33Z</time>
      </trkpt>
      <trkpt lat="43.53348" lon="6.16079">
        <ele>323.14</ele>
        <time>2011-11-20T09:20:34Z</time>
      </trkpt>
      <trkpt lat="43.53354" lon="6.16076">
        <ele>323.62</ele>
        <time>2011-11-20T09:20:43Z</time>
      </trkpt>
      <trkpt lat="43.53362" lon="6.16078">
        <ele>326.02</ele>
        <time>2011-11-20T09:20:53Z</time>
      </trkpt>
      <trkpt lat="43.53364" lon="6.16082">
        <ele>322.66</ele>
        <time>2011-11-20T09:20:57Z</time>
      </trkpt>
      <trkpt lat="43.53366" lon="6.16084">
        <ele>326.5</ele>
        <time>2011-11-20T09:20:59Z</time>
      </trkpt>
      <trkpt lat="43.53366" lon="6.16085">
        <ele>323.62</ele>
        <time>2011-11-20T09:21:00Z</time>
      </trkpt>
      <trkpt lat="43.53367" lon="6.16086">
        <ele>327.95</ele>
        <time>2011-11-20T09:21:02Z</time>
      </trkpt>
      <trkpt lat="43.53373" lon="6.16082">
        <ele>323.62</ele>
        <time>2011-11-20T09:21:12Z</time>
      </trkpt>
      <trkpt lat="43.53374" lon="6.1608">
        <ele>326.99</ele>
        <time>2011-11-20T09:21:14Z</time>
      </trkpt>
      <trkpt lat="43.53379" lon="6.16071">
        <ele>326.02</ele>
        <time>2011-11-20T09:21:22Z</time>
      </trkpt>
      <trkpt lat="43.53381" lon="6.16072">
        <ele>329.39</ele>
        <time>2011-11-20T09:21:24Z</time>
      </trkpt>
      <trkpt lat="43.53383" lon="6.16072">
        <ele>330.35</ele>
        <time>2011-11-20T09:21:26Z</time>
      </trkpt>
      <trkpt lat="43.53384" lon="6.16073">
        <ele>326.99</ele>
        <time>2011-11-20T09:21:27Z</time>
      </trkpt>
      <trkpt lat="43.53389" lon="6.16076">
        <ele>333.23</ele>
        <time>2011-11-20T09:21:33Z</time>
      </trkpt>
      <trkpt lat="43.53394" lon="6.16084">
        <ele>331.79</ele>
        <time>2011-11-20T09:21:39Z</time>
      </trkpt>
      <trkpt lat="43.53395" lon="6.16089">
        <ele>327.95</ele>
        <time>2011-11-20T09:21:42Z</time>
      </trkpt>
      <trkpt lat="43.53396" lon="6.1609">
        <ele>331.79</ele>
        <time>2011-11-20T09:21:43Z</time>
      </trkpt>
      <trkpt lat="43.53396" lon="6.16094">
        <ele>328.91</ele>
        <time>2011-11-20T09:21:46Z</time>
      </trkpt>
      <trkpt lat="43.53401" lon="6.16108">
        <ele>329.39</ele>
        <time>2011-11-20T09:21:58Z</time>
      </trkpt>
      <trkpt lat="43.53406" lon="6.16118">
        <ele>333.71</ele>
        <time>2011-11-20T09:22:07Z</time>
      </trkpt>
      <trkpt lat="43.53407" lon="6.16122">
        <ele>328.91</ele>
        <time>2011-11-20T09:22:10Z</time>
      </trkpt>
      <trkpt lat="43.53409" lon="6.16128">
        <ele>334.2</ele>
        <time>2011-11-20T09:22:14Z</time>
      </trkpt>
      <trkpt lat="43.5341" lon="6.1613">
        <ele>333.23</ele>
        <time>2011-11-20T09:22:15Z</time>
      </trkpt>
      <trkpt lat="43.5341" lon="6.16135">
        <ele>330.35</ele>
        <time>2011-11-20T09:22:18Z</time>
      </trkpt>
      <trkpt lat="43.5341" lon="6.16139">
        <ele>335.16</ele>
        <time>2011-11-20T09:22:21Z</time>
      </trkpt>
      <trkpt lat="43.5341" lon="6.1614">
        <ele>335.16</ele>
        <time>2011-11-20T09:22:22Z</time>
      </trkpt>
      <trkpt lat="43.53411" lon="6.16143">
        <ele>329.87</ele>
        <time>2011-11-20T09:22:24Z</time>
      </trkpt>
      <trkpt lat="43.53411" lon="6.16144">
        <ele>329.87</ele>
        <time>2011-11-20T09:22:25Z</time>
      </trkpt>
      <trkpt lat="43.53411" lon="6.16146">
        <ele>333.71</ele>
        <time>2011-11-20T09:22:27Z</time>
      </trkpt>
      <trkpt lat="43.53413" lon="6.16155">
        <ele>329.87</ele>
        <time>2011-11-20T09:22:32Z</time>
      </trkpt>
      <trkpt lat="43.53414" lon="6.16163">
        <ele>334.2</ele>
        <time>2011-11-20T09:22:37Z</time>
      </trkpt>
      <trkpt lat="43.53414" lon="6.16165">
        <ele>334.68</ele>
        <time>2011-11-20T09:22:38Z</time>
      </trkpt>
      <trkpt lat="43.53416" lon="6.16177">
        <ele>331.31</ele>
        <time>2011-11-20T09:22:46Z</time>
      </trkpt>
      <trkpt lat="43.53416" lon="6.16179">
        <ele>331.79</ele>
        <time>2011-11-20T09:22:47Z</time>
      </trkpt>
      <trkpt lat="43.53418" lon="6.16186">
        <ele>326.5</ele>
        <time>2011-11-20T09:22:52Z</time>
      </trkpt>
      <trkpt lat="43.53419" lon="6.16188">
        <ele>330.35</ele>
        <time>2011-11-20T09:22:53Z</time>
      </trkpt>
      <trkpt lat="43.5342" lon="6.1619">
        <ele>331.31</ele>
        <time>2011-11-20T09:22:55Z</time>
      </trkpt>
      <trkpt lat="43.53426" lon="6.162">
        <ele>333.23</ele>
        <time>2011-11-20T09:23:06Z</time>
      </trkpt>
      <trkpt lat="43.53427" lon="6.16201">
        <ele>329.87</ele>
        <time>2011-11-20T09:23:07Z</time>
      </trkpt>
      <trkpt lat="43.5343" lon="6.16202">
        <ele>332.75</ele>
        <time>2011-11-20T09:23:12Z</time>
      </trkpt>
      <trkpt lat="43.53433" lon="6.16201">
        <ele>328.91</ele>
        <time>2011-11-20T09:23:16Z</time>
      </trkpt>
      <trkpt lat="43.53434" lon="6.16201">
        <ele>332.27</ele>
        <time>2011-11-20T09:23:17Z</time>
      </trkpt>
      <trkpt lat="43.53436" lon="6.16201">
        <ele>335.64</ele>
        <time>2011-11-20T09:23:20Z</time>
      </trkpt>
      <trkpt lat="43.53437" lon="6.16201">
        <ele>332.27</ele>
        <time>2011-11-20T09:23:21Z</time>
      </trkpt>
      <trkpt lat="43.53441" lon="6.162">
        <ele>336.12</ele>
        <time>2011-11-20T09:23:26Z</time>
      </trkpt>
      <trkpt lat="43.53444" lon="6.16199">
        <ele>336.12</ele>
        <time>2011-11-20T09:23:29Z</time>
      </trkpt>
      <trkpt lat="43.53445" lon="6.16199">
        <ele>333.23</ele>
        <time>2011-11-20T09:23:30Z</time>
      </trkpt>
      <trkpt lat="43.53447" lon="6.16198">
        <ele>337.08</ele>
        <time>2011-11-20T09:23:32Z</time>
      </trkpt>
      <trkpt lat="43.53448" lon="6.16198">
        <ele>334.2</ele>
        <time>2011-11-20T09:23:33Z</time>
      </trkpt>
      <trkpt lat="43.53451" lon="6.16192">
        <ele>337.56</ele>
        <time>2011-11-20T09:23:41Z</time>
      </trkpt>
      <trkpt lat="43.53453" lon="6.16187">
        <ele>332.75</ele>
        <time>2011-11-20T09:23:46Z</time>
      </trkpt>
      <trkpt lat="43.53453" lon="6.16186">
        <ele>336.12</ele>
        <time>2011-11-20T09:23:47Z</time>
      </trkpt>
      <trkpt lat="43.53455" lon="6.16179">
        <ele>335.64</ele>
        <time>2011-11-20T09:23:53Z</time>
      </trkpt>
      <trkpt lat="43.53456" lon="6.16179">
        <ele>339</ele>
        <time>2011-11-20T09:23:54Z</time>
      </trkpt>
      <trkpt lat="43.53456" lon="6.16178">
        <ele>337.08</ele>
        <time>2011-11-20T09:23:55Z</time>
      </trkpt>
      <trkpt lat="43.53456" lon="6.16175">
        <ele>336.6</ele>
        <time>2011-11-20T09:23:57Z</time>
      </trkpt>
      <trkpt lat="43.53461" lon="6.16161">
        <ele>336.6</ele>
        <time>2011-11-20T09:24:08Z</time>
      </trkpt>
      <trkpt lat="43.53465" lon="6.16143">
        <ele>337.08</ele>
        <time>2011-11-20T09:24:22Z</time>
      </trkpt>
      <trkpt lat="43.53465" lon="6.1614">
        <ele>337.08</ele>
        <time>2011-11-20T09:24:24Z</time>
      </trkpt>
      <trkpt lat="43.53462" lon="6.16116">
        <ele>337.56</ele>
        <time>2011-11-20T09:24:39Z</time>
      </trkpt>
      <trkpt lat="43.53459" lon="6.16096">
        <ele>337.08</ele>
        <time>2011-11-20T09:24:51Z</time>
      </trkpt>
      <trkpt lat="43.53459" lon="6.16093">
        <ele>337.56</ele>
        <time>2011-11-20T09:24:53Z</time>
      </trkpt>
      <trkpt lat="43.53459" lon="6.16084">
        <ele>333.71</ele>
        <time>2011-11-20T09:24:58Z</time>
      </trkpt>
      <trkpt lat="43.53459" lon="6.16082">
        <ele>337.08</ele>
        <time>2011-11-20T09:24:59Z</time>
      </trkpt>
      <trkpt lat="43.5346" lon="6.16063">
        <ele>337.56</ele>
        <time>2011-11-20T09:25:12Z</time>
      </trkpt>
      <trkpt lat="43.5346" lon="6.16053">
        <ele>337.08</ele>
        <time>2011-11-20T09:25:18Z</time>
      </trkpt>
      <trkpt lat="43.53464" lon="6.16036">
        <ele>337.08</ele>
        <time>2011-11-20T09:25:29Z</time>
      </trkpt>
      <trkpt lat="43.53463" lon="6.16013">
        <ele>336.12</ele>
        <time>2011-11-20T09:25:44Z</time>
      </trkpt>
      <trkpt lat="43.53462" lon="6.16012">
        <ele>336.12</ele>
        <time>2011-11-20T09:25:45Z</time>
      </trkpt>
      <trkpt lat="43.53462" lon="6.15991">
        <ele>336.12</ele>
        <time>2011-11-20T09:25:57Z</time>
      </trkpt>
      <trkpt lat="43.53464" lon="6.1597">
        <ele>338.52</ele>
        <time>2011-11-20T09:26:10Z</time>
      </trkpt>
      <trkpt lat="43.53464" lon="6.15965">
        <ele>337.08</ele>
        <time>2011-11-20T09:26:13Z</time>
      </trkpt>
      <trkpt lat="43.53463" lon="6.15958">
        <ele>338.04</ele>
        <time>2011-11-20T09:26:17Z</time>
      </trkpt>
      <trkpt lat="43.53463" lon="6.15945">
        <ele>338.04</ele>
        <time>2011-11-20T09:26:25Z</time>
      </trkpt>
      <trkpt lat="43.53464" lon="6.15928">
        <ele>337.08</ele>
        <time>2011-11-20T09:26:35Z</time>
      </trkpt>
      <trkpt lat="43.53466" lon="6.15922">
        <ele>338.52</ele>
        <time>2011-11-20T09:26:40Z</time>
      </trkpt>
      <trkpt lat="43.53467" lon="6.15921">
        <ele>335.64</ele>
        <time>2011-11-20T09:26:41Z</time>
      </trkpt>
      <trkpt lat="43.53467" lon="6.1592">
        <ele>336.6</ele>
        <time>2011-11-20T09:26:45Z</time>
      </trkpt>
      <trkpt lat="43.53467" lon="6.15919">
        <ele>336.12</ele>
        <time>2011-11-20T09:28:02Z</time>
      </trkpt>
      <trkpt lat="43.53474" lon="6.15914">
        <ele>335.64</ele>
        <time>2011-11-20T09:28:27Z</time>
      </trkpt>
      <trkpt lat="43.53487" lon="6.15908">
        <ele>334.2</ele>
        <time>2011-11-20T09:28:40Z</time>
      </trkpt>
      <trkpt lat="43.53503" lon="6.15903">
        <ele>331.79</ele>
        <time>2011-11-20T09:28:57Z</time>
      </trkpt>
      <trkpt lat="43.53506" lon="6.15903">
        <ele>330.35</ele>
        <time>2011-11-20T09:29:00Z</time>
      </trkpt>
      <trkpt lat="43.53513" lon="6.15901">
        <ele>330.35</ele>
        <time>2011-11-20T09:29:06Z</time>
      </trkpt>
      <trkpt lat="43.53528" lon="6.15897">
        <ele>329.39</ele>
        <time>2011-11-20T09:29:20Z</time>
      </trkpt>
      <trkpt lat="43.53539" lon="6.15908">
        <ele>326.02</ele>
        <time>2011-11-20T09:29:34Z</time>
      </trkpt>
      <trkpt lat="43.53548" lon="6.15918">
        <ele>326.99</ele>
        <time>2011-11-20T09:29:47Z</time>
      </trkpt>
      <trkpt lat="43.53561" lon="6.15931">
        <ele>325.06</ele>
        <time>2011-11-20T09:29:59Z</time>
      </trkpt>
      <trkpt lat="43.53564" lon="6.15933">
        <ele>325.06</ele>
        <time>2011-11-20T09:30:02Z</time>
      </trkpt>
      <trkpt lat="43.5358" lon="6.15935">
        <ele>324.58</ele>
        <time>2011-11-20T09:30:15Z</time>
      </trkpt>
      <trkpt lat="43.53594" lon="6.15936">
        <ele>324.1</ele>
        <time>2011-11-20T09:30:28Z</time>
      </trkpt>
      <trkpt lat="43.53608" lon="6.15932">
        <ele>323.62</ele>
        <time>2011-11-20T09:30:42Z</time>
      </trkpt>
      <trkpt lat="43.53613" lon="6.1593">
        <ele>324.58</ele>
        <time>2011-11-20T09:30:46Z</time>
      </trkpt>
      <trkpt lat="43.53618" lon="6.15929">
        <ele>321.22</ele>
        <time>2011-11-20T09:30:50Z</time>
      </trkpt>
      <trkpt lat="43.5363" lon="6.15927">
        <ele>324.58</ele>
        <time>2011-11-20T09:31:00Z</time>
      </trkpt>
      <trkpt lat="43.53645" lon="6.15922">
        <ele>323.62</ele>
        <time>2011-11-20T09:31:14Z</time>
      </trkpt>
      <trkpt lat="43.5366" lon="6.15918">
        <ele>324.58</ele>
        <time>2011-11-20T09:31:28Z</time>
      </trkpt>
      <trkpt lat="43.53672" lon="6.15916">
        <ele>325.06</ele>
        <time>2011-11-20T09:31:39Z</time>
      </trkpt>
      <trkpt lat="43.53679" lon="6.15919">
        <ele>326.5</ele>
        <time>2011-11-20T09:31:46Z</time>
      </trkpt>
      <trkpt lat="43.53685" lon="6.15921">
        <ele>324.1</ele>
        <time>2011-11-20T09:31:52Z</time>
      </trkpt>
      <trkpt lat="43.53694" lon="6.15923">
        <ele>327.47</ele>
        <time>2011-11-20T09:32:01Z</time>
      </trkpt>
      <trkpt lat="43.53695" lon="6.15924">
        <ele>326.5</ele>
        <time>2011-11-20T09:32:02Z</time>
      </trkpt>
      <trkpt lat="43.53713" lon="6.1593">
        <ele>325.54</ele>
        <time>2011-11-20T09:32:16Z</time>
      </trkpt>
      <trkpt lat="43.5372" lon="6.15935">
        <ele>326.99</ele>
        <time>2011-11-20T09:32:24Z</time>
      </trkpt>
      <trkpt lat="43.53721" lon="6.15936">
        <ele>325.06</ele>
        <time>2011-11-20T09:32:26Z</time>
      </trkpt>
      <trkpt lat="43.53722" lon="6.15937">
        <ele>326.5</ele>
        <time>2011-11-20T09:32:27Z</time>
      </trkpt>
      <trkpt lat="43.53734" lon="6.1595">
        <ele>325.06</ele>
        <time>2011-11-20T09:32:41Z</time>
      </trkpt>
      <trkpt lat="43.5375" lon="6.15956">
        <ele>326.5</ele>
        <time>2011-11-20T09:32:55Z</time>
      </trkpt>
      <trkpt lat="43.53763" lon="6.15962">
        <ele>323.14</ele>
        <time>2011-11-20T09:33:06Z</time>
      </trkpt>
      <trkpt lat="43.53766" lon="6.15962">
        <ele>325.06</ele>
        <time>2011-11-20T09:33:09Z</time>
      </trkpt>
      <trkpt lat="43.53785" lon="6.15965">
        <ele>325.54</ele>
        <time>2011-11-20T09:33:23Z</time>
      </trkpt>
      <trkpt lat="43.53795" lon="6.15965">
        <ele>324.58</ele>
        <time>2011-11-20T09:33:32Z</time>
      </trkpt>
      <trkpt lat="43.53801" lon="6.15964">
        <ele>324.58</ele>
        <time>2011-11-20T09:33:36Z</time>
      </trkpt>
      <trkpt lat="43.53818" lon="6.15965">
        <ele>326.99</ele>
        <time>2011-11-20T09:33:49Z</time>
      </trkpt>
      <trkpt lat="43.53834" lon="6.15964">
        <ele>323.62</ele>
        <time>2011-11-20T09:34:02Z</time>
      </trkpt>
      <trkpt lat="43.53847" lon="6.15965">
        <ele>325.54</ele>
        <time>2011-11-20T09:34:15Z</time>
      </trkpt>
      <trkpt lat="43.53856" lon="6.1597">
        <ele>324.1</ele>
        <time>2011-11-20T09:34:23Z</time>
      </trkpt>
      <trkpt lat="43.53862" lon="6.15973">
        <ele>326.02</ele>
        <time>2011-11-20T09:34:28Z</time>
      </trkpt>
      <trkpt lat="43.53872" lon="6.15977">
        <ele>321.7</ele>
        <time>2011-11-20T09:34:37Z</time>
      </trkpt>
      <trkpt lat="43.5388" lon="6.15976">
        <ele>326.02</ele>
        <time>2011-11-20T09:34:44Z</time>
      </trkpt>
      <trkpt lat="43.53881" lon="6.15976">
        <ele>325.06</ele>
        <time>2011-11-20T09:34:45Z</time>
      </trkpt>
      <trkpt lat="43.53886" lon="6.15972">
        <ele>324.1</ele>
        <time>2011-11-20T09:34:50Z</time>
      </trkpt>
      <trkpt lat="43.53893" lon="6.15967">
        <ele>322.66</ele>
        <time>2011-11-20T09:34:56Z</time>
      </trkpt>
      <trkpt lat="43.53894" lon="6.15966">
        <ele>318.81</ele>
        <time>2011-11-20T09:34:57Z</time>
      </trkpt>
      <trkpt lat="43.53895" lon="6.15965">
        <ele>323.62</ele>
        <time>2011-11-20T09:34:58Z</time>
      </trkpt>
      <trkpt lat="43.53902" lon="6.15958">
        <ele>322.66</ele>
        <time>2011-11-20T09:35:05Z</time>
      </trkpt>
      <trkpt lat="43.53906" lon="6.15956">
        <ele>324.1</ele>
        <time>2011-11-20T09:35:10Z</time>
      </trkpt>
      <trkpt lat="43.53921" lon="6.15954">
        <ele>323.14</ele>
        <time>2011-11-20T09:35:24Z</time>
      </trkpt>
      <trkpt lat="43.53926" lon="6.15956">
        <ele>324.58</ele>
        <time>2011-11-20T09:35:28Z</time>
      </trkpt>
      <trkpt lat="43.53938" lon="6.1596">
        <ele>323.14</ele>
        <time>2011-11-20T09:35:40Z</time>
      </trkpt>
      <trkpt lat="43.53953" lon="6.15958">
        <ele>324.1</ele>
        <time>2011-11-20T09:35:52Z</time>
      </trkpt>
      <trkpt lat="43.53967" lon="6.1595">
        <ele>321.22</ele>
        <time>2011-11-20T09:36:05Z</time>
      </trkpt>
      <trkpt lat="43.53978" lon="6.15944">
        <ele>322.66</ele>
        <time>2011-11-20T09:36:16Z</time>
      </trkpt>
      <trkpt lat="43.5398" lon="6.15943">
        <ele>321.22</ele>
        <time>2011-11-20T09:36:18Z</time>
      </trkpt>
      <trkpt lat="43.53986" lon="6.15943">
        <ele>322.66</ele>
        <time>2011-11-20T09:36:22Z</time>
      </trkpt>
      <trkpt lat="43.53998" lon="6.15944">
        <ele>323.62</ele>
        <time>2011-11-20T09:36:31Z</time>
      </trkpt>
      <trkpt lat="43.54005" lon="6.15944">
        <ele>325.06</ele>
        <time>2011-11-20T09:36:38Z</time>
      </trkpt>
      <trkpt lat="43.54007" lon="6.15944">
        <ele>322.18</ele>
        <time>2011-11-20T09:36:41Z</time>
      </trkpt>
      <trkpt lat="43.5401" lon="6.15945">
        <ele>325.54</ele>
        <time>2011-11-20T09:36:44Z</time>
      </trkpt>
      <trkpt lat="43.54025" lon="6.15948">
        <ele>325.06</ele>
        <time>2011-11-20T09:36:55Z</time>
      </trkpt>
      <trkpt lat="43.54033" lon="6.1595">
        <ele>325.54</ele>
        <time>2011-11-20T09:37:03Z</time>
      </trkpt>
      <trkpt lat="43.54048" lon="6.15952">
        <ele>326.5</ele>
        <time>2011-11-20T09:37:17Z</time>
      </trkpt>
      <trkpt lat="43.54059" lon="6.15949">
        <ele>327.95</ele>
        <time>2011-11-20T09:37:26Z</time>
      </trkpt>
      <trkpt lat="43.54075" lon="6.15937">
        <ele>326.5</ele>
        <time>2011-11-20T09:37:40Z</time>
      </trkpt>
      <trkpt lat="43.54082" lon="6.15926">
        <ele>324.58</ele>
        <time>2011-11-20T09:37:52Z</time>
      </trkpt>
      <trkpt lat="43.54089" lon="6.15914">
        <ele>322.66</ele>
        <time>2011-11-20T09:38:03Z</time>
      </trkpt>
      <trkpt lat="43.54089" lon="6.15911">
        <ele>324.1</ele>
        <time>2011-11-20T09:38:05Z</time>
      </trkpt>
      <trkpt lat="43.54096" lon="6.15896">
        <ele>322.18</ele>
        <time>2011-11-20T09:38:17Z</time>
      </trkpt>
      <trkpt lat="43.54101" lon="6.15875">
        <ele>322.18</ele>
        <time>2011-11-20T09:38:31Z</time>
      </trkpt>
      <trkpt lat="43.54101" lon="6.15871">
        <ele>323.14</ele>
        <time>2011-11-20T09:38:33Z</time>
      </trkpt>
      <trkpt lat="43.54099" lon="6.15853">
        <ele>321.7</ele>
        <time>2011-11-20T09:38:44Z</time>
      </trkpt>
      <trkpt lat="43.54097" lon="6.15838">
        <ele>321.7</ele>
        <time>2011-11-20T09:38:53Z</time>
      </trkpt>
      <trkpt lat="43.54097" lon="6.15826">
        <ele>320.26</ele>
        <time>2011-11-20T09:39:01Z</time>
      </trkpt>
      <trkpt lat="43.54098" lon="6.15817">
        <ele>321.7</ele>
        <time>2011-11-20T09:39:07Z</time>
      </trkpt>
      <trkpt lat="43.54103" lon="6.15803">
        <ele>319.78</ele>
        <time>2011-11-20T09:39:17Z</time>
      </trkpt>
      <trkpt lat="43.54111" lon="6.15785">
        <ele>317.37</ele>
        <time>2011-11-20T09:39:30Z</time>
      </trkpt>
      <trkpt lat="43.54111" lon="6.15783">
        <ele>317.37</ele>
        <time>2011-11-20T09:39:31Z</time>
      </trkpt>
      <trkpt lat="43.54112" lon="6.15782">
        <ele>316.41</ele>
        <time>2011-11-20T09:39:32Z</time>
      </trkpt>
      <trkpt lat="43.54114" lon="6.15774">
        <ele>317.85</ele>
        <time>2011-11-20T09:39:37Z</time>
      </trkpt>
      <trkpt lat="43.54118" lon="6.15758">
        <ele>313.05</ele>
        <time>2011-11-20T09:39:47Z</time>
      </trkpt>
      <trkpt lat="43.54118" lon="6.15757">
        <ele>315.93</ele>
        <time>2011-11-20T09:39:48Z</time>
      </trkpt>
      <trkpt lat="43.54118" lon="6.15755">
        <ele>317.85</ele>
        <time>2011-11-20T09:39:50Z</time>
      </trkpt>
      <trkpt lat="43.54118" lon="6.15747">
        <ele>315.45</ele>
        <time>2011-11-20T09:39:57Z</time>
      </trkpt>
      <trkpt lat="43.54118" lon="6.1573">
        <ele>315.45</ele>
        <time>2011-11-20T09:40:08Z</time>
      </trkpt>
      <trkpt lat="43.54119" lon="6.15727">
        <ele>314.01</ele>
        <time>2011-11-20T09:40:10Z</time>
      </trkpt>
      <trkpt lat="43.54121" lon="6.15719">
        <ele>317.85</ele>
        <time>2011-11-20T09:40:16Z</time>
      </trkpt>
      <trkpt lat="43.54121" lon="6.15717">
        <ele>316.89</ele>
        <time>2011-11-20T09:40:17Z</time>
      </trkpt>
      <trkpt lat="43.54123" lon="6.15706">
        <ele>314.97</ele>
        <time>2011-11-20T09:40:24Z</time>
      </trkpt>
      <trkpt lat="43.5413" lon="6.15689">
        <ele>315.45</ele>
        <time>2011-11-20T09:40:36Z</time>
      </trkpt>
      <trkpt lat="43.54131" lon="6.15684">
        <ele>315.93</ele>
        <time>2011-11-20T09:40:39Z</time>
      </trkpt>
      <trkpt lat="43.54133" lon="6.15664">
        <ele>315.93</ele>
        <time>2011-11-20T09:40:51Z</time>
      </trkpt>
      <trkpt lat="43.54134" lon="6.15657">
        <ele>314.01</ele>
        <time>2011-11-20T09:40:56Z</time>
      </trkpt>
      <trkpt lat="43.54139" lon="6.15641">
        <ele>315.93</ele>
        <time>2011-11-20T09:41:07Z</time>
      </trkpt>
      <trkpt lat="43.54139" lon="6.1564">
        <ele>316.41</ele>
        <time>2011-11-20T09:41:08Z</time>
      </trkpt>
      <trkpt lat="43.5414" lon="6.15639">
        <ele>315.45</ele>
        <time>2011-11-20T09:41:09Z</time>
      </trkpt>
      <trkpt lat="43.54144" lon="6.15631">
        <ele>314.01</ele>
        <time>2011-11-20T09:41:15Z</time>
      </trkpt>
      <trkpt lat="43.54148" lon="6.1562">
        <ele>314.97</ele>
        <time>2011-11-20T09:41:23Z</time>
      </trkpt>
      <trkpt lat="43.54151" lon="6.15604">
        <ele>314.49</ele>
        <time>2011-11-20T09:41:33Z</time>
      </trkpt>
      <trkpt lat="43.54153" lon="6.15591">
        <ele>312.57</ele>
        <time>2011-11-20T09:41:41Z</time>
      </trkpt>
      <trkpt lat="43.54153" lon="6.15579">
        <ele>314.97</ele>
        <time>2011-11-20T09:41:49Z</time>
      </trkpt>
      <trkpt lat="43.54152" lon="6.15565">
        <ele>314.01</ele>
        <time>2011-11-20T09:41:57Z</time>
      </trkpt>
      <trkpt lat="43.54147" lon="6.15542">
        <ele>313.05</ele>
        <time>2011-11-20T09:42:11Z</time>
      </trkpt>
      <trkpt lat="43.54147" lon="6.15537">
        <ele>312.57</ele>
        <time>2011-11-20T09:42:14Z</time>
      </trkpt>
      <trkpt lat="43.5415" lon="6.15517">
        <ele>311.6</ele>
        <time>2011-11-20T09:42:28Z</time>
      </trkpt>
      <trkpt lat="43.54154" lon="6.155">
        <ele>310.64</ele>
        <time>2011-11-20T09:42:40Z</time>
      </trkpt>
      <trkpt lat="43.54155" lon="6.15495">
        <ele>310.64</ele>
        <time>2011-11-20T09:42:43Z</time>
      </trkpt>
      <trkpt lat="43.54157" lon="6.15486">
        <ele>311.6</ele>
        <time>2011-11-20T09:42:48Z</time>
      </trkpt>
      <trkpt lat="43.54158" lon="6.15468">
        <ele>312.57</ele>
        <time>2011-11-20T09:42:59Z</time>
      </trkpt>
      <trkpt lat="43.54161" lon="6.1545">
        <ele>309.68</ele>
        <time>2011-11-20T09:43:12Z</time>
      </trkpt>
      <trkpt lat="43.54161" lon="6.15435">
        <ele>311.6</ele>
        <time>2011-11-20T09:43:25Z</time>
      </trkpt>
      <trkpt lat="43.54165" lon="6.15418">
        <ele>310.16</ele>
        <time>2011-11-20T09:43:38Z</time>
      </trkpt>
      <trkpt lat="43.54165" lon="6.15417">
        <ele>310.64</ele>
        <time>2011-11-20T09:43:54Z</time>
      </trkpt>
      <trkpt lat="43.54164" lon="6.15417">
        <ele>310.64</ele>
        <time>2011-11-20T09:44:54Z</time>
      </trkpt>
      <trkpt lat="43.54163" lon="6.15417">
        <ele>310.64</ele>
        <time>2011-11-20T09:45:19Z</time>
      </trkpt>
      <trkpt lat="43.54163" lon="6.1541">
        <ele>310.64</ele>
        <time>2011-11-20T09:45:48Z</time>
      </trkpt>
      <trkpt lat="43.54164" lon="6.15399">
        <ele>311.12</ele>
        <time>2011-11-20T09:45:58Z</time>
      </trkpt>
      <trkpt lat="43.54167" lon="6.15386">
        <ele>312.09</ele>
        <time>2011-11-20T09:46:09Z</time>
      </trkpt>
      <trkpt lat="43.54168" lon="6.15372">
        <ele>311.12</ele>
        <time>2011-11-20T09:46:19Z</time>
      </trkpt>
      <trkpt lat="43.54169" lon="6.15356">
        <ele>310.16</ele>
        <time>2011-11-20T09:46:30Z</time>
      </trkpt>
      <trkpt lat="43.54169" lon="6.15352">
        <ele>311.12</ele>
        <time>2011-11-20T09:46:32Z</time>
      </trkpt>
      <trkpt lat="43.54168" lon="6.15332">
        <ele>312.57</ele>
        <time>2011-11-20T09:46:43Z</time>
      </trkpt>
      <trkpt lat="43.54167" lon="6.15327">
        <ele>311.12</ele>
        <time>2011-11-20T09:46:46Z</time>
      </trkpt>
      <trkpt lat="43.54162" lon="6.15312">
        <ele>311.6</ele>
        <time>2011-11-20T09:46:57Z</time>
      </trkpt>
      <trkpt lat="43.5416" lon="6.15309">
        <ele>312.57</ele>
        <time>2011-11-20T09:46:59Z</time>
      </trkpt>
      <trkpt lat="43.54152" lon="6.15295">
        <ele>310.16</ele>
        <time>2011-11-20T09:47:09Z</time>
      </trkpt>
      <trkpt lat="43.54146" lon="6.15276">
        <ele>311.12</ele>
        <time>2011-11-20T09:47:21Z</time>
      </trkpt>
      <trkpt lat="43.54145" lon="6.15272">
        <ele>308.72</ele>
        <time>2011-11-20T09:47:24Z</time>
      </trkpt>
      <trkpt lat="43.54144" lon="6.15267">
        <ele>310.16</ele>
        <time>2011-11-20T09:47:27Z</time>
      </trkpt>
      <trkpt lat="43.54136" lon="6.15254">
        <ele>309.2</ele>
        <time>2011-11-20T09:47:38Z</time>
      </trkpt>
      <trkpt lat="43.54126" lon="6.1524">
        <ele>308.72</ele>
        <time>2011-11-20T09:47:51Z</time>
      </trkpt>
      <trkpt lat="43.54125" lon="6.15238">
        <ele>309.68</ele>
        <time>2011-11-20T09:47:53Z</time>
      </trkpt>
      <trkpt lat="43.54117" lon="6.15227">
        <ele>307.76</ele>
        <time>2011-11-20T09:48:04Z</time>
      </trkpt>
      <trkpt lat="43.54108" lon="6.15211">
        <ele>307.76</ele>
        <time>2011-11-20T09:48:16Z</time>
      </trkpt>
      <trkpt lat="43.54101" lon="6.15194">
        <ele>306.8</ele>
        <time>2011-11-20T09:48:28Z</time>
      </trkpt>
      <trkpt lat="43.54098" lon="6.15188">
        <ele>307.76</ele>
        <time>2011-11-20T09:48:33Z</time>
      </trkpt>
      <trkpt lat="43.54096" lon="6.15184">
        <ele>306.32</ele>
        <time>2011-11-20T09:48:36Z</time>
      </trkpt>
      <trkpt lat="43.54092" lon="6.15179">
        <ele>308.72</ele>
        <time>2011-11-20T09:48:40Z</time>
      </trkpt>
      <trkpt lat="43.54086" lon="6.15169">
        <ele>305.36</ele>
        <time>2011-11-20T09:48:49Z</time>
      </trkpt>
      <trkpt lat="43.54085" lon="6.15167">
        <ele>305.36</ele>
        <time>2011-11-20T09:48:50Z</time>
      </trkpt>
      <trkpt lat="43.54083" lon="6.15163">
        <ele>308.72</ele>
        <time>2011-11-20T09:48:54Z</time>
      </trkpt>
      <trkpt lat="43.54072" lon="6.15146">
        <ele>305.36</ele>
        <time>2011-11-20T09:49:07Z</time>
      </trkpt>
      <trkpt lat="43.54071" lon="6.15144">
        <ele>304.88</ele>
        <time>2011-11-20T09:49:09Z</time>
      </trkpt>
      <trkpt lat="43.54065" lon="6.15131">
        <ele>305.36</ele>
        <time>2011-11-20T09:49:18Z</time>
      </trkpt>
      <trkpt lat="43.5406" lon="6.15122">
        <ele>303.43</ele>
        <time>2011-11-20T09:49:26Z</time>
      </trkpt>
      <trkpt lat="43.54051" lon="6.15106">
        <ele>304.39</ele>
        <time>2011-11-20T09:49:39Z</time>
      </trkpt>
      <trkpt lat="43.54046" lon="6.15098">
        <ele>304.39</ele>
        <time>2011-11-20T09:49:45Z</time>
      </trkpt>
      <trkpt lat="43.5404" lon="6.15092">
        <ele>301.51</ele>
        <time>2011-11-20T09:49:51Z</time>
      </trkpt>
      <trkpt lat="43.54037" lon="6.15087">
        <ele>303.91</ele>
        <time>2011-11-20T09:49:55Z</time>
      </trkpt>
      <trkpt lat="43.54026" lon="6.15076">
        <ele>301.99</ele>
        <time>2011-11-20T09:50:07Z</time>
      </trkpt>
      <trkpt lat="43.54025" lon="6.15073">
        <ele>301.03</ele>
        <time>2011-11-20T09:50:09Z</time>
      </trkpt>
      <trkpt lat="43.5402" lon="6.15067">
        <ele>300.55</ele>
        <time>2011-11-20T09:50:15Z</time>
      </trkpt>
      <trkpt lat="43.54012" lon="6.15057">
        <ele>299.59</ele>
        <time>2011-11-20T09:50:25Z</time>
      </trkpt>
      <trkpt lat="43.54011" lon="6.15056">
        <ele>299.11</ele>
        <time>2011-11-20T09:50:26Z</time>
      </trkpt>
      <trkpt lat="43.53994" lon="6.1505">
        <ele>299.59</ele>
        <time>2011-11-20T09:50:39Z</time>
      </trkpt>
      <trkpt lat="43.53983" lon="6.15042">
        <ele>297.67</ele>
        <time>2011-11-20T09:50:51Z</time>
      </trkpt>
      <trkpt lat="43.53979" lon="6.15038">
        <ele>296.7</ele>
        <time>2011-11-20T09:50:55Z</time>
      </trkpt>
      <trkpt lat="43.53976" lon="6.15036">
        <ele>298.15</ele>
        <time>2011-11-20T09:50:57Z</time>
      </trkpt>
      <trkpt lat="43.53964" lon="6.15029">
        <ele>293.34</ele>
        <time>2011-11-20T09:51:08Z</time>
      </trkpt>
      <trkpt lat="43.53963" lon="6.15028">
        <ele>295.26</ele>
        <time>2011-11-20T09:51:09Z</time>
      </trkpt>
      <trkpt lat="43.53956" lon="6.15023">
        <ele>295.74</ele>
        <time>2011-11-20T09:51:17Z</time>
      </trkpt>
      <trkpt lat="43.53946" lon="6.15013">
        <ele>292.86</ele>
        <time>2011-11-20T09:51:29Z</time>
      </trkpt>
      <trkpt lat="43.53933" lon="6.1501">
        <ele>292.86</ele>
        <time>2011-11-20T09:51:40Z</time>
      </trkpt>
      <trkpt lat="43.53923" lon="6.1501">
        <ele>290.94</ele>
        <time>2011-11-20T09:51:49Z</time>
      </trkpt>
      <trkpt lat="43.53918" lon="6.15007">
        <ele>291.42</ele>
        <time>2011-11-20T09:51:54Z</time>
      </trkpt>
      <trkpt lat="43.53913" lon="6.15005">
        <ele>290.94</ele>
        <time>2011-11-20T09:51:58Z</time>
      </trkpt>
      <trkpt lat="43.53901" lon="6.15">
        <ele>290.46</ele>
        <time>2011-11-20T09:52:09Z</time>
      </trkpt>
      <trkpt lat="43.53898" lon="6.15">
        <ele>289.49</ele>
        <time>2011-11-20T09:52:12Z</time>
      </trkpt>
      <trkpt lat="43.53887" lon="6.14998">
        <ele>288.05</ele>
        <time>2011-11-20T09:52:22Z</time>
      </trkpt>
      <trkpt lat="43.53874" lon="6.14991">
        <ele>287.57</ele>
        <time>2011-11-20T09:52:35Z</time>
      </trkpt>
      <trkpt lat="43.5387" lon="6.14989">
        <ele>285.17</ele>
        <time>2011-11-20T09:52:40Z</time>
      </trkpt>
      <trkpt lat="43.53864" lon="6.14984">
        <ele>285.17</ele>
        <time>2011-11-20T09:52:46Z</time>
      </trkpt>
      <trkpt lat="43.53863" lon="6.14983">
        <ele>284.69</ele>
        <time>2011-11-20T09:52:48Z</time>
      </trkpt>
      <trkpt lat="43.5385" lon="6.14976">
        <ele>283.25</ele>
        <time>2011-11-20T09:53:00Z</time>
      </trkpt>
      <trkpt lat="43.53844" lon="6.14974">
        <ele>280.36</ele>
        <time>2011-11-20T09:53:06Z</time>
      </trkpt>
      <trkpt lat="43.53842" lon="6.14973">
        <ele>281.8</ele>
        <time>2011-11-20T09:53:08Z</time>
      </trkpt>
      <trkpt lat="43.53835" lon="6.14973">
        <ele>280.36</ele>
        <time>2011-11-20T09:53:15Z</time>
      </trkpt>
      <trkpt lat="43.53831" lon="6.14974">
        <ele>278.92</ele>
        <time>2011-11-20T09:53:19Z</time>
      </trkpt>
      <trkpt lat="43.53826" lon="6.14977">
        <ele>279.4</ele>
        <time>2011-11-20T09:53:25Z</time>
      </trkpt>
      <trkpt lat="43.5382" lon="6.14976">
        <ele>280.84</ele>
        <time>2011-11-20T09:53:30Z</time>
      </trkpt>
      <trkpt lat="43.5381" lon="6.14976">
        <ele>277</ele>
        <time>2011-11-20T09:53:38Z</time>
      </trkpt>
      <trkpt lat="43.53806" lon="6.14975">
        <ele>278.92</ele>
        <time>2011-11-20T09:53:41Z</time>
      </trkpt>
      <trkpt lat="43.53804" lon="6.14975">
        <ele>278.92</ele>
        <time>2011-11-20T09:53:43Z</time>
      </trkpt>
      <trkpt lat="43.53788" lon="6.14979">
        <ele>276.52</ele>
        <time>2011-11-20T09:53:56Z</time>
      </trkpt>
      <trkpt lat="43.53779" lon="6.14984">
        <ele>276.04</ele>
        <time>2011-11-20T09:54:06Z</time>
      </trkpt>
      <trkpt lat="43.53774" lon="6.1499">
        <ele>275.56</ele>
        <time>2011-11-20T09:54:12Z</time>
      </trkpt>
      <trkpt lat="43.53768" lon="6.15">
        <ele>273.63</ele>
        <time>2011-11-20T09:54:21Z</time>
      </trkpt>
      <trkpt lat="43.53764" lon="6.15015">
        <ele>271.71</ele>
        <time>2011-11-20T09:54:31Z</time>
      </trkpt>
      <trkpt lat="43.53763" lon="6.15017">
        <ele>272.19</ele>
        <time>2011-11-20T09:54:32Z</time>
      </trkpt>
      <trkpt lat="43.53763" lon="6.1502">
        <ele>273.15</ele>
        <time>2011-11-20T09:54:34Z</time>
      </trkpt>
      <trkpt lat="43.53763" lon="6.15021">
        <ele>272.19</ele>
        <time>2011-11-20T09:54:35Z</time>
      </trkpt>
      <trkpt lat="43.53764" lon="6.15034">
        <ele>272.19</ele>
        <time>2011-11-20T09:54:43Z</time>
      </trkpt>
      <trkpt lat="43.53767" lon="6.15055">
        <ele>270.75</ele>
        <time>2011-11-20T09:54:56Z</time>
      </trkpt>
      <trkpt lat="43.53768" lon="6.15062">
        <ele>269.31</ele>
        <time>2011-11-20T09:55:01Z</time>
      </trkpt>
      <trkpt lat="43.53767" lon="6.15067">
        <ele>269.31</ele>
        <time>2011-11-20T09:55:04Z</time>
      </trkpt>
      <trkpt lat="43.53765" lon="6.15077">
        <ele>268.35</ele>
        <time>2011-11-20T09:55:12Z</time>
      </trkpt>
      <trkpt lat="43.53764" lon="6.15079">
        <ele>269.31</ele>
        <time>2011-11-20T09:55:16Z</time>
      </trkpt>
      <trkpt lat="43.53762" lon="6.15078">
        <ele>267.38</ele>
        <time>2011-11-20T09:55:18Z</time>
      </trkpt>
      <trkpt lat="43.53753" lon="6.15068">
        <ele>267.86</ele>
        <time>2011-11-20T09:55:29Z</time>
      </trkpt>
      <trkpt lat="43.5375" lon="6.15063">
        <ele>267.38</ele>
        <time>2011-11-20T09:55:45Z</time>
      </trkpt>
      <trkpt lat="43.5375" lon="6.15064">
        <ele>266.9</ele>
        <time>2011-11-20T09:56:47Z</time>
      </trkpt>
      <trkpt lat="43.53749" lon="6.15063">
        <ele>267.86</ele>
        <time>2011-11-20T09:57:03Z</time>
      </trkpt>
      <trkpt lat="43.53744" lon="6.15059">
        <ele>267.38</ele>
        <time>2011-11-20T09:57:17Z</time>
      </trkpt>
      <trkpt lat="43.53742" lon="6.15056">
        <ele>266.9</ele>
        <time>2011-11-20T09:58:10Z</time>
      </trkpt>
      <trkpt lat="43.53736" lon="6.15048">
        <ele>265.94</ele>
        <time>2011-11-20T09:58:25Z</time>
      </trkpt>
      <trkpt lat="43.53727" lon="6.15035">
        <ele>265.94</ele>
        <time>2011-11-20T09:58:40Z</time>
      </trkpt>
      <trkpt lat="43.53717" lon="6.15024">
        <ele>264.98</ele>
        <time>2011-11-20T09:58:52Z</time>
      </trkpt>
      <trkpt lat="43.53715" lon="6.15023">
        <ele>266.9</ele>
        <time>2011-11-20T09:58:54Z</time>
      </trkpt>
      <trkpt lat="43.53704" lon="6.15017">
        <ele>264.98</ele>
        <time>2011-11-20T09:59:03Z</time>
      </trkpt>
      <trkpt lat="43.53695" lon="6.15012">
        <ele>265.46</ele>
        <time>2011-11-20T09:59:10Z</time>
      </trkpt>
      <trkpt lat="43.53689" lon="6.15002">
        <ele>265.46</ele>
        <time>2011-11-20T09:59:21Z</time>
      </trkpt>
      <trkpt lat="43.53686" lon="6.14999">
        <ele>267.38</ele>
        <time>2011-11-20T09:59:25Z</time>
      </trkpt>
      <trkpt lat="43.53685" lon="6.14997">
        <ele>265.46</ele>
        <time>2011-11-20T09:59:27Z</time>
      </trkpt>
      <trkpt lat="43.53684" lon="6.14991">
        <ele>265.46</ele>
        <time>2011-11-20T09:59:34Z</time>
      </trkpt>
      <trkpt lat="43.53685" lon="6.14969">
        <ele>266.42</ele>
        <time>2011-11-20T09:59:50Z</time>
      </trkpt>
      <trkpt lat="43.53687" lon="6.14952">
        <ele>267.38</ele>
        <time>2011-11-20T10:00:00Z</time>
      </trkpt>
      <trkpt lat="43.53683" lon="6.14931">
        <ele>265.46</ele>
        <time>2011-11-20T10:00:12Z</time>
      </trkpt>
      <trkpt lat="43.53681" lon="6.14916">
        <ele>264.98</ele>
        <time>2011-11-20T10:00:22Z</time>
      </trkpt>
      <trkpt lat="43.53682" lon="6.14914">
        <ele>267.38</ele>
        <time>2011-11-20T10:00:24Z</time>
      </trkpt>
      <trkpt lat="43.53681" lon="6.14909">
        <ele>265.46</ele>
        <time>2011-11-20T10:00:28Z</time>
      </trkpt>
      <trkpt lat="43.5368" lon="6.149">
        <ele>265.46</ele>
        <time>2011-11-20T10:00:35Z</time>
      </trkpt>
      <trkpt lat="43.53682" lon="6.14892">
        <ele>264.02</ele>
        <time>2011-11-20T10:00:42Z</time>
      </trkpt>
      <trkpt lat="43.53682" lon="6.14887">
        <ele>267.38</ele>
        <time>2011-11-20T10:00:45Z</time>
      </trkpt>
      <trkpt lat="43.53683" lon="6.14882">
        <ele>263.54</ele>
        <time>2011-11-20T10:00:48Z</time>
      </trkpt>
      <trkpt lat="43.53684" lon="6.14874">
        <ele>264.98</ele>
        <time>2011-11-20T10:00:53Z</time>
      </trkpt>
      <trkpt lat="43.53685" lon="6.14855">
        <ele>265.46</ele>
        <time>2011-11-20T10:01:05Z</time>
      </trkpt>
      <trkpt lat="43.53683" lon="6.14836">
        <ele>263.06</ele>
        <time>2011-11-20T10:01:18Z</time>
      </trkpt>
      <trkpt lat="43.53682" lon="6.14833">
        <ele>262.58</ele>
        <time>2011-11-20T10:01:20Z</time>
      </trkpt>
      <trkpt lat="43.53687" lon="6.14813">
        <ele>264.5</ele>
        <time>2011-11-20T10:01:32Z</time>
      </trkpt>
      <trkpt lat="43.53689" lon="6.148">
        <ele>262.1</ele>
        <time>2011-11-20T10:01:41Z</time>
      </trkpt>
      <trkpt lat="43.53689" lon="6.14796">
        <ele>263.54</ele>
        <time>2011-11-20T10:01:44Z</time>
      </trkpt>
      <trkpt lat="43.5369" lon="6.14791">
        <ele>263.06</ele>
        <time>2011-11-20T10:01:48Z</time>
      </trkpt>
      <trkpt lat="43.53692" lon="6.14778">
        <ele>262.1</ele>
        <time>2011-11-20T10:01:58Z</time>
      </trkpt>
      <trkpt lat="43.53694" lon="6.1476">
        <ele>261.14</ele>
        <time>2011-11-20T10:02:10Z</time>
      </trkpt>
      <trkpt lat="43.53696" lon="6.1474">
        <ele>261.14</ele>
        <time>2011-11-20T10:02:23Z</time>
      </trkpt>
      <trkpt lat="43.53701" lon="6.14729">
        <ele>260.17</ele>
        <time>2011-11-20T10:02:33Z</time>
      </trkpt>
      <trkpt lat="43.53701" lon="6.14728">
        <ele>260.17</ele>
        <time>2011-11-20T10:02:34Z</time>
      </trkpt>
      <trkpt lat="43.53709" lon="6.14717">
        <ele>258.73</ele>
        <time>2011-11-20T10:02:45Z</time>
      </trkpt>
      <trkpt lat="43.5371" lon="6.14714">
        <ele>260.17</ele>
        <time>2011-11-20T10:02:48Z</time>
      </trkpt>
      <trkpt lat="43.53717" lon="6.14707">
        <ele>258.73</ele>
        <time>2011-11-20T10:03:02Z</time>
      </trkpt>
      <trkpt lat="43.53719" lon="6.14709">
        <ele>258.25</ele>
        <time>2011-11-20T10:03:04Z</time>
      </trkpt>
      <trkpt lat="43.5372" lon="6.14713">
        <ele>259.21</ele>
        <time>2011-11-20T10:03:17Z</time>
      </trkpt>
      <trkpt lat="43.53725" lon="6.14726">
        <ele>258.25</ele>
        <time>2011-11-20T10:03:28Z</time>
      </trkpt>
      <trkpt lat="43.5373" lon="6.14732">
        <ele>257.77</ele>
        <time>2011-11-20T10:03:38Z</time>
      </trkpt>
      <trkpt lat="43.53732" lon="6.1473">
        <ele>259.21</ele>
        <time>2011-11-20T10:04:06Z</time>
      </trkpt>
      <trkpt lat="43.5374" lon="6.1473">
        <ele>257.77</ele>
        <time>2011-11-20T10:04:12Z</time>
      </trkpt>
      <trkpt lat="43.53754" lon="6.1474">
        <ele>256.81</ele>
        <time>2011-11-20T10:04:25Z</time>
      </trkpt>
      <trkpt lat="43.53765" lon="6.14743">
        <ele>256.33</ele>
        <time>2011-11-20T10:04:38Z</time>
      </trkpt>
      <trkpt lat="43.5377" lon="6.14744">
        <ele>255.85</ele>
        <time>2011-11-20T10:04:42Z</time>
      </trkpt>
      <trkpt lat="43.53782" lon="6.14744">
        <ele>254.41</ele>
        <time>2011-11-20T10:04:52Z</time>
      </trkpt>
      <trkpt lat="43.53785" lon="6.14743">
        <ele>257.29</ele>
        <time>2011-11-20T10:04:54Z</time>
      </trkpt>
      <trkpt lat="43.53789" lon="6.14742">
        <ele>255.85</ele>
        <time>2011-11-20T10:04:57Z</time>
      </trkpt>
      <trkpt lat="43.53802" lon="6.14736">
        <ele>256.81</ele>
        <time>2011-11-20T10:05:09Z</time>
      </trkpt>
      <trkpt lat="43.53811" lon="6.1473">
        <ele>256.33</ele>
        <time>2011-11-20T10:05:19Z</time>
      </trkpt>
      <trkpt lat="43.53818" lon="6.14727">
        <ele>256.33</ele>
        <time>2011-11-20T10:05:26Z</time>
      </trkpt>
      <trkpt lat="43.53827" lon="6.14721">
        <ele>255.85</ele>
        <time>2011-11-20T10:05:37Z</time>
      </trkpt>
      <trkpt lat="43.53837" lon="6.14714">
        <ele>256.33</ele>
        <time>2011-11-20T10:05:49Z</time>
      </trkpt>
      <trkpt lat="43.53847" lon="6.1471">
        <ele>257.77</ele>
        <time>2011-11-20T10:06:00Z</time>
      </trkpt>
      <trkpt lat="43.53848" lon="6.1471">
        <ele>257.77</ele>
        <time>2011-11-20T10:06:01Z</time>
      </trkpt>
      <trkpt lat="43.53859" lon="6.14707">
        <ele>258.73</ele>
        <time>2011-11-20T10:06:13Z</time>
      </trkpt>
      <trkpt lat="43.5386" lon="6.14707">
        <ele>255.85</ele>
        <time>2011-11-20T10:06:15Z</time>
      </trkpt>
      <trkpt lat="43.53867" lon="6.14709">
        <ele>256.33</ele>
        <time>2011-11-20T10:06:22Z</time>
      </trkpt>
      <trkpt lat="43.5388" lon="6.14713">
        <ele>258.73</ele>
        <time>2011-11-20T10:06:35Z</time>
      </trkpt>
      <trkpt lat="43.53884" lon="6.14716">
        <ele>257.77</ele>
        <time>2011-11-20T10:06:40Z</time>
      </trkpt>
      <trkpt lat="43.53897" lon="6.14724">
        <ele>258.25</ele>
        <time>2011-11-20T10:06:53Z</time>
      </trkpt>
      <trkpt lat="43.53909" lon="6.14736">
        <ele>257.77</ele>
        <time>2011-11-20T10:07:07Z</time>
      </trkpt>
      <trkpt lat="43.53916" lon="6.14744">
        <ele>258.73</ele>
        <time>2011-11-20T10:07:19Z</time>
      </trkpt>
      <trkpt lat="43.53922" lon="6.1475">
        <ele>259.69</ele>
        <time>2011-11-20T10:07:31Z</time>
      </trkpt>
      <trkpt lat="43.53931" lon="6.14764">
        <ele>259.21</ele>
        <time>2011-11-20T10:07:46Z</time>
      </trkpt>
      <trkpt lat="43.5394" lon="6.14775">
        <ele>258.73</ele>
        <time>2011-11-20T10:07:58Z</time>
      </trkpt>
      <trkpt lat="43.53952" lon="6.14785">
        <ele>259.69</ele>
        <time>2011-11-20T10:08:09Z</time>
      </trkpt>
      <trkpt lat="43.53953" lon="6.14787">
        <ele>257.77</ele>
        <time>2011-11-20T10:08:11Z</time>
      </trkpt>
      <trkpt lat="43.53957" lon="6.14789">
        <ele>259.69</ele>
        <time>2011-11-20T10:08:14Z</time>
      </trkpt>
      <trkpt lat="43.5396" lon="6.14791">
        <ele>258.25</ele>
        <time>2011-11-20T10:08:17Z</time>
      </trkpt>
      <trkpt lat="43.53971" lon="6.148">
        <ele>257.77</ele>
        <time>2011-11-20T10:08:30Z</time>
      </trkpt>
      <trkpt lat="43.5398" lon="6.14801">
        <ele>257.29</ele>
        <time>2011-11-20T10:08:39Z</time>
      </trkpt>
      <trkpt lat="43.53992" lon="6.14793">
        <ele>256.33</ele>
        <time>2011-11-20T10:08:51Z</time>
      </trkpt>
      <trkpt lat="43.53996" lon="6.14791">
        <ele>255.85</ele>
        <time>2011-11-20T10:09:02Z</time>
      </trkpt>
      <trkpt lat="43.54006" lon="6.14785">
        <ele>256.33</ele>
        <time>2011-11-20T10:09:16Z</time>
      </trkpt>
      <trkpt lat="43.54014" lon="6.1478">
        <ele>254.41</ele>
        <time>2011-11-20T10:09:25Z</time>
      </trkpt>
      <trkpt lat="43.54019" lon="6.14777">
        <ele>254.89</ele>
        <time>2011-11-20T10:09:31Z</time>
      </trkpt>
      <trkpt lat="43.54029" lon="6.14777">
        <ele>256.33</ele>
        <time>2011-11-20T10:09:43Z</time>
      </trkpt>
      <trkpt lat="43.54033" lon="6.14777">
        <ele>257.29</ele>
        <time>2011-11-20T10:09:47Z</time>
      </trkpt>
      <trkpt lat="43.54044" lon="6.14779">
        <ele>256.33</ele>
        <time>2011-11-20T10:09:58Z</time>
      </trkpt>
      <trkpt lat="43.54053" lon="6.1478">
        <ele>255.85</ele>
        <time>2011-11-20T10:10:06Z</time>
      </trkpt>
      <trkpt lat="43.54065" lon="6.14785">
        <ele>257.77</ele>
        <time>2011-11-20T10:10:18Z</time>
      </trkpt>
      <trkpt lat="43.54066" lon="6.14786">
        <ele>257.29</ele>
        <time>2011-11-20T10:10:19Z</time>
      </trkpt>
      <trkpt lat="43.54067" lon="6.14786">
        <ele>255.85</ele>
        <time>2011-11-20T10:10:21Z</time>
      </trkpt>
      <trkpt lat="43.5408" lon="6.1479">
        <ele>256.81</ele>
        <time>2011-11-20T10:10:32Z</time>
      </trkpt>
      <trkpt lat="43.54092" lon="6.14786">
        <ele>256.81</ele>
        <time>2011-11-20T10:10:44Z</time>
      </trkpt>
      <trkpt lat="43.54098" lon="6.14787">
        <ele>259.21</ele>
        <time>2011-11-20T10:10:51Z</time>
      </trkpt>
      <trkpt lat="43.54112" lon="6.14795">
        <ele>258.73</ele>
        <time>2011-11-20T10:11:05Z</time>
      </trkpt>
      <trkpt lat="43.54126" lon="6.14799">
        <ele>256.33</ele>
        <time>2011-11-20T10:11:16Z</time>
      </trkpt>
      <trkpt lat="43.54139" lon="6.14804">
        <ele>259.21</ele>
        <time>2011-11-20T10:11:26Z</time>
      </trkpt>
      <trkpt lat="43.54148" lon="6.14806">
        <ele>256.33</ele>
        <time>2011-11-20T10:11:34Z</time>
      </trkpt>
      <trkpt lat="43.54159" lon="6.14811">
        <ele>255.85</ele>
        <time>2011-11-20T10:11:44Z</time>
      </trkpt>
      <trkpt lat="43.5416" lon="6.14811">
        <ele>259.21</ele>
        <time>2011-11-20T10:11:45Z</time>
      </trkpt>
      <trkpt lat="43.5417" lon="6.14814">
        <ele>256.81</ele>
        <time>2011-11-20T10:11:54Z</time>
      </trkpt>
      <trkpt lat="43.54177" lon="6.14806">
        <ele>258.25</ele>
        <time>2011-11-20T10:12:06Z</time>
      </trkpt>
      <trkpt lat="43.54177" lon="6.14806">
        <ele>257.29</ele>
        <time>2011-11-20T10:12:21Z</time>
      </trkpt>
      <trkpt lat="43.54176" lon="6.14815">
        <ele>259.21</ele>
        <time>2011-11-20T10:12:28Z</time>
      </trkpt>
      <trkpt lat="43.5419" lon="6.14824">
        <ele>259.21</ele>
        <time>2011-11-20T10:12:40Z</time>
      </trkpt>
      <trkpt lat="43.54194" lon="6.14826">
        <ele>256.81</ele>
        <time>2011-11-20T10:12:43Z</time>
      </trkpt>
      <trkpt lat="43.54203" lon="6.1483">
        <ele>256.33</ele>
        <time>2011-11-20T10:12:51Z</time>
      </trkpt>
      <trkpt lat="43.54207" lon="6.14833">
        <ele>259.21</ele>
        <time>2011-11-20T10:12:55Z</time>
      </trkpt>
      <trkpt lat="43.54213" lon="6.14836">
        <ele>258.73</ele>
        <time>2011-11-20T10:13:01Z</time>
      </trkpt>
      <trkpt lat="43.54216" lon="6.14839">
        <ele>257.77</ele>
        <time>2011-11-20T10:13:04Z</time>
      </trkpt>
      <trkpt lat="43.54232" lon="6.14844">
        <ele>257.77</ele>
        <time>2011-11-20T10:13:17Z</time>
      </trkpt>
      <trkpt lat="43.5424" lon="6.14842">
        <ele>259.21</ele>
        <time>2011-11-20T10:13:25Z</time>
      </trkpt>
      <trkpt lat="43.54246" lon="6.1484">
        <ele>261.14</ele>
        <time>2011-11-20T10:13:30Z</time>
      </trkpt>
      <trkpt lat="43.54248" lon="6.1484">
        <ele>259.21</ele>
        <time>2011-11-20T10:13:32Z</time>
      </trkpt>
      <trkpt lat="43.54254" lon="6.14837">
        <ele>261.62</ele>
        <time>2011-11-20T10:13:37Z</time>
      </trkpt>
      <trkpt lat="43.54257" lon="6.14836">
        <ele>259.69</ele>
        <time>2011-11-20T10:13:39Z</time>
      </trkpt>
      <trkpt lat="43.54269" lon="6.14829">
        <ele>261.14</ele>
        <time>2011-11-20T10:13:51Z</time>
      </trkpt>
      <trkpt lat="43.54279" lon="6.1482">
        <ele>260.65</ele>
        <time>2011-11-20T10:14:01Z</time>
      </trkpt>
      <trkpt lat="43.5428" lon="6.14819">
        <ele>260.65</ele>
        <time>2011-11-20T10:14:02Z</time>
      </trkpt>
      <trkpt lat="43.54284" lon="6.14816">
        <ele>264.5</ele>
        <time>2011-11-20T10:14:06Z</time>
      </trkpt>
      <trkpt lat="43.54285" lon="6.14815">
        <ele>264.02</ele>
        <time>2011-11-20T10:14:07Z</time>
      </trkpt>
      <trkpt lat="43.54287" lon="6.14812">
        <ele>262.1</ele>
        <time>2011-11-20T10:14:10Z</time>
      </trkpt>
      <trkpt lat="43.54289" lon="6.1481">
        <ele>261.62</ele>
        <time>2011-11-20T10:14:12Z</time>
      </trkpt>
      <trkpt lat="43.54291" lon="6.14808">
        <ele>264.5</ele>
        <time>2011-11-20T10:14:14Z</time>
      </trkpt>
      <trkpt lat="43.54295" lon="6.14802">
        <ele>260.65</ele>
        <time>2011-11-20T10:14:19Z</time>
      </trkpt>
      <trkpt lat="43.54296" lon="6.14801">
        <ele>260.65</ele>
        <time>2011-11-20T10:14:20Z</time>
      </trkpt>
      <trkpt lat="43.54297" lon="6.14799">
        <ele>262.1</ele>
        <time>2011-11-20T10:14:22Z</time>
      </trkpt>
      <trkpt lat="43.54304" lon="6.14789">
        <ele>262.58</ele>
        <time>2011-11-20T10:14:34Z</time>
      </trkpt>
      <trkpt lat="43.54304" lon="6.14791">
        <ele>261.62</ele>
        <time>2011-11-20T10:14:48Z</time>
      </trkpt>
      <trkpt lat="43.54305" lon="6.14789">
        <ele>263.06</ele>
        <time>2011-11-20T10:15:16Z</time>
      </trkpt>
      <trkpt lat="43.54309" lon="6.1478">
        <ele>262.58</ele>
        <time>2011-11-20T10:15:22Z</time>
      </trkpt>
      <trkpt lat="43.54315" lon="6.14775">
        <ele>260.65</ele>
        <time>2011-11-20T10:15:27Z</time>
      </trkpt>
      <trkpt lat="43.54316" lon="6.14773">
        <ele>261.62</ele>
        <time>2011-11-20T10:15:28Z</time>
      </trkpt>
      <trkpt lat="43.54321" lon="6.1477">
        <ele>263.54</ele>
        <time>2011-11-20T10:15:32Z</time>
      </trkpt>
      <trkpt lat="43.54327" lon="6.14769">
        <ele>260.17</ele>
        <time>2011-11-20T10:15:38Z</time>
      </trkpt>
      <trkpt lat="43.5434" lon="6.14766">
        <ele>261.62</ele>
        <time>2011-11-20T10:15:49Z</time>
      </trkpt>
      <trkpt lat="43.54341" lon="6.14765">
        <ele>261.62</ele>
        <time>2011-11-20T10:15:50Z</time>
      </trkpt>
      <trkpt lat="43.54352" lon="6.14762">
        <ele>261.62</ele>
        <time>2011-11-20T10:16:01Z</time>
      </trkpt>
      <trkpt lat="43.54362" lon="6.1476">
        <ele>261.62</ele>
        <time>2011-11-20T10:16:09Z</time>
      </trkpt>
      <trkpt lat="43.54377" lon="6.14759">
        <ele>261.62</ele>
        <time>2011-11-20T10:16:21Z</time>
      </trkpt>
      <trkpt lat="43.54382" lon="6.14757">
        <ele>264.98</ele>
        <time>2011-11-20T10:16:26Z</time>
      </trkpt>
      <trkpt lat="43.54386" lon="6.14756">
        <ele>261.14</ele>
        <time>2011-11-20T10:16:30Z</time>
      </trkpt>
      <trkpt lat="43.54387" lon="6.14756">
        <ele>261.14</ele>
        <time>2011-11-20T10:16:31Z</time>
      </trkpt>
      <trkpt lat="43.54401" lon="6.14752">
        <ele>264.5</ele>
        <time>2011-11-20T10:16:43Z</time>
      </trkpt>
      <trkpt lat="43.54402" lon="6.14751">
        <ele>264.98</ele>
        <time>2011-11-20T10:16:44Z</time>
      </trkpt>
      <trkpt lat="43.54406" lon="6.1475">
        <ele>261.14</ele>
        <time>2011-11-20T10:16:47Z</time>
      </trkpt>
      <trkpt lat="43.54422" lon="6.14748">
        <ele>261.14</ele>
        <time>2011-11-20T10:17:00Z</time>
      </trkpt>
      <trkpt lat="43.5443" lon="6.14745">
        <ele>262.58</ele>
        <time>2011-11-20T10:17:07Z</time>
      </trkpt>
      <trkpt lat="43.5444" lon="6.14745">
        <ele>261.14</ele>
        <time>2011-11-20T10:17:16Z</time>
      </trkpt>
      <trkpt lat="43.54443" lon="6.14745">
        <ele>260.17</ele>
        <time>2011-11-20T10:17:19Z</time>
      </trkpt>
      <trkpt lat="43.54448" lon="6.14744">
        <ele>264.02</ele>
        <time>2011-11-20T10:17:23Z</time>
      </trkpt>
      <trkpt lat="43.54454" lon="6.14743">
        <ele>260.17</ele>
        <time>2011-11-20T10:17:28Z</time>
      </trkpt>
      <trkpt lat="43.54455" lon="6.14743">
        <ele>260.17</ele>
        <time>2011-11-20T10:17:29Z</time>
      </trkpt>
      <trkpt lat="43.5446" lon="6.14742">
        <ele>261.62</ele>
        <time>2011-11-20T10:17:34Z</time>
      </trkpt>
      <trkpt lat="43.54466" lon="6.1473">
        <ele>264.5</ele>
        <time>2011-11-20T10:17:42Z</time>
      </trkpt>
      <trkpt lat="43.54467" lon="6.14729">
        <ele>260.65</ele>
        <time>2011-11-20T10:17:43Z</time>
      </trkpt>
      <trkpt lat="43.54468" lon="6.14728">
        <ele>261.62</ele>
        <time>2011-11-20T10:17:44Z</time>
      </trkpt>
      <trkpt lat="43.54471" lon="6.14718">
        <ele>265.46</ele>
        <time>2011-11-20T10:17:50Z</time>
      </trkpt>
      <trkpt lat="43.54472" lon="6.14716">
        <ele>261.62</ele>
        <time>2011-11-20T10:17:51Z</time>
      </trkpt>
      <trkpt lat="43.54472" lon="6.14698">
        <ele>263.06</ele>
        <time>2011-11-20T10:18:02Z</time>
      </trkpt>
      <trkpt lat="43.54475" lon="6.14684">
        <ele>264.5</ele>
        <time>2011-11-20T10:18:11Z</time>
      </trkpt>
      <trkpt lat="43.54476" lon="6.14681">
        <ele>263.06</ele>
        <time>2011-11-20T10:18:13Z</time>
      </trkpt>
      <trkpt lat="43.54478" lon="6.14677">
        <ele>265.46</ele>
        <time>2011-11-20T10:18:16Z</time>
      </trkpt>
      <trkpt lat="43.54476" lon="6.14664">
        <ele>262.58</ele>
        <time>2011-11-20T10:18:24Z</time>
      </trkpt>
      <trkpt lat="43.54471" lon="6.14652">
        <ele>262.58</ele>
        <time>2011-11-20T10:18:36Z</time>
      </trkpt>
      <trkpt lat="43.54472" lon="6.14642">
        <ele>264.02</ele>
        <time>2011-11-20T10:18:48Z</time>
      </trkpt>
      <trkpt lat="43.54474" lon="6.14635">
        <ele>265.46</ele>
        <time>2011-11-20T10:18:54Z</time>
      </trkpt>
      <trkpt lat="43.54476" lon="6.14629">
        <ele>264.5</ele>
        <time>2011-11-20T10:19:02Z</time>
      </trkpt>
      <trkpt lat="43.54478" lon="6.14612">
        <ele>268.35</ele>
        <time>2011-11-20T10:19:15Z</time>
      </trkpt>
      <trkpt lat="43.54477" lon="6.14605">
        <ele>265.46</ele>
        <time>2011-11-20T10:19:19Z</time>
      </trkpt>
      <trkpt lat="43.54479" lon="6.14583">
        <ele>267.86</ele>
        <time>2011-11-20T10:19:32Z</time>
      </trkpt>
      <trkpt lat="43.54479" lon="6.14579">
        <ele>264.98</ele>
        <time>2011-11-20T10:19:35Z</time>
      </trkpt>
      <trkpt lat="43.54479" lon="6.14577">
        <ele>264.98</ele>
        <time>2011-11-20T10:19:36Z</time>
      </trkpt>
      <trkpt lat="43.54481" lon="6.14571">
        <ele>268.83</ele>
        <time>2011-11-20T10:19:40Z</time>
      </trkpt>
      <trkpt lat="43.54486" lon="6.14552">
        <ele>265.94</ele>
        <time>2011-11-20T10:19:53Z</time>
      </trkpt>
      <trkpt lat="43.54486" lon="6.14549">
        <ele>266.42</ele>
        <time>2011-11-20T10:19:55Z</time>
      </trkpt>
      <trkpt lat="43.54491" lon="6.14532">
        <ele>265.46</ele>
        <time>2011-11-20T10:20:08Z</time>
      </trkpt>
      <trkpt lat="43.54492" lon="6.14526">
        <ele>266.42</ele>
        <time>2011-11-20T10:20:14Z</time>
      </trkpt>
      <trkpt lat="43.54493" lon="6.14525">
        <ele>264.5</ele>
        <time>2011-11-20T10:20:15Z</time>
      </trkpt>
      <trkpt lat="43.545" lon="6.14519">
        <ele>264.5</ele>
        <time>2011-11-20T10:20:22Z</time>
      </trkpt>
      <trkpt lat="43.54509" lon="6.14512">
        <ele>265.94</ele>
        <time>2011-11-20T10:20:32Z</time>
      </trkpt>
      <trkpt lat="43.54511" lon="6.14509">
        <ele>264.98</ele>
        <time>2011-11-20T10:20:35Z</time>
      </trkpt>
      <trkpt lat="43.54516" lon="6.14503">
        <ele>264.98</ele>
        <time>2011-11-20T10:20:41Z</time>
      </trkpt>
      <trkpt lat="43.54527" lon="6.14492">
        <ele>267.38</ele>
        <time>2011-11-20T10:20:53Z</time>
      </trkpt>
      <trkpt lat="43.5453" lon="6.14491">
        <ele>265.94</ele>
        <time>2011-11-20T10:20:55Z</time>
      </trkpt>
      <trkpt lat="43.54537" lon="6.1449">
        <ele>266.42</ele>
        <time>2011-11-20T10:21:06Z</time>
      </trkpt>
      <trkpt lat="43.54539" lon="6.14484">
        <ele>265.46</ele>
        <time>2011-11-20T10:21:11Z</time>
      </trkpt>
      <trkpt lat="43.54537" lon="6.1448">
        <ele>267.86</ele>
        <time>2011-11-20T10:21:14Z</time>
      </trkpt>
      <trkpt lat="43.54535" lon="6.14472">
        <ele>266.9</ele>
        <time>2011-11-20T10:21:27Z</time>
      </trkpt>
      <trkpt lat="43.54535" lon="6.14472">
        <ele>265.94</ele>
        <time>2011-11-20T10:21:43Z</time>
      </trkpt>
      <trkpt lat="43.54528" lon="6.14457">
        <ele>266.9</ele>
        <time>2011-11-20T10:21:55Z</time>
      </trkpt>
      <trkpt lat="43.5452" lon="6.14439">
        <ele>265.94</ele>
        <time>2011-11-20T10:22:06Z</time>
      </trkpt>
      <trkpt lat="43.54508" lon="6.1442">
        <ele>265.94</ele>
        <time>2011-11-20T10:22:17Z</time>
      </trkpt>
      <trkpt lat="43.54504" lon="6.14413">
        <ele>267.86</ele>
        <time>2011-11-20T10:22:21Z</time>
      </trkpt>
      <trkpt lat="43.54497" lon="6.14403">
        <ele>264.98</ele>
        <time>2011-11-20T10:22:29Z</time>
      </trkpt>
      <trkpt lat="43.54492" lon="6.14394">
        <ele>268.83</ele>
        <time>2011-11-20T10:22:37Z</time>
      </trkpt>
      <trkpt lat="43.5449" lon="6.1439">
        <ele>266.42</ele>
        <time>2011-11-20T10:22:40Z</time>
      </trkpt>
      <trkpt lat="43.54489" lon="6.14386">
        <ele>268.35</ele>
        <time>2011-11-20T10:22:43Z</time>
      </trkpt>
      <trkpt lat="43.54489" lon="6.14382">
        <ele>266.9</ele>
        <time>2011-11-20T10:22:45Z</time>
      </trkpt>
      <trkpt lat="43.54489" lon="6.14379">
        <ele>265.46</ele>
        <time>2011-11-20T10:22:48Z</time>
      </trkpt>
      <trkpt lat="43.54501" lon="6.1437">
        <ele>265.94</ele>
        <time>2011-11-20T10:23:01Z</time>
      </trkpt>
      <trkpt lat="43.54508" lon="6.14368">
        <ele>266.9</ele>
        <time>2011-11-20T10:23:07Z</time>
      </trkpt>
      <trkpt lat="43.54515" lon="6.14362">
        <ele>264.98</ele>
        <time>2011-11-20T10:23:14Z</time>
      </trkpt>
      <trkpt lat="43.54522" lon="6.14357">
        <ele>265.46</ele>
        <time>2011-11-20T10:23:21Z</time>
      </trkpt>
      <trkpt lat="43.54526" lon="6.14356">
        <ele>266.9</ele>
        <time>2011-11-20T10:23:24Z</time>
      </trkpt>
      <trkpt lat="43.54528" lon="6.14355">
        <ele>267.38</ele>
        <time>2011-11-20T10:23:26Z</time>
      </trkpt>
      <trkpt lat="43.54532" lon="6.14353">
        <ele>266.42</ele>
        <time>2011-11-20T10:23:30Z</time>
      </trkpt>
      <trkpt lat="43.54542" lon="6.14346">
        <ele>266.9</ele>
        <time>2011-11-20T10:23:40Z</time>
      </trkpt>
      <trkpt lat="43.54543" lon="6.14345">
        <ele>267.86</ele>
        <time>2011-11-20T10:23:42Z</time>
      </trkpt>
      <trkpt lat="43.54543" lon="6.14337">
        <ele>267.86</ele>
        <time>2011-11-20T10:23:53Z</time>
      </trkpt>
      <trkpt lat="43.54543" lon="6.14336">
        <ele>268.35</ele>
        <time>2011-11-20T10:27:32Z</time>
      </trkpt>
      <trkpt lat="43.54547" lon="6.14334">
        <ele>268.35</ele>
        <time>2011-11-20T10:29:05Z</time>
      </trkpt>
      <trkpt lat="43.54558" lon="6.1433">
        <ele>269.31</ele>
        <time>2011-11-20T10:29:18Z</time>
      </trkpt>
      <trkpt lat="43.54568" lon="6.14327">
        <ele>267.86</ele>
        <time>2011-11-20T10:29:30Z</time>
      </trkpt>
      <trkpt lat="43.54575" lon="6.14326">
        <ele>269.31</ele>
        <time>2011-11-20T10:29:37Z</time>
      </trkpt>
      <trkpt lat="43.54577" lon="6.14325">
        <ele>269.79</ele>
        <time>2011-11-20T10:29:39Z</time>
      </trkpt>
      <trkpt lat="43.54585" lon="6.14323">
        <ele>270.75</ele>
        <time>2011-11-20T10:29:46Z</time>
      </trkpt>
      <trkpt lat="43.54594" lon="6.14321">
        <ele>266.9</ele>
        <time>2011-11-20T10:29:54Z</time>
      </trkpt>
      <trkpt lat="43.54598" lon="6.1432">
        <ele>269.79</ele>
        <time>2011-11-20T10:29:57Z</time>
      </trkpt>
      <trkpt lat="43.5461" lon="6.14318">
        <ele>267.38</ele>
        <time>2011-11-20T10:30:07Z</time>
      </trkpt>
      <trkpt lat="43.54615" lon="6.14316">
        <ele>270.75</ele>
        <time>2011-11-20T10:30:12Z</time>
      </trkpt>
      <trkpt lat="43.54617" lon="6.14316">
        <ele>270.75</ele>
        <time>2011-11-20T10:30:13Z</time>
      </trkpt>
      <trkpt lat="43.5462" lon="6.14314">
        <ele>269.31</ele>
        <time>2011-11-20T10:30:17Z</time>
      </trkpt>
      <trkpt lat="43.54637" lon="6.14312">
        <ele>268.83</ele>
        <time>2011-11-20T10:30:31Z</time>
      </trkpt>
      <trkpt lat="43.5465" lon="6.14307">
        <ele>268.35</ele>
        <time>2011-11-20T10:30:41Z</time>
      </trkpt>
      <trkpt lat="43.54653" lon="6.14306">
        <ele>268.83</ele>
        <time>2011-11-20T10:30:44Z</time>
      </trkpt>
      <trkpt lat="43.54666" lon="6.14301">
        <ele>270.75</ele>
        <time>2011-11-20T10:30:56Z</time>
      </trkpt>
      <trkpt lat="43.54668" lon="6.14299">
        <ele>272.19</ele>
        <time>2011-11-20T10:30:58Z</time>
      </trkpt>
      <trkpt lat="43.54671" lon="6.14299">
        <ele>268.83</ele>
        <time>2011-11-20T10:31:00Z</time>
      </trkpt>
      <trkpt lat="43.54672" lon="6.14298">
        <ele>269.31</ele>
        <time>2011-11-20T10:31:01Z</time>
      </trkpt>
      <trkpt lat="43.54675" lon="6.14297">
        <ele>270.27</ele>
        <time>2011-11-20T10:31:03Z</time>
      </trkpt>
      <trkpt lat="43.54678" lon="6.14297">
        <ele>270.27</ele>
        <time>2011-11-20T10:31:06Z</time>
      </trkpt>
      <trkpt lat="43.54681" lon="6.14296">
        <ele>270.27</ele>
        <time>2011-11-20T10:31:09Z</time>
      </trkpt>
      <trkpt lat="43.54693" lon="6.14287">
        <ele>271.71</ele>
        <time>2011-11-20T10:31:21Z</time>
      </trkpt>
      <trkpt lat="43.54695" lon="6.14285">
        <ele>273.15</ele>
        <time>2011-11-20T10:31:24Z</time>
      </trkpt>
      <trkpt lat="43.54706" lon="6.14274">
        <ele>272.67</ele>
        <time>2011-11-20T10:31:38Z</time>
      </trkpt>
      <trkpt lat="43.54712" lon="6.14267">
        <ele>274.59</ele>
        <time>2011-11-20T10:31:45Z</time>
      </trkpt>
      <trkpt lat="43.54717" lon="6.14262">
        <ele>274.11</ele>
        <time>2011-11-20T10:31:50Z</time>
      </trkpt>
      <trkpt lat="43.54726" lon="6.14251">
        <ele>274.59</ele>
        <time>2011-11-20T10:32:01Z</time>
      </trkpt>
      <trkpt lat="43.54734" lon="6.14245">
        <ele>277.96</ele>
        <time>2011-11-20T10:32:10Z</time>
      </trkpt>
      <trkpt lat="43.54735" lon="6.14244">
        <ele>276.04</ele>
        <time>2011-11-20T10:32:11Z</time>
      </trkpt>
      <trkpt lat="43.54744" lon="6.14237">
        <ele>279.4</ele>
        <time>2011-11-20T10:32:21Z</time>
      </trkpt>
      <trkpt lat="43.54745" lon="6.14236">
        <ele>279.4</ele>
        <time>2011-11-20T10:32:22Z</time>
      </trkpt>
      <trkpt lat="43.54752" lon="6.14232">
        <ele>276.52</ele>
        <time>2011-11-20T10:32:30Z</time>
      </trkpt>
      <trkpt lat="43.54753" lon="6.14232">
        <ele>277</ele>
        <time>2011-11-20T10:32:31Z</time>
      </trkpt>
      <trkpt lat="43.54757" lon="6.14231">
        <ele>280.36</ele>
        <time>2011-11-20T10:32:34Z</time>
      </trkpt>
      <trkpt lat="43.54758" lon="6.1423">
        <ele>280.36</ele>
        <time>2011-11-20T10:32:35Z</time>
      </trkpt>
      <trkpt lat="43.54759" lon="6.1423">
        <ele>276.52</ele>
        <time>2011-11-20T10:32:36Z</time>
      </trkpt>
      <trkpt lat="43.5476" lon="6.14229">
        <ele>277.48</ele>
        <time>2011-11-20T10:32:37Z</time>
      </trkpt>
      <trkpt lat="43.54765" lon="6.14226">
        <ele>279.4</ele>
        <time>2011-11-20T10:32:42Z</time>
      </trkpt>
      <trkpt lat="43.54767" lon="6.14225">
        <ele>277.96</ele>
        <time>2011-11-20T10:32:44Z</time>
      </trkpt>
      <trkpt lat="43.54772" lon="6.14222">
        <ele>278.44</ele>
        <time>2011-11-20T10:32:49Z</time>
      </trkpt>
      <trkpt lat="43.54776" lon="6.14221">
        <ele>281.32</ele>
        <time>2011-11-20T10:32:53Z</time>
      </trkpt>
      <trkpt lat="43.54778" lon="6.14221">
        <ele>277.48</ele>
        <time>2011-11-20T10:32:54Z</time>
      </trkpt>
      <trkpt lat="43.54784" lon="6.14219">
        <ele>278.92</ele>
        <time>2011-11-20T10:33:01Z</time>
      </trkpt>
      <trkpt lat="43.54794" lon="6.14213">
        <ele>283.73</ele>
        <time>2011-11-20T10:33:12Z</time>
      </trkpt>
      <trkpt lat="43.54795" lon="6.14212">
        <ele>281.8</ele>
        <time>2011-11-20T10:33:13Z</time>
      </trkpt>
      <trkpt lat="43.54797" lon="6.1421">
        <ele>279.88</ele>
        <time>2011-11-20T10:33:15Z</time>
      </trkpt>
      <trkpt lat="43.548" lon="6.14209">
        <ele>283.25</ele>
        <time>2011-11-20T10:33:17Z</time>
      </trkpt>
      <trkpt lat="43.54801" lon="6.14208">
        <ele>278.92</ele>
        <time>2011-11-20T10:33:18Z</time>
      </trkpt>
      <trkpt lat="43.54804" lon="6.14206">
        <ele>283.25</ele>
        <time>2011-11-20T10:33:21Z</time>
      </trkpt>
      <trkpt lat="43.54809" lon="6.14201">
        <ele>283.73</ele>
        <time>2011-11-20T10:33:27Z</time>
      </trkpt>
      <trkpt lat="43.5481" lon="6.14198">
        <ele>280.36</ele>
        <time>2011-11-20T10:33:29Z</time>
      </trkpt>
      <trkpt lat="43.54813" lon="6.14195">
        <ele>284.21</ele>
        <time>2011-11-20T10:33:32Z</time>
      </trkpt>
      <trkpt lat="43.54817" lon="6.1419">
        <ele>280.84</ele>
        <time>2011-11-20T10:33:38Z</time>
      </trkpt>
      <trkpt lat="43.54819" lon="6.14188">
        <ele>284.21</ele>
        <time>2011-11-20T10:33:40Z</time>
      </trkpt>
      <trkpt lat="43.54823" lon="6.14184">
        <ele>283.73</ele>
        <time>2011-11-20T10:33:45Z</time>
      </trkpt>
      <trkpt lat="43.54835" lon="6.14172">
        <ele>284.21</ele>
        <time>2011-11-20T10:33:59Z</time>
      </trkpt>
      <trkpt lat="43.54837" lon="6.14169">
        <ele>285.65</ele>
        <time>2011-11-20T10:34:02Z</time>
      </trkpt>
      <trkpt lat="43.54847" lon="6.14154">
        <ele>285.17</ele>
        <time>2011-11-20T10:34:16Z</time>
      </trkpt>
      <trkpt lat="43.54856" lon="6.14145">
        <ele>288.53</ele>
        <time>2011-11-20T10:34:26Z</time>
      </trkpt>
      <trkpt lat="43.54856" lon="6.14144">
        <ele>287.09</ele>
        <time>2011-11-20T10:34:27Z</time>
      </trkpt>
      <trkpt lat="43.54867" lon="6.14137">
        <ele>290.94</ele>
        <time>2011-11-20T10:34:37Z</time>
      </trkpt>
      <trkpt lat="43.54867" lon="6.14137">
        <ele>289.97</ele>
        <time>2011-11-20T10:34:38Z</time>
      </trkpt>
      <trkpt lat="43.54877" lon="6.1413">
        <ele>285.65</ele>
        <time>2011-11-20T10:34:48Z</time>
      </trkpt>
      <trkpt lat="43.54883" lon="6.14128">
        <ele>287.57</ele>
        <time>2011-11-20T10:34:53Z</time>
      </trkpt>
      <trkpt lat="43.54883" lon="6.14127">
        <ele>287.57</ele>
        <time>2011-11-20T10:34:54Z</time>
      </trkpt>
      <trkpt lat="43.5489" lon="6.14124">
        <ele>289.97</ele>
        <time>2011-11-20T10:35:00Z</time>
      </trkpt>
      <trkpt lat="43.54896" lon="6.14122">
        <ele>286.13</ele>
        <time>2011-11-20T10:35:06Z</time>
      </trkpt>
      <trkpt lat="43.54899" lon="6.1412">
        <ele>289.97</ele>
        <time>2011-11-20T10:35:08Z</time>
      </trkpt>
      <trkpt lat="43.549" lon="6.1412">
        <ele>289.97</ele>
        <time>2011-11-20T10:35:09Z</time>
      </trkpt>
      <trkpt lat="43.54905" lon="6.14117">
        <ele>288.05</ele>
        <time>2011-11-20T10:35:14Z</time>
      </trkpt>
      <trkpt lat="43.5492" lon="6.1411">
        <ele>288.05</ele>
        <time>2011-11-20T10:35:27Z</time>
      </trkpt>
      <trkpt lat="43.54932" lon="6.14103">
        <ele>291.9</ele>
        <time>2011-11-20T10:35:40Z</time>
      </trkpt>
      <trkpt lat="43.54942" lon="6.14097">
        <ele>289.01</ele>
        <time>2011-11-20T10:35:49Z</time>
      </trkpt>
      <trkpt lat="43.54944" lon="6.14097">
        <ele>292.38</ele>
        <time>2011-11-20T10:35:51Z</time>
      </trkpt>
      <trkpt lat="43.54951" lon="6.14093">
        <ele>289.49</ele>
        <time>2011-11-20T10:35:57Z</time>
      </trkpt>
      <trkpt lat="43.54955" lon="6.14093">
        <ele>293.34</ele>
        <time>2011-11-20T10:36:01Z</time>
      </trkpt>
      <trkpt lat="43.54957" lon="6.14092">
        <ele>291.42</ele>
        <time>2011-11-20T10:36:03Z</time>
      </trkpt>
      <trkpt lat="43.54959" lon="6.14091">
        <ele>291.9</ele>
        <time>2011-11-20T10:36:05Z</time>
      </trkpt>
      <trkpt lat="43.54972" lon="6.14096">
        <ele>291.42</ele>
        <time>2011-11-20T10:36:17Z</time>
      </trkpt>
      <trkpt lat="43.5498" lon="6.14099">
        <ele>291.9</ele>
        <time>2011-11-20T10:36:25Z</time>
      </trkpt>
      <trkpt lat="43.54992" lon="6.14104">
        <ele>293.34</ele>
        <time>2011-11-20T10:36:36Z</time>
      </trkpt>
      <trkpt lat="43.55" lon="6.14106">
        <ele>293.82</ele>
        <time>2011-11-20T10:36:47Z</time>
      </trkpt>
      <trkpt lat="43.55004" lon="6.1411">
        <ele>290.46</ele>
        <time>2011-11-20T10:36:53Z</time>
      </trkpt>
      <trkpt lat="43.55006" lon="6.14112">
        <ele>294.78</ele>
        <time>2011-11-20T10:36:56Z</time>
      </trkpt>
      <trkpt lat="43.55008" lon="6.14113">
        <ele>291.42</ele>
        <time>2011-11-20T10:36:59Z</time>
      </trkpt>
      <trkpt lat="43.55014" lon="6.14113">
        <ele>286.61</ele>
        <time>2011-11-20T10:37:06Z</time>
      </trkpt>
      <trkpt lat="43.55014" lon="6.14112">
        <ele>289.97</ele>
        <time>2011-11-20T10:37:07Z</time>
      </trkpt>
      <trkpt lat="43.55023" lon="6.14112">
        <ele>288.53</ele>
        <time>2011-11-20T10:37:17Z</time>
      </trkpt>
      <trkpt lat="43.55035" lon="6.1411">
        <ele>289.01</ele>
        <time>2011-11-20T10:37:28Z</time>
      </trkpt>
      <trkpt lat="43.55037" lon="6.14109">
        <ele>288.05</ele>
        <time>2011-11-20T10:37:30Z</time>
      </trkpt>
      <trkpt lat="43.55037" lon="6.14108">
        <ele>290.46</ele>
        <time>2011-11-20T10:37:31Z</time>
      </trkpt>
      <trkpt lat="43.55046" lon="6.14095">
        <ele>287.09</ele>
        <time>2011-11-20T10:37:44Z</time>
      </trkpt>
      <trkpt lat="43.55052" lon="6.14086">
        <ele>285.17</ele>
        <time>2011-11-20T10:37:54Z</time>
      </trkpt>
      <trkpt lat="43.55056" lon="6.14083">
        <ele>285.17</ele>
        <time>2011-11-20T10:37:58Z</time>
      </trkpt>
      <trkpt lat="43.55059" lon="6.14078">
        <ele>284.21</ele>
        <time>2011-11-20T10:38:02Z</time>
      </trkpt>
      <trkpt lat="43.55063" lon="6.14074">
        <ele>284.21</ele>
        <time>2011-11-20T10:38:06Z</time>
      </trkpt>
      <trkpt lat="43.55069" lon="6.14058">
        <ele>281.32</ele>
        <time>2011-11-20T10:38:19Z</time>
      </trkpt>
      <trkpt lat="43.55077" lon="6.14044">
        <ele>282.77</ele>
        <time>2011-11-20T10:38:30Z</time>
      </trkpt>
      <trkpt lat="43.55083" lon="6.14029">
        <ele>278.92</ele>
        <time>2011-11-20T10:38:43Z</time>
      </trkpt>
      <trkpt lat="43.55091" lon="6.14017">
        <ele>279.4</ele>
        <time>2011-11-20T10:38:56Z</time>
      </trkpt>
      <trkpt lat="43.55096" lon="6.14011">
        <ele>277.96</ele>
        <time>2011-11-20T10:39:03Z</time>
      </trkpt>
      <trkpt lat="43.55107" lon="6.14005">
        <ele>277.96</ele>
        <time>2011-11-20T10:39:15Z</time>
      </trkpt>
      <trkpt lat="43.55108" lon="6.14006">
        <ele>276.04</ele>
        <time>2011-11-20T10:39:18Z</time>
      </trkpt>
      <trkpt lat="43.55119" lon="6.14003">
        <ele>278.44</ele>
        <time>2011-11-20T10:39:29Z</time>
      </trkpt>
      <trkpt lat="43.55128" lon="6.1399">
        <ele>277.48</ele>
        <time>2011-11-20T10:39:42Z</time>
      </trkpt>
      <trkpt lat="43.55137" lon="6.1398">
        <ele>278.92</ele>
        <time>2011-11-20T10:39:53Z</time>
      </trkpt>
      <trkpt lat="43.55146" lon="6.13969">
        <ele>277</ele>
        <time>2011-11-20T10:40:05Z</time>
      </trkpt>
      <trkpt lat="43.55152" lon="6.13962">
        <ele>277</ele>
        <time>2011-11-20T10:40:12Z</time>
      </trkpt>
      <trkpt lat="43.55153" lon="6.1396">
        <ele>277</ele>
        <time>2011-11-20T10:40:14Z</time>
      </trkpt>
      <trkpt lat="43.55161" lon="6.13952">
        <ele>276.52</ele>
        <time>2011-11-20T10:40:23Z</time>
      </trkpt>
      <trkpt lat="43.55164" lon="6.1395">
        <ele>277.48</ele>
        <time>2011-11-20T10:40:26Z</time>
      </trkpt>
      <trkpt lat="43.55171" lon="6.13944">
        <ele>278.44</ele>
        <time>2011-11-20T10:40:33Z</time>
      </trkpt>
      <trkpt lat="43.55178" lon="6.13938">
        <ele>277.48</ele>
        <time>2011-11-20T10:40:40Z</time>
      </trkpt>
      <trkpt lat="43.55182" lon="6.13934">
        <ele>279.4</ele>
        <time>2011-11-20T10:40:45Z</time>
      </trkpt>
      <trkpt lat="43.55193" lon="6.13924">
        <ele>278.44</ele>
        <time>2011-11-20T10:40:56Z</time>
      </trkpt>
      <trkpt lat="43.55194" lon="6.13923">
        <ele>278.92</ele>
        <time>2011-11-20T10:40:57Z</time>
      </trkpt>
      <trkpt lat="43.55204" lon="6.13919">
        <ele>279.88</ele>
        <time>2011-11-20T10:41:06Z</time>
      </trkpt>
      <trkpt lat="43.55207" lon="6.13917">
        <ele>278.44</ele>
        <time>2011-11-20T10:41:09Z</time>
      </trkpt>
      <trkpt lat="43.55211" lon="6.13915">
        <ele>281.8</ele>
        <time>2011-11-20T10:41:13Z</time>
      </trkpt>
      <trkpt lat="43.55213" lon="6.13914">
        <ele>280.36</ele>
        <time>2011-11-20T10:41:15Z</time>
      </trkpt>
      <trkpt lat="43.55217" lon="6.13917">
        <ele>281.8</ele>
        <time>2011-11-20T10:41:21Z</time>
      </trkpt>
      <trkpt lat="43.55224" lon="6.13923">
        <ele>283.25</ele>
        <time>2011-11-20T10:41:28Z</time>
      </trkpt>
      <trkpt lat="43.55226" lon="6.13924">
        <ele>279.88</ele>
        <time>2011-11-20T10:41:31Z</time>
      </trkpt>
      <trkpt lat="43.55228" lon="6.13927">
        <ele>281.8</ele>
        <time>2011-11-20T10:41:34Z</time>
      </trkpt>
      <trkpt lat="43.55233" lon="6.13935">
        <ele>283.25</ele>
        <time>2011-11-20T10:41:40Z</time>
      </trkpt>
      <trkpt lat="43.55235" lon="6.13936">
        <ele>281.32</ele>
        <time>2011-11-20T10:41:42Z</time>
      </trkpt>
      <trkpt lat="43.55243" lon="6.13941">
        <ele>284.21</ele>
        <time>2011-11-20T10:41:49Z</time>
      </trkpt>
      <trkpt lat="43.55244" lon="6.13942">
        <ele>282.28</ele>
        <time>2011-11-20T10:41:50Z</time>
      </trkpt>
      <trkpt lat="43.55252" lon="6.13945">
        <ele>281.32</ele>
        <time>2011-11-20T10:41:57Z</time>
      </trkpt>
      <trkpt lat="43.55257" lon="6.13948">
        <ele>285.17</ele>
        <time>2011-11-20T10:42:02Z</time>
      </trkpt>
      <trkpt lat="43.55259" lon="6.13948">
        <ele>282.77</ele>
        <time>2011-11-20T10:42:04Z</time>
      </trkpt>
      <trkpt lat="43.55263" lon="6.13946">
        <ele>284.21</ele>
        <time>2011-11-20T10:42:08Z</time>
      </trkpt>
      <trkpt lat="43.55272" lon="6.13938">
        <ele>283.25</ele>
        <time>2011-11-20T10:42:20Z</time>
      </trkpt>
      <trkpt lat="43.55282" lon="6.1393">
        <ele>282.77</ele>
        <time>2011-11-20T10:42:32Z</time>
      </trkpt>
      <trkpt lat="43.55288" lon="6.13924">
        <ele>280.36</ele>
        <time>2011-11-20T10:42:40Z</time>
      </trkpt>
      <trkpt lat="43.55289" lon="6.13914">
        <ele>280.36</ele>
        <time>2011-11-20T10:42:52Z</time>
      </trkpt>
      <trkpt lat="43.55288" lon="6.13913">
        <ele>281.32</ele>
        <time>2011-11-20T10:42:59Z</time>
      </trkpt>
      <trkpt lat="43.55288" lon="6.13917">
        <ele>281.32</ele>
        <time>2011-11-20T10:43:07Z</time>
      </trkpt>
      <trkpt lat="43.55289" lon="6.13911">
        <ele>280.84</ele>
        <time>2011-11-20T10:43:20Z</time>
      </trkpt>
      <trkpt lat="43.55289" lon="6.13904">
        <ele>283.25</ele>
        <time>2011-11-20T10:43:25Z</time>
      </trkpt>
      <trkpt lat="43.5529" lon="6.139">
        <ele>281.8</ele>
        <time>2011-11-20T10:43:30Z</time>
      </trkpt>
      <trkpt lat="43.55292" lon="6.13899">
        <ele>283.25</ele>
        <time>2011-11-20T10:43:33Z</time>
      </trkpt>
      <trkpt lat="43.55294" lon="6.13888">
        <ele>284.69</ele>
        <time>2011-11-20T10:43:43Z</time>
      </trkpt>
      <trkpt lat="43.55292" lon="6.13874">
        <ele>284.21</ele>
        <time>2011-11-20T10:43:54Z</time>
      </trkpt>
      <trkpt lat="43.55291" lon="6.13873">
        <ele>285.17</ele>
        <time>2011-11-20T10:43:56Z</time>
      </trkpt>
      <trkpt lat="43.55291" lon="6.13871">
        <ele>283.73</ele>
        <time>2011-11-20T10:43:58Z</time>
      </trkpt>
      <trkpt lat="43.5529" lon="6.1387">
        <ele>285.17</ele>
        <time>2011-11-20T10:44:11Z</time>
      </trkpt>
      <trkpt lat="43.55291" lon="6.1386">
        <ele>285.65</ele>
        <time>2011-11-20T10:44:29Z</time>
      </trkpt>
      <trkpt lat="43.5529" lon="6.13859">
        <ele>284.69</ele>
        <time>2011-11-20T10:44:45Z</time>
      </trkpt>
      <trkpt lat="43.5529" lon="6.13859">
        <ele>284.69</ele>
        <time>2011-11-20T10:45:11Z</time>
      </trkpt>
      <trkpt lat="43.55292" lon="6.13858">
        <ele>285.65</ele>
        <time>2011-11-20T10:45:31Z</time>
      </trkpt>
      <trkpt lat="43.55298" lon="6.13855">
        <ele>287.09</ele>
        <time>2011-11-20T10:45:38Z</time>
      </trkpt>
      <trkpt lat="43.55303" lon="6.13861">
        <ele>287.09</ele>
        <time>2011-11-20T10:45:49Z</time>
      </trkpt>
      <trkpt lat="43.55305" lon="6.13859">
        <ele>288.05</ele>
        <time>2011-11-20T10:45:59Z</time>
      </trkpt>
      <trkpt lat="43.55304" lon="6.13859">
        <ele>284.21</ele>
        <time>2011-11-20T10:46:02Z</time>
      </trkpt>
      <trkpt lat="43.55304" lon="6.13859">
        <ele>292.38</ele>
        <time>2011-11-20T10:46:03Z</time>
      </trkpt>
      <trkpt lat="43.55304" lon="6.13859">
        <ele>289.01</ele>
        <time>2011-11-20T10:46:05Z</time>
      </trkpt>
      <trkpt lat="43.55304" lon="6.13859">
        <ele>293.34</ele>
        <time>2011-11-20T10:46:09Z</time>
      </trkpt>
      <trkpt lat="43.55304" lon="6.13859">
        <ele>289.97</ele>
        <time>2011-11-20T10:46:10Z</time>
      </trkpt>
      <trkpt lat="43.55304" lon="6.13859">
        <ele>289.01</ele>
        <time>2011-11-20T10:46:12Z</time>
      </trkpt>
      <trkpt lat="43.55304" lon="6.13859">
        <ele>287.57</ele>
        <time>2011-11-20T10:46:13Z</time>
      </trkpt>
      <trkpt lat="43.55304" lon="6.13859">
        <ele>358.23</ele>
        <time>2011-11-20T11:43:00Z</time>
      </trkpt>
      <trkpt lat="43.55304" lon="6.13859">
        <ele>290.94</ele>
        <time>2011-11-20T11:43:01Z</time>
      </trkpt>
      <trkpt lat="43.55299" lon="6.13841">
        <ele>290.46</ele>
        <time>2011-11-20T11:43:08Z</time>
      </trkpt>
      <trkpt lat="43.55296" lon="6.13858">
        <ele>293.34</ele>
        <time>2011-11-20T11:43:31Z</time>
      </trkpt>
      <trkpt lat="43.55295" lon="6.13858">
        <ele>289.97</ele>
        <time>2011-11-20T11:43:33Z</time>
      </trkpt>
      <trkpt lat="43.55299" lon="6.13857">
        <ele>290.94</ele>
        <time>2011-11-20T11:45:33Z</time>
      </trkpt>
      <trkpt lat="43.55293" lon="6.1386">
        <ele>289.49</ele>
        <time>2011-11-20T11:45:43Z</time>
      </trkpt>
      <trkpt lat="43.55289" lon="6.13863">
        <ele>289.01</ele>
        <time>2011-11-20T11:45:49Z</time>
      </trkpt>
      <trkpt lat="43.55292" lon="6.13854">
        <ele>289.01</ele>
        <time>2011-11-20T11:46:01Z</time>
      </trkpt>
      <trkpt lat="43.55289" lon="6.13858">
        <ele>289.01</ele>
        <time>2011-11-20T11:46:11Z</time>
      </trkpt>
      <trkpt lat="43.55292" lon="6.13844">
        <ele>289.01</ele>
        <time>2011-11-20T11:46:51Z</time>
      </trkpt>
      <trkpt lat="43.55294" lon="6.13838">
        <ele>289.01</ele>
        <time>2011-11-20T11:46:57Z</time>
      </trkpt>
      <trkpt lat="43.55295" lon="6.13833">
        <ele>289.01</ele>
        <time>2011-11-20T11:47:08Z</time>
      </trkpt>
      <trkpt lat="43.55296" lon="6.13821">
        <ele>289.01</ele>
        <time>2011-11-20T11:47:43Z</time>
      </trkpt>
      <trkpt lat="43.55298" lon="6.13811">
        <ele>290.46</ele>
        <time>2011-11-20T11:47:54Z</time>
      </trkpt>
      <trkpt lat="43.55298" lon="6.13802">
        <ele>292.38</ele>
        <time>2011-11-20T11:48:04Z</time>
      </trkpt>
      <trkpt lat="43.55298" lon="6.13792">
        <ele>290.94</ele>
        <time>2011-11-20T11:48:15Z</time>
      </trkpt>
      <trkpt lat="43.55298" lon="6.13789">
        <ele>290.46</ele>
        <time>2011-11-20T11:48:28Z</time>
      </trkpt>
      <trkpt lat="43.55301" lon="6.13777">
        <ele>291.42</ele>
        <time>2011-11-20T11:48:41Z</time>
      </trkpt>
      <trkpt lat="43.55303" lon="6.13765">
        <ele>290.94</ele>
        <time>2011-11-20T11:48:51Z</time>
      </trkpt>
      <trkpt lat="43.55304" lon="6.13754">
        <ele>290.46</ele>
        <time>2011-11-20T11:49:03Z</time>
      </trkpt>
      <trkpt lat="43.55306" lon="6.13744">
        <ele>293.82</ele>
        <time>2011-11-20T11:49:13Z</time>
      </trkpt>
      <trkpt lat="43.55308" lon="6.13733">
        <ele>290.94</ele>
        <time>2011-11-20T11:49:24Z</time>
      </trkpt>
      <trkpt lat="43.55309" lon="6.1373">
        <ele>293.82</ele>
        <time>2011-11-20T11:49:26Z</time>
      </trkpt>
      <trkpt lat="43.55309" lon="6.13727">
        <ele>290.46</ele>
        <time>2011-11-20T11:49:28Z</time>
      </trkpt>
      <trkpt lat="43.55309" lon="6.13708">
        <ele>290.94</ele>
        <time>2011-11-20T11:49:41Z</time>
      </trkpt>
      <trkpt lat="43.55309" lon="6.13696">
        <ele>291.9</ele>
        <time>2011-11-20T11:49:49Z</time>
      </trkpt>
      <trkpt lat="43.55308" lon="6.13689">
        <ele>291.42</ele>
        <time>2011-11-20T11:49:55Z</time>
      </trkpt>
      <trkpt lat="43.55307" lon="6.13683">
        <ele>291.42</ele>
        <time>2011-11-20T11:49:59Z</time>
      </trkpt>
      <trkpt lat="43.55306" lon="6.13675">
        <ele>291.42</ele>
        <time>2011-11-20T11:50:05Z</time>
      </trkpt>
      <trkpt lat="43.55305" lon="6.13669">
        <ele>290.94</ele>
        <time>2011-11-20T11:50:09Z</time>
      </trkpt>
      <trkpt lat="43.55301" lon="6.13657">
        <ele>292.38</ele>
        <time>2011-11-20T11:50:19Z</time>
      </trkpt>
      <trkpt lat="43.553" lon="6.13654">
        <ele>289.01</ele>
        <time>2011-11-20T11:50:21Z</time>
      </trkpt>
      <trkpt lat="43.55298" lon="6.13648">
        <ele>293.34</ele>
        <time>2011-11-20T11:50:26Z</time>
      </trkpt>
      <trkpt lat="43.55298" lon="6.13645">
        <ele>289.01</ele>
        <time>2011-11-20T11:50:28Z</time>
      </trkpt>
      <trkpt lat="43.55298" lon="6.13644">
        <ele>289.49</ele>
        <time>2011-11-20T11:50:29Z</time>
      </trkpt>
      <trkpt lat="43.55297" lon="6.13642">
        <ele>290.46</ele>
        <time>2011-11-20T11:50:31Z</time>
      </trkpt>
      <trkpt lat="43.55297" lon="6.1364">
        <ele>291.9</ele>
        <time>2011-11-20T11:50:33Z</time>
      </trkpt>
      <trkpt lat="43.55297" lon="6.13639">
        <ele>288.53</ele>
        <time>2011-11-20T11:50:34Z</time>
      </trkpt>
      <trkpt lat="43.55296" lon="6.13637">
        <ele>289.01</ele>
        <time>2011-11-20T11:50:35Z</time>
      </trkpt>
      <trkpt lat="43.55294" lon="6.13621">
        <ele>287.57</ele>
        <time>2011-11-20T11:50:47Z</time>
      </trkpt>
      <trkpt lat="43.55292" lon="6.13613">
        <ele>293.34</ele>
        <time>2011-11-20T11:50:51Z</time>
      </trkpt>
      <trkpt lat="43.55292" lon="6.13612">
        <ele>290.46</ele>
        <time>2011-11-20T11:50:52Z</time>
      </trkpt>
      <trkpt lat="43.55291" lon="6.13608">
        <ele>288.53</ele>
        <time>2011-11-20T11:50:54Z</time>
      </trkpt>
      <trkpt lat="43.5529" lon="6.13604">
        <ele>292.86</ele>
        <time>2011-11-20T11:50:56Z</time>
      </trkpt>
      <trkpt lat="43.5529" lon="6.13603">
        <ele>289.49</ele>
        <time>2011-11-20T11:50:57Z</time>
      </trkpt>
      <trkpt lat="43.55289" lon="6.13599">
        <ele>288.53</ele>
        <time>2011-11-20T11:50:59Z</time>
      </trkpt>
      <trkpt lat="43.55288" lon="6.13593">
        <ele>291.9</ele>
        <time>2011-11-20T11:51:03Z</time>
      </trkpt>
      <trkpt lat="43.55288" lon="6.13591">
        <ele>287.57</ele>
        <time>2011-11-20T11:51:04Z</time>
      </trkpt>
      <trkpt lat="43.55287" lon="6.1359">
        <ele>287.57</ele>
        <time>2011-11-20T11:51:05Z</time>
      </trkpt>
      <trkpt lat="43.55286" lon="6.13586">
        <ele>292.38</ele>
        <time>2011-11-20T11:51:08Z</time>
      </trkpt>
      <trkpt lat="43.55286" lon="6.13585">
        <ele>289.97</ele>
        <time>2011-11-20T11:51:09Z</time>
      </trkpt>
      <trkpt lat="43.55286" lon="6.13584">
        <ele>288.53</ele>
        <time>2011-11-20T11:51:11Z</time>
      </trkpt>
      <trkpt lat="43.55285" lon="6.13581">
        <ele>289.97</ele>
        <time>2011-11-20T11:51:13Z</time>
      </trkpt>
      <trkpt lat="43.55285" lon="6.13566">
        <ele>291.9</ele>
        <time>2011-11-20T11:51:24Z</time>
      </trkpt>
      <trkpt lat="43.55284" lon="6.13558">
        <ele>290.46</ele>
        <time>2011-11-20T11:51:28Z</time>
      </trkpt>
      <trkpt lat="43.55282" lon="6.1355">
        <ele>293.34</ele>
        <time>2011-11-20T11:51:33Z</time>
      </trkpt>
      <trkpt lat="43.55281" lon="6.13549">
        <ele>289.49</ele>
        <time>2011-11-20T11:51:34Z</time>
      </trkpt>
      <trkpt lat="43.5528" lon="6.13535">
        <ele>289.97</ele>
        <time>2011-11-20T11:51:45Z</time>
      </trkpt>
      <trkpt lat="43.55279" lon="6.13527">
        <ele>293.82</ele>
        <time>2011-11-20T11:51:52Z</time>
      </trkpt>
      <trkpt lat="43.55279" lon="6.13526">
        <ele>289.97</ele>
        <time>2011-11-20T11:51:53Z</time>
      </trkpt>
      <trkpt lat="43.5528" lon="6.13522">
        <ele>291.42</ele>
        <time>2011-11-20T11:51:56Z</time>
      </trkpt>
      <trkpt lat="43.55274" lon="6.13514">
        <ele>289.97</ele>
        <time>2011-11-20T11:52:04Z</time>
      </trkpt>
      <trkpt lat="43.55267" lon="6.13514">
        <ele>292.86</ele>
        <time>2011-11-20T11:52:11Z</time>
      </trkpt>
      <trkpt lat="43.55261" lon="6.13515">
        <ele>291.42</ele>
        <time>2011-11-20T11:52:17Z</time>
      </trkpt>
      <trkpt lat="43.55259" lon="6.13516">
        <ele>289.97</ele>
        <time>2011-11-20T11:52:19Z</time>
      </trkpt>
      <trkpt lat="43.55256" lon="6.13516">
        <ele>288.05</ele>
        <time>2011-11-20T11:52:22Z</time>
      </trkpt>
      <trkpt lat="43.5525" lon="6.13519">
        <ele>289.01</ele>
        <time>2011-11-20T11:52:29Z</time>
      </trkpt>
      <trkpt lat="43.55246" lon="6.13517">
        <ele>289.97</ele>
        <time>2011-11-20T11:52:34Z</time>
      </trkpt>
      <trkpt lat="43.55244" lon="6.13515">
        <ele>292.38</ele>
        <time>2011-11-20T11:52:36Z</time>
      </trkpt>
      <trkpt lat="43.55243" lon="6.13514">
        <ele>291.42</ele>
        <time>2011-11-20T11:52:37Z</time>
      </trkpt>
      <trkpt lat="43.55243" lon="6.13506">
        <ele>293.82</ele>
        <time>2011-11-20T11:52:43Z</time>
      </trkpt>
      <trkpt lat="43.55243" lon="6.13502">
        <ele>289.97</ele>
        <time>2011-11-20T11:52:46Z</time>
      </trkpt>
      <trkpt lat="43.55243" lon="6.13491">
        <ele>293.82</ele>
        <time>2011-11-20T11:52:54Z</time>
      </trkpt>
      <trkpt lat="43.55243" lon="6.1349">
        <ele>291.9</ele>
        <time>2011-11-20T11:52:55Z</time>
      </trkpt>
      <trkpt lat="43.55243" lon="6.13487">
        <ele>289.97</ele>
        <time>2011-11-20T11:52:57Z</time>
      </trkpt>
      <trkpt lat="43.55244" lon="6.13478">
        <ele>293.34</ele>
        <time>2011-11-20T11:53:04Z</time>
      </trkpt>
      <trkpt lat="43.55245" lon="6.13474">
        <ele>290.46</ele>
        <time>2011-11-20T11:53:06Z</time>
      </trkpt>
      <trkpt lat="43.55247" lon="6.13459">
        <ele>288.53</ele>
        <time>2011-11-20T11:53:17Z</time>
      </trkpt>
      <trkpt lat="43.55247" lon="6.13456">
        <ele>290.46</ele>
        <time>2011-11-20T11:53:19Z</time>
      </trkpt>
      <trkpt lat="43.55247" lon="6.1345">
        <ele>287.09</ele>
        <time>2011-11-20T11:53:23Z</time>
      </trkpt>
      <trkpt lat="43.55247" lon="6.13449">
        <ele>288.53</ele>
        <time>2011-11-20T11:53:24Z</time>
      </trkpt>
      <trkpt lat="43.55247" lon="6.13447">
        <ele>293.82</ele>
        <time>2011-11-20T11:53:26Z</time>
      </trkpt>
      <trkpt lat="43.55247" lon="6.13445">
        <ele>289.97</ele>
        <time>2011-11-20T11:53:27Z</time>
      </trkpt>
      <trkpt lat="43.55247" lon="6.13441">
        <ele>287.09</ele>
        <time>2011-11-20T11:53:30Z</time>
      </trkpt>
      <trkpt lat="43.55247" lon="6.13439">
        <ele>289.97</ele>
        <time>2011-11-20T11:53:31Z</time>
      </trkpt>
      <trkpt lat="43.55248" lon="6.13429">
        <ele>294.3</ele>
        <time>2011-11-20T11:53:38Z</time>
      </trkpt>
      <trkpt lat="43.55248" lon="6.13428">
        <ele>291.42</ele>
        <time>2011-11-20T11:53:39Z</time>
      </trkpt>
      <trkpt lat="43.55249" lon="6.13422">
        <ele>292.86</ele>
        <time>2011-11-20T11:53:44Z</time>
      </trkpt>
      <trkpt lat="43.55249" lon="6.1342">
        <ele>288.53</ele>
        <time>2011-11-20T11:53:46Z</time>
      </trkpt>
      <trkpt lat="43.5525" lon="6.13418">
        <ele>293.34</ele>
        <time>2011-11-20T11:53:48Z</time>
      </trkpt>
      <trkpt lat="43.5525" lon="6.13416">
        <ele>289.97</ele>
        <time>2011-11-20T11:53:50Z</time>
      </trkpt>
      <trkpt lat="43.5525" lon="6.13412">
        <ele>289.49</ele>
        <time>2011-11-20T11:53:54Z</time>
      </trkpt>
      <trkpt lat="43.55244" lon="6.13403">
        <ele>291.42</ele>
        <time>2011-11-20T11:54:01Z</time>
      </trkpt>
      <trkpt lat="43.55242" lon="6.134">
        <ele>294.3</ele>
        <time>2011-11-20T11:54:03Z</time>
      </trkpt>
      <trkpt lat="43.55241" lon="6.13399">
        <ele>290.94</ele>
        <time>2011-11-20T11:54:04Z</time>
      </trkpt>
      <trkpt lat="43.55237" lon="6.13397">
        <ele>292.86</ele>
        <time>2011-11-20T11:54:08Z</time>
      </trkpt>
      <trkpt lat="43.55234" lon="6.13396">
        <ele>291.42</ele>
        <time>2011-11-20T11:54:11Z</time>
      </trkpt>
      <trkpt lat="43.55233" lon="6.13396">
        <ele>295.26</ele>
        <time>2011-11-20T11:54:12Z</time>
      </trkpt>
      <trkpt lat="43.55232" lon="6.13395">
        <ele>291.9</ele>
        <time>2011-11-20T11:54:13Z</time>
      </trkpt>
      <trkpt lat="43.55225" lon="6.13392">
        <ele>295.26</ele>
        <time>2011-11-20T11:54:18Z</time>
      </trkpt>
      <trkpt lat="43.55222" lon="6.13392">
        <ele>291.9</ele>
        <time>2011-11-20T11:54:20Z</time>
      </trkpt>
      <trkpt lat="43.55216" lon="6.13391">
        <ele>293.82</ele>
        <time>2011-11-20T11:54:24Z</time>
      </trkpt>
      <trkpt lat="43.55207" lon="6.13387">
        <ele>292.86</ele>
        <time>2011-11-20T11:54:34Z</time>
      </trkpt>
      <trkpt lat="43.55206" lon="6.13381">
        <ele>290.94</ele>
        <time>2011-11-20T11:54:38Z</time>
      </trkpt>
      <trkpt lat="43.55206" lon="6.13377">
        <ele>291.9</ele>
        <time>2011-11-20T11:54:40Z</time>
      </trkpt>
      <trkpt lat="43.55204" lon="6.1337">
        <ele>290.46</ele>
        <time>2011-11-20T11:54:45Z</time>
      </trkpt>
      <trkpt lat="43.55204" lon="6.1336">
        <ele>293.82</ele>
        <time>2011-11-20T11:54:51Z</time>
      </trkpt>
      <trkpt lat="43.55203" lon="6.13351">
        <ele>289.49</ele>
        <time>2011-11-20T11:54:57Z</time>
      </trkpt>
      <trkpt lat="43.55203" lon="6.13348">
        <ele>293.34</ele>
        <time>2011-11-20T11:54:59Z</time>
      </trkpt>
      <trkpt lat="43.55202" lon="6.13339">
        <ele>290.46</ele>
        <time>2011-11-20T11:55:06Z</time>
      </trkpt>
      <trkpt lat="43.55201" lon="6.13336">
        <ele>294.78</ele>
        <time>2011-11-20T11:55:08Z</time>
      </trkpt>
      <trkpt lat="43.55201" lon="6.13335">
        <ele>294.3</ele>
        <time>2011-11-20T11:55:09Z</time>
      </trkpt>
      <trkpt lat="43.552" lon="6.13331">
        <ele>290.94</ele>
        <time>2011-11-20T11:55:12Z</time>
      </trkpt>
      <trkpt lat="43.552" lon="6.13327">
        <ele>295.74</ele>
        <time>2011-11-20T11:55:14Z</time>
      </trkpt>
      <trkpt lat="43.552" lon="6.13326">
        <ele>294.78</ele>
        <time>2011-11-20T11:55:15Z</time>
      </trkpt>
      <trkpt lat="43.552" lon="6.13322">
        <ele>290.94</ele>
        <time>2011-11-20T11:55:18Z</time>
      </trkpt>
      <trkpt lat="43.55199" lon="6.13318">
        <ele>295.26</ele>
        <time>2011-11-20T11:55:21Z</time>
      </trkpt>
      <trkpt lat="43.55198" lon="6.13315">
        <ele>296.22</ele>
        <time>2011-11-20T11:55:23Z</time>
      </trkpt>
      <trkpt lat="43.55198" lon="6.13311">
        <ele>294.3</ele>
        <time>2011-11-20T11:55:25Z</time>
      </trkpt>
      <trkpt lat="43.55197" lon="6.13308">
        <ele>292.86</ele>
        <time>2011-11-20T11:55:27Z</time>
      </trkpt>
      <trkpt lat="43.55199" lon="6.13294">
        <ele>294.3</ele>
        <time>2011-11-20T11:55:36Z</time>
      </trkpt>
      <trkpt lat="43.55202" lon="6.13285">
        <ele>290.94</ele>
        <time>2011-11-20T11:55:42Z</time>
      </trkpt>
      <trkpt lat="43.55203" lon="6.13283">
        <ele>294.3</ele>
        <time>2011-11-20T11:55:44Z</time>
      </trkpt>
      <trkpt lat="43.55205" lon="6.13278">
        <ele>291.9</ele>
        <time>2011-11-20T11:55:48Z</time>
      </trkpt>
      <trkpt lat="43.55205" lon="6.13274">
        <ele>296.22</ele>
        <time>2011-11-20T11:55:51Z</time>
      </trkpt>
      <trkpt lat="43.55205" lon="6.13272">
        <ele>295.26</ele>
        <time>2011-11-20T11:55:52Z</time>
      </trkpt>
      <trkpt lat="43.55205" lon="6.13265">
        <ele>294.78</ele>
        <time>2011-11-20T11:55:57Z</time>
      </trkpt>
      <trkpt lat="43.55206" lon="6.13262">
        <ele>296.22</ele>
        <time>2011-11-20T11:55:59Z</time>
      </trkpt>
      <trkpt lat="43.55207" lon="6.13261">
        <ele>294.78</ele>
        <time>2011-11-20T11:56:00Z</time>
      </trkpt>
      <trkpt lat="43.55213" lon="6.13255">
        <ele>294.78</ele>
        <time>2011-11-20T11:56:07Z</time>
      </trkpt>
      <trkpt lat="43.55219" lon="6.13251">
        <ele>291.42</ele>
        <time>2011-11-20T11:56:13Z</time>
      </trkpt>
      <trkpt lat="43.5522" lon="6.1325">
        <ele>294.78</ele>
        <time>2011-11-20T11:56:14Z</time>
      </trkpt>
      <trkpt lat="43.55232" lon="6.13241">
        <ele>295.74</ele>
        <time>2011-11-20T11:56:27Z</time>
      </trkpt>
      <trkpt lat="43.55234" lon="6.1324">
        <ele>292.38</ele>
        <time>2011-11-20T11:56:29Z</time>
      </trkpt>
      <trkpt lat="43.55235" lon="6.13239">
        <ele>295.74</ele>
        <time>2011-11-20T11:56:31Z</time>
      </trkpt>
      <trkpt lat="43.55236" lon="6.13238">
        <ele>295.74</ele>
        <time>2011-11-20T11:56:32Z</time>
      </trkpt>
      <trkpt lat="43.55249" lon="6.13229">
        <ele>292.86</ele>
        <time>2011-11-20T11:56:45Z</time>
      </trkpt>
      <trkpt lat="43.55252" lon="6.13226">
        <ele>295.26</ele>
        <time>2011-11-20T11:56:48Z</time>
      </trkpt>
      <trkpt lat="43.55255" lon="6.13221">
        <ele>294.78</ele>
        <time>2011-11-20T11:56:53Z</time>
      </trkpt>
      <trkpt lat="43.55264" lon="6.13207">
        <ele>295.26</ele>
        <time>2011-11-20T11:57:06Z</time>
      </trkpt>
      <trkpt lat="43.55267" lon="6.13203">
        <ele>296.7</ele>
        <time>2011-11-20T11:57:09Z</time>
      </trkpt>
      <trkpt lat="43.55276" lon="6.13193">
        <ele>296.7</ele>
        <time>2011-11-20T11:57:21Z</time>
      </trkpt>
      <trkpt lat="43.55286" lon="6.13184">
        <ele>299.59</ele>
        <time>2011-11-20T11:57:32Z</time>
      </trkpt>
      <trkpt lat="43.55292" lon="6.13173">
        <ele>296.22</ele>
        <time>2011-11-20T11:57:42Z</time>
      </trkpt>
      <trkpt lat="43.55294" lon="6.13159">
        <ele>298.63</ele>
        <time>2011-11-20T11:57:53Z</time>
      </trkpt>
      <trkpt lat="43.55294" lon="6.13143">
        <ele>297.67</ele>
        <time>2011-11-20T11:58:04Z</time>
      </trkpt>
      <trkpt lat="43.55294" lon="6.13141">
        <ele>298.15</ele>
        <time>2011-11-20T11:58:05Z</time>
      </trkpt>
      <trkpt lat="43.55294" lon="6.13138">
        <ele>296.22</ele>
        <time>2011-11-20T11:58:07Z</time>
      </trkpt>
      <trkpt lat="43.55294" lon="6.13134">
        <ele>302.47</ele>
        <time>2011-11-20T11:58:10Z</time>
      </trkpt>
      <trkpt lat="43.55294" lon="6.13133">
        <ele>301.51</ele>
        <time>2011-11-20T11:58:11Z</time>
      </trkpt>
      <trkpt lat="43.55294" lon="6.13129">
        <ele>299.11</ele>
        <time>2011-11-20T11:58:13Z</time>
      </trkpt>
      <trkpt lat="43.55292" lon="6.13122">
        <ele>301.03</ele>
        <time>2011-11-20T11:58:18Z</time>
      </trkpt>
      <trkpt lat="43.5529" lon="6.13118">
        <ele>298.15</ele>
        <time>2011-11-20T11:58:21Z</time>
      </trkpt>
      <trkpt lat="43.55286" lon="6.13111">
        <ele>296.22</ele>
        <time>2011-11-20T11:58:27Z</time>
      </trkpt>
      <trkpt lat="43.55282" lon="6.13096">
        <ele>301.03</ele>
        <time>2011-11-20T11:58:36Z</time>
      </trkpt>
      <trkpt lat="43.55282" lon="6.13095">
        <ele>297.67</ele>
        <time>2011-11-20T11:58:37Z</time>
      </trkpt>
      <trkpt lat="43.55281" lon="6.13094">
        <ele>297.67</ele>
        <time>2011-11-20T11:58:38Z</time>
      </trkpt>
      <trkpt lat="43.5528" lon="6.13092">
        <ele>296.7</ele>
        <time>2011-11-20T11:58:40Z</time>
      </trkpt>
      <trkpt lat="43.55277" lon="6.1308">
        <ele>300.07</ele>
        <time>2011-11-20T11:58:48Z</time>
      </trkpt>
      <trkpt lat="43.55276" lon="6.13076">
        <ele>297.18</ele>
        <time>2011-11-20T11:58:51Z</time>
      </trkpt>
      <trkpt lat="43.55273" lon="6.13068">
        <ele>300.55</ele>
        <time>2011-11-20T11:58:57Z</time>
      </trkpt>
      <trkpt lat="43.55273" lon="6.13066">
        <ele>300.55</ele>
        <time>2011-11-20T11:58:58Z</time>
      </trkpt>
      <trkpt lat="43.55272" lon="6.13064">
        <ele>297.18</ele>
        <time>2011-11-20T11:58:59Z</time>
      </trkpt>
      <trkpt lat="43.55272" lon="6.13063">
        <ele>298.63</ele>
        <time>2011-11-20T11:59:00Z</time>
      </trkpt>
      <trkpt lat="43.55271" lon="6.13059">
        <ele>295.26</ele>
        <time>2011-11-20T11:59:04Z</time>
      </trkpt>
      <trkpt lat="43.55269" lon="6.13052">
        <ele>301.03</ele>
        <time>2011-11-20T11:59:09Z</time>
      </trkpt>
      <trkpt lat="43.55268" lon="6.1305">
        <ele>297.67</ele>
        <time>2011-11-20T11:59:10Z</time>
      </trkpt>
      <trkpt lat="43.55267" lon="6.13044">
        <ele>295.74</ele>
        <time>2011-11-20T11:59:14Z</time>
      </trkpt>
      <trkpt lat="43.55265" lon="6.13039">
        <ele>300.55</ele>
        <time>2011-11-20T11:59:17Z</time>
      </trkpt>
      <trkpt lat="43.55264" lon="6.13038">
        <ele>300.07</ele>
        <time>2011-11-20T11:59:18Z</time>
      </trkpt>
      <trkpt lat="43.55263" lon="6.13035">
        <ele>299.11</ele>
        <time>2011-11-20T11:59:20Z</time>
      </trkpt>
      <trkpt lat="43.55262" lon="6.13032">
        <ele>297.18</ele>
        <time>2011-11-20T11:59:23Z</time>
      </trkpt>
      <trkpt lat="43.55261" lon="6.13029">
        <ele>301.03</ele>
        <time>2011-11-20T11:59:25Z</time>
      </trkpt>
      <trkpt lat="43.55261" lon="6.13028">
        <ele>298.63</ele>
        <time>2011-11-20T11:59:26Z</time>
      </trkpt>
      <trkpt lat="43.55259" lon="6.13024">
        <ele>297.18</ele>
        <time>2011-11-20T11:59:29Z</time>
      </trkpt>
      <trkpt lat="43.55256" lon="6.13012">
        <ele>300.07</ele>
        <time>2011-11-20T11:59:37Z</time>
      </trkpt>
      <trkpt lat="43.55254" lon="6.13004">
        <ele>295.74</ele>
        <time>2011-11-20T11:59:42Z</time>
      </trkpt>
      <trkpt lat="43.55253" lon="6.13001">
        <ele>299.11</ele>
        <time>2011-11-20T11:59:44Z</time>
      </trkpt>
      <trkpt lat="43.55252" lon="6.12992">
        <ele>295.74</ele>
        <time>2011-11-20T11:59:49Z</time>
      </trkpt>
      <trkpt lat="43.55252" lon="6.1299">
        <ele>296.22</ele>
        <time>2011-11-20T11:59:50Z</time>
      </trkpt>
      <trkpt lat="43.55251" lon="6.12987">
        <ele>299.11</ele>
        <time>2011-11-20T11:59:52Z</time>
      </trkpt>
      <trkpt lat="43.55252" lon="6.1298">
        <ele>296.22</ele>
        <time>2011-11-20T11:59:57Z</time>
      </trkpt>
      <trkpt lat="43.55252" lon="6.12977">
        <ele>300.55</ele>
        <time>2011-11-20T11:59:59Z</time>
      </trkpt>
      <trkpt lat="43.55252" lon="6.12972">
        <ele>296.22</ele>
        <time>2011-11-20T12:00:02Z</time>
      </trkpt>
      <trkpt lat="43.55252" lon="6.12971">
        <ele>297.18</ele>
        <time>2011-11-20T12:00:03Z</time>
      </trkpt>
      <trkpt lat="43.55252" lon="6.12967">
        <ele>301.03</ele>
        <time>2011-11-20T12:00:06Z</time>
      </trkpt>
      <trkpt lat="43.55252" lon="6.12965">
        <ele>301.03</ele>
        <time>2011-11-20T12:00:07Z</time>
      </trkpt>
      <trkpt lat="43.55252" lon="6.12963">
        <ele>299.59</ele>
        <time>2011-11-20T12:00:09Z</time>
      </trkpt>
      <trkpt lat="43.55252" lon="6.12962">
        <ele>296.7</ele>
        <time>2011-11-20T12:00:10Z</time>
      </trkpt>
      <trkpt lat="43.55253" lon="6.12961">
        <ele>297.67</ele>
        <time>2011-11-20T12:00:11Z</time>
      </trkpt>
      <trkpt lat="43.55256" lon="6.12943">
        <ele>300.55</ele>
        <time>2011-11-20T12:00:24Z</time>
      </trkpt>
      <trkpt lat="43.55256" lon="6.12943">
        <ele>300.55</ele>
        <time>2011-11-20T12:00:25Z</time>
      </trkpt>
      <trkpt lat="43.55256" lon="6.12943">
        <ele>299.59</ele>
        <time>2011-11-20T12:00:26Z</time>
      </trkpt>
      <trkpt lat="43.55249" lon="6.12944">
        <ele>298.63</ele>
        <time>2011-11-20T12:00:33Z</time>
      </trkpt>
      <trkpt lat="43.55242" lon="6.12952">
        <ele>301.99</ele>
        <time>2011-11-20T12:00:43Z</time>
      </trkpt>
      <trkpt lat="43.55241" lon="6.12954">
        <ele>298.63</ele>
        <time>2011-11-20T12:00:44Z</time>
      </trkpt>
      <trkpt lat="43.55237" lon="6.12963">
        <ele>300.07</ele>
        <time>2011-11-20T12:00:57Z</time>
      </trkpt>
      <trkpt lat="43.55236" lon="6.12965">
        <ele>303.43</ele>
        <time>2011-11-20T12:01:00Z</time>
      </trkpt>
      <trkpt lat="43.55236" lon="6.12965">
        <ele>300.55</ele>
        <time>2011-11-20T12:01:01Z</time>
      </trkpt>
      <trkpt lat="43.55226" lon="6.12982">
        <ele>302.95</ele>
        <time>2011-11-20T12:01:16Z</time>
      </trkpt>
      <trkpt lat="43.55225" lon="6.12987">
        <ele>303.43</ele>
        <time>2011-11-20T12:01:19Z</time>
      </trkpt>
      <trkpt lat="43.55217" lon="6.13001">
        <ele>307.28</ele>
        <time>2011-11-20T12:01:32Z</time>
      </trkpt>
      <trkpt lat="43.55213" lon="6.13008">
        <ele>305.84</ele>
        <time>2011-11-20T12:01:43Z</time>
      </trkpt>
      <trkpt lat="43.55205" lon="6.13019">
        <ele>308.72</ele>
        <time>2011-11-20T12:01:54Z</time>
      </trkpt>
      <trkpt lat="43.55201" lon="6.13022">
        <ele>307.76</ele>
        <time>2011-11-20T12:01:59Z</time>
      </trkpt>
      <trkpt lat="43.55196" lon="6.13032">
        <ele>311.6</ele>
        <time>2011-11-20T12:02:07Z</time>
      </trkpt>
      <trkpt lat="43.55196" lon="6.13033">
        <ele>307.76</ele>
        <time>2011-11-20T12:02:08Z</time>
      </trkpt>
      <trkpt lat="43.55193" lon="6.13041">
        <ele>309.2</ele>
        <time>2011-11-20T12:02:16Z</time>
      </trkpt>
      <trkpt lat="43.55187" lon="6.13054">
        <ele>310.16</ele>
        <time>2011-11-20T12:02:29Z</time>
      </trkpt>
      <trkpt lat="43.55186" lon="6.13056">
        <ele>313.53</ele>
        <time>2011-11-20T12:02:31Z</time>
      </trkpt>
      <trkpt lat="43.55186" lon="6.13057">
        <ele>310.16</ele>
        <time>2011-11-20T12:02:32Z</time>
      </trkpt>
      <trkpt lat="43.5518" lon="6.13071">
        <ele>311.12</ele>
        <time>2011-11-20T12:02:44Z</time>
      </trkpt>
      <trkpt lat="43.55177" lon="6.13079">
        <ele>314.97</ele>
        <time>2011-11-20T12:02:53Z</time>
      </trkpt>
      <trkpt lat="43.55176" lon="6.13081">
        <ele>310.64</ele>
        <time>2011-11-20T12:02:54Z</time>
      </trkpt>
      <trkpt lat="43.55174" lon="6.13084">
        <ele>314.01</ele>
        <time>2011-11-20T12:02:57Z</time>
      </trkpt>
      <trkpt lat="43.55173" lon="6.13087">
        <ele>312.09</ele>
        <time>2011-11-20T12:02:59Z</time>
      </trkpt>
      <trkpt lat="43.55171" lon="6.13089">
        <ele>313.53</ele>
        <time>2011-11-20T12:03:01Z</time>
      </trkpt>
      <trkpt lat="43.55171" lon="6.13093">
        <ele>311.6</ele>
        <time>2011-11-20T12:03:03Z</time>
      </trkpt>
      <trkpt lat="43.55169" lon="6.13098">
        <ele>316.41</ele>
        <time>2011-11-20T12:03:06Z</time>
      </trkpt>
      <trkpt lat="43.55168" lon="6.13099">
        <ele>312.09</ele>
        <time>2011-11-20T12:03:07Z</time>
      </trkpt>
      <trkpt lat="43.55164" lon="6.13108">
        <ele>316.41</ele>
        <time>2011-11-20T12:03:13Z</time>
      </trkpt>
      <trkpt lat="43.55163" lon="6.1311">
        <ele>315.93</ele>
        <time>2011-11-20T12:03:14Z</time>
      </trkpt>
      <trkpt lat="43.55162" lon="6.13113">
        <ele>312.09</ele>
        <time>2011-11-20T12:03:17Z</time>
      </trkpt>
      <trkpt lat="43.55161" lon="6.13114">
        <ele>312.57</ele>
        <time>2011-11-20T12:03:18Z</time>
      </trkpt>
      <trkpt lat="43.55159" lon="6.13116">
        <ele>311.6</ele>
        <time>2011-11-20T12:03:20Z</time>
      </trkpt>
      <trkpt lat="43.55155" lon="6.13126">
        <ele>316.41</ele>
        <time>2011-11-20T12:03:27Z</time>
      </trkpt>
      <trkpt lat="43.55154" lon="6.13127">
        <ele>313.53</ele>
        <time>2011-11-20T12:03:28Z</time>
      </trkpt>
      <trkpt lat="43.55152" lon="6.13131">
        <ele>311.12</ele>
        <time>2011-11-20T12:03:31Z</time>
      </trkpt>
      <trkpt lat="43.55149" lon="6.13136">
        <ele>314.97</ele>
        <time>2011-11-20T12:03:35Z</time>
      </trkpt>
      <trkpt lat="43.55148" lon="6.1314">
        <ele>312.09</ele>
        <time>2011-11-20T12:03:40Z</time>
      </trkpt>
      <trkpt lat="43.55143" lon="6.13153">
        <ele>315.93</ele>
        <time>2011-11-20T12:03:49Z</time>
      </trkpt>
      <trkpt lat="43.55139" lon="6.13158">
        <ele>313.05</ele>
        <time>2011-11-20T12:03:55Z</time>
      </trkpt>
      <trkpt lat="43.55138" lon="6.1316">
        <ele>311.6</ele>
        <time>2011-11-20T12:03:58Z</time>
      </trkpt>
      <trkpt lat="43.55134" lon="6.13164">
        <ele>312.57</ele>
        <time>2011-11-20T12:04:02Z</time>
      </trkpt>
      <trkpt lat="43.55131" lon="6.13171">
        <ele>311.12</ele>
        <time>2011-11-20T12:04:06Z</time>
      </trkpt>
      <trkpt lat="43.55129" lon="6.13173">
        <ele>312.57</ele>
        <time>2011-11-20T12:04:08Z</time>
      </trkpt>
      <trkpt lat="43.55124" lon="6.13179">
        <ele>312.57</ele>
        <time>2011-11-20T12:04:13Z</time>
      </trkpt>
      <trkpt lat="43.55123" lon="6.13181">
        <ele>316.89</ele>
        <time>2011-11-20T12:04:15Z</time>
      </trkpt>
      <trkpt lat="43.55123" lon="6.13181">
        <ele>313.53</ele>
        <time>2011-11-20T12:04:16Z</time>
      </trkpt>
      <trkpt lat="43.55122" lon="6.13183">
        <ele>310.64</ele>
        <time>2011-11-20T12:04:18Z</time>
      </trkpt>
      <trkpt lat="43.55115" lon="6.13194">
        <ele>315.93</ele>
        <time>2011-11-20T12:04:27Z</time>
      </trkpt>
      <trkpt lat="43.55114" lon="6.13197">
        <ele>313.53</ele>
        <time>2011-11-20T12:04:30Z</time>
      </trkpt>
      <trkpt lat="43.55112" lon="6.13199">
        <ele>313.05</ele>
        <time>2011-11-20T12:04:32Z</time>
      </trkpt>
      <trkpt lat="43.5511" lon="6.13203">
        <ele>316.41</ele>
        <time>2011-11-20T12:04:35Z</time>
      </trkpt>
      <trkpt lat="43.55107" lon="6.13205">
        <ele>313.05</ele>
        <time>2011-11-20T12:04:38Z</time>
      </trkpt>
      <trkpt lat="43.55106" lon="6.13208">
        <ele>316.41</ele>
        <time>2011-11-20T12:04:41Z</time>
      </trkpt>
      <trkpt lat="43.55103" lon="6.1321">
        <ele>313.53</ele>
        <time>2011-11-20T12:04:44Z</time>
      </trkpt>
      <trkpt lat="43.55103" lon="6.1321">
        <ele>313.53</ele>
        <time>2011-11-20T12:04:45Z</time>
      </trkpt>
      <trkpt lat="43.55099" lon="6.13215">
        <ele>314.49</ele>
        <time>2011-11-20T12:04:49Z</time>
      </trkpt>
      <trkpt lat="43.55097" lon="6.13217">
        <ele>315.45</ele>
        <time>2011-11-20T12:04:53Z</time>
      </trkpt>
      <trkpt lat="43.5509" lon="6.13224">
        <ele>312.57</ele>
        <time>2011-11-20T12:05:01Z</time>
      </trkpt>
      <trkpt lat="43.55087" lon="6.13228">
        <ele>317.37</ele>
        <time>2011-11-20T12:05:04Z</time>
      </trkpt>
      <trkpt lat="43.55085" lon="6.13231">
        <ele>314.01</ele>
        <time>2011-11-20T12:05:06Z</time>
      </trkpt>
      <trkpt lat="43.55077" lon="6.13238">
        <ele>317.37</ele>
        <time>2011-11-20T12:05:15Z</time>
      </trkpt>
      <trkpt lat="43.55075" lon="6.1324">
        <ele>314.97</ele>
        <time>2011-11-20T12:05:19Z</time>
      </trkpt>
      <trkpt lat="43.55072" lon="6.13242">
        <ele>317.37</ele>
        <time>2011-11-20T12:05:22Z</time>
      </trkpt>
      <trkpt lat="43.5507" lon="6.13245">
        <ele>314.97</ele>
        <time>2011-11-20T12:05:24Z</time>
      </trkpt>
      <trkpt lat="43.55066" lon="6.13249">
        <ele>316.89</ele>
        <time>2011-11-20T12:05:27Z</time>
      </trkpt>
      <trkpt lat="43.55062" lon="6.13254">
        <ele>316.89</ele>
        <time>2011-11-20T12:05:31Z</time>
      </trkpt>
      <trkpt lat="43.55054" lon="6.13267">
        <ele>320.74</ele>
        <time>2011-11-20T12:05:42Z</time>
      </trkpt>
      <trkpt lat="43.55052" lon="6.13269">
        <ele>317.37</ele>
        <time>2011-11-20T12:05:44Z</time>
      </trkpt>
      <trkpt lat="43.55047" lon="6.13276">
        <ele>317.85</ele>
        <time>2011-11-20T12:05:53Z</time>
      </trkpt>
      <trkpt lat="43.5504" lon="6.13288">
        <ele>318.81</ele>
        <time>2011-11-20T12:06:01Z</time>
      </trkpt>
      <trkpt lat="43.55034" lon="6.13297">
        <ele>319.3</ele>
        <time>2011-11-20T12:06:10Z</time>
      </trkpt>
      <trkpt lat="43.55024" lon="6.13309">
        <ele>316.41</ele>
        <time>2011-11-20T12:06:22Z</time>
      </trkpt>
      <trkpt lat="43.55017" lon="6.13326">
        <ele>318.33</ele>
        <time>2011-11-20T12:06:33Z</time>
      </trkpt>
      <trkpt lat="43.55013" lon="6.13332">
        <ele>321.7</ele>
        <time>2011-11-20T12:06:38Z</time>
      </trkpt>
      <trkpt lat="43.55012" lon="6.13335">
        <ele>317.37</ele>
        <time>2011-11-20T12:06:41Z</time>
      </trkpt>
      <trkpt lat="43.55011" lon="6.13336">
        <ele>317.85</ele>
        <time>2011-11-20T12:06:42Z</time>
      </trkpt>
      <trkpt lat="43.55001" lon="6.13358">
        <ele>315.93</ele>
        <time>2011-11-20T12:06:57Z</time>
      </trkpt>
      <trkpt lat="43.54998" lon="6.13364">
        <ele>317.85</ele>
        <time>2011-11-20T12:07:02Z</time>
      </trkpt>
      <trkpt lat="43.54996" lon="6.13373">
        <ele>317.37</ele>
        <time>2011-11-20T12:07:08Z</time>
      </trkpt>
      <trkpt lat="43.54993" lon="6.1338">
        <ele>321.7</ele>
        <time>2011-11-20T12:07:13Z</time>
      </trkpt>
      <trkpt lat="43.54993" lon="6.13382">
        <ele>321.22</ele>
        <time>2011-11-20T12:07:14Z</time>
      </trkpt>
      <trkpt lat="43.5499" lon="6.13388">
        <ele>315.45</ele>
        <time>2011-11-20T12:07:18Z</time>
      </trkpt>
      <trkpt lat="43.54989" lon="6.13389">
        <ele>316.89</ele>
        <time>2011-11-20T12:07:19Z</time>
      </trkpt>
      <trkpt lat="43.54985" lon="6.13396">
        <ele>315.45</ele>
        <time>2011-11-20T12:07:25Z</time>
      </trkpt>
      <trkpt lat="43.54982" lon="6.13399">
        <ele>320.74</ele>
        <time>2011-11-20T12:07:30Z</time>
      </trkpt>
      <trkpt lat="43.54979" lon="6.13401">
        <ele>321.7</ele>
        <time>2011-11-20T12:07:32Z</time>
      </trkpt>
      <trkpt lat="43.54977" lon="6.13403">
        <ele>318.33</ele>
        <time>2011-11-20T12:07:34Z</time>
      </trkpt>
      <trkpt lat="43.54974" lon="6.13404">
        <ele>316.89</ele>
        <time>2011-11-20T12:07:36Z</time>
      </trkpt>
      <trkpt lat="43.54968" lon="6.13407">
        <ele>317.37</ele>
        <time>2011-11-20T12:07:42Z</time>
      </trkpt>
      <trkpt lat="43.54958" lon="6.13411">
        <ele>318.33</ele>
        <time>2011-11-20T12:07:52Z</time>
      </trkpt>
      <trkpt lat="43.54953" lon="6.13413">
        <ele>316.89</ele>
        <time>2011-11-20T12:07:58Z</time>
      </trkpt>
      <trkpt lat="43.54948" lon="6.13415">
        <ele>317.37</ele>
        <time>2011-11-20T12:08:03Z</time>
      </trkpt>
      <trkpt lat="43.54946" lon="6.13415">
        <ele>319.78</ele>
        <time>2011-11-20T12:08:05Z</time>
      </trkpt>
      <trkpt lat="43.54943" lon="6.13417">
        <ele>317.37</ele>
        <time>2011-11-20T12:08:08Z</time>
      </trkpt>
      <trkpt lat="43.54941" lon="6.13417">
        <ele>321.22</ele>
        <time>2011-11-20T12:08:10Z</time>
      </trkpt>
      <trkpt lat="43.54937" lon="6.13419">
        <ele>318.33</ele>
        <time>2011-11-20T12:08:13Z</time>
      </trkpt>
      <trkpt lat="43.54935" lon="6.13419">
        <ele>320.74</ele>
        <time>2011-11-20T12:08:15Z</time>
      </trkpt>
      <trkpt lat="43.54929" lon="6.1342">
        <ele>321.22</ele>
        <time>2011-11-20T12:08:21Z</time>
      </trkpt>
      <trkpt lat="43.54921" lon="6.13422">
        <ele>322.66</ele>
        <time>2011-11-20T12:08:29Z</time>
      </trkpt>
      <trkpt lat="43.54919" lon="6.13424">
        <ele>323.14</ele>
        <time>2011-11-20T12:08:32Z</time>
      </trkpt>
      <trkpt lat="43.54912" lon="6.13428">
        <ele>325.06</ele>
        <time>2011-11-20T12:08:37Z</time>
      </trkpt>
      <trkpt lat="43.5491" lon="6.13429">
        <ele>322.66</ele>
        <time>2011-11-20T12:08:40Z</time>
      </trkpt>
      <trkpt lat="43.54907" lon="6.13429">
        <ele>320.74</ele>
        <time>2011-11-20T12:08:43Z</time>
      </trkpt>
      <trkpt lat="43.54902" lon="6.13429">
        <ele>324.1</ele>
        <time>2011-11-20T12:08:48Z</time>
      </trkpt>
      <trkpt lat="43.54897" lon="6.13429">
        <ele>327.95</ele>
        <time>2011-11-20T12:08:54Z</time>
      </trkpt>
      <trkpt lat="43.54894" lon="6.13429">
        <ele>324.58</ele>
        <time>2011-11-20T12:08:56Z</time>
      </trkpt>
      <trkpt lat="43.54894" lon="6.1343">
        <ele>325.06</ele>
        <time>2011-11-20T12:08:57Z</time>
      </trkpt>
      <trkpt lat="43.54885" lon="6.13433">
        <ele>326.5</ele>
        <time>2011-11-20T12:09:07Z</time>
      </trkpt>
      <trkpt lat="43.5488" lon="6.13436">
        <ele>325.54</ele>
        <time>2011-11-20T12:09:12Z</time>
      </trkpt>
      <trkpt lat="43.54879" lon="6.13436">
        <ele>328.91</ele>
        <time>2011-11-20T12:09:13Z</time>
      </trkpt>
      <trkpt lat="43.54875" lon="6.13438">
        <ele>325.54</ele>
        <time>2011-11-20T12:09:18Z</time>
      </trkpt>
      <trkpt lat="43.54865" lon="6.13446">
        <ele>326.5</ele>
        <time>2011-11-20T12:09:29Z</time>
      </trkpt>
      <trkpt lat="43.54863" lon="6.13448">
        <ele>329.87</ele>
        <time>2011-11-20T12:09:33Z</time>
      </trkpt>
      <trkpt lat="43.54862" lon="6.13448">
        <ele>328.43</ele>
        <time>2011-11-20T12:09:34Z</time>
      </trkpt>
      <trkpt lat="43.5486" lon="6.1345">
        <ele>326.5</ele>
        <time>2011-11-20T12:09:36Z</time>
      </trkpt>
      <trkpt lat="43.54848" lon="6.13457">
        <ele>327.95</ele>
        <time>2011-11-20T12:09:48Z</time>
      </trkpt>
      <trkpt lat="43.54841" lon="6.13462">
        <ele>325.06</ele>
        <time>2011-11-20T12:09:56Z</time>
      </trkpt>
      <trkpt lat="43.54828" lon="6.13473">
        <ele>326.02</ele>
        <time>2011-11-20T12:10:10Z</time>
      </trkpt>
      <trkpt lat="43.54827" lon="6.13473">
        <ele>326.02</ele>
        <time>2011-11-20T12:10:11Z</time>
      </trkpt>
      <trkpt lat="43.54825" lon="6.13474">
        <ele>324.58</ele>
        <time>2011-11-20T12:10:13Z</time>
      </trkpt>
      <trkpt lat="43.54822" lon="6.13478">
        <ele>323.62</ele>
        <time>2011-11-20T12:10:17Z</time>
      </trkpt>
      <trkpt lat="43.54819" lon="6.13483">
        <ele>326.5</ele>
        <time>2011-11-20T12:10:20Z</time>
      </trkpt>
      <trkpt lat="43.54811" lon="6.13486">
        <ele>326.99</ele>
        <time>2011-11-20T12:10:28Z</time>
      </trkpt>
      <trkpt lat="43.54807" lon="6.13491">
        <ele>323.14</ele>
        <time>2011-11-20T12:10:30Z</time>
      </trkpt>
      <trkpt lat="43.548" lon="6.13497">
        <ele>326.99</ele>
        <time>2011-11-20T12:10:35Z</time>
      </trkpt>
      <trkpt lat="43.54796" lon="6.13501">
        <ele>323.62</ele>
        <time>2011-11-20T12:10:39Z</time>
      </trkpt>
      <trkpt lat="43.54795" lon="6.13502">
        <ele>323.62</ele>
        <time>2011-11-20T12:10:40Z</time>
      </trkpt>
      <trkpt lat="43.54785" lon="6.13506">
        <ele>326.5</ele>
        <time>2011-11-20T12:10:50Z</time>
      </trkpt>
      <trkpt lat="43.54783" lon="6.13507">
        <ele>323.14</ele>
        <time>2011-11-20T12:10:52Z</time>
      </trkpt>
      <trkpt lat="43.54782" lon="6.13507">
        <ele>323.14</ele>
        <time>2011-11-20T12:10:53Z</time>
      </trkpt>
      <trkpt lat="43.54774" lon="6.13511">
        <ele>321.22</ele>
        <time>2011-11-20T12:11:00Z</time>
      </trkpt>
      <trkpt lat="43.54772" lon="6.13513">
        <ele>322.66</ele>
        <time>2011-11-20T12:11:02Z</time>
      </trkpt>
      <trkpt lat="43.5476" lon="6.13521">
        <ele>325.06</ele>
        <time>2011-11-20T12:11:13Z</time>
      </trkpt>
      <trkpt lat="43.54759" lon="6.13522">
        <ele>324.58</ele>
        <time>2011-11-20T12:11:14Z</time>
      </trkpt>
      <trkpt lat="43.54757" lon="6.13524">
        <ele>323.14</ele>
        <time>2011-11-20T12:11:16Z</time>
      </trkpt>
      <trkpt lat="43.54745" lon="6.1353">
        <ele>323.62</ele>
        <time>2011-11-20T12:11:28Z</time>
      </trkpt>
      <trkpt lat="43.54742" lon="6.13532">
        <ele>320.26</ele>
        <time>2011-11-20T12:11:31Z</time>
      </trkpt>
      <trkpt lat="43.54733" lon="6.13537">
        <ele>318.81</ele>
        <time>2011-11-20T12:11:40Z</time>
      </trkpt>
      <trkpt lat="43.54732" lon="6.13538">
        <ele>320.74</ele>
        <time>2011-11-20T12:11:41Z</time>
      </trkpt>
      <trkpt lat="43.5473" lon="6.13539">
        <ele>324.58</ele>
        <time>2011-11-20T12:11:43Z</time>
      </trkpt>
      <trkpt lat="43.54727" lon="6.13541">
        <ele>322.18</ele>
        <time>2011-11-20T12:11:45Z</time>
      </trkpt>
      <trkpt lat="43.54724" lon="6.13544">
        <ele>321.22</ele>
        <time>2011-11-20T12:11:47Z</time>
      </trkpt>
      <trkpt lat="43.54715" lon="6.1355">
        <ele>321.22</ele>
        <time>2011-11-20T12:11:55Z</time>
      </trkpt>
      <trkpt lat="43.54714" lon="6.13551">
        <ele>319.78</ele>
        <time>2011-11-20T12:11:57Z</time>
      </trkpt>
      <trkpt lat="43.5471" lon="6.13554">
        <ele>320.74</ele>
        <time>2011-11-20T12:12:01Z</time>
      </trkpt>
      <trkpt lat="43.54698" lon="6.1356">
        <ele>320.26</ele>
        <time>2011-11-20T12:12:12Z</time>
      </trkpt>
      <trkpt lat="43.54696" lon="6.13562">
        <ele>317.85</ele>
        <time>2011-11-20T12:12:16Z</time>
      </trkpt>
      <trkpt lat="43.54695" lon="6.13562">
        <ele>321.22</ele>
        <time>2011-11-20T12:12:17Z</time>
      </trkpt>
      <trkpt lat="43.54694" lon="6.13562">
        <ele>321.22</ele>
        <time>2011-11-20T12:12:18Z</time>
      </trkpt>
      <trkpt lat="43.5469" lon="6.13562">
        <ele>319.3</ele>
        <time>2011-11-20T12:12:22Z</time>
      </trkpt>
      <trkpt lat="43.54688" lon="6.13563">
        <ele>321.22</ele>
        <time>2011-11-20T12:12:25Z</time>
      </trkpt>
      <trkpt lat="43.5468" lon="6.1357">
        <ele>324.1</ele>
        <time>2011-11-20T12:12:33Z</time>
      </trkpt>
      <trkpt lat="43.54678" lon="6.1357">
        <ele>320.26</ele>
        <time>2011-11-20T12:12:34Z</time>
      </trkpt>
      <trkpt lat="43.54676" lon="6.13571">
        <ele>323.62</ele>
        <time>2011-11-20T12:12:37Z</time>
      </trkpt>
      <trkpt lat="43.54675" lon="6.13573">
        <ele>320.74</ele>
        <time>2011-11-20T12:12:38Z</time>
      </trkpt>
      <trkpt lat="43.54667" lon="6.13577">
        <ele>323.62</ele>
        <time>2011-11-20T12:12:48Z</time>
      </trkpt>
      <trkpt lat="43.54666" lon="6.13578">
        <ele>319.3</ele>
        <time>2011-11-20T12:12:49Z</time>
      </trkpt>
      <trkpt lat="43.54662" lon="6.13583">
        <ele>323.62</ele>
        <time>2011-11-20T12:12:54Z</time>
      </trkpt>
      <trkpt lat="43.54661" lon="6.13586">
        <ele>320.26</ele>
        <time>2011-11-20T12:12:56Z</time>
      </trkpt>
      <trkpt lat="43.54661" lon="6.13586">
        <ele>320.26</ele>
        <time>2011-11-20T12:12:57Z</time>
      </trkpt>
      <trkpt lat="43.54658" lon="6.13594">
        <ele>319.78</ele>
        <time>2011-11-20T12:13:10Z</time>
      </trkpt>
      <trkpt lat="43.54657" lon="6.13595">
        <ele>320.74</ele>
        <time>2011-11-20T12:13:19Z</time>
      </trkpt>
      <trkpt lat="43.54657" lon="6.13595">
        <ele>320.26</ele>
        <time>2011-11-20T12:13:21Z</time>
      </trkpt>
      <trkpt lat="43.54654" lon="6.13596">
        <ele>323.62</ele>
        <time>2011-11-20T12:13:35Z</time>
      </trkpt>
      <trkpt lat="43.54642" lon="6.13609">
        <ele>321.7</ele>
        <time>2011-11-20T12:13:47Z</time>
      </trkpt>
      <trkpt lat="43.54638" lon="6.13609">
        <ele>325.54</ele>
        <time>2011-11-20T12:13:56Z</time>
      </trkpt>
      <trkpt lat="43.54638" lon="6.13609">
        <ele>321.22</ele>
        <time>2011-11-20T12:14:01Z</time>
      </trkpt>
      <trkpt lat="43.54636" lon="6.13608">
        <ele>326.02</ele>
        <time>2011-11-20T12:14:03Z</time>
      </trkpt>
      <trkpt lat="43.54634" lon="6.13609">
        <ele>321.22</ele>
        <time>2011-11-20T12:14:06Z</time>
      </trkpt>
      <trkpt lat="43.54621" lon="6.1362">
        <ele>323.14</ele>
        <time>2011-11-20T12:14:16Z</time>
      </trkpt>
      <trkpt lat="43.5461" lon="6.13631">
        <ele>323.14</ele>
        <time>2011-11-20T12:14:25Z</time>
      </trkpt>
      <trkpt lat="43.54599" lon="6.13641">
        <ele>321.7</ele>
        <time>2011-11-20T12:14:33Z</time>
      </trkpt>
      <trkpt lat="43.54598" lon="6.13643">
        <ele>324.58</ele>
        <time>2011-11-20T12:14:34Z</time>
      </trkpt>
      <trkpt lat="43.54595" lon="6.13646">
        <ele>322.66</ele>
        <time>2011-11-20T12:14:36Z</time>
      </trkpt>
      <trkpt lat="43.54592" lon="6.13649">
        <ele>324.1</ele>
        <time>2011-11-20T12:14:39Z</time>
      </trkpt>
      <trkpt lat="43.54592" lon="6.13648">
        <ele>322.18</ele>
        <time>2011-11-20T12:14:42Z</time>
      </trkpt>
      <trkpt lat="43.54592" lon="6.13648">
        <ele>324.58</ele>
        <time>2011-11-20T12:14:44Z</time>
      </trkpt>
      <trkpt lat="43.54583" lon="6.13654">
        <ele>324.1</ele>
        <time>2011-11-20T12:14:49Z</time>
      </trkpt>
      <trkpt lat="43.54574" lon="6.13655">
        <ele>325.06</ele>
        <time>2011-11-20T12:14:55Z</time>
      </trkpt>
      <trkpt lat="43.54563" lon="6.13657">
        <ele>321.7</ele>
        <time>2011-11-20T12:15:03Z</time>
      </trkpt>
      <trkpt lat="43.54562" lon="6.13656">
        <ele>326.99</ele>
        <time>2011-11-20T12:15:05Z</time>
      </trkpt>
      <trkpt lat="43.54561" lon="6.13657">
        <ele>325.54</ele>
        <time>2011-11-20T12:15:06Z</time>
      </trkpt>
      <trkpt lat="43.54546" lon="6.1366">
        <ele>323.62</ele>
        <time>2011-11-20T12:15:19Z</time>
      </trkpt>
      <trkpt lat="43.54544" lon="6.1366">
        <ele>323.14</ele>
        <time>2011-11-20T12:15:20Z</time>
      </trkpt>
      <trkpt lat="43.54542" lon="6.1366">
        <ele>325.54</ele>
        <time>2011-11-20T12:15:22Z</time>
      </trkpt>
      <trkpt lat="43.54539" lon="6.13659">
        <ele>324.58</ele>
        <time>2011-11-20T12:15:25Z</time>
      </trkpt>
      <trkpt lat="43.54537" lon="6.13659">
        <ele>326.02</ele>
        <time>2011-11-20T12:15:27Z</time>
      </trkpt>
      <trkpt lat="43.54536" lon="6.1366">
        <ele>328.91</ele>
        <time>2011-11-20T12:15:28Z</time>
      </trkpt>
      <trkpt lat="43.54535" lon="6.1366">
        <ele>325.54</ele>
        <time>2011-11-20T12:15:29Z</time>
      </trkpt>
      <trkpt lat="43.54521" lon="6.13663">
        <ele>329.87</ele>
        <time>2011-11-20T12:15:44Z</time>
      </trkpt>
      <trkpt lat="43.54519" lon="6.13663">
        <ele>326.5</ele>
        <time>2011-11-20T12:15:46Z</time>
      </trkpt>
      <trkpt lat="43.54518" lon="6.13664">
        <ele>326.5</ele>
        <time>2011-11-20T12:15:47Z</time>
      </trkpt>
      <trkpt lat="43.54515" lon="6.13666">
        <ele>327.95</ele>
        <time>2011-11-20T12:15:50Z</time>
      </trkpt>
      <trkpt lat="43.54503" lon="6.13675">
        <ele>329.87</ele>
        <time>2011-11-20T12:16:02Z</time>
      </trkpt>
      <trkpt lat="43.54502" lon="6.13675">
        <ele>329.87</ele>
        <time>2011-11-20T12:16:03Z</time>
      </trkpt>
      <trkpt lat="43.54499" lon="6.13676">
        <ele>326.5</ele>
        <time>2011-11-20T12:16:06Z</time>
      </trkpt>
      <trkpt lat="43.54496" lon="6.13677">
        <ele>329.87</ele>
        <time>2011-11-20T12:16:09Z</time>
      </trkpt>
      <trkpt lat="43.54488" lon="6.13683">
        <ele>326.99</ele>
        <time>2011-11-20T12:16:17Z</time>
      </trkpt>
      <trkpt lat="43.54488" lon="6.13683">
        <ele>328.43</ele>
        <time>2011-11-20T12:16:18Z</time>
      </trkpt>
      <trkpt lat="43.54484" lon="6.13686">
        <ele>328.91</ele>
        <time>2011-11-20T12:16:22Z</time>
      </trkpt>
      <trkpt lat="43.54482" lon="6.13687">
        <ele>327.47</ele>
        <time>2011-11-20T12:16:24Z</time>
      </trkpt>
      <trkpt lat="43.54477" lon="6.13687">
        <ele>326.5</ele>
        <time>2011-11-20T12:16:29Z</time>
      </trkpt>
      <trkpt lat="43.54474" lon="6.13688">
        <ele>330.35</ele>
        <time>2011-11-20T12:16:33Z</time>
      </trkpt>
      <trkpt lat="43.54474" lon="6.13688">
        <ele>331.31</ele>
        <time>2011-11-20T12:16:34Z</time>
      </trkpt>
      <trkpt lat="43.54471" lon="6.13691">
        <ele>327.95</ele>
        <time>2011-11-20T12:16:37Z</time>
      </trkpt>
      <trkpt lat="43.5446" lon="6.13697">
        <ele>325.54</ele>
        <time>2011-11-20T12:16:44Z</time>
      </trkpt>
      <trkpt lat="43.54456" lon="6.13696">
        <ele>327.95</ele>
        <time>2011-11-20T12:16:48Z</time>
      </trkpt>
      <trkpt lat="43.54455" lon="6.13696">
        <ele>332.27</ele>
        <time>2011-11-20T12:16:49Z</time>
      </trkpt>
      <trkpt lat="43.54453" lon="6.13696">
        <ele>331.79</ele>
        <time>2011-11-20T12:16:50Z</time>
      </trkpt>
      <trkpt lat="43.5445" lon="6.13695">
        <ele>327.95</ele>
        <time>2011-11-20T12:16:52Z</time>
      </trkpt>
      <trkpt lat="43.54448" lon="6.13694">
        <ele>326.99</ele>
        <time>2011-11-20T12:16:54Z</time>
      </trkpt>
      <trkpt lat="43.54445" lon="6.13693">
        <ele>330.83</ele>
        <time>2011-11-20T12:16:57Z</time>
      </trkpt>
      <trkpt lat="43.54436" lon="6.13692">
        <ele>329.39</ele>
        <time>2011-11-20T12:17:05Z</time>
      </trkpt>
      <trkpt lat="43.54432" lon="6.13692">
        <ele>329.39</ele>
        <time>2011-11-20T12:17:10Z</time>
      </trkpt>
      <trkpt lat="43.54429" lon="6.1369">
        <ele>328.91</ele>
        <time>2011-11-20T12:17:15Z</time>
      </trkpt>
      <trkpt lat="43.5442" lon="6.13688">
        <ele>331.31</ele>
        <time>2011-11-20T12:17:22Z</time>
      </trkpt>
      <trkpt lat="43.54418" lon="6.13687">
        <ele>328.43</ele>
        <time>2011-11-20T12:17:24Z</time>
      </trkpt>
      <trkpt lat="43.54413" lon="6.13687">
        <ele>327.95</ele>
        <time>2011-11-20T12:17:29Z</time>
      </trkpt>
      <trkpt lat="43.54403" lon="6.13684">
        <ele>333.23</ele>
        <time>2011-11-20T12:17:37Z</time>
      </trkpt>
      <trkpt lat="43.544" lon="6.13684">
        <ele>329.87</ele>
        <time>2011-11-20T12:17:39Z</time>
      </trkpt>
      <trkpt lat="43.54399" lon="6.13684">
        <ele>329.87</ele>
        <time>2011-11-20T12:17:40Z</time>
      </trkpt>
      <trkpt lat="43.54395" lon="6.13684">
        <ele>333.71</ele>
        <time>2011-11-20T12:17:43Z</time>
      </trkpt>
      <trkpt lat="43.54395" lon="6.13684">
        <ele>332.27</ele>
        <time>2011-11-20T12:17:44Z</time>
      </trkpt>
      <trkpt lat="43.54392" lon="6.13683">
        <ele>328.91</ele>
        <time>2011-11-20T12:17:46Z</time>
      </trkpt>
      <trkpt lat="43.54391" lon="6.13683">
        <ele>328.91</ele>
        <time>2011-11-20T12:17:47Z</time>
      </trkpt>
      <trkpt lat="43.54389" lon="6.13683">
        <ele>333.71</ele>
        <time>2011-11-20T12:17:49Z</time>
      </trkpt>
      <trkpt lat="43.54388" lon="6.13683">
        <ele>333.23</ele>
        <time>2011-11-20T12:17:50Z</time>
      </trkpt>
      <trkpt lat="43.54387" lon="6.13683">
        <ele>329.87</ele>
        <time>2011-11-20T12:17:52Z</time>
      </trkpt>
      <trkpt lat="43.54386" lon="6.13683">
        <ele>329.39</ele>
        <time>2011-11-20T12:17:53Z</time>
      </trkpt>
      <trkpt lat="43.54384" lon="6.13683">
        <ele>333.23</ele>
        <time>2011-11-20T12:17:55Z</time>
      </trkpt>
      <trkpt lat="43.54383" lon="6.13682">
        <ele>329.87</ele>
        <time>2011-11-20T12:17:57Z</time>
      </trkpt>
      <trkpt lat="43.54382" lon="6.13681">
        <ele>330.35</ele>
        <time>2011-11-20T12:17:58Z</time>
      </trkpt>
      <trkpt lat="43.54378" lon="6.13679">
        <ele>333.71</ele>
        <time>2011-11-20T12:18:02Z</time>
      </trkpt>
      <trkpt lat="43.54376" lon="6.13677">
        <ele>329.87</ele>
        <time>2011-11-20T12:18:04Z</time>
      </trkpt>
      <trkpt lat="43.54373" lon="6.13672">
        <ele>331.79</ele>
        <time>2011-11-20T12:18:09Z</time>
      </trkpt>
      <trkpt lat="43.54364" lon="6.13666">
        <ele>330.83</ele>
        <time>2011-11-20T12:18:20Z</time>
      </trkpt>
      <trkpt lat="43.54356" lon="6.13662">
        <ele>327.95</ele>
        <time>2011-11-20T12:18:29Z</time>
      </trkpt>
      <trkpt lat="43.54354" lon="6.13662">
        <ele>331.79</ele>
        <time>2011-11-20T12:18:32Z</time>
      </trkpt>
      <trkpt lat="43.54348" lon="6.13656">
        <ele>329.39</ele>
        <time>2011-11-20T12:18:38Z</time>
      </trkpt>
      <trkpt lat="43.54339" lon="6.13642">
        <ele>328.91</ele>
        <time>2011-11-20T12:18:49Z</time>
      </trkpt>
      <trkpt lat="43.54333" lon="6.13631">
        <ele>327.47</ele>
        <time>2011-11-20T12:18:55Z</time>
      </trkpt>
      <trkpt lat="43.54327" lon="6.13621">
        <ele>331.79</ele>
        <time>2011-11-20T12:19:01Z</time>
      </trkpt>
      <trkpt lat="43.54327" lon="6.1362">
        <ele>331.31</ele>
        <time>2011-11-20T12:19:02Z</time>
      </trkpt>
      <trkpt lat="43.54325" lon="6.13619">
        <ele>328.91</ele>
        <time>2011-11-20T12:19:04Z</time>
      </trkpt>
      <trkpt lat="43.54322" lon="6.13615">
        <ele>326.99</ele>
        <time>2011-11-20T12:19:10Z</time>
      </trkpt>
      <trkpt lat="43.54319" lon="6.13613">
        <ele>327.47</ele>
        <time>2011-11-20T12:19:13Z</time>
      </trkpt>
      <trkpt lat="43.54316" lon="6.13611">
        <ele>326.02</ele>
        <time>2011-11-20T12:19:16Z</time>
      </trkpt>
      <trkpt lat="43.54312" lon="6.13609">
        <ele>329.39</ele>
        <time>2011-11-20T12:19:20Z</time>
      </trkpt>
      <trkpt lat="43.54311" lon="6.1361">
        <ele>326.5</ele>
        <time>2011-11-20T12:19:21Z</time>
      </trkpt>
      <trkpt lat="43.54306" lon="6.1361">
        <ele>329.39</ele>
        <time>2011-11-20T12:19:26Z</time>
      </trkpt>
      <trkpt lat="43.54301" lon="6.13611">
        <ele>325.06</ele>
        <time>2011-11-20T12:19:31Z</time>
      </trkpt>
      <trkpt lat="43.54285" lon="6.13611">
        <ele>327.47</ele>
        <time>2011-11-20T12:19:46Z</time>
      </trkpt>
      <trkpt lat="43.54284" lon="6.13611">
        <ele>324.1</ele>
        <time>2011-11-20T12:19:47Z</time>
      </trkpt>
      <trkpt lat="43.54283" lon="6.13611">
        <ele>324.58</ele>
        <time>2011-11-20T12:19:48Z</time>
      </trkpt>
      <trkpt lat="43.54276" lon="6.13612">
        <ele>321.7</ele>
        <time>2011-11-20T12:19:55Z</time>
      </trkpt>
      <trkpt lat="43.54273" lon="6.13612">
        <ele>323.14</ele>
        <time>2011-11-20T12:19:59Z</time>
      </trkpt>
      <trkpt lat="43.54268" lon="6.13612">
        <ele>322.66</ele>
        <time>2011-11-20T12:20:04Z</time>
      </trkpt>
      <trkpt lat="43.54265" lon="6.13611">
        <ele>326.5</ele>
        <time>2011-11-20T12:20:07Z</time>
      </trkpt>
      <trkpt lat="43.54265" lon="6.1361">
        <ele>322.18</ele>
        <time>2011-11-20T12:20:08Z</time>
      </trkpt>
      <trkpt lat="43.5426" lon="6.13612">
        <ele>322.66</ele>
        <time>2011-11-20T12:20:14Z</time>
      </trkpt>
      <trkpt lat="43.54254" lon="6.13612">
        <ele>320.26</ele>
        <time>2011-11-20T12:20:20Z</time>
      </trkpt>
      <trkpt lat="43.54246" lon="6.13614">
        <ele>318.81</ele>
        <time>2011-11-20T12:20:29Z</time>
      </trkpt>
      <trkpt lat="43.54243" lon="6.13615">
        <ele>323.62</ele>
        <time>2011-11-20T12:20:32Z</time>
      </trkpt>
      <trkpt lat="43.54242" lon="6.13615">
        <ele>324.1</ele>
        <time>2011-11-20T12:20:33Z</time>
      </trkpt>
      <trkpt lat="43.5424" lon="6.13614">
        <ele>320.26</ele>
        <time>2011-11-20T12:20:35Z</time>
      </trkpt>
      <trkpt lat="43.54239" lon="6.13614">
        <ele>322.18</ele>
        <time>2011-11-20T12:20:36Z</time>
      </trkpt>
      <trkpt lat="43.54234" lon="6.13612">
        <ele>318.81</ele>
        <time>2011-11-20T12:20:41Z</time>
      </trkpt>
      <trkpt lat="43.54228" lon="6.13611">
        <ele>316.41</ele>
        <time>2011-11-20T12:20:47Z</time>
      </trkpt>
      <trkpt lat="43.54223" lon="6.1361">
        <ele>318.81</ele>
        <time>2011-11-20T12:20:52Z</time>
      </trkpt>
      <trkpt lat="43.54219" lon="6.13611">
        <ele>322.66</ele>
        <time>2011-11-20T12:20:56Z</time>
      </trkpt>
      <trkpt lat="43.54218" lon="6.13611">
        <ele>318.81</ele>
        <time>2011-11-20T12:20:57Z</time>
      </trkpt>
      <trkpt lat="43.54214" lon="6.13612">
        <ele>319.3</ele>
        <time>2011-11-20T12:21:00Z</time>
      </trkpt>
      <trkpt lat="43.54211" lon="6.13614">
        <ele>316.89</ele>
        <time>2011-11-20T12:21:03Z</time>
      </trkpt>
      <trkpt lat="43.54205" lon="6.13615">
        <ele>319.3</ele>
        <time>2011-11-20T12:21:07Z</time>
      </trkpt>
      <trkpt lat="43.54203" lon="6.13616">
        <ele>315.93</ele>
        <time>2011-11-20T12:21:09Z</time>
      </trkpt>
      <trkpt lat="43.54202" lon="6.13616">
        <ele>316.41</ele>
        <time>2011-11-20T12:21:10Z</time>
      </trkpt>
      <trkpt lat="43.54197" lon="6.13618">
        <ele>322.18</ele>
        <time>2011-11-20T12:21:15Z</time>
      </trkpt>
      <trkpt lat="43.54197" lon="6.13618">
        <ele>316.89</ele>
        <time>2011-11-20T12:21:16Z</time>
      </trkpt>
      <trkpt lat="43.54194" lon="6.13619">
        <ele>321.7</ele>
        <time>2011-11-20T12:21:19Z</time>
      </trkpt>
      <trkpt lat="43.54193" lon="6.1362">
        <ele>321.7</ele>
        <time>2011-11-20T12:21:20Z</time>
      </trkpt>
      <trkpt lat="43.54192" lon="6.1362">
        <ele>318.33</ele>
        <time>2011-11-20T12:21:21Z</time>
      </trkpt>
      <trkpt lat="43.5419" lon="6.13619">
        <ele>320.26</ele>
        <time>2011-11-20T12:21:22Z</time>
      </trkpt>
      <trkpt lat="43.54187" lon="6.1362">
        <ele>316.89</ele>
        <time>2011-11-20T12:21:26Z</time>
      </trkpt>
      <trkpt lat="43.54181" lon="6.13621">
        <ele>315.45</ele>
        <time>2011-11-20T12:21:33Z</time>
      </trkpt>
      <trkpt lat="43.54174" lon="6.13622">
        <ele>317.37</ele>
        <time>2011-11-20T12:21:39Z</time>
      </trkpt>
      <trkpt lat="43.54169" lon="6.13623">
        <ele>315.45</ele>
        <time>2011-11-20T12:21:43Z</time>
      </trkpt>
      <trkpt lat="43.54155" lon="6.13623">
        <ele>315.93</ele>
        <time>2011-11-20T12:21:55Z</time>
      </trkpt>
      <trkpt lat="43.54148" lon="6.13625">
        <ele>315.93</ele>
        <time>2011-11-20T12:22:07Z</time>
      </trkpt>
      <trkpt lat="43.54148" lon="6.13625">
        <ele>312.57</ele>
        <time>2011-11-20T12:22:14Z</time>
      </trkpt>
      <trkpt lat="43.54146" lon="6.13629">
        <ele>317.85</ele>
        <time>2011-11-20T12:22:17Z</time>
      </trkpt>
      <trkpt lat="43.54144" lon="6.1363">
        <ele>316.41</ele>
        <time>2011-11-20T12:22:18Z</time>
      </trkpt>
      <trkpt lat="43.54139" lon="6.13634">
        <ele>314.01</ele>
        <time>2011-11-20T12:22:22Z</time>
      </trkpt>
      <trkpt lat="43.54126" lon="6.13638">
        <ele>312.09</ele>
        <time>2011-11-20T12:22:33Z</time>
      </trkpt>
      <trkpt lat="43.54115" lon="6.13643">
        <ele>313.53</ele>
        <time>2011-11-20T12:22:42Z</time>
      </trkpt>
      <trkpt lat="43.54107" lon="6.13647">
        <ele>314.01</ele>
        <time>2011-11-20T12:22:48Z</time>
      </trkpt>
      <trkpt lat="43.54103" lon="6.13651">
        <ele>315.93</ele>
        <time>2011-11-20T12:22:52Z</time>
      </trkpt>
      <trkpt lat="43.54098" lon="6.13656">
        <ele>315.93</ele>
        <time>2011-11-20T12:22:58Z</time>
      </trkpt>
      <trkpt lat="43.54095" lon="6.1366">
        <ele>314.97</ele>
        <time>2011-11-20T12:23:02Z</time>
      </trkpt>
      <trkpt lat="43.54094" lon="6.13664">
        <ele>313.53</ele>
        <time>2011-11-20T12:23:04Z</time>
      </trkpt>
      <trkpt lat="43.54088" lon="6.13673">
        <ele>315.93</ele>
        <time>2011-11-20T12:23:12Z</time>
      </trkpt>
      <trkpt lat="43.54087" lon="6.13675">
        <ele>313.05</ele>
        <time>2011-11-20T12:23:14Z</time>
      </trkpt>
      <trkpt lat="43.54085" lon="6.13679">
        <ele>316.41</ele>
        <time>2011-11-20T12:23:17Z</time>
      </trkpt>
      <trkpt lat="43.54083" lon="6.13682">
        <ele>311.12</ele>
        <time>2011-11-20T12:23:20Z</time>
      </trkpt>
      <trkpt lat="43.54082" lon="6.13683">
        <ele>312.57</ele>
        <time>2011-11-20T12:23:21Z</time>
      </trkpt>
      <trkpt lat="43.54079" lon="6.13686">
        <ele>310.64</ele>
        <time>2011-11-20T12:23:25Z</time>
      </trkpt>
      <trkpt lat="43.54076" lon="6.13688">
        <ele>315.93</ele>
        <time>2011-11-20T12:23:27Z</time>
      </trkpt>
      <trkpt lat="43.54075" lon="6.13689">
        <ele>315.45</ele>
        <time>2011-11-20T12:23:28Z</time>
      </trkpt>
      <trkpt lat="43.54071" lon="6.13695">
        <ele>311.6</ele>
        <time>2011-11-20T12:23:33Z</time>
      </trkpt>
      <trkpt lat="43.54067" lon="6.13703">
        <ele>309.68</ele>
        <time>2011-11-20T12:23:38Z</time>
      </trkpt>
      <trkpt lat="43.54065" lon="6.13705">
        <ele>312.57</ele>
        <time>2011-11-20T12:23:40Z</time>
      </trkpt>
      <trkpt lat="43.54063" lon="6.1371">
        <ele>309.2</ele>
        <time>2011-11-20T12:23:44Z</time>
      </trkpt>
      <trkpt lat="43.54062" lon="6.13712">
        <ele>309.68</ele>
        <time>2011-11-20T12:23:45Z</time>
      </trkpt>
      <trkpt lat="43.54059" lon="6.13717">
        <ele>314.49</ele>
        <time>2011-11-20T12:23:49Z</time>
      </trkpt>
      <trkpt lat="43.54059" lon="6.13718">
        <ele>313.53</ele>
        <time>2011-11-20T12:23:50Z</time>
      </trkpt>
      <trkpt lat="43.54057" lon="6.1372">
        <ele>313.05</ele>
        <time>2011-11-20T12:23:52Z</time>
      </trkpt>
      <trkpt lat="43.54055" lon="6.13724">
        <ele>309.2</ele>
        <time>2011-11-20T12:23:55Z</time>
      </trkpt>
      <trkpt lat="43.54055" lon="6.13726">
        <ele>308.72</ele>
        <time>2011-11-20T12:23:56Z</time>
      </trkpt>
      <trkpt lat="43.54047" lon="6.13744">
        <ele>312.57</ele>
        <time>2011-11-20T12:24:09Z</time>
      </trkpt>
      <trkpt lat="43.54045" lon="6.13748">
        <ele>308.72</ele>
        <time>2011-11-20T12:24:13Z</time>
      </trkpt>
      <trkpt lat="43.54044" lon="6.1375">
        <ele>309.2</ele>
        <time>2011-11-20T12:24:14Z</time>
      </trkpt>
      <trkpt lat="43.54037" lon="6.13763">
        <ele>311.6</ele>
        <time>2011-11-20T12:24:25Z</time>
      </trkpt>
      <trkpt lat="43.54035" lon="6.13768">
        <ele>307.28</ele>
        <time>2011-11-20T12:24:29Z</time>
      </trkpt>
      <trkpt lat="43.5403" lon="6.13775">
        <ele>305.84</ele>
        <time>2011-11-20T12:24:36Z</time>
      </trkpt>
      <trkpt lat="43.54028" lon="6.13778">
        <ele>311.6</ele>
        <time>2011-11-20T12:24:38Z</time>
      </trkpt>
      <trkpt lat="43.54026" lon="6.13781">
        <ele>307.76</ele>
        <time>2011-11-20T12:24:41Z</time>
      </trkpt>
      <trkpt lat="43.54023" lon="6.13785">
        <ele>308.24</ele>
        <time>2011-11-20T12:24:45Z</time>
      </trkpt>
      <trkpt lat="43.54015" lon="6.13794">
        <ele>305.84</ele>
        <time>2011-11-20T12:24:55Z</time>
      </trkpt>
      <trkpt lat="43.54014" lon="6.13798">
        <ele>309.68</ele>
        <time>2011-11-20T12:24:59Z</time>
      </trkpt>
      <trkpt lat="43.54014" lon="6.13801">
        <ele>306.8</ele>
        <time>2011-11-20T12:25:02Z</time>
      </trkpt>
      <trkpt lat="43.54014" lon="6.13804">
        <ele>313.05</ele>
        <time>2011-11-20T12:25:07Z</time>
      </trkpt>
      <trkpt lat="43.54014" lon="6.13804">
        <ele>310.16</ele>
        <time>2011-11-20T12:25:08Z</time>
      </trkpt>
      <trkpt lat="43.54014" lon="6.13804">
        <ele>308.72</ele>
        <time>2011-11-20T12:25:10Z</time>
      </trkpt>
      <trkpt lat="43.54014" lon="6.13804">
        <ele>310.16</ele>
        <time>2011-11-20T12:25:16Z</time>
      </trkpt>
      <trkpt lat="43.54014" lon="6.13804">
        <ele>307.28</ele>
        <time>2011-11-20T12:25:17Z</time>
      </trkpt>
      <trkpt lat="43.54013" lon="6.13805">
        <ele>307.28</ele>
        <time>2011-11-20T12:25:18Z</time>
      </trkpt>
      <trkpt lat="43.54008" lon="6.13811">
        <ele>306.8</ele>
        <time>2011-11-20T12:25:21Z</time>
      </trkpt>
      <trkpt lat="43.54005" lon="6.13814">
        <ele>309.68</ele>
        <time>2011-11-20T12:25:25Z</time>
      </trkpt>
      <trkpt lat="43.54004" lon="6.13815">
        <ele>307.76</ele>
        <time>2011-11-20T12:25:27Z</time>
      </trkpt>
      <trkpt lat="43.54001" lon="6.13823">
        <ele>307.28</ele>
        <time>2011-11-20T12:25:36Z</time>
      </trkpt>
      <trkpt lat="43.54" lon="6.13824">
        <ele>310.16</ele>
        <time>2011-11-20T12:25:41Z</time>
      </trkpt>
      <trkpt lat="43.54" lon="6.13824">
        <ele>309.68</ele>
        <time>2011-11-20T12:25:42Z</time>
      </trkpt>
      <trkpt lat="43.53998" lon="6.13827">
        <ele>307.76</ele>
        <time>2011-11-20T12:25:48Z</time>
      </trkpt>
      <trkpt lat="43.53998" lon="6.13827">
        <ele>309.2</ele>
        <time>2011-11-20T12:25:50Z</time>
      </trkpt>
      <trkpt lat="43.53996" lon="6.13829">
        <ele>307.28</ele>
        <time>2011-11-20T12:25:52Z</time>
      </trkpt>
      <trkpt lat="43.53995" lon="6.13831">
        <ele>307.28</ele>
        <time>2011-11-20T12:25:53Z</time>
      </trkpt>
      <trkpt lat="43.53984" lon="6.13846">
        <ele>307.28</ele>
        <time>2011-11-20T12:26:03Z</time>
      </trkpt>
      <trkpt lat="43.5398" lon="6.13849">
        <ele>310.16</ele>
        <time>2011-11-20T12:26:07Z</time>
      </trkpt>
      <trkpt lat="43.5398" lon="6.13849">
        <ele>306.32</ele>
        <time>2011-11-20T12:26:08Z</time>
      </trkpt>
      <trkpt lat="43.53979" lon="6.13849">
        <ele>307.28</ele>
        <time>2011-11-20T12:26:09Z</time>
      </trkpt>
      <trkpt lat="43.53974" lon="6.13853">
        <ele>307.28</ele>
        <time>2011-11-20T12:26:16Z</time>
      </trkpt>
      <trkpt lat="43.53974" lon="6.13853">
        <ele>307.28</ele>
        <time>2011-11-20T12:26:19Z</time>
      </trkpt>
      <trkpt lat="43.5397" lon="6.13851">
        <ele>307.76</ele>
        <time>2011-11-20T12:26:36Z</time>
      </trkpt>
      <trkpt lat="43.5397" lon="6.13851">
        <ele>308.24</ele>
        <time>2011-11-20T12:27:50Z</time>
      </trkpt>
      <trkpt lat="43.5397" lon="6.1385">
        <ele>308.24</ele>
        <time>2011-11-20T12:28:51Z</time>
      </trkpt>
      <trkpt lat="43.53967" lon="6.1385">
        <ele>307.76</ele>
        <time>2011-11-20T12:29:13Z</time>
      </trkpt>
      <trkpt lat="43.53964" lon="6.13846">
        <ele>306.8</ele>
        <time>2011-11-20T12:29:46Z</time>
      </trkpt>
      <trkpt lat="43.5396" lon="6.13843">
        <ele>310.16</ele>
        <time>2011-11-20T12:29:49Z</time>
      </trkpt>
      <trkpt lat="43.53959" lon="6.13842">
        <ele>306.32</ele>
        <time>2011-11-20T12:29:50Z</time>
      </trkpt>
      <trkpt lat="43.53948" lon="6.13841">
        <ele>307.76</ele>
        <time>2011-11-20T12:30:02Z</time>
      </trkpt>
      <trkpt lat="43.53945" lon="6.13841">
        <ele>308.72</ele>
        <time>2011-11-20T12:30:05Z</time>
      </trkpt>
      <trkpt lat="43.53934" lon="6.13841">
        <ele>306.32</ele>
        <time>2011-11-20T12:30:14Z</time>
      </trkpt>
      <trkpt lat="43.53921" lon="6.13843">
        <ele>306.8</ele>
        <time>2011-11-20T12:30:27Z</time>
      </trkpt>
      <trkpt lat="43.53913" lon="6.13843">
        <ele>309.68</ele>
        <time>2011-11-20T12:30:34Z</time>
      </trkpt>
      <trkpt lat="43.53912" lon="6.13843">
        <ele>308.72</ele>
        <time>2011-11-20T12:30:35Z</time>
      </trkpt>
      <trkpt lat="43.53909" lon="6.13844">
        <ele>305.36</ele>
        <time>2011-11-20T12:30:37Z</time>
      </trkpt>
      <trkpt lat="43.53895" lon="6.13845">
        <ele>305.84</ele>
        <time>2011-11-20T12:30:50Z</time>
      </trkpt>
      <trkpt lat="43.53886" lon="6.13848">
        <ele>311.12</ele>
        <time>2011-11-20T12:31:00Z</time>
      </trkpt>
      <trkpt lat="43.53885" lon="6.13848">
        <ele>309.68</ele>
        <time>2011-11-20T12:31:01Z</time>
      </trkpt>
      <trkpt lat="43.53882" lon="6.13851">
        <ele>308.24</ele>
        <time>2011-11-20T12:31:04Z</time>
      </trkpt>
      <trkpt lat="43.53881" lon="6.13853">
        <ele>305.36</ele>
        <time>2011-11-20T12:31:06Z</time>
      </trkpt>
      <trkpt lat="43.5388" lon="6.13853">
        <ele>305.84</ele>
        <time>2011-11-20T12:31:07Z</time>
      </trkpt>
      <trkpt lat="43.53869" lon="6.13861">
        <ele>305.84</ele>
        <time>2011-11-20T12:31:18Z</time>
      </trkpt>
      <trkpt lat="43.53866" lon="6.13863">
        <ele>309.68</ele>
        <time>2011-11-20T12:31:21Z</time>
      </trkpt>
      <trkpt lat="43.53865" lon="6.13864">
        <ele>306.32</ele>
        <time>2011-11-20T12:31:22Z</time>
      </trkpt>
      <trkpt lat="43.53858" lon="6.1387">
        <ele>307.28</ele>
        <time>2011-11-20T12:31:35Z</time>
      </trkpt>
      <trkpt lat="43.53854" lon="6.1387">
        <ele>311.12</ele>
        <time>2011-11-20T12:31:38Z</time>
      </trkpt>
      <trkpt lat="43.53853" lon="6.1387">
        <ele>308.24</ele>
        <time>2011-11-20T12:31:39Z</time>
      </trkpt>
      <trkpt lat="43.5385" lon="6.1387">
        <ele>306.8</ele>
        <time>2011-11-20T12:31:41Z</time>
      </trkpt>
      <trkpt lat="43.53841" lon="6.13873">
        <ele>311.12</ele>
        <time>2011-11-20T12:31:48Z</time>
      </trkpt>
      <trkpt lat="43.5384" lon="6.13875">
        <ele>306.32</ele>
        <time>2011-11-20T12:31:49Z</time>
      </trkpt>
      <trkpt lat="43.5383" lon="6.1388">
        <ele>308.24</ele>
        <time>2011-11-20T12:32:01Z</time>
      </trkpt>
      <trkpt lat="43.53828" lon="6.13885">
        <ele>311.12</ele>
        <time>2011-11-20T12:32:04Z</time>
      </trkpt>
      <trkpt lat="43.53827" lon="6.13887">
        <ele>305.36</ele>
        <time>2011-11-20T12:32:05Z</time>
      </trkpt>
      <trkpt lat="43.53825" lon="6.1389">
        <ele>306.8</ele>
        <time>2011-11-20T12:32:06Z</time>
      </trkpt>
      <trkpt lat="43.53819" lon="6.13899">
        <ele>306.8</ele>
        <time>2011-11-20T12:32:14Z</time>
      </trkpt>
      <trkpt lat="43.53816" lon="6.13903">
        <ele>302.95</ele>
        <time>2011-11-20T12:32:27Z</time>
      </trkpt>
      <trkpt lat="43.53808" lon="6.13911">
        <ele>309.68</ele>
        <time>2011-11-20T12:32:32Z</time>
      </trkpt>
      <trkpt lat="43.53807" lon="6.13913">
        <ele>307.76</ele>
        <time>2011-11-20T12:32:33Z</time>
      </trkpt>
      <trkpt lat="43.53801" lon="6.13916">
        <ele>304.88</ele>
        <time>2011-11-20T12:32:36Z</time>
      </trkpt>
      <trkpt lat="43.53787" lon="6.13932">
        <ele>302.47</ele>
        <time>2011-11-20T12:32:44Z</time>
      </trkpt>
      <trkpt lat="43.53786" lon="6.13933">
        <ele>302.47</ele>
        <time>2011-11-20T12:32:46Z</time>
      </trkpt>
      <trkpt lat="43.53784" lon="6.13934">
        <ele>306.32</ele>
        <time>2011-11-20T12:32:48Z</time>
      </trkpt>
      <trkpt lat="43.53784" lon="6.13934">
        <ele>308.24</ele>
        <time>2011-11-20T12:32:50Z</time>
      </trkpt>
      <trkpt lat="43.5378" lon="6.13936">
        <ele>302.95</ele>
        <time>2011-11-20T12:32:53Z</time>
      </trkpt>
      <trkpt lat="43.53778" lon="6.13937">
        <ele>303.91</ele>
        <time>2011-11-20T12:32:54Z</time>
      </trkpt>
      <trkpt lat="43.53776" lon="6.13939">
        <ele>304.39</ele>
        <time>2011-11-20T12:32:57Z</time>
      </trkpt>
      <trkpt lat="43.53763" lon="6.13948">
        <ele>300.07</ele>
        <time>2011-11-20T12:33:09Z</time>
      </trkpt>
      <trkpt lat="43.53762" lon="6.13948">
        <ele>302.95</ele>
        <time>2011-11-20T12:33:12Z</time>
      </trkpt>
      <trkpt lat="43.53761" lon="6.13948">
        <ele>303.91</ele>
        <time>2011-11-20T12:33:16Z</time>
      </trkpt>
      <trkpt lat="43.53758" lon="6.13948">
        <ele>301.51</ele>
        <time>2011-11-20T12:33:20Z</time>
      </trkpt>
      <trkpt lat="43.53747" lon="6.13956">
        <ele>299.59</ele>
        <time>2011-11-20T12:33:27Z</time>
      </trkpt>
      <trkpt lat="43.53742" lon="6.13959">
        <ele>301.03</ele>
        <time>2011-11-20T12:33:31Z</time>
      </trkpt>
      <trkpt lat="43.53732" lon="6.13968">
        <ele>300.55</ele>
        <time>2011-11-20T12:33:41Z</time>
      </trkpt>
      <trkpt lat="43.5373" lon="6.13971">
        <ele>299.59</ele>
        <time>2011-11-20T12:33:43Z</time>
      </trkpt>
      <trkpt lat="43.53729" lon="6.13973">
        <ele>299.59</ele>
        <time>2011-11-20T12:33:45Z</time>
      </trkpt>
      <trkpt lat="43.53722" lon="6.13992">
        <ele>296.22</ele>
        <time>2011-11-20T12:33:58Z</time>
      </trkpt>
      <trkpt lat="43.53718" lon="6.13998">
        <ele>298.63</ele>
        <time>2011-11-20T12:34:02Z</time>
      </trkpt>
      <trkpt lat="43.53712" lon="6.13995">
        <ele>296.7</ele>
        <time>2011-11-20T12:34:07Z</time>
      </trkpt>
      <trkpt lat="43.53703" lon="6.13992">
        <ele>294.3</ele>
        <time>2011-11-20T12:34:14Z</time>
      </trkpt>
      <trkpt lat="43.53687" lon="6.13985">
        <ele>295.74</ele>
        <time>2011-11-20T12:34:28Z</time>
      </trkpt>
      <trkpt lat="43.53679" lon="6.1398">
        <ele>300.07</ele>
        <time>2011-11-20T12:34:35Z</time>
      </trkpt>
      <trkpt lat="43.53678" lon="6.1398">
        <ele>297.18</ele>
        <time>2011-11-20T12:34:36Z</time>
      </trkpt>
      <trkpt lat="43.53673" lon="6.13978">
        <ele>296.7</ele>
        <time>2011-11-20T12:34:42Z</time>
      </trkpt>
      <trkpt lat="43.53672" lon="6.13977">
        <ele>295.26</ele>
        <time>2011-11-20T12:34:44Z</time>
      </trkpt>
      <trkpt lat="43.53669" lon="6.13976">
        <ele>299.59</ele>
        <time>2011-11-20T12:34:48Z</time>
      </trkpt>
      <trkpt lat="43.53667" lon="6.13974">
        <ele>295.26</ele>
        <time>2011-11-20T12:34:51Z</time>
      </trkpt>
      <trkpt lat="43.53666" lon="6.13973">
        <ele>295.74</ele>
        <time>2011-11-20T12:34:52Z</time>
      </trkpt>
      <trkpt lat="43.53659" lon="6.13964">
        <ele>301.51</ele>
        <time>2011-11-20T12:35:02Z</time>
      </trkpt>
      <trkpt lat="43.53658" lon="6.13963">
        <ele>297.18</ele>
        <time>2011-11-20T12:35:03Z</time>
      </trkpt>
      <trkpt lat="43.53655" lon="6.13959">
        <ele>300.07</ele>
        <time>2011-11-20T12:35:07Z</time>
      </trkpt>
      <trkpt lat="43.53653" lon="6.13956">
        <ele>296.22</ele>
        <time>2011-11-20T12:35:09Z</time>
      </trkpt>
      <trkpt lat="43.53652" lon="6.13955">
        <ele>296.7</ele>
        <time>2011-11-20T12:35:10Z</time>
      </trkpt>
      <trkpt lat="43.53649" lon="6.13952">
        <ele>301.99</ele>
        <time>2011-11-20T12:35:12Z</time>
      </trkpt>
      <trkpt lat="43.53648" lon="6.1395">
        <ele>297.18</ele>
        <time>2011-11-20T12:35:13Z</time>
      </trkpt>
      <trkpt lat="43.53638" lon="6.13939">
        <ele>296.7</ele>
        <time>2011-11-20T12:35:26Z</time>
      </trkpt>
      <trkpt lat="43.53633" lon="6.13932">
        <ele>296.22</ele>
        <time>2011-11-20T12:35:33Z</time>
      </trkpt>
      <trkpt lat="43.53632" lon="6.13931">
        <ele>297.18</ele>
        <time>2011-11-20T12:35:35Z</time>
      </trkpt>
      <trkpt lat="43.53631" lon="6.13929">
        <ele>298.15</ele>
        <time>2011-11-20T12:35:52Z</time>
      </trkpt>
      <trkpt lat="43.53627" lon="6.13924">
        <ele>297.67</ele>
        <time>2011-11-20T12:36:25Z</time>
      </trkpt>
      <trkpt lat="43.53617" lon="6.1391">
        <ele>298.63</ele>
        <time>2011-11-20T12:36:37Z</time>
      </trkpt>
      <trkpt lat="43.53611" lon="6.13901">
        <ele>301.99</ele>
        <time>2011-11-20T12:36:46Z</time>
      </trkpt>
      <trkpt lat="43.5361" lon="6.13899">
        <ele>299.11</ele>
        <time>2011-11-20T12:36:47Z</time>
      </trkpt>
      <trkpt lat="43.536" lon="6.13883">
        <ele>298.15</ele>
        <time>2011-11-20T12:37:01Z</time>
      </trkpt>
      <trkpt lat="43.53599" lon="6.1388">
        <ele>299.59</ele>
        <time>2011-11-20T12:37:04Z</time>
      </trkpt>
      <trkpt lat="43.53597" lon="6.13875">
        <ele>300.55</ele>
        <time>2011-11-20T12:37:08Z</time>
      </trkpt>
      <trkpt lat="43.53595" lon="6.13871">
        <ele>304.39</ele>
        <time>2011-11-20T12:37:11Z</time>
      </trkpt>
      <trkpt lat="43.53595" lon="6.1387">
        <ele>301.03</ele>
        <time>2011-11-20T12:37:12Z</time>
      </trkpt>
      <trkpt lat="43.53594" lon="6.13868">
        <ele>300.07</ele>
        <time>2011-11-20T12:37:14Z</time>
      </trkpt>
      <trkpt lat="43.53593" lon="6.13867">
        <ele>303.43</ele>
        <time>2011-11-20T12:37:15Z</time>
      </trkpt>
      <trkpt lat="43.53589" lon="6.1386">
        <ele>300.07</ele>
        <time>2011-11-20T12:37:21Z</time>
      </trkpt>
      <trkpt lat="43.53588" lon="6.13858">
        <ele>303.91</ele>
        <time>2011-11-20T12:37:23Z</time>
      </trkpt>
      <trkpt lat="43.53587" lon="6.13857">
        <ele>300.55</ele>
        <time>2011-11-20T12:37:24Z</time>
      </trkpt>
      <trkpt lat="43.53586" lon="6.13853">
        <ele>301.51</ele>
        <time>2011-11-20T12:37:28Z</time>
      </trkpt>
      <trkpt lat="43.53585" lon="6.1385">
        <ele>300.07</ele>
        <time>2011-11-20T12:37:30Z</time>
      </trkpt>
      <trkpt lat="43.53584" lon="6.13848">
        <ele>301.51</ele>
        <time>2011-11-20T12:37:32Z</time>
      </trkpt>
      <trkpt lat="43.53582" lon="6.13846">
        <ele>302.95</ele>
        <time>2011-11-20T12:37:35Z</time>
      </trkpt>
      <trkpt lat="43.5358" lon="6.13839">
        <ele>300.55</ele>
        <time>2011-11-20T12:37:43Z</time>
      </trkpt>
      <trkpt lat="43.53579" lon="6.13837">
        <ele>305.84</ele>
        <time>2011-11-20T12:37:45Z</time>
      </trkpt>
      <trkpt lat="43.53579" lon="6.13836">
        <ele>302.47</ele>
        <time>2011-11-20T12:37:46Z</time>
      </trkpt>
      <trkpt lat="43.53577" lon="6.1383">
        <ele>303.43</ele>
        <time>2011-11-20T12:37:53Z</time>
      </trkpt>
      <trkpt lat="43.53571" lon="6.13816">
        <ele>305.36</ele>
        <time>2011-11-20T12:38:05Z</time>
      </trkpt>
      <trkpt lat="43.53568" lon="6.13811">
        <ele>308.24</ele>
        <time>2011-11-20T12:38:10Z</time>
      </trkpt>
      <trkpt lat="43.53568" lon="6.1381">
        <ele>306.32</ele>
        <time>2011-11-20T12:38:11Z</time>
      </trkpt>
      <trkpt lat="43.53568" lon="6.13808">
        <ele>305.84</ele>
        <time>2011-11-20T12:38:13Z</time>
      </trkpt>
      <trkpt lat="43.53563" lon="6.1379">
        <ele>306.8</ele>
        <time>2011-11-20T12:38:26Z</time>
      </trkpt>
      <trkpt lat="43.53559" lon="6.13773">
        <ele>307.76</ele>
        <time>2011-11-20T12:38:39Z</time>
      </trkpt>
      <trkpt lat="43.53558" lon="6.13772">
        <ele>310.16</ele>
        <time>2011-11-20T12:38:40Z</time>
      </trkpt>
      <trkpt lat="43.53552" lon="6.13771">
        <ele>308.24</ele>
        <time>2011-11-20T12:38:53Z</time>
      </trkpt>
      <trkpt lat="43.53551" lon="6.13771">
        <ele>308.72</ele>
        <time>2011-11-20T12:38:55Z</time>
      </trkpt>
      <trkpt lat="43.53549" lon="6.13773">
        <ele>307.28</ele>
        <time>2011-11-20T12:38:58Z</time>
      </trkpt>
      <trkpt lat="43.5355" lon="6.1378">
        <ele>306.32</ele>
        <time>2011-11-20T12:39:07Z</time>
      </trkpt>
      <trkpt lat="43.5355" lon="6.13784">
        <ele>309.68</ele>
        <time>2011-11-20T12:39:10Z</time>
      </trkpt>
      <trkpt lat="43.53549" lon="6.13787">
        <ele>310.64</ele>
        <time>2011-11-20T12:39:12Z</time>
      </trkpt>
      <trkpt lat="43.53547" lon="6.13793">
        <ele>311.6</ele>
        <time>2011-11-20T12:39:15Z</time>
      </trkpt>
      <trkpt lat="43.53547" lon="6.13798">
        <ele>307.28</ele>
        <time>2011-11-20T12:39:18Z</time>
      </trkpt>
      <trkpt lat="43.53547" lon="6.138">
        <ele>307.76</ele>
        <time>2011-11-20T12:39:19Z</time>
      </trkpt>
      <trkpt lat="43.53546" lon="6.13802">
        <ele>311.6</ele>
        <time>2011-11-20T12:39:20Z</time>
      </trkpt>
      <trkpt lat="43.53546" lon="6.13804">
        <ele>309.2</ele>
        <time>2011-11-20T12:39:21Z</time>
      </trkpt>
      <trkpt lat="43.53546" lon="6.13807">
        <ele>306.8</ele>
        <time>2011-11-20T12:39:23Z</time>
      </trkpt>
      <trkpt lat="43.53545" lon="6.13817">
        <ele>306.32</ele>
        <time>2011-11-20T12:39:33Z</time>
      </trkpt>
      <trkpt lat="43.53545" lon="6.1382">
        <ele>304.88</ele>
        <time>2011-11-20T12:39:40Z</time>
      </trkpt>
      <trkpt lat="43.53545" lon="6.13823">
        <ele>308.24</ele>
        <time>2011-11-20T12:39:42Z</time>
      </trkpt>
      <trkpt lat="43.53545" lon="6.13824">
        <ele>306.8</ele>
        <time>2011-11-20T12:39:43Z</time>
      </trkpt>
      <trkpt lat="43.53545" lon="6.1383">
        <ele>303.43</ele>
        <time>2011-11-20T12:39:46Z</time>
      </trkpt>
      <trkpt lat="43.53545" lon="6.13834">
        <ele>306.32</ele>
        <time>2011-11-20T12:39:49Z</time>
      </trkpt>
      <trkpt lat="43.53546" lon="6.13846">
        <ele>302.47</ele>
        <time>2011-11-20T12:39:58Z</time>
      </trkpt>
      <trkpt lat="43.53546" lon="6.13849">
        <ele>305.36</ele>
        <time>2011-11-20T12:40:00Z</time>
      </trkpt>
      <trkpt lat="43.53545" lon="6.1386">
        <ele>304.88</ele>
        <time>2011-11-20T12:40:05Z</time>
      </trkpt>
      <trkpt lat="43.53543" lon="6.13869">
        <ele>307.76</ele>
        <time>2011-11-20T12:40:11Z</time>
      </trkpt>
      <trkpt lat="43.53543" lon="6.13874">
        <ele>305.84</ele>
        <time>2011-11-20T12:40:15Z</time>
      </trkpt>
      <trkpt lat="43.53542" lon="6.13878">
        <ele>303.91</ele>
        <time>2011-11-20T12:40:18Z</time>
      </trkpt>
      <trkpt lat="43.53536" lon="6.13891">
        <ele>304.88</ele>
        <time>2011-11-20T12:40:29Z</time>
      </trkpt>
      <trkpt lat="43.53532" lon="6.13902">
        <ele>301.99</ele>
        <time>2011-11-20T12:40:39Z</time>
      </trkpt>
      <trkpt lat="43.53532" lon="6.13903">
        <ele>301.99</ele>
        <time>2011-11-20T12:40:40Z</time>
      </trkpt>
      <trkpt lat="43.53532" lon="6.13905">
        <ele>305.36</ele>
        <time>2011-11-20T12:40:42Z</time>
      </trkpt>
      <trkpt lat="43.53531" lon="6.13906">
        <ele>303.91</ele>
        <time>2011-11-20T12:40:43Z</time>
      </trkpt>
      <trkpt lat="43.53531" lon="6.13908">
        <ele>303.43</ele>
        <time>2011-11-20T12:40:45Z</time>
      </trkpt>
      <trkpt lat="43.53529" lon="6.13911">
        <ele>305.84</ele>
        <time>2011-11-20T12:40:49Z</time>
      </trkpt>
      <trkpt lat="43.53528" lon="6.13912">
        <ele>302.95</ele>
        <time>2011-11-20T12:40:50Z</time>
      </trkpt>
      <trkpt lat="43.53523" lon="6.13919">
        <ele>306.32</ele>
        <time>2011-11-20T12:40:55Z</time>
      </trkpt>
      <trkpt lat="43.53522" lon="6.1392">
        <ele>305.84</ele>
        <time>2011-11-20T12:40:56Z</time>
      </trkpt>
      <trkpt lat="43.5352" lon="6.13924">
        <ele>302.47</ele>
        <time>2011-11-20T12:40:59Z</time>
      </trkpt>
      <trkpt lat="43.53515" lon="6.13927">
        <ele>302.95</ele>
        <time>2011-11-20T12:41:11Z</time>
      </trkpt>
      <trkpt lat="43.53515" lon="6.13927">
        <ele>301.99</ele>
        <time>2011-11-20T12:41:21Z</time>
      </trkpt>
      <trkpt lat="43.53515" lon="6.13927">
        <ele>298.63</ele>
        <time>2011-11-20T12:41:37Z</time>
      </trkpt>
      <trkpt lat="43.53515" lon="6.13926">
        <ele>297.18</ele>
        <time>2011-11-20T12:41:56Z</time>
      </trkpt>
      <trkpt lat="43.53509" lon="6.13927">
        <ele>295.26</ele>
        <time>2011-11-20T12:42:15Z</time>
      </trkpt>
      <trkpt lat="43.53504" lon="6.13931">
        <ele>295.26</ele>
        <time>2011-11-20T12:42:23Z</time>
      </trkpt>
      <trkpt lat="43.53502" lon="6.13943">
        <ele>294.3</ele>
        <time>2011-11-20T12:42:26Z</time>
      </trkpt>
      <trkpt lat="43.535" lon="6.13951">
        <ele>295.26</ele>
        <time>2011-11-20T12:42:44Z</time>
      </trkpt>
      <trkpt lat="43.535" lon="6.13951">
        <ele>295.74</ele>
        <time>2011-11-20T12:43:06Z</time>
      </trkpt>
      <trkpt lat="43.53499" lon="6.13951">
        <ele>293.82</ele>
        <time>2011-11-20T12:44:14Z</time>
      </trkpt>
      <trkpt lat="43.53498" lon="6.13953">
        <ele>297.18</ele>
        <time>2011-11-20T12:44:23Z</time>
      </trkpt>
      <trkpt lat="43.53498" lon="6.13953">
        <ele>294.78</ele>
        <time>2011-11-20T12:44:24Z</time>
      </trkpt>
      <trkpt lat="43.53495" lon="6.13953">
        <ele>296.22</ele>
        <time>2011-11-20T12:44:26Z</time>
      </trkpt>
      <trkpt lat="43.53489" lon="6.13953">
        <ele>295.26</ele>
        <time>2011-11-20T12:44:32Z</time>
      </trkpt>
      <trkpt lat="43.53483" lon="6.13953">
        <ele>296.22</ele>
        <time>2011-11-20T12:44:49Z</time>
      </trkpt>
      <trkpt lat="43.53483" lon="6.13953">
        <ele>297.67</ele>
        <time>2011-11-20T12:45:04Z</time>
      </trkpt>
      <trkpt lat="43.53482" lon="6.13952">
        <ele>296.7</ele>
        <time>2011-11-20T12:45:25Z</time>
      </trkpt>
      <trkpt lat="43.53482" lon="6.13951">
        <ele>294.78</ele>
        <time>2011-11-20T12:45:32Z</time>
      </trkpt>
      <trkpt lat="43.5348" lon="6.13951">
        <ele>297.18</ele>
        <time>2011-11-20T12:45:34Z</time>
      </trkpt>
      <trkpt lat="43.53465" lon="6.13944">
        <ele>298.63</ele>
        <time>2011-11-20T12:45:48Z</time>
      </trkpt>
      <trkpt lat="43.53462" lon="6.13944">
        <ele>297.18</ele>
        <time>2011-11-20T12:45:50Z</time>
      </trkpt>
      <trkpt lat="43.53453" lon="6.13938">
        <ele>300.55</ele>
        <time>2011-11-20T12:45:57Z</time>
      </trkpt>
      <trkpt lat="43.53451" lon="6.13938">
        <ele>299.59</ele>
        <time>2011-11-20T12:45:58Z</time>
      </trkpt>
      <trkpt lat="43.53445" lon="6.13933">
        <ele>302.95</ele>
        <time>2011-11-20T12:46:07Z</time>
      </trkpt>
      <trkpt lat="43.53436" lon="6.13928">
        <ele>306.32</ele>
        <time>2011-11-20T12:46:17Z</time>
      </trkpt>
      <trkpt lat="43.53435" lon="6.13928">
        <ele>302.95</ele>
        <time>2011-11-20T12:46:18Z</time>
      </trkpt>
      <trkpt lat="43.53429" lon="6.13924">
        <ele>304.39</ele>
        <time>2011-11-20T12:46:23Z</time>
      </trkpt>
      <trkpt lat="43.53423" lon="6.13922">
        <ele>303.91</ele>
        <time>2011-11-20T12:46:36Z</time>
      </trkpt>
      <trkpt lat="43.53422" lon="6.13923">
        <ele>304.88</ele>
        <time>2011-11-20T12:46:58Z</time>
      </trkpt>
      <trkpt lat="43.53422" lon="6.13923">
        <ele>304.88</ele>
        <time>2011-11-20T12:48:06Z</time>
      </trkpt>
      <trkpt lat="43.53423" lon="6.13921">
        <ele>303.91</ele>
        <time>2011-11-20T12:48:10Z</time>
      </trkpt>
      <trkpt lat="43.53422" lon="6.13919">
        <ele>304.88</ele>
        <time>2011-11-20T12:48:12Z</time>
      </trkpt>
      <trkpt lat="43.5342" lon="6.13917">
        <ele>306.8</ele>
        <time>2011-11-20T12:48:14Z</time>
      </trkpt>
      <trkpt lat="43.53409" lon="6.13906">
        <ele>308.24</ele>
        <time>2011-11-20T12:48:25Z</time>
      </trkpt>
      <trkpt lat="43.53398" lon="6.13901">
        <ele>311.12</ele>
        <time>2011-11-20T12:48:36Z</time>
      </trkpt>
      <trkpt lat="43.53393" lon="6.13898">
        <ele>309.2</ele>
        <time>2011-11-20T12:48:42Z</time>
      </trkpt>
      <trkpt lat="43.53391" lon="6.13898">
        <ele>313.05</ele>
        <time>2011-11-20T12:48:45Z</time>
      </trkpt>
      <trkpt lat="43.5339" lon="6.13897">
        <ele>311.12</ele>
        <time>2011-11-20T12:48:46Z</time>
      </trkpt>
      <trkpt lat="43.53382" lon="6.13898">
        <ele>312.09</ele>
        <time>2011-11-20T12:48:54Z</time>
      </trkpt>
      <trkpt lat="43.53374" lon="6.13895">
        <ele>314.01</ele>
        <time>2011-11-20T12:49:03Z</time>
      </trkpt>
      <trkpt lat="43.53373" lon="6.13895">
        <ele>313.53</ele>
        <time>2011-11-20T12:49:04Z</time>
      </trkpt>
      <trkpt lat="43.53363" lon="6.13887">
        <ele>316.89</ele>
        <time>2011-11-20T12:49:17Z</time>
      </trkpt>
      <trkpt lat="43.53362" lon="6.13887">
        <ele>315.93</ele>
        <time>2011-11-20T12:49:18Z</time>
      </trkpt>
      <trkpt lat="43.53355" lon="6.13881">
        <ele>316.41</ele>
        <time>2011-11-20T12:49:25Z</time>
      </trkpt>
      <trkpt lat="43.53343" lon="6.13873">
        <ele>316.41</ele>
        <time>2011-11-20T12:49:36Z</time>
      </trkpt>
      <trkpt lat="43.53325" lon="6.13869">
        <ele>317.85</ele>
        <time>2011-11-20T12:49:50Z</time>
      </trkpt>
      <trkpt lat="43.53313" lon="6.13863">
        <ele>318.81</ele>
        <time>2011-11-20T12:50:01Z</time>
      </trkpt>
      <trkpt lat="43.53306" lon="6.13862">
        <ele>321.22</ele>
        <time>2011-11-20T12:50:07Z</time>
      </trkpt>
      <trkpt lat="43.53301" lon="6.13859">
        <ele>318.81</ele>
        <time>2011-11-20T12:50:12Z</time>
      </trkpt>
      <trkpt lat="43.53289" lon="6.13858">
        <ele>320.74</ele>
        <time>2011-11-20T12:50:23Z</time>
      </trkpt>
      <trkpt lat="43.53285" lon="6.13856">
        <ele>322.18</ele>
        <time>2011-11-20T12:50:26Z</time>
      </trkpt>
      <trkpt lat="43.53283" lon="6.13855">
        <ele>320.74</ele>
        <time>2011-11-20T12:50:27Z</time>
      </trkpt>
      <trkpt lat="43.53273" lon="6.13844">
        <ele>324.58</ele>
        <time>2011-11-20T12:50:39Z</time>
      </trkpt>
      <trkpt lat="43.53269" lon="6.13837">
        <ele>320.74</ele>
        <time>2011-11-20T12:50:44Z</time>
      </trkpt>
      <trkpt lat="43.53268" lon="6.13835">
        <ele>321.22</ele>
        <time>2011-11-20T12:50:45Z</time>
      </trkpt>
      <trkpt lat="43.53264" lon="6.1383">
        <ele>319.78</ele>
        <time>2011-11-20T12:50:49Z</time>
      </trkpt>
      <trkpt lat="43.5325" lon="6.13813">
        <ele>320.26</ele>
        <time>2011-11-20T12:51:04Z</time>
      </trkpt>
      <trkpt lat="43.53248" lon="6.1381">
        <ele>324.58</ele>
        <time>2011-11-20T12:51:06Z</time>
      </trkpt>
      <trkpt lat="43.53247" lon="6.13809">
        <ele>324.58</ele>
        <time>2011-11-20T12:51:07Z</time>
      </trkpt>
      <trkpt lat="43.53244" lon="6.13806">
        <ele>318.33</ele>
        <time>2011-11-20T12:51:10Z</time>
      </trkpt>
      <trkpt lat="43.53243" lon="6.13805">
        <ele>322.18</ele>
        <time>2011-11-20T12:51:11Z</time>
      </trkpt>
      <trkpt lat="43.53237" lon="6.13799">
        <ele>323.62</ele>
        <time>2011-11-20T12:51:17Z</time>
      </trkpt>
      <trkpt lat="43.53236" lon="6.13798">
        <ele>324.58</ele>
        <time>2011-11-20T12:51:18Z</time>
      </trkpt>
      <trkpt lat="43.53233" lon="6.13796">
        <ele>318.81</ele>
        <time>2011-11-20T12:51:21Z</time>
      </trkpt>
      <trkpt lat="43.53231" lon="6.13794">
        <ele>323.14</ele>
        <time>2011-11-20T12:51:23Z</time>
      </trkpt>
      <trkpt lat="43.5323" lon="6.13792">
        <ele>319.3</ele>
        <time>2011-11-20T12:51:24Z</time>
      </trkpt>
      <trkpt lat="43.53227" lon="6.13789">
        <ele>322.18</ele>
        <time>2011-11-20T12:51:27Z</time>
      </trkpt>
      <trkpt lat="43.53226" lon="6.13788">
        <ele>322.18</ele>
        <time>2011-11-20T12:51:28Z</time>
      </trkpt>
      <trkpt lat="43.53212" lon="6.13771">
        <ele>321.22</ele>
        <time>2011-11-20T12:51:42Z</time>
      </trkpt>
      <trkpt lat="43.53207" lon="6.13765">
        <ele>320.26</ele>
        <time>2011-11-20T12:51:49Z</time>
      </trkpt>
      <trkpt lat="43.53201" lon="6.13759">
        <ele>325.06</ele>
        <time>2011-11-20T12:51:57Z</time>
      </trkpt>
      <trkpt lat="43.532" lon="6.13758">
        <ele>324.1</ele>
        <time>2011-11-20T12:51:58Z</time>
      </trkpt>
      <trkpt lat="43.53195" lon="6.13753">
        <ele>320.26</ele>
        <time>2011-11-20T12:52:02Z</time>
      </trkpt>
      <trkpt lat="43.53194" lon="6.13752">
        <ele>320.26</ele>
        <time>2011-11-20T12:52:03Z</time>
      </trkpt>
      <trkpt lat="43.53191" lon="6.13748">
        <ele>321.7</ele>
        <time>2011-11-20T12:52:06Z</time>
      </trkpt>
      <trkpt lat="43.53183" lon="6.13737">
        <ele>320.74</ele>
        <time>2011-11-20T12:52:13Z</time>
      </trkpt>
      <trkpt lat="43.5318" lon="6.13734">
        <ele>325.06</ele>
        <time>2011-11-20T12:52:15Z</time>
      </trkpt>
      <trkpt lat="43.53178" lon="6.13733">
        <ele>325.06</ele>
        <time>2011-11-20T12:52:16Z</time>
      </trkpt>
      <trkpt lat="43.53176" lon="6.13729">
        <ele>323.14</ele>
        <time>2011-11-20T12:52:19Z</time>
      </trkpt>
      <trkpt lat="43.53163" lon="6.13712">
        <ele>323.14</ele>
        <time>2011-11-20T12:52:34Z</time>
      </trkpt>
      <trkpt lat="43.53156" lon="6.13703">
        <ele>326.5</ele>
        <time>2011-11-20T12:52:42Z</time>
      </trkpt>
      <trkpt lat="43.53155" lon="6.13702">
        <ele>326.5</ele>
        <time>2011-11-20T12:52:43Z</time>
      </trkpt>
      <trkpt lat="43.53145" lon="6.13692">
        <ele>324.58</ele>
        <time>2011-11-20T12:52:54Z</time>
      </trkpt>
      <trkpt lat="43.53135" lon="6.13684">
        <ele>327.47</ele>
        <time>2011-11-20T12:53:03Z</time>
      </trkpt>
      <trkpt lat="43.5313" lon="6.13681">
        <ele>324.58</ele>
        <time>2011-11-20T12:53:07Z</time>
      </trkpt>
      <trkpt lat="43.53122" lon="6.1367">
        <ele>328.91</ele>
        <time>2011-11-20T12:53:15Z</time>
      </trkpt>
      <trkpt lat="43.53121" lon="6.13668">
        <ele>328.43</ele>
        <time>2011-11-20T12:53:16Z</time>
      </trkpt>
      <trkpt lat="43.5312" lon="6.13665">
        <ele>325.54</ele>
        <time>2011-11-20T12:53:18Z</time>
      </trkpt>
      <trkpt lat="43.53117" lon="6.1366">
        <ele>323.62</ele>
        <time>2011-11-20T12:53:21Z</time>
      </trkpt>
      <trkpt lat="43.53104" lon="6.13644">
        <ele>323.62</ele>
        <time>2011-11-20T12:53:34Z</time>
      </trkpt>
      <trkpt lat="43.53098" lon="6.13639">
        <ele>324.1</ele>
        <time>2011-11-20T12:53:39Z</time>
      </trkpt>
      <trkpt lat="43.53089" lon="6.13632">
        <ele>322.66</ele>
        <time>2011-11-20T12:53:48Z</time>
      </trkpt>
      <trkpt lat="43.53087" lon="6.13628">
        <ele>321.22</ele>
        <time>2011-11-20T12:53:51Z</time>
      </trkpt>
      <trkpt lat="43.53077" lon="6.13614">
        <ele>326.5</ele>
        <time>2011-11-20T12:54:03Z</time>
      </trkpt>
      <trkpt lat="43.53076" lon="6.13612">
        <ele>326.02</ele>
        <time>2011-11-20T12:54:04Z</time>
      </trkpt>
      <trkpt lat="43.53074" lon="6.1361">
        <ele>323.62</ele>
        <time>2011-11-20T12:54:06Z</time>
      </trkpt>
      <trkpt lat="43.53073" lon="6.13608">
        <ele>318.33</ele>
        <time>2011-11-20T12:54:08Z</time>
      </trkpt>
      <trkpt lat="43.53072" lon="6.13606">
        <ele>319.3</ele>
        <time>2011-11-20T12:54:09Z</time>
      </trkpt>
      <trkpt lat="43.53068" lon="6.13601">
        <ele>321.22</ele>
        <time>2011-11-20T12:54:13Z</time>
      </trkpt>
      <trkpt lat="43.5306" lon="6.13592">
        <ele>325.54</ele>
        <time>2011-11-20T12:54:21Z</time>
      </trkpt>
      <trkpt lat="43.53057" lon="6.1359">
        <ele>326.5</ele>
        <time>2011-11-20T12:54:23Z</time>
      </trkpt>
      <trkpt lat="43.53057" lon="6.13589">
        <ele>322.18</ele>
        <time>2011-11-20T12:54:24Z</time>
      </trkpt>
      <trkpt lat="43.53055" lon="6.13588">
        <ele>322.66</ele>
        <time>2011-11-20T12:54:25Z</time>
      </trkpt>
      <trkpt lat="43.5304" lon="6.13576">
        <ele>322.18</ele>
        <time>2011-11-20T12:54:39Z</time>
      </trkpt>
      <trkpt lat="43.53031" lon="6.13571">
        <ele>325.06</ele>
        <time>2011-11-20T12:54:46Z</time>
      </trkpt>
      <trkpt lat="43.5303" lon="6.1357">
        <ele>325.06</ele>
        <time>2011-11-20T12:54:47Z</time>
      </trkpt>
      <trkpt lat="43.53026" lon="6.13566">
        <ele>320.74</ele>
        <time>2011-11-20T12:54:50Z</time>
      </trkpt>
      <trkpt lat="43.53023" lon="6.13563">
        <ele>319.3</ele>
        <time>2011-11-20T12:54:53Z</time>
      </trkpt>
      <trkpt lat="43.53021" lon="6.13562">
        <ele>321.22</ele>
        <time>2011-11-20T12:54:55Z</time>
      </trkpt>
      <trkpt lat="43.53013" lon="6.13554">
        <ele>326.02</ele>
        <time>2011-11-20T12:55:03Z</time>
      </trkpt>
      <trkpt lat="43.53012" lon="6.13554">
        <ele>325.06</ele>
        <time>2011-11-20T12:55:04Z</time>
      </trkpt>
      <trkpt lat="43.5301" lon="6.13552">
        <ele>321.7</ele>
        <time>2011-11-20T12:55:06Z</time>
      </trkpt>
      <trkpt lat="43.53009" lon="6.13549">
        <ele>320.74</ele>
        <time>2011-11-20T12:55:08Z</time>
      </trkpt>
      <trkpt lat="43.52997" lon="6.13536">
        <ele>320.74</ele>
        <time>2011-11-20T12:55:21Z</time>
      </trkpt>
      <trkpt lat="43.52987" lon="6.13519">
        <ele>322.66</ele>
        <time>2011-11-20T12:55:34Z</time>
      </trkpt>
      <trkpt lat="43.52979" lon="6.13499">
        <ele>326.99</ele>
        <time>2011-11-20T12:55:47Z</time>
      </trkpt>
      <trkpt lat="43.52977" lon="6.13495">
        <ele>324.1</ele>
        <time>2011-11-20T12:55:50Z</time>
      </trkpt>
      <trkpt lat="43.5297" lon="6.13483">
        <ele>327.47</ele>
        <time>2011-11-20T12:56:01Z</time>
      </trkpt>
      <trkpt lat="43.5297" lon="6.13482">
        <ele>326.5</ele>
        <time>2011-11-20T12:56:02Z</time>
      </trkpt>
      <trkpt lat="43.52966" lon="6.13474">
        <ele>325.06</ele>
        <time>2011-11-20T12:56:07Z</time>
      </trkpt>
      <trkpt lat="43.52966" lon="6.13471">
        <ele>326.02</ele>
        <time>2011-11-20T12:56:09Z</time>
      </trkpt>
      <trkpt lat="43.52964" lon="6.13468">
        <ele>328.91</ele>
        <time>2011-11-20T12:56:12Z</time>
      </trkpt>
      <trkpt lat="43.52963" lon="6.13464">
        <ele>325.54</ele>
        <time>2011-11-20T12:56:15Z</time>
      </trkpt>
      <trkpt lat="43.52961" lon="6.13461">
        <ele>324.58</ele>
        <time>2011-11-20T12:56:18Z</time>
      </trkpt>
      <trkpt lat="43.52958" lon="6.13453">
        <ele>326.5</ele>
        <time>2011-11-20T12:56:23Z</time>
      </trkpt>
      <trkpt lat="43.52951" lon="6.13433">
        <ele>325.54</ele>
        <time>2011-11-20T12:56:37Z</time>
      </trkpt>
      <trkpt lat="43.52951" lon="6.13432">
        <ele>328.43</ele>
        <time>2011-11-20T12:56:38Z</time>
      </trkpt>
      <trkpt lat="43.52951" lon="6.13431">
        <ele>328.43</ele>
        <time>2011-11-20T12:56:39Z</time>
      </trkpt>
      <trkpt lat="43.52949" lon="6.13424">
        <ele>325.54</ele>
        <time>2011-11-20T12:56:43Z</time>
      </trkpt>
      <trkpt lat="43.52947" lon="6.13419">
        <ele>327.95</ele>
        <time>2011-11-20T12:56:49Z</time>
      </trkpt>
      <trkpt lat="43.52946" lon="6.13417">
        <ele>324.58</ele>
        <time>2011-11-20T12:56:54Z</time>
      </trkpt>
      <trkpt lat="43.52935" lon="6.13405">
        <ele>328.91</ele>
        <time>2011-11-20T12:57:04Z</time>
      </trkpt>
      <trkpt lat="43.52935" lon="6.13405">
        <ele>328.43</ele>
        <time>2011-11-20T12:57:05Z</time>
      </trkpt>
      <trkpt lat="43.52931" lon="6.13402">
        <ele>326.99</ele>
        <time>2011-11-20T12:57:08Z</time>
      </trkpt>
      <trkpt lat="43.52929" lon="6.134">
        <ele>325.54</ele>
        <time>2011-11-20T12:57:10Z</time>
      </trkpt>
      <trkpt lat="43.52916" lon="6.13388">
        <ele>325.06</ele>
        <time>2011-11-20T12:57:22Z</time>
      </trkpt>
      <trkpt lat="43.52913" lon="6.13385">
        <ele>324.1</ele>
        <time>2011-11-20T12:57:25Z</time>
      </trkpt>
      <trkpt lat="43.5291" lon="6.13379">
        <ele>325.06</ele>
        <time>2011-11-20T12:57:29Z</time>
      </trkpt>
      <trkpt lat="43.52902" lon="6.13368">
        <ele>322.66</ele>
        <time>2011-11-20T12:57:39Z</time>
      </trkpt>
      <trkpt lat="43.529" lon="6.13365">
        <ele>323.62</ele>
        <time>2011-11-20T12:57:43Z</time>
      </trkpt>
      <trkpt lat="43.529" lon="6.13364">
        <ele>323.62</ele>
        <time>2011-11-20T12:57:44Z</time>
      </trkpt>
      <trkpt lat="43.52897" lon="6.13361">
        <ele>323.14</ele>
        <time>2011-11-20T12:57:47Z</time>
      </trkpt>
      <trkpt lat="43.52895" lon="6.1336">
        <ele>321.22</ele>
        <time>2011-11-20T12:57:49Z</time>
      </trkpt>
      <trkpt lat="43.52895" lon="6.13358">
        <ele>323.14</ele>
        <time>2011-11-20T12:57:51Z</time>
      </trkpt>
      <trkpt lat="43.52886" lon="6.13352">
        <ele>321.22</ele>
        <time>2011-11-20T12:58:17Z</time>
      </trkpt>
      <trkpt lat="43.52884" lon="6.1335">
        <ele>325.06</ele>
        <time>2011-11-20T12:58:19Z</time>
      </trkpt>
      <trkpt lat="43.52877" lon="6.13346">
        <ele>322.66</ele>
        <time>2011-11-20T12:58:25Z</time>
      </trkpt>
      <trkpt lat="43.5287" lon="6.13341">
        <ele>323.62</ele>
        <time>2011-11-20T12:58:33Z</time>
      </trkpt>
      <trkpt lat="43.52868" lon="6.1334">
        <ele>322.18</ele>
        <time>2011-11-20T12:58:35Z</time>
      </trkpt>
      <trkpt lat="43.52862" lon="6.13334">
        <ele>323.62</ele>
        <time>2011-11-20T12:58:45Z</time>
      </trkpt>
      <trkpt lat="43.52859" lon="6.13332">
        <ele>322.66</ele>
        <time>2011-11-20T12:58:57Z</time>
      </trkpt>
      <trkpt lat="43.52847" lon="6.13327">
        <ele>322.18</ele>
        <time>2011-11-20T12:59:39Z</time>
      </trkpt>
      <trkpt lat="43.52833" lon="6.13322">
        <ele>324.1</ele>
        <time>2011-11-20T12:59:51Z</time>
      </trkpt>
      <trkpt lat="43.5283" lon="6.1332">
        <ele>321.22</ele>
        <time>2011-11-20T12:59:55Z</time>
      </trkpt>
      <trkpt lat="43.52822" lon="6.13315">
        <ele>323.62</ele>
        <time>2011-11-20T13:00:04Z</time>
      </trkpt>
      <trkpt lat="43.52819" lon="6.13313">
        <ele>321.22</ele>
        <time>2011-11-20T13:00:07Z</time>
      </trkpt>
      <trkpt lat="43.5281" lon="6.13308">
        <ele>325.06</ele>
        <time>2011-11-20T13:00:17Z</time>
      </trkpt>
      <trkpt lat="43.52808" lon="6.13307">
        <ele>321.7</ele>
        <time>2011-11-20T13:00:19Z</time>
      </trkpt>
      <trkpt lat="43.52806" lon="6.13306">
        <ele>321.22</ele>
        <time>2011-11-20T13:00:21Z</time>
      </trkpt>
      <trkpt lat="43.52801" lon="6.13304">
        <ele>323.62</ele>
        <time>2011-11-20T13:00:25Z</time>
      </trkpt>
      <trkpt lat="43.52797" lon="6.13302">
        <ele>320.26</ele>
        <time>2011-11-20T13:00:28Z</time>
      </trkpt>
      <trkpt lat="43.52796" lon="6.13302">
        <ele>320.26</ele>
        <time>2011-11-20T13:00:29Z</time>
      </trkpt>
      <trkpt lat="43.52794" lon="6.13302">
        <ele>320.74</ele>
        <time>2011-11-20T13:00:31Z</time>
      </trkpt>
      <trkpt lat="43.52787" lon="6.13299">
        <ele>321.22</ele>
        <time>2011-11-20T13:00:37Z</time>
      </trkpt>
      <trkpt lat="43.52775" lon="6.13295">
        <ele>323.14</ele>
        <time>2011-11-20T13:00:48Z</time>
      </trkpt>
      <trkpt lat="43.52771" lon="6.13292">
        <ele>319.78</ele>
        <time>2011-11-20T13:00:52Z</time>
      </trkpt>
      <trkpt lat="43.5277" lon="6.13291">
        <ele>320.26</ele>
        <time>2011-11-20T13:00:53Z</time>
      </trkpt>
      <trkpt lat="43.52769" lon="6.1329">
        <ele>323.62</ele>
        <time>2011-11-20T13:00:54Z</time>
      </trkpt>
      <trkpt lat="43.52768" lon="6.13289">
        <ele>322.66</ele>
        <time>2011-11-20T13:00:55Z</time>
      </trkpt>
      <trkpt lat="43.52765" lon="6.13287">
        <ele>321.22</ele>
        <time>2011-11-20T13:00:57Z</time>
      </trkpt>
      <trkpt lat="43.52751" lon="6.13278">
        <ele>320.74</ele>
        <time>2011-11-20T13:01:09Z</time>
      </trkpt>
      <trkpt lat="43.5274" lon="6.13265">
        <ele>323.62</ele>
        <time>2011-11-20T13:01:21Z</time>
      </trkpt>
      <trkpt lat="43.5274" lon="6.13264">
        <ele>323.14</ele>
        <time>2011-11-20T13:01:22Z</time>
      </trkpt>
      <trkpt lat="43.52737" lon="6.1326">
        <ele>326.5</ele>
        <time>2011-11-20T13:01:25Z</time>
      </trkpt>
      <trkpt lat="43.52736" lon="6.13258">
        <ele>321.7</ele>
        <time>2011-11-20T13:01:27Z</time>
      </trkpt>
      <trkpt lat="43.52732" lon="6.13251">
        <ele>325.06</ele>
        <time>2011-11-20T13:01:32Z</time>
      </trkpt>
      <trkpt lat="43.52728" lon="6.13243">
        <ele>321.22</ele>
        <time>2011-11-20T13:01:37Z</time>
      </trkpt>
      <trkpt lat="43.52728" lon="6.13242">
        <ele>322.66</ele>
        <time>2011-11-20T13:01:38Z</time>
      </trkpt>
      <trkpt lat="43.5272" lon="6.13226">
        <ele>319.78</ele>
        <time>2011-11-20T13:01:49Z</time>
      </trkpt>
      <trkpt lat="43.52717" lon="6.1322">
        <ele>325.54</ele>
        <time>2011-11-20T13:01:54Z</time>
      </trkpt>
      <trkpt lat="43.52716" lon="6.13219">
        <ele>324.58</ele>
        <time>2011-11-20T13:01:55Z</time>
      </trkpt>
      <trkpt lat="43.52714" lon="6.13217">
        <ele>321.7</ele>
        <time>2011-11-20T13:01:57Z</time>
      </trkpt>
      <trkpt lat="43.52708" lon="6.13209">
        <ele>320.74</ele>
        <time>2011-11-20T13:02:03Z</time>
      </trkpt>
      <trkpt lat="43.52707" lon="6.13206">
        <ele>323.62</ele>
        <time>2011-11-20T13:02:05Z</time>
      </trkpt>
      <trkpt lat="43.52706" lon="6.13203">
        <ele>320.26</ele>
        <time>2011-11-20T13:02:08Z</time>
      </trkpt>
      <trkpt lat="43.52705" lon="6.13201">
        <ele>321.7</ele>
        <time>2011-11-20T13:02:09Z</time>
      </trkpt>
      <trkpt lat="43.52702" lon="6.13197">
        <ele>319.78</ele>
        <time>2011-11-20T13:02:12Z</time>
      </trkpt>
      <trkpt lat="43.52695" lon="6.13187">
        <ele>318.81</ele>
        <time>2011-11-20T13:02:21Z</time>
      </trkpt>
      <trkpt lat="43.52691" lon="6.1318">
        <ele>320.74</ele>
        <time>2011-11-20T13:02:26Z</time>
      </trkpt>
      <trkpt lat="43.52685" lon="6.13171">
        <ele>319.3</ele>
        <time>2011-11-20T13:02:32Z</time>
      </trkpt>
      <trkpt lat="43.52681" lon="6.13166">
        <ele>322.66</ele>
        <time>2011-11-20T13:02:36Z</time>
      </trkpt>
      <trkpt lat="43.52676" lon="6.13159">
        <ele>318.81</ele>
        <time>2011-11-20T13:02:42Z</time>
      </trkpt>
      <trkpt lat="43.52675" lon="6.13158">
        <ele>319.78</ele>
        <time>2011-11-20T13:02:43Z</time>
      </trkpt>
      <trkpt lat="43.52672" lon="6.13152">
        <ele>322.18</ele>
        <time>2011-11-20T13:02:48Z</time>
      </trkpt>
      <trkpt lat="43.52664" lon="6.13138">
        <ele>320.26</ele>
        <time>2011-11-20T13:02:58Z</time>
      </trkpt>
      <trkpt lat="43.52656" lon="6.13125">
        <ele>323.62</ele>
        <time>2011-11-20T13:03:09Z</time>
      </trkpt>
      <trkpt lat="43.52651" lon="6.13114">
        <ele>320.26</ele>
        <time>2011-11-20T13:03:16Z</time>
      </trkpt>
      <trkpt lat="43.52651" lon="6.13113">
        <ele>320.74</ele>
        <time>2011-11-20T13:03:17Z</time>
      </trkpt>
      <trkpt lat="43.5265" lon="6.13111">
        <ele>324.58</ele>
        <time>2011-11-20T13:03:19Z</time>
      </trkpt>
      <trkpt lat="43.52648" lon="6.13104">
        <ele>321.7</ele>
        <time>2011-11-20T13:03:24Z</time>
      </trkpt>
      <trkpt lat="43.52648" lon="6.13103">
        <ele>322.66</ele>
        <time>2011-11-20T13:03:25Z</time>
      </trkpt>
      <trkpt lat="43.52646" lon="6.13095">
        <ele>326.5</ele>
        <time>2011-11-20T13:03:30Z</time>
      </trkpt>
      <trkpt lat="43.52644" lon="6.13086">
        <ele>322.66</ele>
        <time>2011-11-20T13:03:35Z</time>
      </trkpt>
      <trkpt lat="43.52643" lon="6.13085">
        <ele>323.14</ele>
        <time>2011-11-20T13:03:36Z</time>
      </trkpt>
      <trkpt lat="43.52642" lon="6.13082">
        <ele>321.22</ele>
        <time>2011-11-20T13:03:38Z</time>
      </trkpt>
      <trkpt lat="43.52641" lon="6.13075">
        <ele>326.02</ele>
        <time>2011-11-20T13:03:42Z</time>
      </trkpt>
      <trkpt lat="43.52641" lon="6.13073">
        <ele>325.54</ele>
        <time>2011-11-20T13:03:43Z</time>
      </trkpt>
      <trkpt lat="43.52639" lon="6.13065">
        <ele>322.18</ele>
        <time>2011-11-20T13:03:48Z</time>
      </trkpt>
      <trkpt lat="43.52635" lon="6.13049">
        <ele>319.78</ele>
        <time>2011-11-20T13:04:00Z</time>
      </trkpt>
      <trkpt lat="43.52631" lon="6.13043">
        <ele>321.7</ele>
        <time>2011-11-20T13:04:04Z</time>
      </trkpt>
      <trkpt lat="43.52628" lon="6.1304">
        <ele>321.22</ele>
        <time>2011-11-20T13:04:06Z</time>
      </trkpt>
      <trkpt lat="43.52616" lon="6.13026">
        <ele>322.66</ele>
        <time>2011-11-20T13:04:18Z</time>
      </trkpt>
      <trkpt lat="43.52607" lon="6.13016">
        <ele>318.81</ele>
        <time>2011-11-20T13:04:26Z</time>
      </trkpt>
      <trkpt lat="43.526" lon="6.13008">
        <ele>323.14</ele>
        <time>2011-11-20T13:04:34Z</time>
      </trkpt>
      <trkpt lat="43.52599" lon="6.13007">
        <ele>322.66</ele>
        <time>2011-11-20T13:04:35Z</time>
      </trkpt>
      <trkpt lat="43.52597" lon="6.13004">
        <ele>319.3</ele>
        <time>2011-11-20T13:04:37Z</time>
      </trkpt>
      <trkpt lat="43.52593" lon="6.13">
        <ele>317.85</ele>
        <time>2011-11-20T13:04:40Z</time>
      </trkpt>
      <trkpt lat="43.52581" lon="6.12988">
        <ele>318.33</ele>
        <time>2011-11-20T13:04:53Z</time>
      </trkpt>
      <trkpt lat="43.52567" lon="6.12977">
        <ele>318.33</ele>
        <time>2011-11-20T13:05:06Z</time>
      </trkpt>
      <trkpt lat="43.52561" lon="6.12974">
        <ele>321.22</ele>
        <time>2011-11-20T13:05:11Z</time>
      </trkpt>
      <trkpt lat="43.52553" lon="6.12969">
        <ele>317.85</ele>
        <time>2011-11-20T13:05:17Z</time>
      </trkpt>
      <trkpt lat="43.52546" lon="6.12968">
        <ele>318.33</ele>
        <time>2011-11-20T13:05:23Z</time>
      </trkpt>
      <trkpt lat="43.52538" lon="6.12967">
        <ele>317.37</ele>
        <time>2011-11-20T13:05:30Z</time>
      </trkpt>
      <trkpt lat="43.52526" lon="6.12968">
        <ele>315.93</ele>
        <time>2011-11-20T13:05:39Z</time>
      </trkpt>
      <trkpt lat="43.5251" lon="6.12972">
        <ele>314.01</ele>
        <time>2011-11-20T13:05:52Z</time>
      </trkpt>
      <trkpt lat="43.52506" lon="6.12972">
        <ele>316.41</ele>
        <time>2011-11-20T13:05:55Z</time>
      </trkpt>
      <trkpt lat="43.52495" lon="6.12972">
        <ele>314.49</ele>
        <time>2011-11-20T13:06:03Z</time>
      </trkpt>
      <trkpt lat="43.52491" lon="6.12973">
        <ele>315.93</ele>
        <time>2011-11-20T13:06:06Z</time>
      </trkpt>
      <trkpt lat="43.52479" lon="6.12977">
        <ele>316.41</ele>
        <time>2011-11-20T13:06:17Z</time>
      </trkpt>
      <trkpt lat="43.52473" lon="6.12978">
        <ele>314.49</ele>
        <time>2011-11-20T13:06:21Z</time>
      </trkpt>
      <trkpt lat="43.52464" lon="6.12979">
        <ele>315.45</ele>
        <time>2011-11-20T13:06:28Z</time>
      </trkpt>
      <trkpt lat="43.52457" lon="6.1298">
        <ele>318.81</ele>
        <time>2011-11-20T13:06:33Z</time>
      </trkpt>
      <trkpt lat="43.52452" lon="6.1298">
        <ele>315.45</ele>
        <time>2011-11-20T13:06:37Z</time>
      </trkpt>
      <trkpt lat="43.52451" lon="6.1298">
        <ele>316.89</ele>
        <time>2011-11-20T13:06:38Z</time>
      </trkpt>
      <trkpt lat="43.52441" lon="6.12983">
        <ele>313.53</ele>
        <time>2011-11-20T13:06:47Z</time>
      </trkpt>
      <trkpt lat="43.52435" lon="6.12984">
        <ele>313.53</ele>
        <time>2011-11-20T13:06:51Z</time>
      </trkpt>
      <trkpt lat="43.52421" lon="6.12984">
        <ele>314.01</ele>
        <time>2011-11-20T13:07:02Z</time>
      </trkpt>
      <trkpt lat="43.52406" lon="6.12984">
        <ele>315.45</ele>
        <time>2011-11-20T13:07:13Z</time>
      </trkpt>
      <trkpt lat="43.52403" lon="6.12986">
        <ele>315.45</ele>
        <time>2011-11-20T13:07:16Z</time>
      </trkpt>
      <trkpt lat="43.52387" lon="6.12991">
        <ele>317.37</ele>
        <time>2011-11-20T13:07:30Z</time>
      </trkpt>
      <trkpt lat="43.52386" lon="6.12991">
        <ele>317.85</ele>
        <time>2011-11-20T13:07:31Z</time>
      </trkpt>
      <trkpt lat="43.52383" lon="6.12992">
        <ele>318.33</ele>
        <time>2011-11-20T13:07:33Z</time>
      </trkpt>
      <trkpt lat="43.52381" lon="6.12992">
        <ele>315.45</ele>
        <time>2011-11-20T13:07:35Z</time>
      </trkpt>
      <trkpt lat="43.52376" lon="6.12993">
        <ele>313.05</ele>
        <time>2011-11-20T13:07:38Z</time>
      </trkpt>
      <trkpt lat="43.52371" lon="6.12993">
        <ele>314.01</ele>
        <time>2011-11-20T13:07:42Z</time>
      </trkpt>
      <trkpt lat="43.52369" lon="6.12992">
        <ele>314.01</ele>
        <time>2011-11-20T13:07:43Z</time>
      </trkpt>
      <trkpt lat="43.52352" lon="6.12983">
        <ele>316.41</ele>
        <time>2011-11-20T13:07:58Z</time>
      </trkpt>
      <trkpt lat="43.52349" lon="6.12982">
        <ele>317.37</ele>
        <time>2011-11-20T13:08:00Z</time>
      </trkpt>
      <trkpt lat="43.52347" lon="6.12982">
        <ele>313.05</ele>
        <time>2011-11-20T13:08:02Z</time>
      </trkpt>
      <trkpt lat="43.52346" lon="6.12982">
        <ele>313.53</ele>
        <time>2011-11-20T13:08:03Z</time>
      </trkpt>
      <trkpt lat="43.5234" lon="6.12985">
        <ele>317.37</ele>
        <time>2011-11-20T13:08:08Z</time>
      </trkpt>
      <trkpt lat="43.52339" lon="6.12985">
        <ele>317.85</ele>
        <time>2011-11-20T13:08:09Z</time>
      </trkpt>
      <trkpt lat="43.52335" lon="6.12986">
        <ele>314.01</ele>
        <time>2011-11-20T13:08:13Z</time>
      </trkpt>
      <trkpt lat="43.52334" lon="6.12986">
        <ele>314.01</ele>
        <time>2011-11-20T13:08:14Z</time>
      </trkpt>
      <trkpt lat="43.52333" lon="6.12987">
        <ele>312.57</ele>
        <time>2011-11-20T13:08:15Z</time>
      </trkpt>
      <trkpt lat="43.52313" lon="6.12997">
        <ele>312.57</ele>
        <time>2011-11-20T13:08:30Z</time>
      </trkpt>
      <trkpt lat="43.52304" lon="6.13001">
        <ele>315.93</ele>
        <time>2011-11-20T13:08:38Z</time>
      </trkpt>
      <trkpt lat="43.52303" lon="6.13002">
        <ele>311.6</ele>
        <time>2011-11-20T13:08:39Z</time>
      </trkpt>
      <trkpt lat="43.52302" lon="6.13002">
        <ele>312.09</ele>
        <time>2011-11-20T13:08:40Z</time>
      </trkpt>
      <trkpt lat="43.52296" lon="6.13005">
        <ele>316.41</ele>
        <time>2011-11-20T13:08:45Z</time>
      </trkpt>
      <trkpt lat="43.52292" lon="6.13007">
        <ele>312.57</ele>
        <time>2011-11-20T13:08:48Z</time>
      </trkpt>
      <trkpt lat="43.52291" lon="6.13007">
        <ele>312.57</ele>
        <time>2011-11-20T13:08:49Z</time>
      </trkpt>
      <trkpt lat="43.52288" lon="6.13008">
        <ele>307.76</ele>
        <time>2011-11-20T13:08:51Z</time>
      </trkpt>
      <trkpt lat="43.52287" lon="6.13009">
        <ele>309.2</ele>
        <time>2011-11-20T13:08:52Z</time>
      </trkpt>
      <trkpt lat="43.52283" lon="6.13012">
        <ele>313.05</ele>
        <time>2011-11-20T13:08:56Z</time>
      </trkpt>
      <trkpt lat="43.52281" lon="6.13012">
        <ele>313.05</ele>
        <time>2011-11-20T13:08:57Z</time>
      </trkpt>
      <trkpt lat="43.52277" lon="6.13014">
        <ele>313.53</ele>
        <time>2011-11-20T13:09:01Z</time>
      </trkpt>
      <trkpt lat="43.52276" lon="6.13015">
        <ele>309.68</ele>
        <time>2011-11-20T13:09:02Z</time>
      </trkpt>
      <trkpt lat="43.52275" lon="6.13015">
        <ele>309.68</ele>
        <time>2011-11-20T13:09:03Z</time>
      </trkpt>
      <trkpt lat="43.52271" lon="6.13017">
        <ele>313.53</ele>
        <time>2011-11-20T13:09:06Z</time>
      </trkpt>
      <trkpt lat="43.5227" lon="6.13018">
        <ele>313.05</ele>
        <time>2011-11-20T13:09:07Z</time>
      </trkpt>
      <trkpt lat="43.52263" lon="6.13021">
        <ele>310.16</ele>
        <time>2011-11-20T13:09:12Z</time>
      </trkpt>
      <trkpt lat="43.5225" lon="6.13028">
        <ele>310.16</ele>
        <time>2011-11-20T13:09:23Z</time>
      </trkpt>
      <trkpt lat="43.52235" lon="6.13035">
        <ele>313.05</ele>
        <time>2011-11-20T13:09:36Z</time>
      </trkpt>
      <trkpt lat="43.52232" lon="6.13037">
        <ele>311.6</ele>
        <time>2011-11-20T13:09:39Z</time>
      </trkpt>
      <trkpt lat="43.52229" lon="6.13041">
        <ele>312.09</ele>
        <time>2011-11-20T13:09:42Z</time>
      </trkpt>
      <trkpt lat="43.52227" lon="6.13047">
        <ele>312.57</ele>
        <time>2011-11-20T13:09:46Z</time>
      </trkpt>
      <trkpt lat="43.5222" lon="6.13064">
        <ele>311.6</ele>
        <time>2011-11-20T13:09:57Z</time>
      </trkpt>
      <trkpt lat="43.52217" lon="6.1307">
        <ele>312.09</ele>
        <time>2011-11-20T13:10:02Z</time>
      </trkpt>
      <trkpt lat="43.52209" lon="6.13084">
        <ele>311.12</ele>
        <time>2011-11-20T13:10:13Z</time>
      </trkpt>
      <trkpt lat="43.52205" lon="6.13102">
        <ele>310.16</ele>
        <time>2011-11-20T13:10:24Z</time>
      </trkpt>
      <trkpt lat="43.52205" lon="6.13105">
        <ele>312.09</ele>
        <time>2011-11-20T13:10:26Z</time>
      </trkpt>
      <trkpt lat="43.52205" lon="6.13106">
        <ele>312.57</ele>
        <time>2011-11-20T13:10:27Z</time>
      </trkpt>
      <trkpt lat="43.52204" lon="6.13114">
        <ele>312.57</ele>
        <time>2011-11-20T13:10:32Z</time>
      </trkpt>
      <trkpt lat="43.52202" lon="6.13117">
        <ele>311.12</ele>
        <time>2011-11-20T13:10:34Z</time>
      </trkpt>
      <trkpt lat="43.522" lon="6.1312">
        <ele>314.97</ele>
        <time>2011-11-20T13:10:37Z</time>
      </trkpt>
      <trkpt lat="43.52199" lon="6.13122">
        <ele>314.01</ele>
        <time>2011-11-20T13:10:38Z</time>
      </trkpt>
      <trkpt lat="43.52197" lon="6.13126">
        <ele>308.24</ele>
        <time>2011-11-20T13:10:42Z</time>
      </trkpt>
      <trkpt lat="43.52196" lon="6.13127">
        <ele>309.68</ele>
        <time>2011-11-20T13:10:43Z</time>
      </trkpt>
      <trkpt lat="43.52191" lon="6.13133">
        <ele>313.05</ele>
        <time>2011-11-20T13:10:48Z</time>
      </trkpt>
      <trkpt lat="43.52187" lon="6.13139">
        <ele>307.76</ele>
        <time>2011-11-20T13:10:53Z</time>
      </trkpt>
      <trkpt lat="43.52187" lon="6.1314">
        <ele>307.76</ele>
        <time>2011-11-20T13:10:54Z</time>
      </trkpt>
      <trkpt lat="43.52184" lon="6.13147">
        <ele>309.2</ele>
        <time>2011-11-20T13:10:59Z</time>
      </trkpt>
      <trkpt lat="43.52183" lon="6.13149">
        <ele>309.68</ele>
        <time>2011-11-20T13:11:00Z</time>
      </trkpt>
      <trkpt lat="43.52183" lon="6.13153">
        <ele>309.68</ele>
        <time>2011-11-20T13:11:03Z</time>
      </trkpt>
      <trkpt lat="43.52183" lon="6.13156">
        <ele>306.8</ele>
        <time>2011-11-20T13:11:05Z</time>
      </trkpt>
      <trkpt lat="43.52183" lon="6.13164">
        <ele>311.6</ele>
        <time>2011-11-20T13:11:10Z</time>
      </trkpt>
      <trkpt lat="43.52184" lon="6.13167">
        <ele>308.72</ele>
        <time>2011-11-20T13:11:12Z</time>
      </trkpt>
      <trkpt lat="43.52184" lon="6.13169">
        <ele>308.72</ele>
        <time>2011-11-20T13:11:13Z</time>
      </trkpt>
      <trkpt lat="43.52185" lon="6.13173">
        <ele>306.8</ele>
        <time>2011-11-20T13:11:16Z</time>
      </trkpt>
      <trkpt lat="43.52191" lon="6.1318">
        <ele>303.91</ele>
        <time>2011-11-20T13:11:22Z</time>
      </trkpt>
      <trkpt lat="43.52198" lon="6.13188">
        <ele>303.91</ele>
        <time>2011-11-20T13:11:31Z</time>
      </trkpt>
      <trkpt lat="43.522" lon="6.13192">
        <ele>305.36</ele>
        <time>2011-11-20T13:11:36Z</time>
      </trkpt>
      <trkpt lat="43.52201" lon="6.13195">
        <ele>306.8</ele>
        <time>2011-11-20T13:11:40Z</time>
      </trkpt>
      <trkpt lat="43.52205" lon="6.13204">
        <ele>303.91</ele>
        <time>2011-11-20T13:11:46Z</time>
      </trkpt>
      <trkpt lat="43.52214" lon="6.13222">
        <ele>302.47</ele>
        <time>2011-11-20T13:12:00Z</time>
      </trkpt>
      <trkpt lat="43.52215" lon="6.13223">
        <ele>302.95</ele>
        <time>2011-11-20T13:12:01Z</time>
      </trkpt>
      <trkpt lat="43.52218" lon="6.13228">
        <ele>303.43</ele>
        <time>2011-11-20T13:12:06Z</time>
      </trkpt>
      <trkpt lat="43.52221" lon="6.1323">
        <ele>307.28</ele>
        <time>2011-11-20T13:12:08Z</time>
      </trkpt>
      <trkpt lat="43.52222" lon="6.13232">
        <ele>305.84</ele>
        <time>2011-11-20T13:12:09Z</time>
      </trkpt>
      <trkpt lat="43.52223" lon="6.13234">
        <ele>303.43</ele>
        <time>2011-11-20T13:12:11Z</time>
      </trkpt>
      <trkpt lat="43.52226" lon="6.13244">
        <ele>306.32</ele>
        <time>2011-11-20T13:12:18Z</time>
      </trkpt>
      <trkpt lat="43.52227" lon="6.13245">
        <ele>303.43</ele>
        <time>2011-11-20T13:12:19Z</time>
      </trkpt>
      <trkpt lat="43.52227" lon="6.13247">
        <ele>303.91</ele>
        <time>2011-11-20T13:12:20Z</time>
      </trkpt>
      <trkpt lat="43.52234" lon="6.13265">
        <ele>302.95</ele>
        <time>2011-11-20T13:12:33Z</time>
      </trkpt>
      <trkpt lat="43.52241" lon="6.13275">
        <ele>304.39</ele>
        <time>2011-11-20T13:12:41Z</time>
      </trkpt>
      <trkpt lat="43.52244" lon="6.13278">
        <ele>306.8</ele>
        <time>2011-11-20T13:12:44Z</time>
      </trkpt>
      <trkpt lat="43.52246" lon="6.13279">
        <ele>302.95</ele>
        <time>2011-11-20T13:12:46Z</time>
      </trkpt>
      <trkpt lat="43.5225" lon="6.1328">
        <ele>302.95</ele>
        <time>2011-11-20T13:12:50Z</time>
      </trkpt>
      <trkpt lat="43.52253" lon="6.13281">
        <ele>301.99</ele>
        <time>2011-11-20T13:12:53Z</time>
      </trkpt>
      <trkpt lat="43.52254" lon="6.13287">
        <ele>301.03</ele>
        <time>2011-11-20T13:12:58Z</time>
      </trkpt>
      <trkpt lat="43.52253" lon="6.13288">
        <ele>301.99</ele>
        <time>2011-11-20T13:12:59Z</time>
      </trkpt>
      <trkpt lat="43.52244" lon="6.13297">
        <ele>303.43</ele>
        <time>2011-11-20T13:13:10Z</time>
      </trkpt>
      <trkpt lat="43.52242" lon="6.13297">
        <ele>300.07</ele>
        <time>2011-11-20T13:13:12Z</time>
      </trkpt>
      <trkpt lat="43.5224" lon="6.13298">
        <ele>299.11</ele>
        <time>2011-11-20T13:13:14Z</time>
      </trkpt>
      <trkpt lat="43.52239" lon="6.13298">
        <ele>300.07</ele>
        <time>2011-11-20T13:13:15Z</time>
      </trkpt>
      <trkpt lat="43.52236" lon="6.13296">
        <ele>295.74</ele>
        <time>2011-11-20T13:13:18Z</time>
      </trkpt>
      <trkpt lat="43.52236" lon="6.13295">
        <ele>297.18</ele>
        <time>2011-11-20T13:13:19Z</time>
      </trkpt>
      <trkpt lat="43.52233" lon="6.13293">
        <ele>301.03</ele>
        <time>2011-11-20T13:13:22Z</time>
      </trkpt>
      <trkpt lat="43.52233" lon="6.13293">
        <ele>299.59</ele>
        <time>2011-11-20T13:13:23Z</time>
      </trkpt>
      <trkpt lat="43.52228" lon="6.13288">
        <ele>298.15</ele>
        <time>2011-11-20T13:13:29Z</time>
      </trkpt>
      <trkpt lat="43.52221" lon="6.13279">
        <ele>295.26</ele>
        <time>2011-11-20T13:13:36Z</time>
      </trkpt>
      <trkpt lat="43.5222" lon="6.13278">
        <ele>295.26</ele>
        <time>2011-11-20T13:13:37Z</time>
      </trkpt>
      <trkpt lat="43.52218" lon="6.13275">
        <ele>293.34</ele>
        <time>2011-11-20T13:13:39Z</time>
      </trkpt>
      <trkpt lat="43.52216" lon="6.13273">
        <ele>295.26</ele>
        <time>2011-11-20T13:13:41Z</time>
      </trkpt>
      <trkpt lat="43.52207" lon="6.13259">
        <ele>291.42</ele>
        <time>2011-11-20T13:13:53Z</time>
      </trkpt>
      <trkpt lat="43.522" lon="6.13249">
        <ele>290.46</ele>
        <time>2011-11-20T13:14:02Z</time>
      </trkpt>
      <trkpt lat="43.52198" lon="6.13246">
        <ele>291.9</ele>
        <time>2011-11-20T13:14:05Z</time>
      </trkpt>
      <trkpt lat="43.52196" lon="6.13241">
        <ele>294.3</ele>
        <time>2011-11-20T13:14:09Z</time>
      </trkpt>
      <trkpt lat="43.52194" lon="6.1324">
        <ele>292.86</ele>
        <time>2011-11-20T13:14:11Z</time>
      </trkpt>
      <trkpt lat="43.52188" lon="6.13233">
        <ele>289.49</ele>
        <time>2011-11-20T13:14:18Z</time>
      </trkpt>
      <trkpt lat="43.52184" lon="6.13226">
        <ele>287.57</ele>
        <time>2011-11-20T13:14:24Z</time>
      </trkpt>
      <trkpt lat="43.52182" lon="6.13221">
        <ele>291.42</ele>
        <time>2011-11-20T13:14:28Z</time>
      </trkpt>
      <trkpt lat="43.52174" lon="6.13215">
        <ele>287.57</ele>
        <time>2011-11-20T13:14:35Z</time>
      </trkpt>
      <trkpt lat="43.52171" lon="6.13214">
        <ele>289.01</ele>
        <time>2011-11-20T13:14:37Z</time>
      </trkpt>
      <trkpt lat="43.52163" lon="6.1321">
        <ele>287.09</ele>
        <time>2011-11-20T13:14:45Z</time>
      </trkpt>
      <trkpt lat="43.52157" lon="6.13209">
        <ele>291.9</ele>
        <time>2011-11-20T13:14:51Z</time>
      </trkpt>
      <trkpt lat="43.52155" lon="6.13209">
        <ele>288.53</ele>
        <time>2011-11-20T13:14:53Z</time>
      </trkpt>
      <trkpt lat="43.52154" lon="6.13209">
        <ele>287.09</ele>
        <time>2011-11-20T13:14:55Z</time>
      </trkpt>
      <trkpt lat="43.52134" lon="6.13216">
        <ele>285.65</ele>
        <time>2011-11-20T13:15:08Z</time>
      </trkpt>
      <trkpt lat="43.52132" lon="6.13217">
        <ele>289.97</ele>
        <time>2011-11-20T13:15:10Z</time>
      </trkpt>
      <trkpt lat="43.52131" lon="6.13218">
        <ele>289.49</ele>
        <time>2011-11-20T13:15:11Z</time>
      </trkpt>
      <trkpt lat="43.52126" lon="6.13221">
        <ele>285.65</ele>
        <time>2011-11-20T13:15:15Z</time>
      </trkpt>
      <trkpt lat="43.52125" lon="6.13221">
        <ele>285.65</ele>
        <time>2011-11-20T13:15:16Z</time>
      </trkpt>
      <trkpt lat="43.52113" lon="6.13227">
        <ele>284.69</ele>
        <time>2011-11-20T13:15:27Z</time>
      </trkpt>
      <trkpt lat="43.52107" lon="6.13229">
        <ele>288.05</ele>
        <time>2011-11-20T13:15:32Z</time>
      </trkpt>
      <trkpt lat="43.52106" lon="6.13229">
        <ele>288.05</ele>
        <time>2011-11-20T13:15:33Z</time>
      </trkpt>
      <trkpt lat="43.52104" lon="6.1323">
        <ele>284.69</ele>
        <time>2011-11-20T13:15:35Z</time>
      </trkpt>
      <trkpt lat="43.52102" lon="6.13231">
        <ele>279.88</ele>
        <time>2011-11-20T13:15:37Z</time>
      </trkpt>
      <trkpt lat="43.521" lon="6.13232">
        <ele>280.84</ele>
        <time>2011-11-20T13:15:38Z</time>
      </trkpt>
      <trkpt lat="43.52096" lon="6.13237">
        <ele>283.25</ele>
        <time>2011-11-20T13:15:43Z</time>
      </trkpt>
      <trkpt lat="43.52095" lon="6.13238">
        <ele>283.25</ele>
        <time>2011-11-20T13:15:44Z</time>
      </trkpt>
      <trkpt lat="43.52092" lon="6.13248">
        <ele>280.36</ele>
        <time>2011-11-20T13:15:50Z</time>
      </trkpt>
      <trkpt lat="43.5209" lon="6.13251">
        <ele>278.92</ele>
        <time>2011-11-20T13:15:52Z</time>
      </trkpt>
      <trkpt lat="43.52089" lon="6.13253">
        <ele>280.36</ele>
        <time>2011-11-20T13:15:54Z</time>
      </trkpt>
      <trkpt lat="43.52085" lon="6.13268">
        <ele>279.88</ele>
        <time>2011-11-20T13:16:04Z</time>
      </trkpt>
      <trkpt lat="43.52083" lon="6.13275">
        <ele>279.88</ele>
        <time>2011-11-20T13:16:10Z</time>
      </trkpt>
      <trkpt lat="43.5208" lon="6.1329">
        <ele>277.96</ele>
        <time>2011-11-20T13:16:21Z</time>
      </trkpt>
      <trkpt lat="43.5208" lon="6.13292">
        <ele>278.44</ele>
        <time>2011-11-20T13:16:22Z</time>
      </trkpt>
      <trkpt lat="43.52079" lon="6.13294">
        <ele>276.52</ele>
        <time>2011-11-20T13:16:24Z</time>
      </trkpt>
      <trkpt lat="43.52074" lon="6.13311">
        <ele>274.59</ele>
        <time>2011-11-20T13:16:36Z</time>
      </trkpt>
      <trkpt lat="43.52072" lon="6.13316">
        <ele>277.96</ele>
        <time>2011-11-20T13:16:40Z</time>
      </trkpt>
      <trkpt lat="43.52071" lon="6.13321">
        <ele>274.59</ele>
        <time>2011-11-20T13:16:43Z</time>
      </trkpt>
      <trkpt lat="43.5207" lon="6.13327">
        <ele>274.11</ele>
        <time>2011-11-20T13:16:47Z</time>
      </trkpt>
      <trkpt lat="43.52065" lon="6.13342">
        <ele>270.75</ele>
        <time>2011-11-20T13:16:58Z</time>
      </trkpt>
      <trkpt lat="43.5206" lon="6.13355">
        <ele>273.63</ele>
        <time>2011-11-20T13:17:08Z</time>
      </trkpt>
      <trkpt lat="43.52059" lon="6.1336">
        <ele>271.23</ele>
        <time>2011-11-20T13:17:12Z</time>
      </trkpt>
      <trkpt lat="43.52059" lon="6.13363">
        <ele>272.19</ele>
        <time>2011-11-20T13:18:26Z</time>
      </trkpt>
      <trkpt lat="43.52059" lon="6.13364">
        <ele>271.71</ele>
        <time>2011-11-20T13:18:55Z</time>
      </trkpt>
      <trkpt lat="43.52062" lon="6.13363">
        <ele>271.71</ele>
        <time>2011-11-20T13:21:34Z</time>
      </trkpt>
      <trkpt lat="43.5206" lon="6.13363">
        <ele>272.19</ele>
        <time>2011-11-20T13:22:09Z</time>
      </trkpt>
      <trkpt lat="43.5206" lon="6.13365">
        <ele>272.19</ele>
        <time>2011-11-20T13:29:28Z</time>
      </trkpt>
      <trkpt lat="43.52052" lon="6.13369">
        <ele>272.19</ele>
        <time>2011-11-20T13:30:02Z</time>
      </trkpt>
      <trkpt lat="43.52046" lon="6.13376">
        <ele>270.27</ele>
        <time>2011-11-20T13:30:10Z</time>
      </trkpt>
      <trkpt lat="43.52045" lon="6.13378">
        <ele>268.35</ele>
        <time>2011-11-20T13:30:12Z</time>
      </trkpt>
      <trkpt lat="43.52042" lon="6.13381">
        <ele>270.27</ele>
        <time>2011-11-20T13:30:15Z</time>
      </trkpt>
      <trkpt lat="43.52032" lon="6.1339">
        <ele>266.9</ele>
        <time>2011-11-20T13:30:27Z</time>
      </trkpt>
      <trkpt lat="43.52023" lon="6.13396">
        <ele>268.35</ele>
        <time>2011-11-20T13:30:36Z</time>
      </trkpt>
      <trkpt lat="43.5202" lon="6.13398">
        <ele>266.42</ele>
        <time>2011-11-20T13:30:39Z</time>
      </trkpt>
      <trkpt lat="43.52016" lon="6.13401">
        <ele>269.79</ele>
        <time>2011-11-20T13:30:43Z</time>
      </trkpt>
      <trkpt lat="43.52014" lon="6.13403">
        <ele>265.94</ele>
        <time>2011-11-20T13:30:45Z</time>
      </trkpt>
      <trkpt lat="43.52011" lon="6.13407">
        <ele>269.79</ele>
        <time>2011-11-20T13:30:49Z</time>
      </trkpt>
      <trkpt lat="43.52011" lon="6.13408">
        <ele>263.54</ele>
        <time>2011-11-20T13:30:50Z</time>
      </trkpt>
      <trkpt lat="43.52009" lon="6.1341">
        <ele>266.42</ele>
        <time>2011-11-20T13:30:53Z</time>
      </trkpt>
      <trkpt lat="43.52001" lon="6.13415">
        <ele>263.06</ele>
        <time>2011-11-20T13:31:04Z</time>
      </trkpt>
      <trkpt lat="43.51997" lon="6.13417">
        <ele>264.98</ele>
        <time>2011-11-20T13:31:10Z</time>
      </trkpt>
      <trkpt lat="43.51995" lon="6.13418">
        <ele>264.02</ele>
        <time>2011-11-20T13:31:12Z</time>
      </trkpt>
      <trkpt lat="43.51992" lon="6.13419">
        <ele>262.1</ele>
        <time>2011-11-20T13:31:15Z</time>
      </trkpt>
      <trkpt lat="43.5198" lon="6.13422">
        <ele>265.46</ele>
        <time>2011-11-20T13:31:27Z</time>
      </trkpt>
      <trkpt lat="43.5198" lon="6.13423">
        <ele>262.1</ele>
        <time>2011-11-20T13:31:28Z</time>
      </trkpt>
      <trkpt lat="43.51976" lon="6.13424">
        <ele>260.65</ele>
        <time>2011-11-20T13:31:31Z</time>
      </trkpt>
      <trkpt lat="43.51973" lon="6.13427">
        <ele>264.02</ele>
        <time>2011-11-20T13:31:34Z</time>
      </trkpt>
      <trkpt lat="43.51972" lon="6.13428">
        <ele>258.25</ele>
        <time>2011-11-20T13:31:35Z</time>
      </trkpt>
      <trkpt lat="43.51972" lon="6.13428">
        <ele>259.21</ele>
        <time>2011-11-20T13:31:36Z</time>
      </trkpt>
      <trkpt lat="43.51967" lon="6.1344">
        <ele>258.73</ele>
        <time>2011-11-20T13:31:46Z</time>
      </trkpt>
      <trkpt lat="43.51964" lon="6.13445">
        <ele>259.69</ele>
        <time>2011-11-20T13:31:51Z</time>
      </trkpt>
      <trkpt lat="43.51963" lon="6.13445">
        <ele>254.89</ele>
        <time>2011-11-20T13:31:52Z</time>
      </trkpt>
      <trkpt lat="43.51963" lon="6.13446">
        <ele>256.33</ele>
        <time>2011-11-20T13:31:53Z</time>
      </trkpt>
      <trkpt lat="43.5196" lon="6.13456">
        <ele>254.89</ele>
        <time>2011-11-20T13:32:03Z</time>
      </trkpt>
      <trkpt lat="43.51959" lon="6.1346">
        <ele>258.73</ele>
        <time>2011-11-20T13:32:06Z</time>
      </trkpt>
      <trkpt lat="43.51958" lon="6.13461">
        <ele>257.29</ele>
        <time>2011-11-20T13:32:07Z</time>
      </trkpt>
      <trkpt lat="43.51957" lon="6.13466">
        <ele>256.33</ele>
        <time>2011-11-20T13:32:10Z</time>
      </trkpt>
      <trkpt lat="43.51956" lon="6.13469">
        <ele>253.93</ele>
        <time>2011-11-20T13:32:13Z</time>
      </trkpt>
      <trkpt lat="43.51952" lon="6.1348">
        <ele>252.48</ele>
        <time>2011-11-20T13:32:21Z</time>
      </trkpt>
      <trkpt lat="43.5195" lon="6.1349">
        <ele>249.6</ele>
        <time>2011-11-20T13:32:29Z</time>
      </trkpt>
      <trkpt lat="43.51945" lon="6.13508">
        <ele>255.37</ele>
        <time>2011-11-20T13:32:41Z</time>
      </trkpt>
      <trkpt lat="43.51945" lon="6.1351">
        <ele>255.37</ele>
        <time>2011-11-20T13:32:42Z</time>
      </trkpt>
      <trkpt lat="43.51943" lon="6.13515">
        <ele>251.52</ele>
        <time>2011-11-20T13:32:45Z</time>
      </trkpt>
      <trkpt lat="43.51942" lon="6.13518">
        <ele>250.56</ele>
        <time>2011-11-20T13:32:47Z</time>
      </trkpt>
      <trkpt lat="43.51941" lon="6.13522">
        <ele>253.93</ele>
        <time>2011-11-20T13:32:51Z</time>
      </trkpt>
      <trkpt lat="43.5194" lon="6.13523">
        <ele>252.48</ele>
        <time>2011-11-20T13:32:52Z</time>
      </trkpt>
      <trkpt lat="43.51938" lon="6.13528">
        <ele>250.08</ele>
        <time>2011-11-20T13:32:55Z</time>
      </trkpt>
      <trkpt lat="43.51929" lon="6.13533">
        <ele>250.56</ele>
        <time>2011-11-20T13:33:05Z</time>
      </trkpt>
      <trkpt lat="43.5192" lon="6.13537">
        <ele>252</ele>
        <time>2011-11-20T13:33:14Z</time>
      </trkpt>
      <trkpt lat="43.51907" lon="6.13545">
        <ele>250.08</ele>
        <time>2011-11-20T13:33:26Z</time>
      </trkpt>
      <trkpt lat="43.519" lon="6.1355">
        <ele>253.93</ele>
        <time>2011-11-20T13:33:33Z</time>
      </trkpt>
      <trkpt lat="43.51897" lon="6.13553">
        <ele>252.48</ele>
        <time>2011-11-20T13:33:36Z</time>
      </trkpt>
      <trkpt lat="43.51883" lon="6.13559">
        <ele>250.56</ele>
        <time>2011-11-20T13:33:48Z</time>
      </trkpt>
      <trkpt lat="43.5188" lon="6.1356">
        <ele>255.37</ele>
        <time>2011-11-20T13:33:50Z</time>
      </trkpt>
      <trkpt lat="43.51879" lon="6.13561">
        <ele>253.93</ele>
        <time>2011-11-20T13:33:51Z</time>
      </trkpt>
      <trkpt lat="43.51873" lon="6.13563">
        <ele>250.56</ele>
        <time>2011-11-20T13:33:56Z</time>
      </trkpt>
      <trkpt lat="43.51862" lon="6.13567">
        <ele>250.08</ele>
        <time>2011-11-20T13:34:05Z</time>
      </trkpt>
      <trkpt lat="43.51858" lon="6.13571">
        <ele>249.6</ele>
        <time>2011-11-20T13:34:09Z</time>
      </trkpt>
      <trkpt lat="43.51849" lon="6.13576">
        <ele>248.16</ele>
        <time>2011-11-20T13:34:17Z</time>
      </trkpt>
      <trkpt lat="43.51847" lon="6.13577">
        <ele>247.2</ele>
        <time>2011-11-20T13:34:19Z</time>
      </trkpt>
      <trkpt lat="43.51841" lon="6.1358">
        <ele>250.08</ele>
        <time>2011-11-20T13:34:23Z</time>
      </trkpt>
      <trkpt lat="43.51835" lon="6.13581">
        <ele>245.75</ele>
        <time>2011-11-20T13:34:28Z</time>
      </trkpt>
      <trkpt lat="43.51834" lon="6.13582">
        <ele>246.23</ele>
        <time>2011-11-20T13:34:29Z</time>
      </trkpt>
      <trkpt lat="43.51828" lon="6.13585">
        <ele>248.16</ele>
        <time>2011-11-20T13:34:33Z</time>
      </trkpt>
      <trkpt lat="43.51827" lon="6.13587">
        <ele>250.08</ele>
        <time>2011-11-20T13:34:35Z</time>
      </trkpt>
      <trkpt lat="43.51819" lon="6.13593">
        <ele>246.23</ele>
        <time>2011-11-20T13:34:43Z</time>
      </trkpt>
      <trkpt lat="43.51818" lon="6.13594">
        <ele>250.56</ele>
        <time>2011-11-20T13:34:44Z</time>
      </trkpt>
      <trkpt lat="43.51818" lon="6.13594">
        <ele>250.08</ele>
        <time>2011-11-20T13:34:45Z</time>
      </trkpt>
      <trkpt lat="43.51813" lon="6.13598">
        <ele>246.23</ele>
        <time>2011-11-20T13:34:50Z</time>
      </trkpt>
      <trkpt lat="43.51813" lon="6.13599">
        <ele>246.23</ele>
        <time>2011-11-20T13:34:51Z</time>
      </trkpt>
      <trkpt lat="43.51801" lon="6.13608">
        <ele>246.72</ele>
        <time>2011-11-20T13:35:02Z</time>
      </trkpt>
      <trkpt lat="43.51799" lon="6.1361">
        <ele>242.87</ele>
        <time>2011-11-20T13:35:04Z</time>
      </trkpt>
      <trkpt lat="43.51791" lon="6.13618">
        <ele>241.43</ele>
        <time>2011-11-20T13:35:12Z</time>
      </trkpt>
      <trkpt lat="43.51786" lon="6.13627">
        <ele>242.39</ele>
        <time>2011-11-20T13:35:18Z</time>
      </trkpt>
      <trkpt lat="43.51782" lon="6.13631">
        <ele>242.39</ele>
        <time>2011-11-20T13:35:21Z</time>
      </trkpt>
      <trkpt lat="43.51773" lon="6.13653">
        <ele>241.43</ele>
        <time>2011-11-20T13:35:36Z</time>
      </trkpt>
      <trkpt lat="43.51772" lon="6.13663">
        <ele>244.79</ele>
        <time>2011-11-20T13:35:43Z</time>
      </trkpt>
      <trkpt lat="43.51771" lon="6.13664">
        <ele>244.31</ele>
        <time>2011-11-20T13:35:44Z</time>
      </trkpt>
      <trkpt lat="43.51771" lon="6.13669">
        <ele>239.99</ele>
        <time>2011-11-20T13:35:47Z</time>
      </trkpt>
      <trkpt lat="43.51769" lon="6.13682">
        <ele>237.1</ele>
        <time>2011-11-20T13:35:55Z</time>
      </trkpt>
      <trkpt lat="43.51767" lon="6.13687">
        <ele>235.66</ele>
        <time>2011-11-20T13:35:59Z</time>
      </trkpt>
      <trkpt lat="43.51766" lon="6.1369">
        <ele>239.51</ele>
        <time>2011-11-20T13:36:01Z</time>
      </trkpt>
      <trkpt lat="43.51766" lon="6.13691">
        <ele>239.51</ele>
        <time>2011-11-20T13:36:02Z</time>
      </trkpt>
      <trkpt lat="43.51764" lon="6.13701">
        <ele>242.39</ele>
        <time>2011-11-20T13:36:09Z</time>
      </trkpt>
      <trkpt lat="43.51764" lon="6.13702">
        <ele>238.06</ele>
        <time>2011-11-20T13:36:10Z</time>
      </trkpt>
      <trkpt lat="43.51763" lon="6.13705">
        <ele>235.66</ele>
        <time>2011-11-20T13:36:12Z</time>
      </trkpt>
      <trkpt lat="43.5176" lon="6.13724">
        <ele>234.22</ele>
        <time>2011-11-20T13:36:24Z</time>
      </trkpt>
      <trkpt lat="43.51757" lon="6.13739">
        <ele>235.18</ele>
        <time>2011-11-20T13:36:34Z</time>
      </trkpt>
      <trkpt lat="43.51756" lon="6.13742">
        <ele>231.81</ele>
        <time>2011-11-20T13:36:36Z</time>
      </trkpt>
      <trkpt lat="43.51756" lon="6.13748">
        <ele>235.18</ele>
        <time>2011-11-20T13:36:43Z</time>
      </trkpt>
      <trkpt lat="43.51756" lon="6.13749">
        <ele>233.74</ele>
        <time>2011-11-20T13:38:13Z</time>
      </trkpt>
      <trkpt lat="43.51755" lon="6.13758">
        <ele>234.7</ele>
        <time>2011-11-20T13:40:46Z</time>
      </trkpt>
      <trkpt lat="43.51756" lon="6.13759">
        <ele>230.37</ele>
        <time>2011-11-20T13:40:48Z</time>
      </trkpt>
      <trkpt lat="43.51756" lon="6.13761">
        <ele>232.3</ele>
        <time>2011-11-20T13:40:49Z</time>
      </trkpt>
      <trkpt lat="43.51763" lon="6.13774">
        <ele>233.26</ele>
        <time>2011-11-20T13:41:02Z</time>
      </trkpt>
      <trkpt lat="43.51764" lon="6.13775">
        <ele>233.26</ele>
        <time>2011-11-20T13:41:03Z</time>
      </trkpt>
      <trkpt lat="43.51766" lon="6.1378">
        <ele>229.89</ele>
        <time>2011-11-20T13:41:07Z</time>
      </trkpt>
      <trkpt lat="43.51767" lon="6.13782">
        <ele>233.74</ele>
        <time>2011-11-20T13:41:09Z</time>
      </trkpt>
      <trkpt lat="43.51768" lon="6.13784">
        <ele>232.78</ele>
        <time>2011-11-20T13:41:10Z</time>
      </trkpt>
      <trkpt lat="43.51769" lon="6.13786">
        <ele>228.45</ele>
        <time>2011-11-20T13:41:12Z</time>
      </trkpt>
      <trkpt lat="43.51769" lon="6.13787">
        <ele>232.3</ele>
        <time>2011-11-20T13:41:13Z</time>
      </trkpt>
      <trkpt lat="43.51769" lon="6.13788">
        <ele>231.33</ele>
        <time>2011-11-20T13:41:14Z</time>
      </trkpt>
      <trkpt lat="43.51771" lon="6.13798">
        <ele>230.37</ele>
        <time>2011-11-20T13:41:22Z</time>
      </trkpt>
      <trkpt lat="43.51772" lon="6.13799">
        <ele>233.26</ele>
        <time>2011-11-20T13:41:23Z</time>
      </trkpt>
      <trkpt lat="43.51772" lon="6.13799">
        <ele>230.37</ele>
        <time>2011-11-20T13:41:24Z</time>
      </trkpt>
      <trkpt lat="43.51772" lon="6.13802">
        <ele>227.97</ele>
        <time>2011-11-20T13:41:26Z</time>
      </trkpt>
      <trkpt lat="43.51775" lon="6.13815">
        <ele>226.53</ele>
        <time>2011-11-20T13:41:37Z</time>
      </trkpt>
      <trkpt lat="43.51775" lon="6.13817">
        <ele>231.33</ele>
        <time>2011-11-20T13:41:39Z</time>
      </trkpt>
      <trkpt lat="43.51776" lon="6.13818">
        <ele>228.45</ele>
        <time>2011-11-20T13:41:40Z</time>
      </trkpt>
      <trkpt lat="43.51776" lon="6.1382">
        <ele>225.57</ele>
        <time>2011-11-20T13:41:41Z</time>
      </trkpt>
      <trkpt lat="43.51778" lon="6.13824">
        <ele>227.01</ele>
        <time>2011-11-20T13:41:44Z</time>
      </trkpt>
      <trkpt lat="43.51779" lon="6.13835">
        <ele>226.05</ele>
        <time>2011-11-20T13:41:52Z</time>
      </trkpt>
      <trkpt lat="43.5178" lon="6.13838">
        <ele>225.09</ele>
        <time>2011-11-20T13:41:54Z</time>
      </trkpt>
      <trkpt lat="43.5178" lon="6.13844">
        <ele>221.72</ele>
        <time>2011-11-20T13:41:59Z</time>
      </trkpt>
      <trkpt lat="43.5178" lon="6.13853">
        <ele>227.01</ele>
        <time>2011-11-20T13:42:06Z</time>
      </trkpt>
      <trkpt lat="43.5178" lon="6.13854">
        <ele>226.05</ele>
        <time>2011-11-20T13:42:07Z</time>
      </trkpt>
      <trkpt lat="43.5178" lon="6.13856">
        <ele>222.2</ele>
        <time>2011-11-20T13:42:09Z</time>
      </trkpt>
      <trkpt lat="43.51781" lon="6.13856">
        <ele>223.16</ele>
        <time>2011-11-20T13:42:10Z</time>
      </trkpt>
      <trkpt lat="43.51782" lon="6.13869">
        <ele>223.16</ele>
        <time>2011-11-20T13:42:20Z</time>
      </trkpt>
      <trkpt lat="43.51782" lon="6.13872">
        <ele>223.64</ele>
        <time>2011-11-20T13:42:22Z</time>
      </trkpt>
      <trkpt lat="43.51782" lon="6.13877">
        <ele>219.32</ele>
        <time>2011-11-20T13:42:25Z</time>
      </trkpt>
      <trkpt lat="43.51782" lon="6.13879">
        <ele>219.32</ele>
        <time>2011-11-20T13:42:26Z</time>
      </trkpt>
      <trkpt lat="43.51783" lon="6.13893">
        <ele>219.32</ele>
        <time>2011-11-20T13:42:35Z</time>
      </trkpt>
      <trkpt lat="43.51784" lon="6.13906">
        <ele>217.4</ele>
        <time>2011-11-20T13:42:47Z</time>
      </trkpt>
      <trkpt lat="43.51784" lon="6.13918">
        <ele>216.43</ele>
        <time>2011-11-20T13:42:54Z</time>
      </trkpt>
      <trkpt lat="43.51785" lon="6.13925">
        <ele>212.59</ele>
        <time>2011-11-20T13:43:00Z</time>
      </trkpt>
      <trkpt lat="43.51785" lon="6.13926">
        <ele>213.07</ele>
        <time>2011-11-20T13:43:01Z</time>
      </trkpt>
      <trkpt lat="43.51785" lon="6.13927">
        <ele>211.63</ele>
        <time>2011-11-20T13:43:02Z</time>
      </trkpt>
      <trkpt lat="43.51789" lon="6.13939">
        <ele>211.63</ele>
        <time>2011-11-20T13:43:13Z</time>
      </trkpt>
      <trkpt lat="43.5179" lon="6.13943">
        <ele>214.03</ele>
        <time>2011-11-20T13:43:16Z</time>
      </trkpt>
      <trkpt lat="43.5179" lon="6.13943">
        <ele>211.15</ele>
        <time>2011-11-20T13:43:18Z</time>
      </trkpt>
      <trkpt lat="43.5179" lon="6.13944">
        <ele>211.15</ele>
        <time>2011-11-20T13:43:19Z</time>
      </trkpt>
      <trkpt lat="43.5179" lon="6.13945">
        <ele>208.26</ele>
        <time>2011-11-20T13:43:22Z</time>
      </trkpt>
      <trkpt lat="43.51791" lon="6.13947">
        <ele>211.15</ele>
        <time>2011-11-20T13:43:24Z</time>
      </trkpt>
      <trkpt lat="43.51791" lon="6.1395">
        <ele>208.26</ele>
        <time>2011-11-20T13:43:26Z</time>
      </trkpt>
      <trkpt lat="43.51791" lon="6.1395">
        <ele>208.74</ele>
        <time>2011-11-20T13:43:27Z</time>
      </trkpt>
      <trkpt lat="43.51799" lon="6.1396">
        <ele>207.3</ele>
        <time>2011-11-20T13:43:35Z</time>
      </trkpt>
      <trkpt lat="43.518" lon="6.1396">
        <ele>207.3</ele>
        <time>2011-11-20T13:43:36Z</time>
      </trkpt>
      <trkpt lat="43.51811" lon="6.13966">
        <ele>207.78</ele>
        <time>2011-11-20T13:43:46Z</time>
      </trkpt>
      <trkpt lat="43.51812" lon="6.13968">
        <ele>210.67</ele>
        <time>2011-11-20T13:43:48Z</time>
      </trkpt>
      <trkpt lat="43.51815" lon="6.1397">
        <ele>204.42</ele>
        <time>2011-11-20T13:43:50Z</time>
      </trkpt>
      <trkpt lat="43.51816" lon="6.13971">
        <ele>208.26</ele>
        <time>2011-11-20T13:43:51Z</time>
      </trkpt>
      <trkpt lat="43.51818" lon="6.13973">
        <ele>205.86</ele>
        <time>2011-11-20T13:43:54Z</time>
      </trkpt>
      <trkpt lat="43.51819" lon="6.13975">
        <ele>210.19</ele>
        <time>2011-11-20T13:43:56Z</time>
      </trkpt>
      <trkpt lat="43.51819" lon="6.13975">
        <ele>206.82</ele>
        <time>2011-11-20T13:43:57Z</time>
      </trkpt>
      <trkpt lat="43.51823" lon="6.13986">
        <ele>206.34</ele>
        <time>2011-11-20T13:44:08Z</time>
      </trkpt>
      <trkpt lat="43.51824" lon="6.13993">
        <ele>207.3</ele>
        <time>2011-11-20T13:44:12Z</time>
      </trkpt>
      <trkpt lat="43.51827" lon="6.14001">
        <ele>207.78</ele>
        <time>2011-11-20T13:44:19Z</time>
      </trkpt>
      <trkpt lat="43.51831" lon="6.14004">
        <ele>210.19</ele>
        <time>2011-11-20T13:44:24Z</time>
      </trkpt>
      <trkpt lat="43.51833" lon="6.14004">
        <ele>206.82</ele>
        <time>2011-11-20T13:44:26Z</time>
      </trkpt>
      <trkpt lat="43.51834" lon="6.14004">
        <ele>208.26</ele>
        <time>2011-11-20T13:44:27Z</time>
      </trkpt>
      <trkpt lat="43.51836" lon="6.14005">
        <ele>209.22</ele>
        <time>2011-11-20T13:44:29Z</time>
      </trkpt>
      <trkpt lat="43.5184" lon="6.14006">
        <ele>208.74</ele>
        <time>2011-11-20T13:44:33Z</time>
      </trkpt>
      <trkpt lat="43.51845" lon="6.14009">
        <ele>213.07</ele>
        <time>2011-11-20T13:44:38Z</time>
      </trkpt>
      <trkpt lat="43.51847" lon="6.14009">
        <ele>211.15</ele>
        <time>2011-11-20T13:44:39Z</time>
      </trkpt>
      <trkpt lat="43.51849" lon="6.14011">
        <ele>209.7</ele>
        <time>2011-11-20T13:44:42Z</time>
      </trkpt>
      <trkpt lat="43.5185" lon="6.14012">
        <ele>213.55</ele>
        <time>2011-11-20T13:44:43Z</time>
      </trkpt>
      <trkpt lat="43.5185" lon="6.14012">
        <ele>212.11</ele>
        <time>2011-11-20T13:44:44Z</time>
      </trkpt>
      <trkpt lat="43.51851" lon="6.14013">
        <ele>210.67</ele>
        <time>2011-11-20T13:44:45Z</time>
      </trkpt>
      <trkpt lat="43.51852" lon="6.14015">
        <ele>212.59</ele>
        <time>2011-11-20T13:44:48Z</time>
      </trkpt>
      <trkpt lat="43.51854" lon="6.14017">
        <ele>211.15</ele>
        <time>2011-11-20T13:44:50Z</time>
      </trkpt>
      <trkpt lat="43.51855" lon="6.14019">
        <ele>216.91</ele>
        <time>2011-11-20T13:44:51Z</time>
      </trkpt>
      <trkpt lat="43.51855" lon="6.1402">
        <ele>213.55</ele>
        <time>2011-11-20T13:44:52Z</time>
      </trkpt>
      <trkpt lat="43.51858" lon="6.14024">
        <ele>217.4</ele>
        <time>2011-11-20T13:44:56Z</time>
      </trkpt>
      <trkpt lat="43.51859" lon="6.14025">
        <ele>214.51</ele>
        <time>2011-11-20T13:44:57Z</time>
      </trkpt>
      <trkpt lat="43.5186" lon="6.14028">
        <ele>212.59</ele>
        <time>2011-11-20T13:44:59Z</time>
      </trkpt>
      <trkpt lat="43.51862" lon="6.14032">
        <ele>216.43</ele>
        <time>2011-11-20T13:45:02Z</time>
      </trkpt>
      <trkpt lat="43.51863" lon="6.14037">
        <ele>213.07</ele>
        <time>2011-11-20T13:45:05Z</time>
      </trkpt>
      <trkpt lat="43.51864" lon="6.1404">
        <ele>217.4</ele>
        <time>2011-11-20T13:45:07Z</time>
      </trkpt>
      <trkpt lat="43.51864" lon="6.14041">
        <ele>214.51</ele>
        <time>2011-11-20T13:45:08Z</time>
      </trkpt>
      <trkpt lat="43.51865" lon="6.14046">
        <ele>214.99</ele>
        <time>2011-11-20T13:45:12Z</time>
      </trkpt>
      <trkpt lat="43.51865" lon="6.1405">
        <ele>211.63</ele>
        <time>2011-11-20T13:45:14Z</time>
      </trkpt>
      <trkpt lat="43.51865" lon="6.14051">
        <ele>213.07</ele>
        <time>2011-11-20T13:45:15Z</time>
      </trkpt>
      <trkpt lat="43.51865" lon="6.14054">
        <ele>214.51</ele>
        <time>2011-11-20T13:45:17Z</time>
      </trkpt>
      <trkpt lat="43.51866" lon="6.14058">
        <ele>214.99</ele>
        <time>2011-11-20T13:45:21Z</time>
      </trkpt>
      <trkpt lat="43.51868" lon="6.14068">
        <ele>218.36</ele>
        <time>2011-11-20T13:45:28Z</time>
      </trkpt>
      <trkpt lat="43.5187" lon="6.14082">
        <ele>216.91</ele>
        <time>2011-11-20T13:45:39Z</time>
      </trkpt>
      <trkpt lat="43.5187" lon="6.14085">
        <ele>220.28</ele>
        <time>2011-11-20T13:45:41Z</time>
      </trkpt>
      <trkpt lat="43.51871" lon="6.14086">
        <ele>216.43</ele>
        <time>2011-11-20T13:45:42Z</time>
      </trkpt>
      <trkpt lat="43.51871" lon="6.14091">
        <ele>220.76</ele>
        <time>2011-11-20T13:45:45Z</time>
      </trkpt>
      <trkpt lat="43.51871" lon="6.14092">
        <ele>216.43</ele>
        <time>2011-11-20T13:45:46Z</time>
      </trkpt>
      <trkpt lat="43.51872" lon="6.14096">
        <ele>215.95</ele>
        <time>2011-11-20T13:45:48Z</time>
      </trkpt>
      <trkpt lat="43.51873" lon="6.14103">
        <ele>215.95</ele>
        <time>2011-11-20T13:45:53Z</time>
      </trkpt>
      <trkpt lat="43.51874" lon="6.14106">
        <ele>220.76</ele>
        <time>2011-11-20T13:45:55Z</time>
      </trkpt>
      <trkpt lat="43.51874" lon="6.14107">
        <ele>217.4</ele>
        <time>2011-11-20T13:45:56Z</time>
      </trkpt>
      <trkpt lat="43.51878" lon="6.14117">
        <ele>220.76</ele>
        <time>2011-11-20T13:46:03Z</time>
      </trkpt>
      <trkpt lat="43.51879" lon="6.14118">
        <ele>221.24</ele>
        <time>2011-11-20T13:46:04Z</time>
      </trkpt>
      <trkpt lat="43.5188" lon="6.14121">
        <ele>217.88</ele>
        <time>2011-11-20T13:46:06Z</time>
      </trkpt>
      <trkpt lat="43.51881" lon="6.14123">
        <ele>216.43</ele>
        <time>2011-11-20T13:46:08Z</time>
      </trkpt>
      <trkpt lat="43.51889" lon="6.1414">
        <ele>216.91</ele>
        <time>2011-11-20T13:46:21Z</time>
      </trkpt>
      <trkpt lat="43.51894" lon="6.14156">
        <ele>213.55</ele>
        <time>2011-11-20T13:46:32Z</time>
      </trkpt>
      <trkpt lat="43.51897" lon="6.14171">
        <ele>218.36</ele>
        <time>2011-11-20T13:46:44Z</time>
      </trkpt>
      <trkpt lat="43.51897" lon="6.14172">
        <ele>218.36</ele>
        <time>2011-11-20T13:46:45Z</time>
      </trkpt>
      <trkpt lat="43.51898" lon="6.14179">
        <ele>214.99</ele>
        <time>2011-11-20T13:46:50Z</time>
      </trkpt>
      <trkpt lat="43.51901" lon="6.14189">
        <ele>213.55</ele>
        <time>2011-11-20T13:46:58Z</time>
      </trkpt>
      <trkpt lat="43.51904" lon="6.14206">
        <ele>214.99</ele>
        <time>2011-11-20T13:47:07Z</time>
      </trkpt>
      <trkpt lat="43.51907" lon="6.1422">
        <ele>211.63</ele>
        <time>2011-11-20T13:47:16Z</time>
      </trkpt>
      <trkpt lat="43.5191" lon="6.1423">
        <ele>217.4</ele>
        <time>2011-11-20T13:47:23Z</time>
      </trkpt>
      <trkpt lat="43.51911" lon="6.14231">
        <ele>214.51</ele>
        <time>2011-11-20T13:47:24Z</time>
      </trkpt>
      <trkpt lat="43.51911" lon="6.14235">
        <ele>214.99</ele>
        <time>2011-11-20T13:47:28Z</time>
      </trkpt>
      <trkpt lat="43.51913" lon="6.1424">
        <ele>216.43</ele>
        <time>2011-11-20T13:47:32Z</time>
      </trkpt>
      <trkpt lat="43.51916" lon="6.14257">
        <ele>219.32</ele>
        <time>2011-11-20T13:47:44Z</time>
      </trkpt>
      <trkpt lat="43.51914" lon="6.14263">
        <ele>220.28</ele>
        <time>2011-11-20T13:47:49Z</time>
      </trkpt>
      <trkpt lat="43.51913" lon="6.14264">
        <ele>218.36</ele>
        <time>2011-11-20T13:47:50Z</time>
      </trkpt>
      <trkpt lat="43.51911" lon="6.14268">
        <ele>220.76</ele>
        <time>2011-11-20T13:47:53Z</time>
      </trkpt>
      <trkpt lat="43.51911" lon="6.14271">
        <ele>219.32</ele>
        <time>2011-11-20T13:47:55Z</time>
      </trkpt>
      <trkpt lat="43.51909" lon="6.14276">
        <ele>219.8</ele>
        <time>2011-11-20T13:47:59Z</time>
      </trkpt>
      <trkpt lat="43.51907" lon="6.1428">
        <ele>217.88</ele>
        <time>2011-11-20T13:48:02Z</time>
      </trkpt>
      <trkpt lat="43.51907" lon="6.14284">
        <ele>222.2</ele>
        <time>2011-11-20T13:48:05Z</time>
      </trkpt>
      <trkpt lat="43.51907" lon="6.1429">
        <ele>219.8</ele>
        <time>2011-11-20T13:48:09Z</time>
      </trkpt>
      <trkpt lat="43.51908" lon="6.14294">
        <ele>224.12</ele>
        <time>2011-11-20T13:48:13Z</time>
      </trkpt>
      <trkpt lat="43.51909" lon="6.14298">
        <ele>218.84</ele>
        <time>2011-11-20T13:48:16Z</time>
      </trkpt>
      <trkpt lat="43.51909" lon="6.14299">
        <ele>220.28</ele>
        <time>2011-11-20T13:48:17Z</time>
      </trkpt>
      <trkpt lat="43.51911" lon="6.14304">
        <ele>219.32</ele>
        <time>2011-11-20T13:48:20Z</time>
      </trkpt>
      <trkpt lat="43.51914" lon="6.1431">
        <ele>219.32</ele>
        <time>2011-11-20T13:48:24Z</time>
      </trkpt>
      <trkpt lat="43.51919" lon="6.14322">
        <ele>215.47</ele>
        <time>2011-11-20T13:48:33Z</time>
      </trkpt>
      <trkpt lat="43.51919" lon="6.14324">
        <ele>215.47</ele>
        <time>2011-11-20T13:48:34Z</time>
      </trkpt>
      <trkpt lat="43.51925" lon="6.14339">
        <ele>214.99</ele>
        <time>2011-11-20T13:48:45Z</time>
      </trkpt>
      <trkpt lat="43.51927" lon="6.14345">
        <ele>214.51</ele>
        <time>2011-11-20T13:48:50Z</time>
      </trkpt>
      <trkpt lat="43.51931" lon="6.14351">
        <ele>212.11</ele>
        <time>2011-11-20T13:48:55Z</time>
      </trkpt>
      <trkpt lat="43.51941" lon="6.1436">
        <ele>207.78</ele>
        <time>2011-11-20T13:49:05Z</time>
      </trkpt>
      <trkpt lat="43.51942" lon="6.14365">
        <ele>213.07</ele>
        <time>2011-11-20T13:49:08Z</time>
      </trkpt>
      <trkpt lat="43.5194" lon="6.14383">
        <ele>214.99</ele>
        <time>2011-11-20T13:49:21Z</time>
      </trkpt>
      <trkpt lat="43.51939" lon="6.14384">
        <ele>211.15</ele>
        <time>2011-11-20T13:49:22Z</time>
      </trkpt>
      <trkpt lat="43.51935" lon="6.14395">
        <ele>212.59</ele>
        <time>2011-11-20T13:49:34Z</time>
      </trkpt>
      <trkpt lat="43.51932" lon="6.14399">
        <ele>215.95</ele>
        <time>2011-11-20T13:49:40Z</time>
      </trkpt>
      <trkpt lat="43.51931" lon="6.14402">
        <ele>214.03</ele>
        <time>2011-11-20T13:49:43Z</time>
      </trkpt>
      <trkpt lat="43.51929" lon="6.14408">
        <ele>214.99</ele>
        <time>2011-11-20T13:49:48Z</time>
      </trkpt>
      <trkpt lat="43.51927" lon="6.14412">
        <ele>216.43</ele>
        <time>2011-11-20T13:49:52Z</time>
      </trkpt>
      <trkpt lat="43.51919" lon="6.14426">
        <ele>217.4</ele>
        <time>2011-11-20T13:50:05Z</time>
      </trkpt>
      <trkpt lat="43.51913" lon="6.14436">
        <ele>218.84</ele>
        <time>2011-11-20T13:50:16Z</time>
      </trkpt>
      <trkpt lat="43.51905" lon="6.14443">
        <ele>222.2</ele>
        <time>2011-11-20T13:50:28Z</time>
      </trkpt>
      <trkpt lat="43.51904" lon="6.14443">
        <ele>221.24</ele>
        <time>2011-11-20T13:50:29Z</time>
      </trkpt>
      <trkpt lat="43.51894" lon="6.1445">
        <ele>222.2</ele>
        <time>2011-11-20T13:50:40Z</time>
      </trkpt>
      <trkpt lat="43.51887" lon="6.14455">
        <ele>224.61</ele>
        <time>2011-11-20T13:50:51Z</time>
      </trkpt>
      <trkpt lat="43.51879" lon="6.14463">
        <ele>225.57</ele>
        <time>2011-11-20T13:51:04Z</time>
      </trkpt>
      <trkpt lat="43.51876" lon="6.14467">
        <ele>227.01</ele>
        <time>2011-11-20T13:51:15Z</time>
      </trkpt>
      <trkpt lat="43.51876" lon="6.14467">
        <ele>230.37</ele>
        <time>2011-11-20T13:51:26Z</time>
      </trkpt>
      <trkpt lat="43.51875" lon="6.1447">
        <ele>231.81</ele>
        <time>2011-11-20T13:51:41Z</time>
      </trkpt>
      <trkpt lat="43.51874" lon="6.14472">
        <ele>231.33</ele>
        <time>2011-11-20T13:51:43Z</time>
      </trkpt>
      <trkpt lat="43.51873" lon="6.14481">
        <ele>233.74</ele>
        <time>2011-11-20T13:51:56Z</time>
      </trkpt>
      <trkpt lat="43.51865" lon="6.14499">
        <ele>235.66</ele>
        <time>2011-11-20T13:52:08Z</time>
      </trkpt>
      <trkpt lat="43.51857" lon="6.14528">
        <ele>236.14</ele>
        <time>2011-11-20T13:52:25Z</time>
      </trkpt>
      <trkpt lat="43.51856" lon="6.1453">
        <ele>236.62</ele>
        <time>2011-11-20T13:52:27Z</time>
      </trkpt>
      <trkpt lat="43.51854" lon="6.14536">
        <ele>237.1</ele>
        <time>2011-11-20T13:52:31Z</time>
      </trkpt>
      <trkpt lat="43.51854" lon="6.14542">
        <ele>238.54</ele>
        <time>2011-11-20T13:52:34Z</time>
      </trkpt>
      <trkpt lat="43.51852" lon="6.14559">
        <ele>238.54</ele>
        <time>2011-11-20T13:52:44Z</time>
      </trkpt>
      <trkpt lat="43.51855" lon="6.14572">
        <ele>239.99</ele>
        <time>2011-11-20T13:52:55Z</time>
      </trkpt>
      <trkpt lat="43.5186" lon="6.14573">
        <ele>241.91</ele>
        <time>2011-11-20T13:53:07Z</time>
      </trkpt>
      <trkpt lat="43.51868" lon="6.14573">
        <ele>243.83</ele>
        <time>2011-11-20T13:53:16Z</time>
      </trkpt>
      <trkpt lat="43.51874" lon="6.14576">
        <ele>244.79</ele>
        <time>2011-11-20T13:53:26Z</time>
      </trkpt>
      <trkpt lat="43.51885" lon="6.14581">
        <ele>246.23</ele>
        <time>2011-11-20T13:53:39Z</time>
      </trkpt>
      <trkpt lat="43.51889" lon="6.14585">
        <ele>246.23</ele>
        <time>2011-11-20T13:53:55Z</time>
      </trkpt>
      <trkpt lat="43.51893" lon="6.14592">
        <ele>248.16</ele>
        <time>2011-11-20T13:54:06Z</time>
      </trkpt>
      <trkpt lat="43.51896" lon="6.14592">
        <ele>249.6</ele>
        <time>2011-11-20T13:54:10Z</time>
      </trkpt>
      <trkpt lat="43.51899" lon="6.14595">
        <ele>250.08</ele>
        <time>2011-11-20T13:54:20Z</time>
      </trkpt>
      <trkpt lat="43.51908" lon="6.14602">
        <ele>253.44</ele>
        <time>2011-11-20T13:54:33Z</time>
      </trkpt>
      <trkpt lat="43.51917" lon="6.14608">
        <ele>254.41</ele>
        <time>2011-11-20T13:54:47Z</time>
      </trkpt>
      <trkpt lat="43.51923" lon="6.14613">
        <ele>254.89</ele>
        <time>2011-11-20T13:54:54Z</time>
      </trkpt>
      <trkpt lat="43.51932" lon="6.14616">
        <ele>256.81</ele>
        <time>2011-11-20T13:55:06Z</time>
      </trkpt>
      <trkpt lat="43.51933" lon="6.14617">
        <ele>259.21</ele>
        <time>2011-11-20T13:55:10Z</time>
      </trkpt>
      <trkpt lat="43.51938" lon="6.14622">
        <ele>258.73</ele>
        <time>2011-11-20T13:55:22Z</time>
      </trkpt>
      <trkpt lat="43.51945" lon="6.14628">
        <ele>260.65</ele>
        <time>2011-11-20T13:55:31Z</time>
      </trkpt>
      <trkpt lat="43.5195" lon="6.14629">
        <ele>260.65</ele>
        <time>2011-11-20T13:55:36Z</time>
      </trkpt>
      <trkpt lat="43.51951" lon="6.14629">
        <ele>260.17</ele>
        <time>2011-11-20T13:55:39Z</time>
      </trkpt>
      <trkpt lat="43.51959" lon="6.14632">
        <ele>263.06</ele>
        <time>2011-11-20T13:55:51Z</time>
      </trkpt>
      <trkpt lat="43.51962" lon="6.14635">
        <ele>262.58</ele>
        <time>2011-11-20T13:55:53Z</time>
      </trkpt>
      <trkpt lat="43.5197" lon="6.14647">
        <ele>264.5</ele>
        <time>2011-11-20T13:56:07Z</time>
      </trkpt>
      <trkpt lat="43.51973" lon="6.14663">
        <ele>265.94</ele>
        <time>2011-11-20T13:56:21Z</time>
      </trkpt>
      <trkpt lat="43.51974" lon="6.14664">
        <ele>264.98</ele>
        <time>2011-11-20T13:56:23Z</time>
      </trkpt>
      <trkpt lat="43.51978" lon="6.14672">
        <ele>265.94</ele>
        <time>2011-11-20T13:56:29Z</time>
      </trkpt>
      <trkpt lat="43.51988" lon="6.14685">
        <ele>266.42</ele>
        <time>2011-11-20T13:56:43Z</time>
      </trkpt>
      <trkpt lat="43.5199" lon="6.14683">
        <ele>267.86</ele>
        <time>2011-11-20T13:56:51Z</time>
      </trkpt>
      <trkpt lat="43.5199" lon="6.14681">
        <ele>268.83</ele>
        <time>2011-11-20T13:56:55Z</time>
      </trkpt>
      <trkpt lat="43.51998" lon="6.14671">
        <ele>271.71</ele>
        <time>2011-11-20T13:57:09Z</time>
      </trkpt>
      <trkpt lat="43.51998" lon="6.14671">
        <ele>271.23</ele>
        <time>2011-11-20T13:57:10Z</time>
      </trkpt>
      <trkpt lat="43.52002" lon="6.14667">
        <ele>271.23</ele>
        <time>2011-11-20T13:57:13Z</time>
      </trkpt>
      <trkpt lat="43.52014" lon="6.14673">
        <ele>273.15</ele>
        <time>2011-11-20T13:57:25Z</time>
      </trkpt>
      <trkpt lat="43.52022" lon="6.14677">
        <ele>274.11</ele>
        <time>2011-11-20T13:57:37Z</time>
      </trkpt>
      <trkpt lat="43.52029" lon="6.14691">
        <ele>270.75</ele>
        <time>2011-11-20T13:57:48Z</time>
      </trkpt>
      <trkpt lat="43.5203" lon="6.14692">
        <ele>271.71</ele>
        <time>2011-11-20T13:57:49Z</time>
      </trkpt>
      <trkpt lat="43.52031" lon="6.14696">
        <ele>270.75</ele>
        <time>2011-11-20T13:57:52Z</time>
      </trkpt>
      <trkpt lat="43.52041" lon="6.14696">
        <ele>273.15</ele>
        <time>2011-11-20T13:58:04Z</time>
      </trkpt>
      <trkpt lat="43.52041" lon="6.14696">
        <ele>272.19</ele>
        <time>2011-11-20T13:58:08Z</time>
      </trkpt>
      <trkpt lat="43.52044" lon="6.14699">
        <ele>272.19</ele>
        <time>2011-11-20T13:58:32Z</time>
      </trkpt>
      <trkpt lat="43.52042" lon="6.14699">
        <ele>273.15</ele>
        <time>2011-11-20T13:58:54Z</time>
      </trkpt>
      <trkpt lat="43.52043" lon="6.14698">
        <ele>272.67</ele>
        <time>2011-11-20T13:59:10Z</time>
      </trkpt>
      <trkpt lat="43.52045" lon="6.14698">
        <ele>273.15</ele>
        <time>2011-11-20T13:59:25Z</time>
      </trkpt>
      <trkpt lat="43.52045" lon="6.14698">
        <ele>273.15</ele>
        <time>2011-11-20T13:59:56Z</time>
      </trkpt>
      <trkpt lat="43.52045" lon="6.14699">
        <ele>271.71</ele>
        <time>2011-11-20T14:00:31Z</time>
      </trkpt>
      <trkpt lat="43.52042" lon="6.14705">
        <ele>272.19</ele>
        <time>2011-11-20T14:00:44Z</time>
      </trkpt>
      <trkpt lat="43.52042" lon="6.14705">
        <ele>272.67</ele>
        <time>2011-11-20T14:01:12Z</time>
      </trkpt>
      <trkpt lat="43.52043" lon="6.14702">
        <ele>272.19</ele>
        <time>2011-11-20T14:01:58Z</time>
      </trkpt>
      <trkpt lat="43.52043" lon="6.14702">
        <ele>271.71</ele>
        <time>2011-11-20T14:02:21Z</time>
      </trkpt>
      <trkpt lat="43.52047" lon="6.14706">
        <ele>269.79</ele>
        <time>2011-11-20T14:02:29Z</time>
      </trkpt>
      <trkpt lat="43.52051" lon="6.14712">
        <ele>267.38</ele>
        <time>2011-11-20T14:02:42Z</time>
      </trkpt>
      <trkpt lat="43.52058" lon="6.1472">
        <ele>267.38</ele>
        <time>2011-11-20T14:02:48Z</time>
      </trkpt>
      <trkpt lat="43.52059" lon="6.14725">
        <ele>263.06</ele>
        <time>2011-11-20T14:02:57Z</time>
      </trkpt>
      <trkpt lat="43.52057" lon="6.14727">
        <ele>264.98</ele>
        <time>2011-11-20T14:02:58Z</time>
      </trkpt>
      <trkpt lat="43.52053" lon="6.14731">
        <ele>263.06</ele>
        <time>2011-11-20T14:03:02Z</time>
      </trkpt>
      <trkpt lat="43.52048" lon="6.14732">
        <ele>264.5</ele>
        <time>2011-11-20T14:03:05Z</time>
      </trkpt>
      <trkpt lat="43.52037" lon="6.14734">
        <ele>263.06</ele>
        <time>2011-11-20T14:03:14Z</time>
      </trkpt>
      <trkpt lat="43.52029" lon="6.14732">
        <ele>260.17</ele>
        <time>2011-11-20T14:03:25Z</time>
      </trkpt>
      <trkpt lat="43.52033" lon="6.1474">
        <ele>263.54</ele>
        <time>2011-11-20T14:03:33Z</time>
      </trkpt>
      <trkpt lat="43.52035" lon="6.14743">
        <ele>260.17</ele>
        <time>2011-11-20T14:03:36Z</time>
      </trkpt>
      <trkpt lat="43.52044" lon="6.14747">
        <ele>259.69</ele>
        <time>2011-11-20T14:03:46Z</time>
      </trkpt>
      <trkpt lat="43.52048" lon="6.14747">
        <ele>261.14</ele>
        <time>2011-11-20T14:03:49Z</time>
      </trkpt>
      <trkpt lat="43.52049" lon="6.14747">
        <ele>258.25</ele>
        <time>2011-11-20T14:03:51Z</time>
      </trkpt>
      <trkpt lat="43.52049" lon="6.14747">
        <ele>259.69</ele>
        <time>2011-11-20T14:03:52Z</time>
      </trkpt>
      <trkpt lat="43.52056" lon="6.14746">
        <ele>258.25</ele>
        <time>2011-11-20T14:04:01Z</time>
      </trkpt>
      <trkpt lat="43.52061" lon="6.14746">
        <ele>256.33</ele>
        <time>2011-11-20T14:04:12Z</time>
      </trkpt>
      <trkpt lat="43.52063" lon="6.14746">
        <ele>255.37</ele>
        <time>2011-11-20T14:04:13Z</time>
      </trkpt>
      <trkpt lat="43.52066" lon="6.14746">
        <ele>256.81</ele>
        <time>2011-11-20T14:04:22Z</time>
      </trkpt>
      <trkpt lat="43.52071" lon="6.14744">
        <ele>254.41</ele>
        <time>2011-11-20T14:04:27Z</time>
      </trkpt>
      <trkpt lat="43.52078" lon="6.14743">
        <ele>253.93</ele>
        <time>2011-11-20T14:04:41Z</time>
      </trkpt>
      <trkpt lat="43.52078" lon="6.14743">
        <ele>250.08</ele>
        <time>2011-11-20T14:04:44Z</time>
      </trkpt>
      <trkpt lat="43.52089" lon="6.14741">
        <ele>251.04</ele>
        <time>2011-11-20T14:04:52Z</time>
      </trkpt>
      <trkpt lat="43.52113" lon="6.14738">
        <ele>247.2</ele>
        <time>2011-11-20T14:05:04Z</time>
      </trkpt>
      <trkpt lat="43.52118" lon="6.14738">
        <ele>245.75</ele>
        <time>2011-11-20T14:05:10Z</time>
      </trkpt>
      <trkpt lat="43.52125" lon="6.14737">
        <ele>244.31</ele>
        <time>2011-11-20T14:05:16Z</time>
      </trkpt>
      <trkpt lat="43.5213" lon="6.14734">
        <ele>243.83</ele>
        <time>2011-11-20T14:05:22Z</time>
      </trkpt>
      <trkpt lat="43.52134" lon="6.14732">
        <ele>243.83</ele>
        <time>2011-11-20T14:05:31Z</time>
      </trkpt>
      <trkpt lat="43.52135" lon="6.14731">
        <ele>242.39</ele>
        <time>2011-11-20T14:05:36Z</time>
      </trkpt>
      <trkpt lat="43.52143" lon="6.14727">
        <ele>240.95</ele>
        <time>2011-11-20T14:05:54Z</time>
      </trkpt>
      <trkpt lat="43.52154" lon="6.14723">
        <ele>237.58</ele>
        <time>2011-11-20T14:05:59Z</time>
      </trkpt>
      <trkpt lat="43.52158" lon="6.14722">
        <ele>240.95</ele>
        <time>2011-11-20T14:06:01Z</time>
      </trkpt>
      <trkpt lat="43.52164" lon="6.14721">
        <ele>237.58</ele>
        <time>2011-11-20T14:06:04Z</time>
      </trkpt>
      <trkpt lat="43.52174" lon="6.1472">
        <ele>238.54</ele>
        <time>2011-11-20T14:06:09Z</time>
      </trkpt>
      <trkpt lat="43.52176" lon="6.14719">
        <ele>238.06</ele>
        <time>2011-11-20T14:06:11Z</time>
      </trkpt>
      <trkpt lat="43.52182" lon="6.14718">
        <ele>236.14</ele>
        <time>2011-11-20T14:06:14Z</time>
      </trkpt>
      <trkpt lat="43.52192" lon="6.14712">
        <ele>236.14</ele>
        <time>2011-11-20T14:06:22Z</time>
      </trkpt>
      <trkpt lat="43.522" lon="6.14711">
        <ele>235.66</ele>
        <time>2011-11-20T14:06:28Z</time>
      </trkpt>
      <trkpt lat="43.52201" lon="6.14709">
        <ele>238.54</ele>
        <time>2011-11-20T14:06:30Z</time>
      </trkpt>
      <trkpt lat="43.52202" lon="6.14709">
        <ele>234.7</ele>
        <time>2011-11-20T14:06:35Z</time>
      </trkpt>
      <trkpt lat="43.52217" lon="6.14708">
        <ele>232.3</ele>
        <time>2011-11-20T14:06:49Z</time>
      </trkpt>
      <trkpt lat="43.52223" lon="6.1471">
        <ele>235.66</ele>
        <time>2011-11-20T14:06:54Z</time>
      </trkpt>
      <trkpt lat="43.52224" lon="6.1471">
        <ele>235.66</ele>
        <time>2011-11-20T14:06:55Z</time>
      </trkpt>
      <trkpt lat="43.52226" lon="6.14712">
        <ele>232.3</ele>
        <time>2011-11-20T14:06:57Z</time>
      </trkpt>
      <trkpt lat="43.52227" lon="6.14712">
        <ele>232.3</ele>
        <time>2011-11-20T14:06:58Z</time>
      </trkpt>
      <trkpt lat="43.52231" lon="6.14714">
        <ele>232.3</ele>
        <time>2011-11-20T14:07:04Z</time>
      </trkpt>
      <trkpt lat="43.52241" lon="6.14718">
        <ele>231.33</ele>
        <time>2011-11-20T14:07:15Z</time>
      </trkpt>
      <trkpt lat="43.52247" lon="6.14722">
        <ele>229.41</ele>
        <time>2011-11-20T14:07:25Z</time>
      </trkpt>
      <trkpt lat="43.5225" lon="6.14722">
        <ele>229.41</ele>
        <time>2011-11-20T14:07:29Z</time>
      </trkpt>
      <trkpt lat="43.52256" lon="6.14721">
        <ele>227.49</ele>
        <time>2011-11-20T14:07:38Z</time>
      </trkpt>
      <trkpt lat="43.52259" lon="6.1472">
        <ele>227.97</ele>
        <time>2011-11-20T14:07:40Z</time>
      </trkpt>
      <trkpt lat="43.52261" lon="6.1472">
        <ele>225.57</ele>
        <time>2011-11-20T14:07:44Z</time>
      </trkpt>
      <trkpt lat="43.52268" lon="6.14717">
        <ele>226.53</ele>
        <time>2011-11-20T14:07:52Z</time>
      </trkpt>
      <trkpt lat="43.52272" lon="6.14715">
        <ele>226.05</ele>
        <time>2011-11-20T14:07:56Z</time>
      </trkpt>
      <trkpt lat="43.52275" lon="6.14714">
        <ele>224.61</ele>
        <time>2011-11-20T14:08:02Z</time>
      </trkpt>
      <trkpt lat="43.52278" lon="6.14711">
        <ele>224.61</ele>
        <time>2011-11-20T14:08:09Z</time>
      </trkpt>
      <trkpt lat="43.52283" lon="6.14711">
        <ele>222.68</ele>
        <time>2011-11-20T14:08:16Z</time>
      </trkpt>
      <trkpt lat="43.52294" lon="6.14703">
        <ele>223.64</ele>
        <time>2011-11-20T14:08:33Z</time>
      </trkpt>
      <trkpt lat="43.52296" lon="6.14703">
        <ele>219.32</ele>
        <time>2011-11-20T14:08:36Z</time>
      </trkpt>
      <trkpt lat="43.52296" lon="6.14703">
        <ele>220.76</ele>
        <time>2011-11-20T14:08:40Z</time>
      </trkpt>
      <trkpt lat="43.52296" lon="6.14703">
        <ele>219.8</ele>
        <time>2011-11-20T14:08:42Z</time>
      </trkpt>
      <trkpt lat="43.523" lon="6.14699">
        <ele>219.32</ele>
        <time>2011-11-20T14:08:49Z</time>
      </trkpt>
      <trkpt lat="43.523" lon="6.14699">
        <ele>221.24</ele>
        <time>2011-11-20T14:08:51Z</time>
      </trkpt>
      <trkpt lat="43.52303" lon="6.14698">
        <ele>218.84</ele>
        <time>2011-11-20T14:08:53Z</time>
      </trkpt>
      <trkpt lat="43.52304" lon="6.14697">
        <ele>216.91</ele>
        <time>2011-11-20T14:08:59Z</time>
      </trkpt>
      <trkpt lat="43.52319" lon="6.1469">
        <ele>215.47</ele>
        <time>2011-11-20T14:09:21Z</time>
      </trkpt>
      <trkpt lat="43.52328" lon="6.14686">
        <ele>213.55</ele>
        <time>2011-11-20T14:09:33Z</time>
      </trkpt>
      <trkpt lat="43.52343" lon="6.14693">
        <ele>213.07</ele>
        <time>2011-11-20T14:09:41Z</time>
      </trkpt>
      <trkpt lat="43.52344" lon="6.14697">
        <ele>210.19</ele>
        <time>2011-11-20T14:09:50Z</time>
      </trkpt>
      <trkpt lat="43.52352" lon="6.14705">
        <ele>208.26</ele>
        <time>2011-11-20T14:10:03Z</time>
      </trkpt>
      <trkpt lat="43.52354" lon="6.14707">
        <ele>206.34</ele>
        <time>2011-11-20T14:10:05Z</time>
      </trkpt>
      <trkpt lat="43.52355" lon="6.14708">
        <ele>207.3</ele>
        <time>2011-11-20T14:10:09Z</time>
      </trkpt>
      <trkpt lat="43.52359" lon="6.14711">
        <ele>205.86</ele>
        <time>2011-11-20T14:10:12Z</time>
      </trkpt>
      <trkpt lat="43.52361" lon="6.14713">
        <ele>204.42</ele>
        <time>2011-11-20T14:10:15Z</time>
      </trkpt>
      <trkpt lat="43.52364" lon="6.14717">
        <ele>199.61</ele>
        <time>2011-11-20T14:10:29Z</time>
      </trkpt>
      <trkpt lat="43.52369" lon="6.14723">
        <ele>202.98</ele>
        <time>2011-11-20T14:10:34Z</time>
      </trkpt>
      <trkpt lat="43.52371" lon="6.14725">
        <ele>201.53</ele>
        <time>2011-11-20T14:10:36Z</time>
      </trkpt>
      <trkpt lat="43.52371" lon="6.14727">
        <ele>201.05</ele>
        <time>2011-11-20T14:10:41Z</time>
      </trkpt>
      <trkpt lat="43.52374" lon="6.1473">
        <ele>199.61</ele>
        <time>2011-11-20T14:10:46Z</time>
      </trkpt>
      <trkpt lat="43.52382" lon="6.14742">
        <ele>194.32</ele>
        <time>2011-11-20T14:10:56Z</time>
      </trkpt>
      <trkpt lat="43.52391" lon="6.14754">
        <ele>195.28</ele>
        <time>2011-11-20T14:11:09Z</time>
      </trkpt>
      <trkpt lat="43.52392" lon="6.14755">
        <ele>196.73</ele>
        <time>2011-11-20T14:11:11Z</time>
      </trkpt>
      <trkpt lat="43.52393" lon="6.14759">
        <ele>194.32</ele>
        <time>2011-11-20T14:11:14Z</time>
      </trkpt>
      <trkpt lat="43.52402" lon="6.14767">
        <ele>191.44</ele>
        <time>2011-11-20T14:11:22Z</time>
      </trkpt>
      <trkpt lat="43.52405" lon="6.14773">
        <ele>192.88</ele>
        <time>2011-11-20T14:11:27Z</time>
      </trkpt>
      <trkpt lat="43.52406" lon="6.14776">
        <ele>190.96</ele>
        <time>2011-11-20T14:11:30Z</time>
      </trkpt>
      <trkpt lat="43.52409" lon="6.14785">
        <ele>188.56</ele>
        <time>2011-11-20T14:11:38Z</time>
      </trkpt>
      <trkpt lat="43.52412" lon="6.14793">
        <ele>186.63</ele>
        <time>2011-11-20T14:11:44Z</time>
      </trkpt>
      <trkpt lat="43.52415" lon="6.14797">
        <ele>186.15</ele>
        <time>2011-11-20T14:11:48Z</time>
      </trkpt>
      <trkpt lat="43.5242" lon="6.14812">
        <ele>184.71</ele>
        <time>2011-11-20T14:11:59Z</time>
      </trkpt>
      <trkpt lat="43.52425" lon="6.14829">
        <ele>182.79</ele>
        <time>2011-11-20T14:12:11Z</time>
      </trkpt>
      <trkpt lat="43.52431" lon="6.14847">
        <ele>180.38</ele>
        <time>2011-11-20T14:12:24Z</time>
      </trkpt>
      <trkpt lat="43.52432" lon="6.14853">
        <ele>179.42</ele>
        <time>2011-11-20T14:12:28Z</time>
      </trkpt>
      <trkpt lat="43.52436" lon="6.1486">
        <ele>178.46</ele>
        <time>2011-11-20T14:12:33Z</time>
      </trkpt>
      <trkpt lat="43.52439" lon="6.14876">
        <ele>178.46</ele>
        <time>2011-11-20T14:12:47Z</time>
      </trkpt>
      <trkpt lat="43.52441" lon="6.14886">
        <ele>175.1</ele>
        <time>2011-11-20T14:13:02Z</time>
      </trkpt>
      <trkpt lat="43.5244" lon="6.14903">
        <ele>175.58</ele>
        <time>2011-11-20T14:13:14Z</time>
      </trkpt>
      <trkpt lat="43.52441" lon="6.14909">
        <ele>174.14</ele>
        <time>2011-11-20T14:13:19Z</time>
      </trkpt>
      <trkpt lat="43.52444" lon="6.14925">
        <ele>172.69</ele>
        <time>2011-11-20T14:13:30Z</time>
      </trkpt>
      <trkpt lat="43.52458" lon="6.14936">
        <ele>173.17</ele>
        <time>2011-11-20T14:13:44Z</time>
      </trkpt>
      <trkpt lat="43.52464" lon="6.14935">
        <ele>171.73</ele>
        <time>2011-11-20T14:13:50Z</time>
      </trkpt>
      <trkpt lat="43.52469" lon="6.14936">
        <ele>175.58</ele>
        <time>2011-11-20T14:13:55Z</time>
      </trkpt>
      <trkpt lat="43.52471" lon="6.14936">
        <ele>175.1</ele>
        <time>2011-11-20T14:13:56Z</time>
      </trkpt>
      <trkpt lat="43.52474" lon="6.14934">
        <ele>171.25</ele>
        <time>2011-11-20T14:13:59Z</time>
      </trkpt>
      <trkpt lat="43.52475" lon="6.14934">
        <ele>171.73</ele>
        <time>2011-11-20T14:14:00Z</time>
      </trkpt>
      <trkpt lat="43.52488" lon="6.14929">
        <ele>171.73</ele>
        <time>2011-11-20T14:14:14Z</time>
      </trkpt>
      <trkpt lat="43.52502" lon="6.1493">
        <ele>171.25</ele>
        <time>2011-11-20T14:14:27Z</time>
      </trkpt>
      <trkpt lat="43.52512" lon="6.14927">
        <ele>168.85</ele>
        <time>2011-11-20T14:14:40Z</time>
      </trkpt>
      <trkpt lat="43.52514" lon="6.14925">
        <ele>168.37</ele>
        <time>2011-11-20T14:14:44Z</time>
      </trkpt>
      <trkpt lat="43.5252" lon="6.14921">
        <ele>165.96</ele>
        <time>2011-11-20T14:14:53Z</time>
      </trkpt>
      <trkpt lat="43.52524" lon="6.14921">
        <ele>166.45</ele>
        <time>2011-11-20T14:14:57Z</time>
      </trkpt>
      <trkpt lat="43.52532" lon="6.14919">
        <ele>163.56</ele>
        <time>2011-11-20T14:15:05Z</time>
      </trkpt>
      <trkpt lat="43.52533" lon="6.14919">
        <ele>164.04</ele>
        <time>2011-11-20T14:15:06Z</time>
      </trkpt>
      <trkpt lat="43.52545" lon="6.1491">
        <ele>163.08</ele>
        <time>2011-11-20T14:15:20Z</time>
      </trkpt>
      <trkpt lat="43.52552" lon="6.14905">
        <ele>161.64</ele>
        <time>2011-11-20T14:15:29Z</time>
      </trkpt>
      <trkpt lat="43.52558" lon="6.14899">
        <ele>161.16</ele>
        <time>2011-11-20T14:15:38Z</time>
      </trkpt>
      <trkpt lat="43.52566" lon="6.14896">
        <ele>162.6</ele>
        <time>2011-11-20T14:15:51Z</time>
      </trkpt>
      <trkpt lat="43.52575" lon="6.14896">
        <ele>160.68</ele>
        <time>2011-11-20T14:16:05Z</time>
      </trkpt>
      <trkpt lat="43.52585" lon="6.14896">
        <ele>161.16</ele>
        <time>2011-11-20T14:16:15Z</time>
      </trkpt>
      <trkpt lat="43.52592" lon="6.14896">
        <ele>164.52</ele>
        <time>2011-11-20T14:16:22Z</time>
      </trkpt>
      <trkpt lat="43.52593" lon="6.14897">
        <ele>164.04</ele>
        <time>2011-11-20T14:16:23Z</time>
      </trkpt>
      <trkpt lat="43.52594" lon="6.14898">
        <ele>161.16</ele>
        <time>2011-11-20T14:16:24Z</time>
      </trkpt>
      <trkpt lat="43.52598" lon="6.14901">
        <ele>161.16</ele>
        <time>2011-11-20T14:16:28Z</time>
      </trkpt>
      <trkpt lat="43.5261" lon="6.14915">
        <ele>162.6</ele>
        <time>2011-11-20T14:16:42Z</time>
      </trkpt>
      <trkpt lat="43.52611" lon="6.14917">
        <ele>161.64</ele>
        <time>2011-11-20T14:16:44Z</time>
      </trkpt>
      <trkpt lat="43.52615" lon="6.1492">
        <ele>165.48</ele>
        <time>2011-11-20T14:16:47Z</time>
      </trkpt>
      <trkpt lat="43.52616" lon="6.1492">
        <ele>162.6</ele>
        <time>2011-11-20T14:16:48Z</time>
      </trkpt>
      <trkpt lat="43.52617" lon="6.14921">
        <ele>162.12</ele>
        <time>2011-11-20T14:16:50Z</time>
      </trkpt>
      <trkpt lat="43.52619" lon="6.14922">
        <ele>163.56</ele>
        <time>2011-11-20T14:16:52Z</time>
      </trkpt>
      <trkpt lat="43.5262" lon="6.14924">
        <ele>166.45</ele>
        <time>2011-11-20T14:16:54Z</time>
      </trkpt>
      <trkpt lat="43.52622" lon="6.14926">
        <ele>163.08</ele>
        <time>2011-11-20T14:16:56Z</time>
      </trkpt>
      <trkpt lat="43.52623" lon="6.14928">
        <ele>164.04</ele>
        <time>2011-11-20T14:16:57Z</time>
      </trkpt>
      <trkpt lat="43.52628" lon="6.14937">
        <ele>164.04</ele>
        <time>2011-11-20T14:17:05Z</time>
      </trkpt>
      <trkpt lat="43.5263" lon="6.14941">
        <ele>164.52</ele>
        <time>2011-11-20T14:17:08Z</time>
      </trkpt>
      <trkpt lat="43.52635" lon="6.14947">
        <ele>165.96</ele>
        <time>2011-11-20T14:17:14Z</time>
      </trkpt>
      <trkpt lat="43.5265" lon="6.14946">
        <ele>165.96</ele>
        <time>2011-11-20T14:17:30Z</time>
      </trkpt>
      <trkpt lat="43.5265" lon="6.14946">
        <ele>168.37</ele>
        <time>2011-11-20T14:17:38Z</time>
      </trkpt>
      <trkpt lat="43.52652" lon="6.14946">
        <ele>166.45</ele>
        <time>2011-11-20T14:17:41Z</time>
      </trkpt>
      <trkpt lat="43.52654" lon="6.14944">
        <ele>167.41</ele>
        <time>2011-11-20T14:17:48Z</time>
      </trkpt>
      <trkpt lat="43.52657" lon="6.14944">
        <ele>169.81</ele>
        <time>2011-11-20T14:18:15Z</time>
      </trkpt>
      <trkpt lat="43.52659" lon="6.14938">
        <ele>170.77</ele>
        <time>2011-11-20T14:18:36Z</time>
      </trkpt>
      <trkpt lat="43.52661" lon="6.14936">
        <ele>170.77</ele>
        <time>2011-11-20T14:19:08Z</time>
      </trkpt>
      <trkpt lat="43.52663" lon="6.14934">
        <ele>170.77</ele>
        <time>2011-11-20T14:20:20Z</time>
      </trkpt>
      <trkpt lat="43.52667" lon="6.14935">
        <ele>170.29</ele>
        <time>2011-11-20T14:20:45Z</time>
      </trkpt>
      <trkpt lat="43.52668" lon="6.14934">
        <ele>170.29</ele>
        <time>2011-11-20T14:21:13Z</time>
      </trkpt>
      <trkpt lat="43.52668" lon="6.14934">
        <ele>170.29</ele>
        <time>2011-11-20T14:22:02Z</time>
      </trkpt>
      <trkpt lat="43.52669" lon="6.14934">
        <ele>170.77</ele>
        <time>2011-11-20T14:22:58Z</time>
      </trkpt>
      <trkpt lat="43.52676" lon="6.1493">
        <ele>171.25</ele>
        <time>2011-11-20T14:23:09Z</time>
      </trkpt>
      <trkpt lat="43.52683" lon="6.14926">
        <ele>171.25</ele>
        <time>2011-11-20T14:23:21Z</time>
      </trkpt>
      <trkpt lat="43.52691" lon="6.14925">
        <ele>171.73</ele>
        <time>2011-11-20T14:23:39Z</time>
      </trkpt>
      <trkpt lat="43.52691" lon="6.14925">
        <ele>171.73</ele>
        <time>2011-11-20T14:25:12Z</time>
      </trkpt>
      <trkpt lat="43.52693" lon="6.14926">
        <ele>173.17</ele>
        <time>2011-11-20T14:26:44Z</time>
      </trkpt>
      <trkpt lat="43.52698" lon="6.14932">
        <ele>171.73</ele>
        <time>2011-11-20T14:27:05Z</time>
      </trkpt>
      <trkpt lat="43.52703" lon="6.14935">
        <ele>171.73</ele>
        <time>2011-11-20T14:27:45Z</time>
      </trkpt>
    </trkseg>
  </trk>
</gpx>